<?xml version="1.0" encoding="UTF-8" standalone="no" ?>
<gpx xmlns="http://www.topografix.com/GPX/1/1" xmlns:xsi="http://www.w3.org/2001/XMLSchema-instance" xsi:schemaLocation="http://www.topografix.com/GPX/1/1 http://www.topografix.com/GPX/1/1/gpx.xsd" version="1.1" creator="VisuGPX - https://www.visugpx.com">
  <metadata>
    <name>DB Clem split</name>
  </metadata>
  <wpt lat="42.20966" lon="-1.51524">
    <ele>292.9</ele>
    <name><![CDATA[CP1]]></name>
  </wpt>
  <wpt lat="40.40677" lon="-1.44426">
    <ele>1162.2</ele>
    <name><![CDATA[CP2]]></name>
  </wpt>
  <wpt lat="37.54317" lon="-3.04779">
    <ele>794.7</ele>
    <name><![CDATA[CP3]]></name>
  </wpt>
  <wpt lat="37.04445" lon="-2.52483">
    <ele>472.4</ele>
    <name><![CDATA[CP4]]></name>
  </wpt>
  <trk>
    <name><![CDATA[DB Clem cp2]]></name>
    <trkseg>
      <trkpt lat="42.20966" lon="-1.51525">
        <ele>291.96578</ele>
        <time>2022-02-22T05:07:25.994Z</time>
      </trkpt>
      <trkpt lat="42.20946" lon="-1.51561">
        <ele>291.489461</ele>
        <time>2022-02-22T05:07:37.027Z</time>
      </trkpt>
      <trkpt lat="42.20932" lon="-1.51573">
        <ele>291.257352</ele>
        <time>2022-02-22T05:07:42.337Z</time>
      </trkpt>
      <trkpt lat="42.20902" lon="-1.51591">
        <ele>290.789878</ele>
        <time>2022-02-22T05:07:53.119Z</time>
      </trkpt>
      <trkpt lat="42.20874" lon="-1.51597">
        <ele>290.375857</ele>
        <time>2022-02-22T05:08:02.714Z</time>
      </trkpt>
      <trkpt lat="42.20606" lon="-1.51617">
        <ele>287.653333</ele>
        <time>2022-02-22T05:09:35.119Z</time>
      </trkpt>
      <trkpt lat="42.20519" lon="-1.51575">
        <ele>287.324705</ele>
        <time>2022-02-22T05:10:08.759Z</time>
      </trkpt>
      <trkpt lat="42.20491" lon="-1.51549">
        <ele>287.203548</ele>
        <time>2022-02-22T05:10:21.247Z</time>
      </trkpt>
      <trkpt lat="42.20457" lon="-1.51498">
        <ele>287.030698</ele>
        <time>2022-02-22T05:10:39.904Z</time>
      </trkpt>
      <trkpt lat="42.20442" lon="-1.51495">
        <ele>286.980114</ele>
        <time>2022-02-22T05:10:45.678Z</time>
      </trkpt>
      <trkpt lat="42.20306" lon="-1.51529">
        <ele>286.534801</ele>
        <time>2022-02-22T05:11:35.467Z</time>
      </trkpt>
      <trkpt lat="42.20271" lon="-1.51547">
        <ele>286.263626</ele>
        <time>2022-02-22T05:11:48.837Z</time>
      </trkpt>
      <trkpt lat="42.20232" lon="-1.51592">
        <ele>285.867734</ele>
        <time>2022-02-22T05:12:06.791Z</time>
      </trkpt>
      <trkpt lat="42.2012" lon="-1.51636">
        <ele>285.015834</ele>
        <time>2022-02-22T05:12:47.154Z</time>
      </trkpt>
      <trkpt lat="42.20069" lon="-1.51674">
        <ele>284.683064</ele>
        <time>2022-02-22T05:13:07.811Z</time>
      </trkpt>
      <trkpt lat="42.19985" lon="-1.51688">
        <ele>284.208074</ele>
        <time>2022-02-22T05:13:37.829Z</time>
      </trkpt>
      <trkpt lat="42.19711" lon="-1.51787">
        <ele>283.482394</ele>
        <time>2022-02-22T05:15:21.484Z</time>
      </trkpt>
      <trkpt lat="42.19628" lon="-1.51835">
        <ele>283.201588</ele>
        <time>2022-02-22T05:15:53.964Z</time>
      </trkpt>
      <trkpt lat="42.19561" lon="-1.51861">
        <ele>282.957067</ele>
        <time>2022-02-22T05:16:18.848Z</time>
      </trkpt>
      <trkpt lat="42.19448" lon="-1.51929">
        <ele>282.524175</ele>
        <time>2022-02-22T05:17:03.555Z</time>
      </trkpt>
      <trkpt lat="42.19346" lon="-1.5197">
        <ele>282.189769</ele>
        <time>2022-02-22T05:17:42.439Z</time>
      </trkpt>
      <trkpt lat="42.19296" lon="-1.51996">
        <ele>282.020647</ele>
        <time>2022-02-22T05:18:01.865Z</time>
      </trkpt>
      <trkpt lat="42.1922" lon="-1.52027">
        <ele>281.48296</ele>
        <time>2022-02-22T05:18:29.951Z</time>
      </trkpt>
      <trkpt lat="42.18942" lon="-1.52029">
        <ele>279.528884</ele>
        <time>2022-02-22T05:20:06.917Z</time>
      </trkpt>
      <trkpt lat="42.18928" lon="-1.52033">
        <ele>279.478609</ele>
        <time>2022-02-22T05:20:12.121Z</time>
      </trkpt>
      <trkpt lat="42.18876" lon="-1.52069">
        <ele>279.727315</ele>
        <time>2022-02-22T05:20:34.028Z</time>
      </trkpt>
      <trkpt lat="42.18806" lon="-1.52117">
        <ele>280.065185</ele>
        <time>2022-02-22T05:21:05.789Z</time>
      </trkpt>
      <trkpt lat="42.18776" lon="-1.52132">
        <ele>280.200179</ele>
        <time>2022-02-22T05:21:18.977Z</time>
      </trkpt>
      <trkpt lat="42.18659" lon="-1.52139">
        <ele>281.510134</ele>
        <time>2022-02-22T05:22:08.880Z</time>
      </trkpt>
      <trkpt lat="42.18636" lon="-1.52152">
        <ele>281.791569</ele>
        <time>2022-02-22T05:22:19.300Z</time>
      </trkpt>
      <trkpt lat="42.18608" lon="-1.52183">
        <ele>282.217281</ele>
        <time>2022-02-22T05:22:35.221Z</time>
      </trkpt>
      <trkpt lat="42.18567" lon="-1.52201">
        <ele>282.861478</ele>
        <time>2022-02-22T05:22:54.376Z</time>
      </trkpt>
      <trkpt lat="42.18545" lon="-1.522">
        <ele>283.19605</ele>
        <time>2022-02-22T05:23:03.866Z</time>
      </trkpt>
      <trkpt lat="42.18442" lon="-1.52171">
        <ele>284.844345</ele>
        <time>2022-02-22T05:23:51.479Z</time>
      </trkpt>
      <trkpt lat="42.18389" lon="-1.52169">
        <ele>285.78708</ele>
        <time>2022-02-22T05:24:15.470Z</time>
      </trkpt>
      <trkpt lat="42.18341" lon="-1.5219">
        <ele>286.743292</ele>
        <time>2022-02-22T05:24:38.911Z</time>
      </trkpt>
      <trkpt lat="42.1829" lon="-1.52205">
        <ele>287.731181</ele>
        <time>2022-02-22T05:25:03.201Z</time>
      </trkpt>
      <trkpt lat="42.18252" lon="-1.52204">
        <ele>288.444715</ele>
        <time>2022-02-22T05:25:20.818Z</time>
      </trkpt>
      <trkpt lat="42.18127" lon="-1.52127">
        <ele>292.114472</ele>
        <time>2022-02-22T05:26:29.055Z</time>
      </trkpt>
      <trkpt lat="42.18064" lon="-1.52109">
        <ele>293.97303</ele>
        <time>2022-02-22T05:27:03.463Z</time>
      </trkpt>
      <trkpt lat="42.18051" lon="-1.52111">
        <ele>294.41373</ele>
        <time>2022-02-22T05:27:10.368Z</time>
      </trkpt>
      <trkpt lat="42.18035" lon="-1.52116">
        <ele>294.997738</ele>
        <time>2022-02-22T05:27:20.043Z</time>
      </trkpt>
      <trkpt lat="42.17952" lon="-1.52175">
        <ele>298.226222</ele>
        <time>2022-02-22T05:28:11.189Z</time>
      </trkpt>
      <trkpt lat="42.17919" lon="-1.52221">
        <ele>299.856146</ele>
        <time>2022-02-22T05:28:38.051Z</time>
      </trkpt>
      <trkpt lat="42.17896" lon="-1.52278">
        <ele>301.427886</ele>
        <time>2022-02-22T05:29:02.562Z</time>
      </trkpt>
      <trkpt lat="42.17917" lon="-1.52328">
        <ele>302.817092</ele>
        <time>2022-02-22T05:29:18.696Z</time>
      </trkpt>
      <trkpt lat="42.17941" lon="-1.52429">
        <ele>305.380969</ele>
        <time>2022-02-22T05:29:49.676Z</time>
      </trkpt>
      <trkpt lat="42.18057" lon="-1.52753">
        <ele>315.266418</ele>
        <time>2022-02-22T05:31:44.552Z</time>
      </trkpt>
      <trkpt lat="42.18093" lon="-1.52955">
        <ele>318.587662</ele>
        <time>2022-02-22T05:32:42.193Z</time>
      </trkpt>
      <trkpt lat="42.18088" lon="-1.53033">
        <ele>318.743848</ele>
        <time>2022-02-22T05:32:55.885Z</time>
      </trkpt>
      <trkpt lat="42.18075" lon="-1.53068">
        <ele>318.824783</ele>
        <time>2022-02-22T05:33:02.074Z</time>
      </trkpt>
      <trkpt lat="42.18037" lon="-1.5314">
        <ele>317.822278</ele>
        <time>2022-02-22T05:33:14.295Z</time>
      </trkpt>
      <trkpt lat="42.17986" lon="-1.5324">
        <ele>314.791626</ele>
        <time>2022-02-22T05:33:29.913Z</time>
      </trkpt>
      <trkpt lat="42.17936" lon="-1.53311">
        <ele>312.361623</ele>
        <time>2022-02-22T05:33:42.600Z</time>
      </trkpt>
      <trkpt lat="42.17904" lon="-1.53344">
        <ele>311.090162</ele>
        <time>2022-02-22T05:33:49.713Z</time>
      </trkpt>
      <trkpt lat="42.17883" lon="-1.53359">
        <ele>310.344305</ele>
        <time>2022-02-22T05:33:53.908Z</time>
      </trkpt>
      <trkpt lat="42.17859" lon="-1.53362">
        <ele>309.597948</ele>
        <time>2022-02-22T05:33:58.133Z</time>
      </trkpt>
      <trkpt lat="42.17806" lon="-1.53352">
        <ele>307.903218</ele>
        <time>2022-02-22T05:34:07.853Z</time>
      </trkpt>
      <trkpt lat="42.17781" lon="-1.53353">
        <ele>307.13383</ele>
        <time>2022-02-22T05:34:12.479Z</time>
      </trkpt>
      <trkpt lat="42.17656" lon="-1.53401">
        <ele>304.09382</ele>
        <time>2022-02-22T05:34:37.430Z</time>
      </trkpt>
      <trkpt lat="42.17615" lon="-1.53425">
        <ele>303.077223</ele>
        <time>2022-02-22T05:34:45.772Z</time>
      </trkpt>
      <trkpt lat="42.176" lon="-1.53441">
        <ele>302.393606</ele>
        <time>2022-02-22T05:34:49.383Z</time>
      </trkpt>
      <trkpt lat="42.17569" lon="-1.5353">
        <ele>299.570027</ele>
        <time>2022-02-22T05:35:02.428Z</time>
      </trkpt>
      <trkpt lat="42.17552" lon="-1.53583">
        <ele>297.903554</ele>
        <time>2022-02-22T05:35:09.826Z</time>
      </trkpt>
      <trkpt lat="42.17548" lon="-1.53653">
        <ele>295.862908</ele>
        <time>2022-02-22T05:35:18.417Z</time>
      </trkpt>
      <trkpt lat="42.17548" lon="-1.53659">
        <ele>295.601824</ele>
        <time>2022-02-22T05:35:19.165Z</time>
      </trkpt>
      <trkpt lat="42.17545" lon="-1.53737">
        <ele>292.236524</ele>
        <time>2022-02-22T05:35:28.641Z</time>
      </trkpt>
      <trkpt lat="42.17524" lon="-1.5393">
        <ele>284.184477</ele>
        <time>2022-02-22T05:35:51.936Z</time>
      </trkpt>
      <trkpt lat="42.17526" lon="-1.53957">
        <ele>283.215504</ele>
        <time>2022-02-22T05:35:55.259Z</time>
      </trkpt>
      <trkpt lat="42.17548" lon="-1.53997">
        <ele>281.436794</ele>
        <time>2022-02-22T05:36:01.332Z</time>
      </trkpt>
      <trkpt lat="42.17638" lon="-1.54127">
        <ele>276.148174</ele>
        <time>2022-02-22T05:36:23.880Z</time>
      </trkpt>
      <trkpt lat="42.1767" lon="-1.54176">
        <ele>275.143874</ele>
        <time>2022-02-22T05:36:32.742Z</time>
      </trkpt>
      <trkpt lat="42.17673" lon="-1.54181">
        <ele>275.040968</ele>
        <time>2022-02-22T05:36:33.673Z</time>
      </trkpt>
      <trkpt lat="42.17713" lon="-1.54244">
        <ele>273.763933</ele>
        <time>2022-02-22T05:36:45.957Z</time>
      </trkpt>
      <trkpt lat="42.17721" lon="-1.54281">
        <ele>273.255447</ele>
        <time>2022-02-22T05:36:52.614Z</time>
      </trkpt>
      <trkpt lat="42.17719" lon="-1.54316">
        <ele>273.593408</ele>
        <time>2022-02-22T05:36:59.272Z</time>
      </trkpt>
      <trkpt lat="42.17697" lon="-1.54397">
        <ele>274.427829</ele>
        <time>2022-02-22T05:37:18.072Z</time>
      </trkpt>
      <trkpt lat="42.17676" lon="-1.54461">
        <ele>275.101295</ele>
        <time>2022-02-22T05:37:34.838Z</time>
      </trkpt>
      <trkpt lat="42.17622" lon="-1.54575">
        <ele>277.190083</ele>
        <time>2022-02-22T05:38:08.942Z</time>
      </trkpt>
      <trkpt lat="42.17592" lon="-1.54707">
        <ele>279.731497</ele>
        <time>2022-02-22T05:38:46.392Z</time>
      </trkpt>
      <trkpt lat="42.17579" lon="-1.54728">
        <ele>280.261808</ele>
        <time>2022-02-22T05:38:53.878Z</time>
      </trkpt>
      <trkpt lat="42.1755" lon="-1.54756">
        <ele>281.245468</ele>
        <time>2022-02-22T05:39:07.091Z</time>
      </trkpt>
      <trkpt lat="42.17529" lon="-1.54806">
        <ele>282.427007</ele>
        <time>2022-02-22T05:39:23.302Z</time>
      </trkpt>
      <trkpt lat="42.17426" lon="-1.5493">
        <ele>286.056824</ele>
        <time>2022-02-22T05:40:14.318Z</time>
      </trkpt>
      <trkpt lat="42.17402" lon="-1.54966">
        <ele>286.889081</ele>
        <time>2022-02-22T05:40:26.310Z</time>
      </trkpt>
      <trkpt lat="42.17377" lon="-1.55061">
        <ele>288.608875</ele>
        <time>2022-02-22T05:40:52.409Z</time>
      </trkpt>
      <trkpt lat="42.17342" lon="-1.5514">
        <ele>290.051536</ele>
        <time>2022-02-22T05:41:14.402Z</time>
      </trkpt>
      <trkpt lat="42.17335" lon="-1.5521">
        <ele>291.110414</ele>
        <time>2022-02-22T05:41:31.651Z</time>
      </trkpt>
      <trkpt lat="42.17316" lon="-1.55263">
        <ele>291.994884</ele>
        <time>2022-02-22T05:41:46.100Z</time>
      </trkpt>
      <trkpt lat="42.17305" lon="-1.55311">
        <ele>292.74439</ele>
        <time>2022-02-22T05:41:58.844Z</time>
      </trkpt>
      <trkpt lat="42.17283" lon="-1.5536">
        <ele>293.49335</ele>
        <time>2022-02-22T05:42:13.693Z</time>
      </trkpt>
      <trkpt lat="42.17256" lon="-1.55412">
        <ele>294.308374</ele>
        <time>2022-02-22T05:42:28.658Z</time>
      </trkpt>
      <trkpt lat="42.17245" lon="-1.55444">
        <ele>294.767782</ele>
        <time>2022-02-22T05:42:36.870Z</time>
      </trkpt>
      <trkpt lat="42.17228" lon="-1.55528">
        <ele>295.887264</ele>
        <time>2022-02-22T05:42:57.097Z</time>
      </trkpt>
      <trkpt lat="42.17167" lon="-1.55662">
        <ele>297.027806</ele>
        <time>2022-02-22T05:43:30.181Z</time>
      </trkpt>
      <trkpt lat="42.17099" lon="-1.55751">
        <ele>298.047901</ele>
        <time>2022-02-22T05:43:54.622Z</time>
      </trkpt>
      <trkpt lat="42.17052" lon="-1.55789">
        <ele>298.793437</ele>
        <time>2022-02-22T05:44:09.414Z</time>
      </trkpt>
      <trkpt lat="42.17029" lon="-1.55822">
        <ele>299.25797</ele>
        <time>2022-02-22T05:44:19.113Z</time>
      </trkpt>
      <trkpt lat="42.17015" lon="-1.55875">
        <ele>299.821013</ele>
        <time>2022-02-22T05:44:32.587Z</time>
      </trkpt>
      <trkpt lat="42.17014" lon="-1.55995">
        <ele>301.813947</ele>
        <time>2022-02-22T05:45:05.632Z</time>
      </trkpt>
      <trkpt lat="42.16995" lon="-1.56035">
        <ele>302.718576</ele>
        <time>2022-02-22T05:45:19.717Z</time>
      </trkpt>
      <trkpt lat="42.16967" lon="-1.56059">
        <ele>303.546293</ele>
        <time>2022-02-22T05:45:32.124Z</time>
      </trkpt>
      <trkpt lat="42.16897" lon="-1.56101">
        <ele>304.610154</ele>
        <time>2022-02-22T05:45:57.528Z</time>
      </trkpt>
      <trkpt lat="42.16869" lon="-1.56125">
        <ele>304.518559</ele>
        <time>2022-02-22T05:46:06.795Z</time>
      </trkpt>
      <trkpt lat="42.16825" lon="-1.56181">
        <ele>304.35472</ele>
        <time>2022-02-22T05:46:19.870Z</time>
      </trkpt>
      <trkpt lat="42.16817" lon="-1.56193">
        <ele>304.319502</ele>
        <time>2022-02-22T05:46:22.433Z</time>
      </trkpt>
      <trkpt lat="42.16812" lon="-1.562">
        <ele>304.301029</ele>
        <time>2022-02-22T05:46:23.731Z</time>
      </trkpt>
      <trkpt lat="42.16787" lon="-1.56239">
        <ele>304.130238</ele>
        <time>2022-02-22T05:46:30.973Z</time>
      </trkpt>
      <trkpt lat="42.16767" lon="-1.56284">
        <ele>303.000031</ele>
        <time>2022-02-22T05:46:38.164Z</time>
      </trkpt>
      <trkpt lat="42.16689" lon="-1.56473">
        <ele>298.350713</ele>
        <time>2022-02-22T05:47:07.050Z</time>
      </trkpt>
      <trkpt lat="42.16646" lon="-1.56543">
        <ele>296.307044</ele>
        <time>2022-02-22T05:47:19.341Z</time>
      </trkpt>
      <trkpt lat="42.16596" lon="-1.56526">
        <ele>294.727639</ele>
        <time>2022-02-22T05:47:35.456Z</time>
      </trkpt>
      <trkpt lat="42.16557" lon="-1.56523">
        <ele>293.504284</ele>
        <time>2022-02-22T05:47:47.766Z</time>
      </trkpt>
      <trkpt lat="42.16348" lon="-1.56529">
        <ele>286.005413</ele>
        <time>2022-02-22T05:48:50.388Z</time>
      </trkpt>
      <trkpt lat="42.16288" lon="-1.56527">
        <ele>284.208171</ele>
        <time>2022-02-22T05:49:08.890Z</time>
      </trkpt>
      <trkpt lat="42.16155" lon="-1.56546">
        <ele>280.187634</ele>
        <time>2022-02-22T05:49:51.204Z</time>
      </trkpt>
      <trkpt lat="42.16147" lon="-1.5654">
        <ele>279.907615</ele>
        <time>2022-02-22T05:49:54.036Z</time>
      </trkpt>
      <trkpt lat="42.16104" lon="-1.56466">
        <ele>277.745779</ele>
        <time>2022-02-22T05:50:15.910Z</time>
      </trkpt>
      <trkpt lat="42.16098" lon="-1.56462">
        <ele>277.520856</ele>
        <time>2022-02-22T05:50:17.991Z</time>
      </trkpt>
      <trkpt lat="42.15988" lon="-1.56462">
        <ele>273.584937</ele>
        <time>2022-02-22T05:50:50.695Z</time>
      </trkpt>
      <trkpt lat="42.15904" lon="-1.56454">
        <ele>270.240617</ele>
        <time>2022-02-22T05:51:15.332Z</time>
      </trkpt>
      <trkpt lat="42.15868" lon="-1.56467">
        <ele>268.768082</ele>
        <time>2022-02-22T05:51:26.563Z</time>
      </trkpt>
      <trkpt lat="42.15831" lon="-1.56498">
        <ele>267.717345</ele>
        <time>2022-02-22T05:51:40.144Z</time>
      </trkpt>
      <trkpt lat="42.15735" lon="-1.56534">
        <ele>265.318516</ele>
        <time>2022-02-22T05:52:11.919Z</time>
      </trkpt>
      <trkpt lat="42.15726" lon="-1.5655">
        <ele>264.972597</ele>
        <time>2022-02-22T05:52:16.827Z</time>
      </trkpt>
      <trkpt lat="42.1572" lon="-1.56618">
        <ele>264.126152</ele>
        <time>2022-02-22T05:52:34.227Z</time>
      </trkpt>
      <trkpt lat="42.15603" lon="-1.56692">
        <ele>262.665561</ele>
        <time>2022-02-22T05:53:18.279Z</time>
      </trkpt>
      <trkpt lat="42.15166" lon="-1.57029">
        <ele>259.411952</ele>
        <time>2022-02-22T05:56:16.110Z</time>
      </trkpt>
      <trkpt lat="42.15159" lon="-1.57033">
        <ele>259.375368</ele>
        <time>2022-02-22T05:56:18.841Z</time>
      </trkpt>
      <trkpt lat="42.14318" lon="-1.57689">
        <ele>257.758281</ele>
        <time>2022-02-22T06:02:14.792Z</time>
      </trkpt>
      <trkpt lat="42.13905" lon="-1.58008">
        <ele>257.807453</ele>
        <time>2022-02-22T06:05:11.311Z</time>
      </trkpt>
      <trkpt lat="42.13486" lon="-1.58335">
        <ele>257.872464</ele>
        <time>2022-02-22T06:08:11.675Z</time>
      </trkpt>
      <trkpt lat="42.13424" lon="-1.58383">
        <ele>257.794165</ele>
        <time>2022-02-22T06:08:37.544Z</time>
      </trkpt>
      <trkpt lat="42.13386" lon="-1.58413">
        <ele>257.739309</ele>
        <time>2022-02-22T06:08:53.718Z</time>
      </trkpt>
      <trkpt lat="42.13378" lon="-1.5841">
        <ele>257.727418</ele>
        <time>2022-02-22T06:08:55.561Z</time>
      </trkpt>
      <trkpt lat="42.12028" lon="-1.58048">
        <ele>255.897745</ele>
        <time>2022-02-22T06:13:56.040Z</time>
      </trkpt>
      <trkpt lat="42.11469" lon="-1.57898">
        <ele>256.510884</ele>
        <time>2022-02-22T06:16:06.546Z</time>
      </trkpt>
      <trkpt lat="42.11451" lon="-1.57893">
        <ele>256.489102</ele>
        <time>2022-02-22T06:16:10.624Z</time>
      </trkpt>
      <trkpt lat="42.11447" lon="-1.57892">
        <ele>256.481816</ele>
        <time>2022-02-22T06:16:11.434Z</time>
      </trkpt>
      <trkpt lat="42.11419" lon="-1.57884">
        <ele>256.425051</ele>
        <time>2022-02-22T06:16:17.795Z</time>
      </trkpt>
      <trkpt lat="42.1141" lon="-1.57881">
        <ele>256.407842</ele>
        <time>2022-02-22T06:16:19.732Z</time>
      </trkpt>
      <trkpt lat="42.11407" lon="-1.58081">
        <ele>256.120496</ele>
        <time>2022-02-22T06:17:13.618Z</time>
      </trkpt>
      <trkpt lat="42.11399" lon="-1.58242">
        <ele>255.890836</ele>
        <time>2022-02-22T06:17:57.027Z</time>
      </trkpt>
      <trkpt lat="42.11381" lon="-1.58411">
        <ele>255.809487</ele>
        <time>2022-02-22T06:18:44.080Z</time>
      </trkpt>
      <trkpt lat="42.11377" lon="-1.58516">
        <ele>255.800693</ele>
        <time>2022-02-22T06:19:12.771Z</time>
      </trkpt>
      <trkpt lat="42.11363" lon="-1.58631">
        <ele>255.771435</ele>
        <time>2022-02-22T06:19:44.866Z</time>
      </trkpt>
      <trkpt lat="42.11354" lon="-1.58758">
        <ele>255.736235</ele>
        <time>2022-02-22T06:20:19.742Z</time>
      </trkpt>
      <trkpt lat="42.11333" lon="-1.5881">
        <ele>255.726667</ele>
        <time>2022-02-22T06:20:36.117Z</time>
      </trkpt>
      <trkpt lat="42.11282" lon="-1.58863">
        <ele>255.715732</ele>
        <time>2022-02-22T06:21:00.191Z</time>
      </trkpt>
      <trkpt lat="42.11233" lon="-1.58944">
        <ele>255.702584</ele>
        <time>2022-02-22T06:21:28.776Z</time>
      </trkpt>
      <trkpt lat="42.11206" lon="-1.58974">
        <ele>255.644224</ele>
        <time>2022-02-22T06:21:41.533Z</time>
      </trkpt>
      <trkpt lat="42.11183" lon="-1.59019">
        <ele>255.567102</ele>
        <time>2022-02-22T06:21:56.452Z</time>
      </trkpt>
      <trkpt lat="42.1115" lon="-1.59065">
        <ele>255.476444</ele>
        <time>2022-02-22T06:22:13.938Z</time>
      </trkpt>
      <trkpt lat="42.11118" lon="-1.59052">
        <ele>255.413403</ele>
        <time>2022-02-22T06:22:26.010Z</time>
      </trkpt>
      <trkpt lat="42.11096" lon="-1.59063">
        <ele>255.369081</ele>
        <time>2022-02-22T06:22:34.482Z</time>
      </trkpt>
      <trkpt lat="42.11075" lon="-1.59092">
        <ele>255.324535</ele>
        <time>2022-02-22T06:22:45.393Z</time>
      </trkpt>
      <trkpt lat="42.11031" lon="-1.59092">
        <ele>255.262782</ele>
        <time>2022-02-22T06:23:01.360Z</time>
      </trkpt>
      <trkpt lat="42.10971" lon="-1.59107">
        <ele>255.177397</ele>
        <time>2022-02-22T06:23:23.551Z</time>
      </trkpt>
      <trkpt lat="42.10851" lon="-1.59181">
        <ele>255.170403</ele>
        <time>2022-02-22T06:24:12.891Z</time>
      </trkpt>
      <trkpt lat="42.10738" lon="-1.59231">
        <ele>255.250838</ele>
        <time>2022-02-22T06:24:57.795Z</time>
      </trkpt>
      <trkpt lat="42.10175" lon="-1.59007">
        <ele>255.178293</ele>
        <time>2022-02-22T06:28:35.656Z</time>
      </trkpt>
      <trkpt lat="42.09874" lon="-1.5898">
        <ele>253.88512</ele>
        <time>2022-02-22T06:30:23.471Z</time>
      </trkpt>
      <trkpt lat="42.09708" lon="-1.58983">
        <ele>253.111604</ele>
        <time>2022-02-22T06:31:22.461Z</time>
      </trkpt>
      <trkpt lat="42.09679" lon="-1.59">
        <ele>253.227353</ele>
        <time>2022-02-22T06:31:33.792Z</time>
      </trkpt>
      <trkpt lat="42.09536" lon="-1.59042">
        <ele>253.883994</ele>
        <time>2022-02-22T06:32:32.871Z</time>
      </trkpt>
      <trkpt lat="42.09488" lon="-1.59072">
        <ele>254.11802</ele>
        <time>2022-02-22T06:32:54.258Z</time>
      </trkpt>
      <trkpt lat="42.09475" lon="-1.5908">
        <ele>254.181627</ele>
        <time>2022-02-22T06:33:00.194Z</time>
      </trkpt>
      <trkpt lat="42.09436" lon="-1.59066">
        <ele>254.357478</ele>
        <time>2022-02-22T06:33:16.015Z</time>
      </trkpt>
      <trkpt lat="42.09414" lon="-1.59047">
        <ele>254.473619</ele>
        <time>2022-02-22T06:33:26.510Z</time>
      </trkpt>
      <trkpt lat="42.09401" lon="-1.59043">
        <ele>254.52957</ele>
        <time>2022-02-22T06:33:31.430Z</time>
      </trkpt>
      <trkpt lat="42.09391" lon="-1.59082">
        <ele>254.66448</ele>
        <time>2022-02-22T06:33:43.522Z</time>
      </trkpt>
      <trkpt lat="42.09315" lon="-1.59348">
        <ele>254.637357</ele>
        <time>2022-02-22T06:35:01.330Z</time>
      </trkpt>
      <trkpt lat="42.09294" lon="-1.5947">
        <ele>254.647784</ele>
        <time>2022-02-22T06:35:36.183Z</time>
      </trkpt>
      <trkpt lat="42.09278" lon="-1.59534">
        <ele>254.653436</ele>
        <time>2022-02-22T06:35:55.072Z</time>
      </trkpt>
      <trkpt lat="42.09245" lon="-1.59775">
        <ele>254.591649</ele>
        <time>2022-02-22T06:37:02.362Z</time>
      </trkpt>
      <trkpt lat="42.09237" lon="-1.59793">
        <ele>254.580624</ele>
        <time>2022-02-22T06:37:07.815Z</time>
      </trkpt>
      <trkpt lat="42.09222" lon="-1.59809">
        <ele>254.553554</ele>
        <time>2022-02-22T06:37:14.850Z</time>
      </trkpt>
      <trkpt lat="42.09079" lon="-1.59918">
        <ele>254.327737</ele>
        <time>2022-02-22T06:38:14.693Z</time>
      </trkpt>
      <trkpt lat="42.08844" lon="-1.60088">
        <ele>253.998991</ele>
        <time>2022-02-22T06:39:53.169Z</time>
      </trkpt>
      <trkpt lat="42.08829" lon="-1.6009">
        <ele>253.970847</ele>
        <time>2022-02-22T06:39:58.777Z</time>
      </trkpt>
      <trkpt lat="42.08768" lon="-1.6007">
        <ele>253.856632</ele>
        <time>2022-02-22T06:40:21.329Z</time>
      </trkpt>
      <trkpt lat="42.08645" lon="-1.60064">
        <ele>253.803504</ele>
        <time>2022-02-22T06:41:06.133Z</time>
      </trkpt>
      <trkpt lat="42.0861" lon="-1.60052">
        <ele>253.79047</ele>
        <time>2022-02-22T06:41:19.716Z</time>
      </trkpt>
      <trkpt lat="42.08579" lon="-1.60027">
        <ele>253.846017</ele>
        <time>2022-02-22T06:41:33.870Z</time>
      </trkpt>
      <trkpt lat="42.08501" lon="-1.59936">
        <ele>254.555635</ele>
        <time>2022-02-22T06:42:15.627Z</time>
      </trkpt>
      <trkpt lat="42.08441" lon="-1.59898">
        <ele>255.010482</ele>
        <time>2022-02-22T06:42:43.097Z</time>
      </trkpt>
      <trkpt lat="42.08395" lon="-1.59891">
        <ele>255.232884</ele>
        <time>2022-02-22T06:43:01.703Z</time>
      </trkpt>
      <trkpt lat="42.08351" lon="-1.59853">
        <ele>255.483119</ele>
        <time>2022-02-22T06:43:23.013Z</time>
      </trkpt>
      <trkpt lat="42.08315" lon="-1.59841">
        <ele>255.658765</ele>
        <time>2022-02-22T06:43:38.026Z</time>
      </trkpt>
      <trkpt lat="42.08274" lon="-1.59764">
        <ele>255.76495</ele>
        <time>2022-02-22T06:44:04.382Z</time>
      </trkpt>
      <trkpt lat="42.08196" lon="-1.59702">
        <ele>255.365983</ele>
        <time>2022-02-22T06:44:36.571Z</time>
      </trkpt>
      <trkpt lat="42.08133" lon="-1.59665">
        <ele>255.048092</ele>
        <time>2022-02-22T06:45:00.940Z</time>
      </trkpt>
      <trkpt lat="42.08104" lon="-1.59656">
        <ele>254.842892</ele>
        <time>2022-02-22T06:45:11.370Z</time>
      </trkpt>
      <trkpt lat="42.08036" lon="-1.59649">
        <ele>254.377805</ele>
        <time>2022-02-22T06:45:34.775Z</time>
      </trkpt>
      <trkpt lat="42.07985" lon="-1.59673">
        <ele>254.004606</ele>
        <time>2022-02-22T06:45:53.807Z</time>
      </trkpt>
      <trkpt lat="42.07971" lon="-1.59688">
        <ele>253.881554</ele>
        <time>2022-02-22T06:46:00.248Z</time>
      </trkpt>
      <trkpt lat="42.07946" lon="-1.59732">
        <ele>253.707687</ele>
        <time>2022-02-22T06:46:15.266Z</time>
      </trkpt>
      <trkpt lat="42.07902" lon="-1.5978">
        <ele>253.499466</ele>
        <time>2022-02-22T06:46:35.557Z</time>
      </trkpt>
      <trkpt lat="42.07881" lon="-1.59793">
        <ele>253.413082</ele>
        <time>2022-02-22T06:46:43.927Z</time>
      </trkpt>
      <trkpt lat="42.07838" lon="-1.59804">
        <ele>253.248659</ele>
        <time>2022-02-22T06:46:59.746Z</time>
      </trkpt>
      <trkpt lat="42.07683" lon="-1.59816">
        <ele>252.993152</ele>
        <time>2022-02-22T06:47:56.221Z</time>
      </trkpt>
      <trkpt lat="42.07642" lon="-1.59821">
        <ele>252.938594</ele>
        <time>2022-02-22T06:48:11.779Z</time>
      </trkpt>
      <trkpt lat="42.075" lon="-1.59865">
        <ele>253.48159</ele>
        <time>2022-02-22T06:49:09.225Z</time>
      </trkpt>
      <trkpt lat="42.07443" lon="-1.59877">
        <ele>253.642832</ele>
        <time>2022-02-22T06:49:31.580Z</time>
      </trkpt>
      <trkpt lat="42.07299" lon="-1.59882">
        <ele>253.731757</ele>
        <time>2022-02-22T06:50:25.008Z</time>
      </trkpt>
      <trkpt lat="42.07189" lon="-1.599">
        <ele>253.651255</ele>
        <time>2022-02-22T06:51:05.466Z</time>
      </trkpt>
      <trkpt lat="42.07092" lon="-1.59947">
        <ele>253.60964</ele>
        <time>2022-02-22T06:51:43.628Z</time>
      </trkpt>
      <trkpt lat="42.06975" lon="-1.59992">
        <ele>253.910292</ele>
        <time>2022-02-22T06:52:30.013Z</time>
      </trkpt>
      <trkpt lat="42.06931" lon="-1.60007">
        <ele>254.031475</ele>
        <time>2022-02-22T06:52:47.992Z</time>
      </trkpt>
      <trkpt lat="42.06891" lon="-1.60032">
        <ele>254.214367</ele>
        <time>2022-02-22T06:53:05.368Z</time>
      </trkpt>
      <trkpt lat="42.06869" lon="-1.60036">
        <ele>254.309194</ele>
        <time>2022-02-22T06:53:14.358Z</time>
      </trkpt>
      <trkpt lat="42.06733" lon="-1.60046">
        <ele>254.792555</ele>
        <time>2022-02-22T06:54:07.395Z</time>
      </trkpt>
      <trkpt lat="42.06698" lon="-1.60024">
        <ele>254.829482</ele>
        <time>2022-02-22T06:54:21.772Z</time>
      </trkpt>
      <trkpt lat="42.0669" lon="-1.60024">
        <ele>254.837436</ele>
        <time>2022-02-22T06:54:24.986Z</time>
      </trkpt>
      <trkpt lat="42.06684" lon="-1.6004">
        <ele>254.850494</ele>
        <time>2022-02-22T06:54:27.871Z</time>
      </trkpt>
      <trkpt lat="42.06566" lon="-1.60303">
        <ele>255.510349</ele>
        <time>2022-02-22T06:55:18.999Z</time>
      </trkpt>
      <trkpt lat="42.06542" lon="-1.60345">
        <ele>255.675423</ele>
        <time>2022-02-22T06:55:29.768Z</time>
      </trkpt>
      <trkpt lat="42.06533" lon="-1.6035">
        <ele>255.808762</ele>
        <time>2022-02-22T06:55:32.724Z</time>
      </trkpt>
      <trkpt lat="42.06515" lon="-1.60331">
        <ele>256.43621</ele>
        <time>2022-02-22T06:55:39.154Z</time>
      </trkpt>
      <trkpt lat="42.06463" lon="-1.60277">
        <ele>258.250277</ele>
        <time>2022-02-22T06:56:00.557Z</time>
      </trkpt>
      <trkpt lat="42.06354" lon="-1.60161">
        <ele>262.731032</ele>
        <time>2022-02-22T06:56:58.769Z</time>
      </trkpt>
      <trkpt lat="42.06337" lon="-1.60152">
        <ele>263.475831</ele>
        <time>2022-02-22T06:57:06.577Z</time>
      </trkpt>
      <trkpt lat="42.0633" lon="-1.60155">
        <ele>263.77251</ele>
        <time>2022-02-22T06:57:09.816Z</time>
      </trkpt>
      <trkpt lat="42.0632" lon="-1.60175">
        <ele>264.514718</ele>
        <time>2022-02-22T06:57:17.295Z</time>
      </trkpt>
      <trkpt lat="42.06292" lon="-1.60235">
        <ele>266.641442</ele>
        <time>2022-02-22T06:57:40.715Z</time>
      </trkpt>
      <trkpt lat="42.06265" lon="-1.60304">
        <ele>268.678944</ele>
        <time>2022-02-22T06:58:04.645Z</time>
      </trkpt>
      <trkpt lat="42.06255" lon="-1.60315">
        <ele>269.043576</ele>
        <time>2022-02-22T06:58:10.063Z</time>
      </trkpt>
      <trkpt lat="42.06257" lon="-1.60324">
        <ele>269.259935</ele>
        <time>2022-02-22T06:58:12.766Z</time>
      </trkpt>
      <trkpt lat="42.06251" lon="-1.60333">
        <ele>269.517189</ele>
        <time>2022-02-22T06:58:16.218Z</time>
      </trkpt>
      <trkpt lat="42.06241" lon="-1.60325">
        <ele>269.861912</ele>
        <time>2022-02-22T06:58:21.560Z</time>
      </trkpt>
      <trkpt lat="42.06215" lon="-1.60319">
        <ele>270.634195</ele>
        <time>2022-02-22T06:58:31.306Z</time>
      </trkpt>
      <trkpt lat="42.06204" lon="-1.60309">
        <ele>271.031651</ele>
        <time>2022-02-22T06:58:36.811Z</time>
      </trkpt>
      <trkpt lat="42.06141" lon="-1.60252">
        <ele>273.194674</ele>
        <time>2022-02-22T06:59:01.080Z</time>
      </trkpt>
      <trkpt lat="42.0613" lon="-1.60243">
        <ele>273.397869</ele>
        <time>2022-02-22T06:59:04.630Z</time>
      </trkpt>
      <trkpt lat="42.06077" lon="-1.60198">
        <ele>274.367261</ele>
        <time>2022-02-22T06:59:24.240Z</time>
      </trkpt>
      <trkpt lat="42.06051" lon="-1.60173">
        <ele>274.861472</ele>
        <time>2022-02-22T06:59:33.759Z</time>
      </trkpt>
      <trkpt lat="42.06046" lon="-1.60169">
        <ele>274.955653</ele>
        <time>2022-02-22T06:59:35.729Z</time>
      </trkpt>
      <trkpt lat="42.05969" lon="-1.60104">
        <ele>275.952331</ele>
        <time>2022-02-22T07:00:02.099Z</time>
      </trkpt>
      <trkpt lat="42.05921" lon="-1.60064">
        <ele>275.950202</ele>
        <time>2022-02-22T07:00:16.167Z</time>
      </trkpt>
      <trkpt lat="42.05861" lon="-1.60009">
        <ele>275.947501</ele>
        <time>2022-02-22T07:00:31.268Z</time>
      </trkpt>
      <trkpt lat="42.05834" lon="-1.59985">
        <ele>275.803273</ele>
        <time>2022-02-22T07:00:37.558Z</time>
      </trkpt>
      <trkpt lat="42.05829" lon="-1.59992">
        <ele>275.673877</ele>
        <time>2022-02-22T07:00:39.089Z</time>
      </trkpt>
      <trkpt lat="42.05822" lon="-1.5999">
        <ele>275.542715</ele>
        <time>2022-02-22T07:00:40.468Z</time>
      </trkpt>
      <trkpt lat="42.0582" lon="-1.59987">
        <ele>275.478639</ele>
        <time>2022-02-22T07:00:41.138Z</time>
      </trkpt>
      <trkpt lat="42.05821" lon="-1.59972">
        <ele>275.268383</ele>
        <time>2022-02-22T07:00:43.265Z</time>
      </trkpt>
      <trkpt lat="42.05833" lon="-1.59973">
        <ele>275.044363</ele>
        <time>2022-02-22T07:00:45.675Z</time>
      </trkpt>
      <trkpt lat="42.05838" lon="-1.59967">
        <ele>274.933924</ele>
        <time>2022-02-22T07:00:46.816Z</time>
      </trkpt>
      <trkpt lat="42.05759" lon="-1.59858">
        <ele>272.86243</ele>
        <time>2022-02-22T07:01:07.037Z</time>
      </trkpt>
      <trkpt lat="42.05662" lon="-1.59751">
        <ele>271.258844</ele>
        <time>2022-02-22T07:01:30.854Z</time>
      </trkpt>
      <trkpt lat="42.05653" lon="-1.59751">
        <ele>271.157193</ele>
        <time>2022-02-22T07:01:32.592Z</time>
      </trkpt>
      <trkpt lat="42.05651" lon="-1.59741">
        <ele>271.061879</ele>
        <time>2022-02-22T07:01:34.210Z</time>
      </trkpt>
      <trkpt lat="42.05655" lon="-1.59735">
        <ele>270.995928</ele>
        <time>2022-02-22T07:01:35.298Z</time>
      </trkpt>
      <trkpt lat="42.05642" lon="-1.59684">
        <ele>270.50128</ele>
        <time>2022-02-22T07:01:43.779Z</time>
      </trkpt>
      <trkpt lat="42.05633" lon="-1.59653">
        <ele>270.342316</ele>
        <time>2022-02-22T07:01:49.076Z</time>
      </trkpt>
      <trkpt lat="42.05595" lon="-1.59592">
        <ele>270.029136</ele>
        <time>2022-02-22T07:02:01.406Z</time>
      </trkpt>
      <trkpt lat="42.0559" lon="-1.59585">
        <ele>269.993679</ele>
        <time>2022-02-22T07:02:02.857Z</time>
      </trkpt>
      <trkpt lat="42.05565" lon="-1.59531">
        <ele>269.739558</ele>
        <time>2022-02-22T07:02:13.109Z</time>
      </trkpt>
      <trkpt lat="42.05507" lon="-1.59416">
        <ele>268.832564</ele>
        <time>2022-02-22T07:02:34.093Z</time>
      </trkpt>
      <trkpt lat="42.05473" lon="-1.59354">
        <ele>268.173047</ele>
        <time>2022-02-22T07:02:45.029Z</time>
      </trkpt>
      <trkpt lat="42.05439" lon="-1.59306">
        <ele>267.607033</ele>
        <time>2022-02-22T07:02:54.354Z</time>
      </trkpt>
      <trkpt lat="42.05433" lon="-1.59289">
        <ele>267.444743</ele>
        <time>2022-02-22T07:02:57.080Z</time>
      </trkpt>
      <trkpt lat="42.05428" lon="-1.59273">
        <ele>267.323299</ele>
        <time>2022-02-22T07:02:59.534Z</time>
      </trkpt>
      <trkpt lat="42.0531" lon="-1.59169">
        <ele>266.055794</ele>
        <time>2022-02-22T07:03:48.350Z</time>
      </trkpt>
      <trkpt lat="42.05255" lon="-1.59152">
        <ele>265.913919</ele>
        <time>2022-02-22T07:04:08.377Z</time>
      </trkpt>
      <trkpt lat="42.052" lon="-1.59147">
        <ele>266.119738</ele>
        <time>2022-02-22T07:04:28.897Z</time>
      </trkpt>
      <trkpt lat="42.05146" lon="-1.59153">
        <ele>266.321656</ele>
        <time>2022-02-22T07:04:50.645Z</time>
      </trkpt>
      <trkpt lat="42.05085" lon="-1.59173">
        <ele>266.794012</ele>
        <time>2022-02-22T07:05:17.577Z</time>
      </trkpt>
      <trkpt lat="42.05024" lon="-1.59209">
        <ele>267.816343</ele>
        <time>2022-02-22T07:05:47.362Z</time>
      </trkpt>
      <trkpt lat="42.04965" lon="-1.59264">
        <ele>268.928732</ele>
        <time>2022-02-22T07:06:20.111Z</time>
      </trkpt>
      <trkpt lat="42.0492" lon="-1.59325">
        <ele>269.845947</ele>
        <time>2022-02-22T07:06:49.578Z</time>
      </trkpt>
      <trkpt lat="42.04849" lon="-1.59463">
        <ele>271.568142</ele>
        <time>2022-02-22T07:07:44.846Z</time>
      </trkpt>
      <trkpt lat="42.04832" lon="-1.59498">
        <ele>271.811246</ele>
        <time>2022-02-22T07:07:57.575Z</time>
      </trkpt>
      <trkpt lat="42.04637" lon="-1.59868">
        <ele>273.133554</ele>
        <time>2022-02-22T07:09:25.167Z</time>
      </trkpt>
      <trkpt lat="42.04138" lon="-1.60828">
        <ele>283.515703</ele>
        <time>2022-02-22T07:13:53.131Z</time>
      </trkpt>
      <trkpt lat="42.04061" lon="-1.60977">
        <ele>285.17598</ele>
        <time>2022-02-22T07:14:34.499Z</time>
      </trkpt>
      <trkpt lat="42.03537" lon="-1.61982">
        <ele>295.780483</ele>
        <time>2022-02-22T07:19:15.046Z</time>
      </trkpt>
      <trkpt lat="42.03483" lon="-1.62086">
        <ele>296.475983</ele>
        <time>2022-02-22T07:19:39.525Z</time>
      </trkpt>
      <trkpt lat="42.03463" lon="-1.62128">
        <ele>296.662283</ele>
        <time>2022-02-22T07:19:49.013Z</time>
      </trkpt>
      <trkpt lat="42.0344" lon="-1.62173">
        <ele>296.869535</ele>
        <time>2022-02-22T07:19:58.999Z</time>
      </trkpt>
      <trkpt lat="42.03419" lon="-1.6221">
        <ele>297.045727</ele>
        <time>2022-02-22T07:20:08.303Z</time>
      </trkpt>
      <trkpt lat="42.03243" lon="-1.62545">
        <ele>299.864699</ele>
        <time>2022-02-22T07:21:39.706Z</time>
      </trkpt>
      <trkpt lat="42.03194" lon="-1.62649">
        <ele>300.683717</ele>
        <time>2022-02-22T07:22:06.024Z</time>
      </trkpt>
      <trkpt lat="42.03185" lon="-1.62664">
        <ele>300.789699</ele>
        <time>2022-02-22T07:22:11.824Z</time>
      </trkpt>
      <trkpt lat="42.03125" lon="-1.62771">
        <ele>301.523084</ele>
        <time>2022-02-22T07:22:39.859Z</time>
      </trkpt>
      <trkpt lat="42.02707" lon="-1.63577">
        <ele>307.095307</ele>
        <time>2022-02-22T07:26:08.088Z</time>
      </trkpt>
      <trkpt lat="42.02688" lon="-1.63613">
        <ele>307.342949</ele>
        <time>2022-02-22T07:26:17.373Z</time>
      </trkpt>
      <trkpt lat="42.02633" lon="-1.63718">
        <ele>308.185252</ele>
        <time>2022-02-22T07:26:44.895Z</time>
      </trkpt>
      <trkpt lat="42.02525" lon="-1.63926">
        <ele>310.059343</ele>
        <time>2022-02-22T07:27:40.967Z</time>
      </trkpt>
      <trkpt lat="42.02311" lon="-1.64336">
        <ele>314.006552</ele>
        <time>2022-02-22T07:29:33.711Z</time>
      </trkpt>
      <trkpt lat="42.02093" lon="-1.64756">
        <ele>317.407859</ele>
        <time>2022-02-22T07:31:24.502Z</time>
      </trkpt>
      <trkpt lat="42.0194" lon="-1.65048">
        <ele>319.37208</ele>
        <time>2022-02-22T07:32:39.107Z</time>
      </trkpt>
      <trkpt lat="42.01903" lon="-1.65104">
        <ele>319.946018</ele>
        <time>2022-02-22T07:32:55.030Z</time>
      </trkpt>
      <trkpt lat="42.01102" lon="-1.65921">
        <ele>330.402175</ele>
        <time>2022-02-22T07:37:56.350Z</time>
      </trkpt>
      <trkpt lat="42.00827" lon="-1.66201">
        <ele>335.318549</ele>
        <time>2022-02-22T07:39:47.388Z</time>
      </trkpt>
      <trkpt lat="41.9991" lon="-1.67133">
        <ele>345.42332</ele>
        <time>2022-02-22T07:45:20.624Z</time>
      </trkpt>
      <trkpt lat="41.99873" lon="-1.67163">
        <ele>345.819449</ele>
        <time>2022-02-22T07:45:33.001Z</time>
      </trkpt>
      <trkpt lat="41.99802" lon="-1.67204">
        <ele>346.52546</ele>
        <time>2022-02-22T07:45:55.592Z</time>
      </trkpt>
      <trkpt lat="41.99477" lon="-1.67336">
        <ele>351.056884</ele>
        <time>2022-02-22T07:47:43.298Z</time>
      </trkpt>
      <trkpt lat="41.99208" lon="-1.67449">
        <ele>353.84598</ele>
        <time>2022-02-22T07:49:06.638Z</time>
      </trkpt>
      <trkpt lat="41.99159" lon="-1.67465">
        <ele>354.290701</ele>
        <time>2022-02-22T07:49:20.809Z</time>
      </trkpt>
      <trkpt lat="41.99108" lon="-1.67471">
        <ele>354.753221</ele>
        <time>2022-02-22T07:49:35.874Z</time>
      </trkpt>
      <trkpt lat="41.99037" lon="-1.67463">
        <ele>355.730242</ele>
        <time>2022-02-22T07:49:56.972Z</time>
      </trkpt>
      <trkpt lat="41.98605" lon="-1.67304">
        <ele>361.890199</ele>
        <time>2022-02-22T07:52:21.207Z</time>
      </trkpt>
      <trkpt lat="41.98532" lon="-1.67291">
        <ele>362.640144</ele>
        <time>2022-02-22T07:52:42.327Z</time>
      </trkpt>
      <trkpt lat="41.98444" lon="-1.67294">
        <ele>363.418057</ele>
        <time>2022-02-22T07:53:06.999Z</time>
      </trkpt>
      <trkpt lat="41.98167" lon="-1.67352">
        <ele>366.478461</ele>
        <time>2022-02-22T07:54:31.653Z</time>
      </trkpt>
      <trkpt lat="41.97548" lon="-1.67479">
        <ele>374.081589</ele>
        <time>2022-02-22T07:57:45.355Z</time>
      </trkpt>
      <trkpt lat="41.9747" lon="-1.67489">
        <ele>374.926066</ele>
        <time>2022-02-22T07:58:08.350Z</time>
      </trkpt>
      <trkpt lat="41.97396" lon="-1.67475">
        <ele>375.681316</ele>
        <time>2022-02-22T07:58:30.187Z</time>
      </trkpt>
      <trkpt lat="41.9708" lon="-1.67333">
        <ele>379.341963</ele>
        <time>2022-02-22T08:00:11.561Z</time>
      </trkpt>
      <trkpt lat="41.96983" lon="-1.6731">
        <ele>380.432947</ele>
        <time>2022-02-22T08:00:41.146Z</time>
      </trkpt>
      <trkpt lat="41.96924" lon="-1.67309">
        <ele>381.163509</ele>
        <time>2022-02-22T08:00:58.885Z</time>
      </trkpt>
      <trkpt lat="41.96858" lon="-1.67321">
        <ele>381.986086</ele>
        <time>2022-02-22T08:01:19.222Z</time>
      </trkpt>
      <trkpt lat="41.9504" lon="-1.67855">
        <ele>411.954038</ele>
        <time>2022-02-22T08:11:30.091Z</time>
      </trkpt>
      <trkpt lat="41.94893" lon="-1.67925">
        <ele>414.224693</ele>
        <time>2022-02-22T08:12:20.337Z</time>
      </trkpt>
      <trkpt lat="41.94768" lon="-1.68005">
        <ele>415.250711</ele>
        <time>2022-02-22T08:13:00.144Z</time>
      </trkpt>
      <trkpt lat="41.94689" lon="-1.68065">
        <ele>415.837967</ele>
        <time>2022-02-22T08:13:23.484Z</time>
      </trkpt>
      <trkpt lat="41.94584" lon="-1.68163">
        <ele>416.572859</ele>
        <time>2022-02-22T08:13:58.035Z</time>
      </trkpt>
      <trkpt lat="41.9399" lon="-1.68753">
        <ele>430.131969</ele>
        <time>2022-02-22T08:18:10.859Z</time>
      </trkpt>
      <trkpt lat="41.93877" lon="-1.68836">
        <ele>431.896144</ele>
        <time>2022-02-22T08:18:50.911Z</time>
      </trkpt>
      <trkpt lat="41.93745" lon="-1.689">
        <ele>433.644885</ele>
        <time>2022-02-22T08:19:33.685Z</time>
      </trkpt>
      <trkpt lat="41.92473" lon="-1.69443">
        <ele>450.186541</ele>
        <time>2022-02-22T08:26:27.091Z</time>
      </trkpt>
      <trkpt lat="41.92336" lon="-1.69507">
        <ele>451.327918</ele>
        <time>2022-02-22T08:27:08.377Z</time>
      </trkpt>
      <trkpt lat="41.92247" lon="-1.69568">
        <ele>452.163195</ele>
        <time>2022-02-22T08:27:36.322Z</time>
      </trkpt>
      <trkpt lat="41.9219" lon="-1.69616">
        <ele>452.74619</ele>
        <time>2022-02-22T08:27:55.743Z</time>
      </trkpt>
      <trkpt lat="41.921" lon="-1.69711">
        <ele>454.038029</ele>
        <time>2022-02-22T08:28:30.689Z</time>
      </trkpt>
      <trkpt lat="41.92031" lon="-1.69802">
        <ele>455.316427</ele>
        <time>2022-02-22T08:29:01.396Z</time>
      </trkpt>
      <trkpt lat="41.91995" lon="-1.69859">
        <ele>456.074856</ele>
        <time>2022-02-22T08:29:19.150Z</time>
      </trkpt>
      <trkpt lat="41.91907" lon="-1.70025">
        <ele>458.165765</ele>
        <time>2022-02-22T08:30:07.103Z</time>
      </trkpt>
      <trkpt lat="41.9185" lon="-1.70142">
        <ele>459.479367</ele>
        <time>2022-02-22T08:30:39.362Z</time>
      </trkpt>
      <trkpt lat="41.9146" lon="-1.70952">
        <ele>468.748195</ele>
        <time>2022-02-22T08:34:21.256Z</time>
      </trkpt>
      <trkpt lat="41.91449" lon="-1.70975">
        <ele>469.067783</ele>
        <time>2022-02-22T08:34:28.205Z</time>
      </trkpt>
      <trkpt lat="41.91388" lon="-1.71092">
        <ele>470.944298</ele>
        <time>2022-02-22T08:35:05.369Z</time>
      </trkpt>
      <trkpt lat="41.91336" lon="-1.71156">
        <ele>472.319326</ele>
        <time>2022-02-22T08:35:30.442Z</time>
      </trkpt>
      <trkpt lat="41.90974" lon="-1.71505">
        <ele>479.517864</ele>
        <time>2022-02-22T08:37:57.031Z</time>
      </trkpt>
      <trkpt lat="41.90884" lon="-1.71602">
        <ele>480.715094</ele>
        <time>2022-02-22T08:38:30.117Z</time>
      </trkpt>
      <trkpt lat="41.90766" lon="-1.71764">
        <ele>482.846859</ele>
        <time>2022-02-22T08:39:20.276Z</time>
      </trkpt>
      <trkpt lat="41.90638" lon="-1.71936">
        <ele>485.955756</ele>
        <time>2022-02-22T08:40:24.679Z</time>
      </trkpt>
      <trkpt lat="41.90628" lon="-1.71942">
        <ele>486.167989</ele>
        <time>2022-02-22T08:40:28.496Z</time>
      </trkpt>
      <trkpt lat="41.90559" lon="-1.72034">
        <ele>486.493738</ele>
        <time>2022-02-22T08:40:56.840Z</time>
      </trkpt>
      <trkpt lat="41.90587" lon="-1.72066">
        <ele>486.392485</ele>
        <time>2022-02-22T08:41:22.463Z</time>
      </trkpt>
      <trkpt lat="41.90581" lon="-1.72073">
        <ele>486.370484</ele>
        <time>2022-02-22T08:41:24.146Z</time>
      </trkpt>
      <trkpt lat="41.90549" lon="-1.72115">
        <ele>486.246812</ele>
        <time>2022-02-22T08:41:32.924Z</time>
      </trkpt>
      <trkpt lat="41.90582" lon="-1.7216">
        <ele>485.884019</ele>
        <time>2022-02-22T08:41:41.840Z</time>
      </trkpt>
      <trkpt lat="41.90588" lon="-1.72169">
        <ele>485.784089</ele>
        <time>2022-02-22T08:41:43.481Z</time>
      </trkpt>
      <trkpt lat="41.90598" lon="-1.72167">
        <ele>485.671456</ele>
        <time>2022-02-22T08:41:45.465Z</time>
      </trkpt>
      <trkpt lat="41.90606" lon="-1.72181">
        <ele>485.523665</ele>
        <time>2022-02-22T08:41:47.867Z</time>
      </trkpt>
      <trkpt lat="41.90601" lon="-1.72195">
        <ele>485.393858</ele>
        <time>2022-02-22T08:41:49.980Z</time>
      </trkpt>
      <trkpt lat="41.90589" lon="-1.72195">
        <ele>485.259973</ele>
        <time>2022-02-22T08:41:52.575Z</time>
      </trkpt>
      <trkpt lat="41.9058" lon="-1.72205">
        <ele>485.127519</ele>
        <time>2022-02-22T08:41:54.905Z</time>
      </trkpt>
      <trkpt lat="41.90542" lon="-1.72239">
        <ele>484.611523</ele>
        <time>2022-02-22T08:42:04.082Z</time>
      </trkpt>
      <trkpt lat="41.90532" lon="-1.72248">
        <ele>484.478445</ele>
        <time>2022-02-22T08:42:06.475Z</time>
      </trkpt>
      <trkpt lat="41.90491" lon="-1.72289">
        <ele>484.282473</ele>
        <time>2022-02-22T08:42:16.773Z</time>
      </trkpt>
      <trkpt lat="41.90471" lon="-1.72321">
        <ele>484.438286</ele>
        <time>2022-02-22T08:42:23.455Z</time>
      </trkpt>
      <trkpt lat="41.90465" lon="-1.72331">
        <ele>484.485626</ele>
        <time>2022-02-22T08:42:25.716Z</time>
      </trkpt>
      <trkpt lat="41.90448" lon="-1.72364">
        <ele>484.632531</ele>
        <time>2022-02-22T08:42:32.816Z</time>
      </trkpt>
      <trkpt lat="41.90443" lon="-1.72377">
        <ele>484.689813</ele>
        <time>2022-02-22T08:42:35.795Z</time>
      </trkpt>
      <trkpt lat="41.90437" lon="-1.72391">
        <ele>484.749451</ele>
        <time>2022-02-22T08:42:38.852Z</time>
      </trkpt>
      <trkpt lat="41.9044" lon="-1.72419">
        <ele>484.854353</ele>
        <time>2022-02-22T08:42:44.829Z</time>
      </trkpt>
      <trkpt lat="41.90445" lon="-1.72425">
        <ele>484.887238</ele>
        <time>2022-02-22T08:42:46.550Z</time>
      </trkpt>
      <trkpt lat="41.90444" lon="-1.72439">
        <ele>484.936804</ele>
        <time>2022-02-22T08:42:49.158Z</time>
      </trkpt>
      <trkpt lat="41.90442" lon="-1.72442">
        <ele>484.954466</ele>
        <time>2022-02-22T08:42:50.179Z</time>
      </trkpt>
      <trkpt lat="41.90431" lon="-1.72444">
        <ele>485.005273</ele>
        <time>2022-02-22T08:42:53.395Z</time>
      </trkpt>
      <trkpt lat="41.90428" lon="-1.72442">
        <ele>485.022877</ele>
        <time>2022-02-22T08:42:54.515Z</time>
      </trkpt>
      <trkpt lat="41.90415" lon="-1.7245">
        <ele>485.250515</ele>
        <time>2022-02-22T08:42:58.670Z</time>
      </trkpt>
      <trkpt lat="41.90407" lon="-1.72454">
        <ele>485.516323</ele>
        <time>2022-02-22T08:43:01.519Z</time>
      </trkpt>
      <trkpt lat="41.90383" lon="-1.72504">
        <ele>486.784286</ele>
        <time>2022-02-22T08:43:15.947Z</time>
      </trkpt>
      <trkpt lat="41.90345" lon="-1.72561">
        <ele>488.427251</ele>
        <time>2022-02-22T08:43:36.193Z</time>
      </trkpt>
      <trkpt lat="41.90289" lon="-1.72563">
        <ele>490.047693</ele>
        <time>2022-02-22T08:44:00.193Z</time>
      </trkpt>
      <trkpt lat="41.90279" lon="-1.72561">
        <ele>490.406233</ele>
        <time>2022-02-22T08:44:04.643Z</time>
      </trkpt>
      <trkpt lat="41.90223" lon="-1.72532">
        <ele>493.043086</ele>
        <time>2022-02-22T08:44:31.330Z</time>
      </trkpt>
      <trkpt lat="41.90114" lon="-1.72454">
        <ele>498.399641</ele>
        <time>2022-02-22T08:45:26.237Z</time>
      </trkpt>
      <trkpt lat="41.9009" lon="-1.72437">
        <ele>499.49849</ele>
        <time>2022-02-22T08:45:38.251Z</time>
      </trkpt>
      <trkpt lat="41.9007" lon="-1.72438">
        <ele>500.312336</ele>
        <time>2022-02-22T08:45:46.971Z</time>
      </trkpt>
      <trkpt lat="41.90061" lon="-1.72444">
        <ele>500.735228</ele>
        <time>2022-02-22T08:45:51.467Z</time>
      </trkpt>
      <trkpt lat="41.90036" lon="-1.72457">
        <ele>501.823945</ele>
        <time>2022-02-22T08:46:02.960Z</time>
      </trkpt>
      <trkpt lat="41.90027" lon="-1.72453">
        <ele>502.205721</ele>
        <time>2022-02-22T08:46:06.963Z</time>
      </trkpt>
      <trkpt lat="41.90014" lon="-1.72448">
        <ele>502.723269</ele>
        <time>2022-02-22T08:46:12.371Z</time>
      </trkpt>
      <trkpt lat="41.89961" lon="-1.72437">
        <ele>504.913734</ele>
        <time>2022-02-22T08:46:34.995Z</time>
      </trkpt>
      <trkpt lat="41.89856" lon="-1.72415">
        <ele>508.112116</ele>
        <time>2022-02-22T08:47:18.154Z</time>
      </trkpt>
      <trkpt lat="41.89827" lon="-1.72408">
        <ele>508.938365</ele>
        <time>2022-02-22T08:47:28.457Z</time>
      </trkpt>
      <trkpt lat="41.89751" lon="-1.72391">
        <ele>510.813794</ele>
        <time>2022-02-22T08:47:52.030Z</time>
      </trkpt>
      <trkpt lat="41.89744" lon="-1.72389">
        <ele>510.907823</ele>
        <time>2022-02-22T08:47:54.120Z</time>
      </trkpt>
      <trkpt lat="41.89716" lon="-1.72383">
        <ele>511.263287</ele>
        <time>2022-02-22T08:48:01.936Z</time>
      </trkpt>
      <trkpt lat="41.89704" lon="-1.7238">
        <ele>511.422566</ele>
        <time>2022-02-22T08:48:05.542Z</time>
      </trkpt>
      <trkpt lat="41.89641" lon="-1.72362">
        <ele>512.237331</ele>
        <time>2022-02-22T08:48:23.672Z</time>
      </trkpt>
      <trkpt lat="41.89616" lon="-1.72376">
        <ele>512.583064</ele>
        <time>2022-02-22T08:48:31.319Z</time>
      </trkpt>
      <trkpt lat="41.89607" lon="-1.72399">
        <ele>512.828208</ele>
        <time>2022-02-22T08:48:36.619Z</time>
      </trkpt>
      <trkpt lat="41.89601" lon="-1.72372">
        <ele>513.236441</ele>
        <time>2022-02-22T08:48:42.802Z</time>
      </trkpt>
      <trkpt lat="41.89568" lon="-1.72382">
        <ele>513.881644</ele>
        <time>2022-02-22T08:48:52.599Z</time>
      </trkpt>
      <trkpt lat="41.89478" lon="-1.72387">
        <ele>515.600078</ele>
        <time>2022-02-22T08:49:22.284Z</time>
      </trkpt>
      <trkpt lat="41.89317" lon="-1.72404">
        <ele>520.001994</ele>
        <time>2022-02-22T08:50:22.599Z</time>
      </trkpt>
      <trkpt lat="41.89247" lon="-1.72407">
        <ele>522.343662</ele>
        <time>2022-02-22T08:50:50.313Z</time>
      </trkpt>
      <trkpt lat="41.89221" lon="-1.72416">
        <ele>523.584917</ele>
        <time>2022-02-22T08:51:01.539Z</time>
      </trkpt>
      <trkpt lat="41.89199" lon="-1.72435">
        <ele>524.751139</ele>
        <time>2022-02-22T08:51:12.299Z</time>
      </trkpt>
      <trkpt lat="41.89182" lon="-1.72442">
        <ele>525.56412</ele>
        <time>2022-02-22T08:51:19.862Z</time>
      </trkpt>
      <trkpt lat="41.89015" lon="-1.72448">
        <ele>534.27626</ele>
        <time>2022-02-22T08:52:44.991Z</time>
      </trkpt>
      <trkpt lat="41.88967" lon="-1.72437">
        <ele>537.155874</ele>
        <time>2022-02-22T08:53:12.473Z</time>
      </trkpt>
      <trkpt lat="41.88922" lon="-1.72417">
        <ele>539.965018</ele>
        <time>2022-02-22T08:53:38.268Z</time>
      </trkpt>
      <trkpt lat="41.88878" lon="-1.72383">
        <ele>542.371796</ele>
        <time>2022-02-22T08:54:05.068Z</time>
      </trkpt>
      <trkpt lat="41.88808" lon="-1.72349">
        <ele>545.646198</ele>
        <time>2022-02-22T08:54:39.420Z</time>
      </trkpt>
      <trkpt lat="41.88757" lon="-1.72343">
        <ele>547.892583</ele>
        <time>2022-02-22T08:54:59.021Z</time>
      </trkpt>
      <trkpt lat="41.88727" lon="-1.72356">
        <ele>549.032115</ele>
        <time>2022-02-22T08:55:10.993Z</time>
      </trkpt>
      <trkpt lat="41.88674" lon="-1.72363">
        <ele>550.606999</ele>
        <time>2022-02-22T08:55:31.555Z</time>
      </trkpt>
      <trkpt lat="41.88628" lon="-1.72336">
        <ele>552.116324</ele>
        <time>2022-02-22T08:55:50.312Z</time>
      </trkpt>
      <trkpt lat="41.88595" lon="-1.72338">
        <ele>553.099735</ele>
        <time>2022-02-22T08:56:02.509Z</time>
      </trkpt>
      <trkpt lat="41.88554" lon="-1.72353">
        <ele>554.477738</ele>
        <time>2022-02-22T08:56:18.444Z</time>
      </trkpt>
      <trkpt lat="41.88486" lon="-1.72363">
        <ele>556.95105</ele>
        <time>2022-02-22T08:56:44.902Z</time>
      </trkpt>
      <trkpt lat="41.88293" lon="-1.72289">
        <ele>564.882345</ele>
        <time>2022-02-22T08:58:09.529Z</time>
      </trkpt>
      <trkpt lat="41.88262" lon="-1.72289">
        <ele>566.19048</ele>
        <time>2022-02-22T08:58:23.383Z</time>
      </trkpt>
      <trkpt lat="41.88229" lon="-1.72299">
        <ele>567.641784</ele>
        <time>2022-02-22T08:58:38.920Z</time>
      </trkpt>
      <trkpt lat="41.88221" lon="-1.7227">
        <ele>568.658067</ele>
        <time>2022-02-22T08:58:53.964Z</time>
      </trkpt>
      <trkpt lat="41.88207" lon="-1.72256">
        <ele>569.439857</ele>
        <time>2022-02-22T08:59:03.410Z</time>
      </trkpt>
      <trkpt lat="41.88119" lon="-1.72249">
        <ele>573.415445</ele>
        <time>2022-02-22T08:59:58.018Z</time>
      </trkpt>
      <trkpt lat="41.88004" lon="-1.72217">
        <ele>578.071488</ele>
        <time>2022-02-22T09:01:04.111Z</time>
      </trkpt>
      <trkpt lat="41.87948" lon="-1.72176">
        <ele>580.277134</ele>
        <time>2022-02-22T09:01:38.702Z</time>
      </trkpt>
      <trkpt lat="41.87899" lon="-1.72177">
        <ele>581.956806</ele>
        <time>2022-02-22T09:02:04.754Z</time>
      </trkpt>
      <trkpt lat="41.87802" lon="-1.72237">
        <ele>584.468194</ele>
        <time>2022-02-22T09:02:58.695Z</time>
      </trkpt>
      <trkpt lat="41.87733" lon="-1.72242">
        <ele>586.021531</ele>
        <time>2022-02-22T09:03:29.542Z</time>
      </trkpt>
      <trkpt lat="41.87664" lon="-1.72262">
        <ele>587.625183</ele>
        <time>2022-02-22T09:04:01.769Z</time>
      </trkpt>
      <trkpt lat="41.87639" lon="-1.72259">
        <ele>588.21395</ele>
        <time>2022-02-22T09:04:13.629Z</time>
      </trkpt>
      <trkpt lat="41.87591" lon="-1.72226">
        <ele>589.455761</ele>
        <time>2022-02-22T09:04:39.642Z</time>
      </trkpt>
      <trkpt lat="41.87565" lon="-1.7224">
        <ele>590.101447</ele>
        <time>2022-02-22T09:04:53.952Z</time>
      </trkpt>
      <trkpt lat="41.87544" lon="-1.72301">
        <ele>591.856096</ele>
        <time>2022-02-22T09:05:20.200Z</time>
      </trkpt>
      <trkpt lat="41.87517" lon="-1.72322">
        <ele>593.13598</ele>
        <time>2022-02-22T09:05:37.943Z</time>
      </trkpt>
      <trkpt lat="41.87444" lon="-1.72437">
        <ele>597.738917</ele>
        <time>2022-02-22T09:06:45.128Z</time>
      </trkpt>
      <trkpt lat="41.87425" lon="-1.72453">
        <ele>598.917529</ele>
        <time>2022-02-22T09:06:58.851Z</time>
      </trkpt>
      <trkpt lat="41.87381" lon="-1.72477">
        <ele>601.471952</ele>
        <time>2022-02-22T09:07:27.234Z</time>
      </trkpt>
      <trkpt lat="41.87323" lon="-1.7255">
        <ele>605.747524</ele>
        <time>2022-02-22T09:08:18.311Z</time>
      </trkpt>
      <trkpt lat="41.87298" lon="-1.72561">
        <ele>607.131889</ele>
        <time>2022-02-22T09:08:36.339Z</time>
      </trkpt>
      <trkpt lat="41.87279" lon="-1.72578">
        <ele>608.55763</ele>
        <time>2022-02-22T09:08:52.299Z</time>
      </trkpt>
      <trkpt lat="41.87261" lon="-1.72601">
        <ele>610.248436</ele>
        <time>2022-02-22T09:09:10.345Z</time>
      </trkpt>
      <trkpt lat="41.87227" lon="-1.72662">
        <ele>614.028129</ele>
        <time>2022-02-22T09:09:51.398Z</time>
      </trkpt>
      <trkpt lat="41.87185" lon="-1.72713">
        <ele>617.807739</ele>
        <time>2022-02-22T09:10:30.834Z</time>
      </trkpt>
      <trkpt lat="41.87168" lon="-1.72714">
        <ele>618.925895</ele>
        <time>2022-02-22T09:10:41.327Z</time>
      </trkpt>
      <trkpt lat="41.87142" lon="-1.72734">
        <ele>620.786203</ele>
        <time>2022-02-22T09:10:57.268Z</time>
      </trkpt>
      <trkpt lat="41.87107" lon="-1.72747">
        <ele>622.927378</ele>
        <time>2022-02-22T09:11:17.113Z</time>
      </trkpt>
      <trkpt lat="41.87102" lon="-1.72758">
        <ele>623.472092</ele>
        <time>2022-02-22T09:11:23.852Z</time>
      </trkpt>
      <trkpt lat="41.87088" lon="-1.72737">
        <ele>624.70039</ele>
        <time>2022-02-22T09:11:33.251Z</time>
      </trkpt>
      <trkpt lat="41.87044" lon="-1.72678">
        <ele>628.373478</ele>
        <time>2022-02-22T09:12:06.794Z</time>
      </trkpt>
      <trkpt lat="41.87007" lon="-1.72629">
        <ele>630.916275</ele>
        <time>2022-02-22T09:12:32.233Z</time>
      </trkpt>
      <trkpt lat="41.86957" lon="-1.72543">
        <ele>633.769322</ele>
        <time>2022-02-22T09:13:08.357Z</time>
      </trkpt>
      <trkpt lat="41.86935" lon="-1.72479">
        <ele>635.568324</ele>
        <time>2022-02-22T09:13:28.680Z</time>
      </trkpt>
      <trkpt lat="41.86935" lon="-1.72405">
        <ele>635.75098</ele>
        <time>2022-02-22T09:13:53.113Z</time>
      </trkpt>
      <trkpt lat="41.86927" lon="-1.72295">
        <ele>634.141351</ele>
        <time>2022-02-22T09:14:19.759Z</time>
      </trkpt>
      <trkpt lat="41.86896" lon="-1.72238">
        <ele>633.118765</ele>
        <time>2022-02-22T09:14:35.184Z</time>
      </trkpt>
      <trkpt lat="41.86883" lon="-1.72181">
        <ele>631.789329</ele>
        <time>2022-02-22T09:14:48.427Z</time>
      </trkpt>
      <trkpt lat="41.86888" lon="-1.72163">
        <ele>631.30955</ele>
        <time>2022-02-22T09:14:52.429Z</time>
      </trkpt>
      <trkpt lat="41.86913" lon="-1.72128">
        <ele>630.064151</ele>
        <time>2022-02-22T09:15:03.434Z</time>
      </trkpt>
      <trkpt lat="41.86932" lon="-1.72093">
        <ele>628.990845</ele>
        <time>2022-02-22T09:15:13.063Z</time>
      </trkpt>
      <trkpt lat="41.86941" lon="-1.72086">
        <ele>628.621558</ele>
        <time>2022-02-22T09:15:16.469Z</time>
      </trkpt>
      <trkpt lat="41.86979" lon="-1.72078">
        <ele>627.312049</ele>
        <time>2022-02-22T09:15:28.579Z</time>
      </trkpt>
      <trkpt lat="41.86987" lon="-1.72055">
        <ele>626.679268</ele>
        <time>2022-02-22T09:15:34.686Z</time>
      </trkpt>
      <trkpt lat="41.86979" lon="-1.72037">
        <ele>626.289316</ele>
        <time>2022-02-22T09:15:39.708Z</time>
      </trkpt>
      <trkpt lat="41.8695" lon="-1.72021">
        <ele>625.527685</ele>
        <time>2022-02-22T09:15:50.000Z</time>
      </trkpt>
      <trkpt lat="41.86923" lon="-1.72015">
        <ele>624.86448</ele>
        <time>2022-02-22T09:15:58.785Z</time>
      </trkpt>
      <trkpt lat="41.86858" lon="-1.72014">
        <ele>623.271156</ele>
        <time>2022-02-22T09:16:19.688Z</time>
      </trkpt>
      <trkpt lat="41.86842" lon="-1.72001">
        <ele>622.820767</ele>
        <time>2022-02-22T09:16:25.449Z</time>
      </trkpt>
      <trkpt lat="41.86834" lon="-1.71939">
        <ele>621.289938</ele>
        <time>2022-02-22T09:16:40.346Z</time>
      </trkpt>
      <trkpt lat="41.86835" lon="-1.71785">
        <ele>616.922243</ele>
        <time>2022-02-22T09:17:13.966Z</time>
      </trkpt>
      <trkpt lat="41.86828" lon="-1.71727">
        <ele>615.371401</ele>
        <time>2022-02-22T09:17:26.986Z</time>
      </trkpt>
      <trkpt lat="41.86817" lon="-1.7168">
        <ele>614.717961</ele>
        <time>2022-02-22T09:17:38.129Z</time>
      </trkpt>
      <trkpt lat="41.86764" lon="-1.71474">
        <ele>612.544399</ele>
        <time>2022-02-22T09:18:33.092Z</time>
      </trkpt>
      <trkpt lat="41.86608" lon="-1.7139">
        <ele>614.50022</ele>
        <time>2022-02-22T09:19:49.673Z</time>
      </trkpt>
      <trkpt lat="41.86584" lon="-1.71369">
        <ele>615.061024</ele>
        <time>2022-02-22T09:20:03.197Z</time>
      </trkpt>
      <trkpt lat="41.86552" lon="-1.71326">
        <ele>615.955925</ele>
        <time>2022-02-22T09:20:24.533Z</time>
      </trkpt>
      <trkpt lat="41.86442" lon="-1.71207">
        <ele>620.304884</ele>
        <time>2022-02-22T09:21:29.810Z</time>
      </trkpt>
      <trkpt lat="41.86405" lon="-1.71172">
        <ele>622.698458</ele>
        <time>2022-02-22T09:21:58.521Z</time>
      </trkpt>
      <trkpt lat="41.86357" lon="-1.71143">
        <ele>625.418944</ele>
        <time>2022-02-22T09:22:34.920Z</time>
      </trkpt>
      <trkpt lat="41.86306" lon="-1.71133">
        <ele>628.653234</ele>
        <time>2022-02-22T09:23:16.168Z</time>
      </trkpt>
      <trkpt lat="41.8629" lon="-1.71118">
        <ele>630.195518</ele>
        <time>2022-02-22T09:23:29.031Z</time>
      </trkpt>
      <trkpt lat="41.86279" lon="-1.71097">
        <ele>631.777492</ele>
        <time>2022-02-22T09:23:46.370Z</time>
      </trkpt>
      <trkpt lat="41.86276" lon="-1.71066">
        <ele>633.630914</ele>
        <time>2022-02-22T09:24:02.286Z</time>
      </trkpt>
      <trkpt lat="41.86269" lon="-1.71053">
        <ele>634.648402</ele>
        <time>2022-02-22T09:24:13.804Z</time>
      </trkpt>
      <trkpt lat="41.86252" lon="-1.71047">
        <ele>636.014377</ele>
        <time>2022-02-22T09:24:24.639Z</time>
      </trkpt>
      <trkpt lat="41.86198" lon="-1.71053">
        <ele>640.387769</ele>
        <time>2022-02-22T09:25:09.780Z</time>
      </trkpt>
      <trkpt lat="41.86178" lon="-1.71041">
        <ele>642.123578</ele>
        <time>2022-02-22T09:25:26.454Z</time>
      </trkpt>
      <trkpt lat="41.8615" lon="-1.70995">
        <ele>645.465268</ele>
        <time>2022-02-22T09:26:01.365Z</time>
      </trkpt>
      <trkpt lat="41.86152" lon="-1.70952">
        <ele>647.869729</ele>
        <time>2022-02-22T09:26:23.484Z</time>
      </trkpt>
      <trkpt lat="41.86148" lon="-1.70937">
        <ele>648.763574</ele>
        <time>2022-02-22T09:26:31.639Z</time>
      </trkpt>
      <trkpt lat="41.86099" lon="-1.70891">
        <ele>653.235244</ele>
        <time>2022-02-22T09:27:13.909Z</time>
      </trkpt>
      <trkpt lat="41.8607" lon="-1.70881">
        <ele>655.542423</ele>
        <time>2022-02-22T09:27:36.840Z</time>
      </trkpt>
      <trkpt lat="41.86023" lon="-1.70891">
        <ele>659.885114</ele>
        <time>2022-02-22T09:28:15.040Z</time>
      </trkpt>
      <trkpt lat="41.85983" lon="-1.70872">
        <ele>663.838191</ele>
        <time>2022-02-22T09:28:52.412Z</time>
      </trkpt>
      <trkpt lat="41.85918" lon="-1.70781">
        <ele>672.28798</ele>
        <time>2022-02-22T09:30:14.251Z</time>
      </trkpt>
      <trkpt lat="41.85851" lon="-1.70718">
        <ele>678.233093</ele>
        <time>2022-02-22T09:31:16.266Z</time>
      </trkpt>
      <trkpt lat="41.85814" lon="-1.70667">
        <ele>682.155701</ele>
        <time>2022-02-22T09:31:53.705Z</time>
      </trkpt>
      <trkpt lat="41.85808" lon="-1.70638">
        <ele>683.790634</ele>
        <time>2022-02-22T09:32:08.638Z</time>
      </trkpt>
      <trkpt lat="41.85818" lon="-1.70585">
        <ele>686.526341</ele>
        <time>2022-02-22T09:32:34.975Z</time>
      </trkpt>
      <trkpt lat="41.85812" lon="-1.70568">
        <ele>687.448156</ele>
        <time>2022-02-22T09:32:44.232Z</time>
      </trkpt>
      <trkpt lat="41.85705" lon="-1.70513">
        <ele>694.740871</ele>
        <time>2022-02-22T09:34:01.059Z</time>
      </trkpt>
      <trkpt lat="41.8562" lon="-1.70441">
        <ele>701.75763</ele>
        <time>2022-02-22T09:35:19.470Z</time>
      </trkpt>
      <trkpt lat="41.85564" lon="-1.70367">
        <ele>707.332295</ele>
        <time>2022-02-22T09:36:18.527Z</time>
      </trkpt>
      <trkpt lat="41.85514" lon="-1.70311">
        <ele>710.287983</ele>
        <time>2022-02-22T09:37:00.901Z</time>
      </trkpt>
      <trkpt lat="41.85492" lon="-1.7023">
        <ele>712.048241</ele>
        <time>2022-02-22T09:37:33.592Z</time>
      </trkpt>
      <trkpt lat="41.8548" lon="-1.70213">
        <ele>712.518499</ele>
        <time>2022-02-22T09:37:42.274Z</time>
      </trkpt>
      <trkpt lat="41.85435" lon="-1.7013">
        <ele>714.096183</ele>
        <time>2022-02-22T09:38:11.919Z</time>
      </trkpt>
      <trkpt lat="41.85405" lon="-1.70107">
        <ele>713.97317</ele>
        <time>2022-02-22T09:38:24.658Z</time>
      </trkpt>
      <trkpt lat="41.85365" lon="-1.70064">
        <ele>713.790355</ele>
        <time>2022-02-22T09:38:43.164Z</time>
      </trkpt>
      <trkpt lat="41.85309" lon="-1.70028">
        <ele>713.5724</ele>
        <time>2022-02-22T09:39:04.712Z</time>
      </trkpt>
      <trkpt lat="41.85081" lon="-1.69991">
        <ele>711.372269</ele>
        <time>2022-02-22T09:40:27.543Z</time>
      </trkpt>
      <trkpt lat="41.84952" lon="-1.69992">
        <ele>706.97842</ele>
        <time>2022-02-22T09:41:06.991Z</time>
      </trkpt>
      <trkpt lat="41.84901" lon="-1.70021">
        <ele>702.196245</ele>
        <time>2022-02-22T09:41:22.045Z</time>
      </trkpt>
      <trkpt lat="41.84809" lon="-1.70039">
        <ele>692.212971</ele>
        <time>2022-02-22T09:41:45.502Z</time>
      </trkpt>
      <trkpt lat="41.84704" lon="-1.70048">
        <ele>680.391786</ele>
        <time>2022-02-22T09:42:11.269Z</time>
      </trkpt>
      <trkpt lat="41.84691" lon="-1.7005">
        <ele>678.815678</ele>
        <time>2022-02-22T09:42:14.478Z</time>
      </trkpt>
      <trkpt lat="41.84581" lon="-1.70019">
        <ele>665.725029</ele>
        <time>2022-02-22T09:42:42.872Z</time>
      </trkpt>
      <trkpt lat="41.845" lon="-1.70006">
        <ele>660.084998</ele>
        <time>2022-02-22T09:43:04.985Z</time>
      </trkpt>
      <trkpt lat="41.84369" lon="-1.70001">
        <ele>651.843033</ele>
        <time>2022-02-22T09:43:41.995Z</time>
      </trkpt>
      <trkpt lat="41.8433" lon="-1.69969">
        <ele>649.703595</ele>
        <time>2022-02-22T09:43:55.388Z</time>
      </trkpt>
      <trkpt lat="41.84217" lon="-1.69854">
        <ele>642.990096</ele>
        <time>2022-02-22T09:44:37.239Z</time>
      </trkpt>
      <trkpt lat="41.84165" lon="-1.69833">
        <ele>640.354125</ele>
        <time>2022-02-22T09:44:52.976Z</time>
      </trkpt>
      <trkpt lat="41.84131" lon="-1.69812">
        <ele>638.50417</ele>
        <time>2022-02-22T09:45:03.837Z</time>
      </trkpt>
      <trkpt lat="41.841" lon="-1.69773">
        <ele>636.453381</ele>
        <time>2022-02-22T09:45:15.748Z</time>
      </trkpt>
      <trkpt lat="41.84074" lon="-1.69717">
        <ele>634.149893</ele>
        <time>2022-02-22T09:45:29.718Z</time>
      </trkpt>
      <trkpt lat="41.84047" lon="-1.69689">
        <ele>632.572964</ele>
        <time>2022-02-22T09:45:39.373Z</time>
      </trkpt>
      <trkpt lat="41.83972" lon="-1.69662">
        <ele>628.972114</ele>
        <time>2022-02-22T09:46:02.041Z</time>
      </trkpt>
      <trkpt lat="41.83915" lon="-1.69633">
        <ele>627.253918</ele>
        <time>2022-02-22T09:46:20.821Z</time>
      </trkpt>
      <trkpt lat="41.83859" lon="-1.69615">
        <ele>626.171197</ele>
        <time>2022-02-22T09:46:39.514Z</time>
      </trkpt>
      <trkpt lat="41.83845" lon="-1.69604">
        <ele>625.858795</ele>
        <time>2022-02-22T09:46:45.060Z</time>
      </trkpt>
      <trkpt lat="41.83805" lon="-1.69554">
        <ele>624.833398</ele>
        <time>2022-02-22T09:47:03.862Z</time>
      </trkpt>
      <trkpt lat="41.83733" lon="-1.6952">
        <ele>624.420989</ele>
        <time>2022-02-22T09:47:31.083Z</time>
      </trkpt>
      <trkpt lat="41.8368" lon="-1.6948">
        <ele>624.233344</ele>
        <time>2022-02-22T09:47:53.343Z</time>
      </trkpt>
      <trkpt lat="41.83615" lon="-1.69474">
        <ele>624.037668</ele>
        <time>2022-02-22T09:48:17.258Z</time>
      </trkpt>
      <trkpt lat="41.8353" lon="-1.69451">
        <ele>623.813254</ele>
        <time>2022-02-22T09:48:48.904Z</time>
      </trkpt>
      <trkpt lat="41.83501" lon="-1.69438">
        <ele>623.734162</ele>
        <time>2022-02-22T09:48:59.987Z</time>
      </trkpt>
      <trkpt lat="41.83484" lon="-1.6942">
        <ele>623.677743</ele>
        <time>2022-02-22T09:49:07.837Z</time>
      </trkpt>
      <trkpt lat="41.83389" lon="-1.69277">
        <ele>623.387681</ele>
        <time>2022-02-22T09:49:59.315Z</time>
      </trkpt>
      <trkpt lat="41.83361" lon="-1.69244">
        <ele>623.31785</ele>
        <time>2022-02-22T09:50:12.850Z</time>
      </trkpt>
      <trkpt lat="41.83277" lon="-1.69251">
        <ele>623.307777</ele>
        <time>2022-02-22T09:50:44.820Z</time>
      </trkpt>
      <trkpt lat="41.83221" lon="-1.69244">
        <ele>623.35629</ele>
        <time>2022-02-22T09:51:06.818Z</time>
      </trkpt>
      <trkpt lat="41.83142" lon="-1.6922">
        <ele>623.324084</ele>
        <time>2022-02-22T09:51:36.700Z</time>
      </trkpt>
      <trkpt lat="41.83113" lon="-1.69202">
        <ele>623.065294</ele>
        <time>2022-02-22T09:51:48.039Z</time>
      </trkpt>
      <trkpt lat="41.83068" lon="-1.69161">
        <ele>622.621235</ele>
        <time>2022-02-22T09:52:07.274Z</time>
      </trkpt>
      <trkpt lat="41.83044" lon="-1.69109">
        <ele>622.254012</ele>
        <time>2022-02-22T09:52:22.683Z</time>
      </trkpt>
      <trkpt lat="41.83029" lon="-1.69024">
        <ele>621.524205</ele>
        <time>2022-02-22T09:52:44.820Z</time>
      </trkpt>
      <trkpt lat="41.82938" lon="-1.68793">
        <ele>618.625177</ele>
        <time>2022-02-22T09:53:49.518Z</time>
      </trkpt>
      <trkpt lat="41.82853" lon="-1.6866">
        <ele>616.696754</ele>
        <time>2022-02-22T09:54:32.998Z</time>
      </trkpt>
      <trkpt lat="41.82834" lon="-1.6864">
        <ele>616.601971</ele>
        <time>2022-02-22T09:54:41.259Z</time>
      </trkpt>
      <trkpt lat="41.82801" lon="-1.68622">
        <ele>616.610757</ele>
        <time>2022-02-22T09:54:53.874Z</time>
      </trkpt>
      <trkpt lat="41.82773" lon="-1.68597">
        <ele>616.619005</ele>
        <time>2022-02-22T09:55:06.079Z</time>
      </trkpt>
      <trkpt lat="41.82738" lon="-1.68574">
        <ele>616.628646</ele>
        <time>2022-02-22T09:55:20.535Z</time>
      </trkpt>
      <trkpt lat="41.82646" lon="-1.68537">
        <ele>617.69234</ele>
        <time>2022-02-22T09:56:01.350Z</time>
      </trkpt>
      <trkpt lat="41.8264" lon="-1.68537">
        <ele>617.848444</ele>
        <time>2022-02-22T09:56:03.629Z</time>
      </trkpt>
      <trkpt lat="41.82627" lon="-1.68527">
        <ele>618.220884</ele>
        <time>2022-02-22T09:56:08.821Z</time>
      </trkpt>
      <trkpt lat="41.82602" lon="-1.68534">
        <ele>618.865358</ele>
        <time>2022-02-22T09:56:18.206Z</time>
      </trkpt>
      <trkpt lat="41.82554" lon="-1.6858">
        <ele>620.345538</ele>
        <time>2022-02-22T09:56:41.051Z</time>
      </trkpt>
      <trkpt lat="41.82502" lon="-1.68647">
        <ele>622.174326</ele>
        <time>2022-02-22T09:57:08.973Z</time>
      </trkpt>
      <trkpt lat="41.8249" lon="-1.68661">
        <ele>622.556003</ele>
        <time>2022-02-22T09:57:14.559Z</time>
      </trkpt>
      <trkpt lat="41.82467" lon="-1.68686">
        <ele>623.317113</ele>
        <time>2022-02-22T09:57:25.213Z</time>
      </trkpt>
      <trkpt lat="41.82449" lon="-1.68717">
        <ele>624.074601</ele>
        <time>2022-02-22T09:57:35.721Z</time>
      </trkpt>
      <trkpt lat="41.82438" lon="-1.68738">
        <ele>624.547827</ele>
        <time>2022-02-22T09:57:42.380Z</time>
      </trkpt>
      <trkpt lat="41.8243" lon="-1.68745">
        <ele>624.780605</ele>
        <time>2022-02-22T09:57:45.354Z</time>
      </trkpt>
      <trkpt lat="41.82385" lon="-1.68767">
        <ele>625.816538</ele>
        <time>2022-02-22T09:58:00.285Z</time>
      </trkpt>
      <trkpt lat="41.82356" lon="-1.68785">
        <ele>626.122943</ele>
        <time>2022-02-22T09:58:09.704Z</time>
      </trkpt>
      <trkpt lat="41.82322" lon="-1.68827">
        <ele>626.55522</ele>
        <time>2022-02-22T09:58:22.141Z</time>
      </trkpt>
      <trkpt lat="41.82308" lon="-1.68837">
        <ele>626.704053</ele>
        <time>2022-02-22T09:58:26.130Z</time>
      </trkpt>
      <trkpt lat="41.82296" lon="-1.68845">
        <ele>626.833825</ele>
        <time>2022-02-22T09:58:29.217Z</time>
      </trkpt>
      <trkpt lat="41.82223" lon="-1.68893">
        <ele>627.630219</ele>
        <time>2022-02-22T09:58:49.493Z</time>
      </trkpt>
      <trkpt lat="41.82186" lon="-1.6892">
        <ele>628.094853</ele>
        <time>2022-02-22T09:59:00.310Z</time>
      </trkpt>
      <trkpt lat="41.82161" lon="-1.68946">
        <ele>628.445329</ele>
        <time>2022-02-22T09:59:08.976Z</time>
      </trkpt>
      <trkpt lat="41.82076" lon="-1.69051">
        <ele>630.065629</ele>
        <time>2022-02-22T09:59:42.937Z</time>
      </trkpt>
      <trkpt lat="41.82023" lon="-1.69119">
        <ele>631.741251</ele>
        <time>2022-02-22T10:00:06.252Z</time>
      </trkpt>
      <trkpt lat="41.81989" lon="-1.69154">
        <ele>632.704183</ele>
        <time>2022-02-22T10:00:21.607Z</time>
      </trkpt>
      <trkpt lat="41.81934" lon="-1.692">
        <ele>634.506615</ele>
        <time>2022-02-22T10:00:46.555Z</time>
      </trkpt>
      <trkpt lat="41.8189" lon="-1.69227">
        <ele>636.141889</ele>
        <time>2022-02-22T10:01:05.634Z</time>
      </trkpt>
      <trkpt lat="41.81831" lon="-1.69259">
        <ele>638.323691</ele>
        <time>2022-02-22T10:01:31.197Z</time>
      </trkpt>
      <trkpt lat="41.81323" lon="-1.69538">
        <ele>655.552864</ele>
        <time>2022-02-22T10:05:02.227Z</time>
      </trkpt>
      <trkpt lat="41.81304" lon="-1.69549">
        <ele>656.154966</ele>
        <time>2022-02-22T10:05:08.680Z</time>
      </trkpt>
      <trkpt lat="41.81285" lon="-1.69559">
        <ele>656.508733</ele>
        <time>2022-02-22T10:05:14.577Z</time>
      </trkpt>
      <trkpt lat="41.81192" lon="-1.69608">
        <ele>657.795569</ele>
        <time>2022-02-22T10:05:41.835Z</time>
      </trkpt>
      <trkpt lat="41.81146" lon="-1.69608">
        <ele>658.380254</ele>
        <time>2022-02-22T10:05:54.070Z</time>
      </trkpt>
      <trkpt lat="41.81103" lon="-1.696">
        <ele>659.279698</ele>
        <time>2022-02-22T10:06:05.786Z</time>
      </trkpt>
      <trkpt lat="41.80454" lon="-1.69448">
        <ele>678.009237</ele>
        <time>2022-02-22T10:10:08.454Z</time>
      </trkpt>
      <trkpt lat="41.8043" lon="-1.69434">
        <ele>678.813325</ele>
        <time>2022-02-22T10:10:18.679Z</time>
      </trkpt>
      <trkpt lat="41.80403" lon="-1.69397">
        <ele>680.081296</ele>
        <time>2022-02-22T10:10:33.792Z</time>
      </trkpt>
      <trkpt lat="41.80388" lon="-1.6938">
        <ele>680.757383</ele>
        <time>2022-02-22T10:10:42.061Z</time>
      </trkpt>
      <trkpt lat="41.80362" lon="-1.69373">
        <ele>681.66909</ele>
        <time>2022-02-22T10:10:52.396Z</time>
      </trkpt>
      <trkpt lat="41.80185" lon="-1.69407">
        <ele>687.728635</ele>
        <time>2022-02-22T10:12:02.583Z</time>
      </trkpt>
      <trkpt lat="41.80138" lon="-1.69422">
        <ele>689.348473</ele>
        <time>2022-02-22T10:12:21.438Z</time>
      </trkpt>
      <trkpt lat="41.80098" lon="-1.69442">
        <ele>690.731278</ele>
        <time>2022-02-22T10:12:37.655Z</time>
      </trkpt>
      <trkpt lat="41.79732" lon="-1.69654">
        <ele>702.23687</ele>
        <time>2022-02-22T10:15:08.399Z</time>
      </trkpt>
      <trkpt lat="41.79339" lon="-1.69824">
        <ele>703.767622</ele>
        <time>2022-02-22T10:16:39.856Z</time>
      </trkpt>
      <trkpt lat="41.79314" lon="-1.69844">
        <ele>704.051827</ele>
        <time>2022-02-22T10:16:48.213Z</time>
      </trkpt>
      <trkpt lat="41.79301" lon="-1.69884">
        <ele>704.360229</ele>
        <time>2022-02-22T10:16:57.841Z</time>
      </trkpt>
      <trkpt lat="41.79291" lon="-1.69904">
        <ele>704.535361</ele>
        <time>2022-02-22T10:17:04.005Z</time>
      </trkpt>
      <trkpt lat="41.79279" lon="-1.69912">
        <ele>704.657969</ele>
        <time>2022-02-22T10:17:07.750Z</time>
      </trkpt>
      <trkpt lat="41.79092" lon="-1.69963">
        <ele>707.773391</ele>
        <time>2022-02-22T10:18:09.186Z</time>
      </trkpt>
      <trkpt lat="41.79069" lon="-1.6999">
        <ele>707.711721</ele>
        <time>2022-02-22T10:18:15.783Z</time>
      </trkpt>
      <trkpt lat="41.79063" lon="-1.70001">
        <ele>707.689607</ele>
        <time>2022-02-22T10:18:18.058Z</time>
      </trkpt>
      <trkpt lat="41.79053" lon="-1.70003">
        <ele>707.66747</ele>
        <time>2022-02-22T10:18:20.297Z</time>
      </trkpt>
      <trkpt lat="41.79043" lon="-1.69986">
        <ele>707.630879</ele>
        <time>2022-02-22T10:18:23.557Z</time>
      </trkpt>
      <trkpt lat="41.79043" lon="-1.69985">
        <ele>707.629889</ele>
        <time>2022-02-22T10:18:23.637Z</time>
      </trkpt>
      <trkpt lat="41.7903" lon="-1.69972">
        <ele>707.594469</ele>
        <time>2022-02-22T10:18:27.078Z</time>
      </trkpt>
      <trkpt lat="41.79017" lon="-1.69968">
        <ele>707.565736</ele>
        <time>2022-02-22T10:18:29.648Z</time>
      </trkpt>
      <trkpt lat="41.78993" lon="-1.69973">
        <ele>707.510273</ele>
        <time>2022-02-22T10:18:34.801Z</time>
      </trkpt>
      <trkpt lat="41.78956" lon="-1.69989">
        <ele>707.425277</ele>
        <time>2022-02-22T10:18:42.361Z</time>
      </trkpt>
      <trkpt lat="41.78927" lon="-1.6999">
        <ele>707.564098</ele>
        <time>2022-02-22T10:18:47.751Z</time>
      </trkpt>
      <trkpt lat="41.78917" lon="-1.69984">
        <ele>707.805235</ele>
        <time>2022-02-22T10:18:49.791Z</time>
      </trkpt>
      <trkpt lat="41.78869" lon="-1.69812">
        <ele>710.753098</ele>
        <time>2022-02-22T10:19:37.026Z</time>
      </trkpt>
      <trkpt lat="41.78864" lon="-1.6976">
        <ele>712.005919</ele>
        <time>2022-02-22T10:19:54.444Z</time>
      </trkpt>
      <trkpt lat="41.78864" lon="-1.69733">
        <ele>712.947688</ele>
        <time>2022-02-22T10:20:04.484Z</time>
      </trkpt>
      <trkpt lat="41.78867" lon="-1.69696">
        <ele>714.27325</ele>
        <time>2022-02-22T10:20:17.171Z</time>
      </trkpt>
      <trkpt lat="41.78866" lon="-1.69683">
        <ele>714.727584</ele>
        <time>2022-02-22T10:20:21.824Z</time>
      </trkpt>
      <trkpt lat="41.78868" lon="-1.69643">
        <ele>716.148395</ele>
        <time>2022-02-22T10:20:36.284Z</time>
      </trkpt>
      <trkpt lat="41.78869" lon="-1.69578">
        <ele>718.420993</ele>
        <time>2022-02-22T10:20:59.263Z</time>
      </trkpt>
      <trkpt lat="41.7886" lon="-1.69542">
        <ele>719.742777</ele>
        <time>2022-02-22T10:21:13.418Z</time>
      </trkpt>
      <trkpt lat="41.78849" lon="-1.69522">
        <ele>720.634925</ele>
        <time>2022-02-22T10:21:21.321Z</time>
      </trkpt>
      <trkpt lat="41.78822" lon="-1.69496">
        <ele>722.230387</ele>
        <time>2022-02-22T10:21:35.239Z</time>
      </trkpt>
      <trkpt lat="41.78751" lon="-1.69462">
        <ele>725.868663</ele>
        <time>2022-02-22T10:22:05.028Z</time>
      </trkpt>
      <trkpt lat="41.78744" lon="-1.69457">
        <ele>726.216389</ele>
        <time>2022-02-22T10:22:08.484Z</time>
      </trkpt>
      <trkpt lat="41.78706" lon="-1.69413">
        <ele>728.831643</ele>
        <time>2022-02-22T10:22:35.149Z</time>
      </trkpt>
      <trkpt lat="41.78689" lon="-1.69507">
        <ele>734.679217</ele>
        <time>2022-02-22T10:23:21.634Z</time>
      </trkpt>
      <trkpt lat="41.78692" lon="-1.69519">
        <ele>735.441963</ele>
        <time>2022-02-22T10:23:27.951Z</time>
      </trkpt>
      <trkpt lat="41.7873" lon="-1.69545">
        <ele>738.904298</ele>
        <time>2022-02-22T10:23:57.118Z</time>
      </trkpt>
      <trkpt lat="41.78693" lon="-1.69561">
        <ele>742.073328</ele>
        <time>2022-02-22T10:24:23.364Z</time>
      </trkpt>
      <trkpt lat="41.78629" lon="-1.69611">
        <ele>747.467748</ele>
        <time>2022-02-22T10:25:10.590Z</time>
      </trkpt>
      <trkpt lat="41.78628" lon="-1.69604">
        <ele>747.849313</ele>
        <time>2022-02-22T10:25:13.557Z</time>
      </trkpt>
      <trkpt lat="41.78583" lon="-1.69667">
        <ele>752.488548</ele>
        <time>2022-02-22T10:25:52.645Z</time>
      </trkpt>
      <trkpt lat="41.78565" lon="-1.69692">
        <ele>754.385212</ele>
        <time>2022-02-22T10:26:06.332Z</time>
      </trkpt>
      <trkpt lat="41.785" lon="-1.69755">
        <ele>759.418511</ele>
        <time>2022-02-22T10:26:45.780Z</time>
      </trkpt>
      <trkpt lat="41.78487" lon="-1.69766">
        <ele>760.381213</ele>
        <time>2022-02-22T10:26:53.719Z</time>
      </trkpt>
      <trkpt lat="41.78472" lon="-1.69778">
        <ele>761.400964</ele>
        <time>2022-02-22T10:27:02.491Z</time>
      </trkpt>
      <trkpt lat="41.78366" lon="-1.69866">
        <ele>769.425707</ele>
        <time>2022-02-22T10:28:12.294Z</time>
      </trkpt>
      <trkpt lat="41.78345" lon="-1.69891">
        <ele>771.467611</ele>
        <time>2022-02-22T10:28:28.793Z</time>
      </trkpt>
      <trkpt lat="41.7833" lon="-1.69922">
        <ele>773.454387</ele>
        <time>2022-02-22T10:28:45.821Z</time>
      </trkpt>
      <trkpt lat="41.78269" lon="-1.69981">
        <ele>778.92057</ele>
        <time>2022-02-22T10:29:32.135Z</time>
      </trkpt>
      <trkpt lat="41.7825" lon="-1.69992">
        <ele>780.315992</ele>
        <time>2022-02-22T10:29:45.555Z</time>
      </trkpt>
      <trkpt lat="41.78242" lon="-1.69992">
        <ele>780.757863</ele>
        <time>2022-02-22T10:29:50.351Z</time>
      </trkpt>
      <trkpt lat="41.78208" lon="-1.69984">
        <ele>782.695199</ele>
        <time>2022-02-22T10:30:10.474Z</time>
      </trkpt>
      <trkpt lat="41.78126" lon="-1.69949">
        <ele>787.594585</ele>
        <time>2022-02-22T10:30:54.756Z</time>
      </trkpt>
      <trkpt lat="41.77987" lon="-1.69967">
        <ele>791.820265</ele>
        <time>2022-02-22T10:31:52.397Z</time>
      </trkpt>
      <trkpt lat="41.77714" lon="-1.69932">
        <ele>792.055381</ele>
        <time>2022-02-22T10:32:53.950Z</time>
      </trkpt>
      <trkpt lat="41.77664" lon="-1.69917">
        <ele>790.810128</ele>
        <time>2022-02-22T10:33:02.799Z</time>
      </trkpt>
      <trkpt lat="41.77564" lon="-1.69869">
        <ele>788.192364</ele>
        <time>2022-02-22T10:33:21.752Z</time>
      </trkpt>
      <trkpt lat="41.77543" lon="-1.69864">
        <ele>788.048974</ele>
        <time>2022-02-22T10:33:25.721Z</time>
      </trkpt>
      <trkpt lat="41.77382" lon="-1.6999">
        <ele>790.724384</ele>
        <time>2022-02-22T10:34:21.972Z</time>
      </trkpt>
      <trkpt lat="41.77364" lon="-1.69993">
        <ele>791.776339</ele>
        <time>2022-02-22T10:34:31.283Z</time>
      </trkpt>
      <trkpt lat="41.7733" lon="-1.69979">
        <ele>793.767153</ele>
        <time>2022-02-22T10:34:49.533Z</time>
      </trkpt>
      <trkpt lat="41.77298" lon="-1.69955">
        <ele>795.815766</ele>
        <time>2022-02-22T10:35:09.850Z</time>
      </trkpt>
      <trkpt lat="41.77247" lon="-1.69939">
        <ele>798.736509</ele>
        <time>2022-02-22T10:35:39.853Z</time>
      </trkpt>
      <trkpt lat="41.77163" lon="-1.69887">
        <ele>804.484195</ele>
        <time>2022-02-22T10:36:34.532Z</time>
      </trkpt>
      <trkpt lat="41.77092" lon="-1.69875">
        <ele>809.087754</ele>
        <time>2022-02-22T10:37:13.397Z</time>
      </trkpt>
      <trkpt lat="41.7707" lon="-1.69866">
        <ele>810.531239</ele>
        <time>2022-02-22T10:37:24.381Z</time>
      </trkpt>
      <trkpt lat="41.77006" lon="-1.698">
        <ele>815.273221</ele>
        <time>2022-02-22T10:38:06.286Z</time>
      </trkpt>
      <trkpt lat="41.76946" lon="-1.69781">
        <ele>818.857223</ele>
        <time>2022-02-22T10:38:38.985Z</time>
      </trkpt>
      <trkpt lat="41.76911" lon="-1.69776">
        <ele>820.870217</ele>
        <time>2022-02-22T10:38:57.152Z</time>
      </trkpt>
      <trkpt lat="41.76832" lon="-1.69777">
        <ele>824.846817</ele>
        <time>2022-02-22T10:39:37.793Z</time>
      </trkpt>
      <trkpt lat="41.76745" lon="-1.69794">
        <ele>829.110139</ele>
        <time>2022-02-22T10:40:21.200Z</time>
      </trkpt>
      <trkpt lat="41.76601" lon="-1.69889">
        <ele>834.235682</ele>
        <time>2022-02-22T10:41:19.949Z</time>
      </trkpt>
      <trkpt lat="41.76504" lon="-1.69923">
        <ele>837.349561</ele>
        <time>2022-02-22T10:41:56.025Z</time>
      </trkpt>
      <trkpt lat="41.76391" lon="-1.69979">
        <ele>841.452495</ele>
        <time>2022-02-22T10:42:46.250Z</time>
      </trkpt>
      <trkpt lat="41.76322" lon="-1.70025">
        <ele>844.603829</ele>
        <time>2022-02-22T10:43:20.070Z</time>
      </trkpt>
      <trkpt lat="41.76292" lon="-1.70056">
        <ele>846.200272</ele>
        <time>2022-02-22T10:43:37.229Z</time>
      </trkpt>
      <trkpt lat="41.7622" lon="-1.70095">
        <ele>849.396025</ele>
        <time>2022-02-22T10:44:12.306Z</time>
      </trkpt>
      <trkpt lat="41.7606" lon="-1.70212">
        <ele>856.128675</ele>
        <time>2022-02-22T10:45:27.073Z</time>
      </trkpt>
      <trkpt lat="41.75972" lon="-1.70251">
        <ele>859.996446</ele>
        <time>2022-02-22T10:46:04.516Z</time>
      </trkpt>
      <trkpt lat="41.75928" lon="-1.70298">
        <ele>862.344522</ele>
        <time>2022-02-22T10:46:29.076Z</time>
      </trkpt>
      <trkpt lat="41.75732" lon="-1.70531">
        <ele>877.580193</ele>
        <time>2022-02-22T10:48:51.941Z</time>
      </trkpt>
      <trkpt lat="41.75708" lon="-1.70551">
        <ele>879.156645</ele>
        <time>2022-02-22T10:49:06.940Z</time>
      </trkpt>
      <trkpt lat="41.75622" lon="-1.706">
        <ele>884.329995</ele>
        <time>2022-02-22T10:49:54.009Z</time>
      </trkpt>
      <trkpt lat="41.75504" lon="-1.70595">
        <ele>887.799506</ele>
        <time>2022-02-22T10:50:41.989Z</time>
      </trkpt>
      <trkpt lat="41.75437" lon="-1.7055">
        <ele>889.41546</ele>
        <time>2022-02-22T10:51:06.907Z</time>
      </trkpt>
      <trkpt lat="41.75308" lon="-1.70409">
        <ele>887.525252</ele>
        <time>2022-02-22T10:51:41.173Z</time>
      </trkpt>
      <trkpt lat="41.75261" lon="-1.70318">
        <ele>882.362779</ele>
        <time>2022-02-22T10:51:54.758Z</time>
      </trkpt>
      <trkpt lat="41.75231" lon="-1.70242">
        <ele>878.334832</ele>
        <time>2022-02-22T10:52:04.749Z</time>
      </trkpt>
      <trkpt lat="41.75221" lon="-1.70197">
        <ele>876.039559</ele>
        <time>2022-02-22T10:52:10.124Z</time>
      </trkpt>
      <trkpt lat="41.75212" lon="-1.70028">
        <ele>865.82345</ele>
        <time>2022-02-22T10:52:29.134Z</time>
      </trkpt>
      <trkpt lat="41.75211" lon="-1.69941">
        <ele>861.479051</ele>
        <time>2022-02-22T10:52:39.373Z</time>
      </trkpt>
      <trkpt lat="41.75199" lon="-1.69854">
        <ele>860.199174</ele>
        <time>2022-02-22T10:52:50.732Z</time>
      </trkpt>
      <trkpt lat="41.75193" lon="-1.69723">
        <ele>858.315114</ele>
        <time>2022-02-22T10:53:13.888Z</time>
      </trkpt>
      <trkpt lat="41.75183" lon="-1.69667">
        <ele>860.219978</ele>
        <time>2022-02-22T10:53:30.280Z</time>
      </trkpt>
      <trkpt lat="41.75163" lon="-1.69592">
        <ele>862.983519</ele>
        <time>2022-02-22T10:53:59.164Z</time>
      </trkpt>
      <trkpt lat="41.75099" lon="-1.69534">
        <ele>866.511825</ele>
        <time>2022-02-22T10:54:40.209Z</time>
      </trkpt>
      <trkpt lat="41.75081" lon="-1.69499">
        <ele>868.376362</ele>
        <time>2022-02-22T10:54:57.949Z</time>
      </trkpt>
      <trkpt lat="41.75077" lon="-1.69481">
        <ele>869.216311</ele>
        <time>2022-02-22T10:55:05.630Z</time>
      </trkpt>
      <trkpt lat="41.75081" lon="-1.69419">
        <ele>871.957061</ele>
        <time>2022-02-22T10:55:30.053Z</time>
      </trkpt>
      <trkpt lat="41.75077" lon="-1.69344">
        <ele>875.291065</ele>
        <time>2022-02-22T10:55:58.525Z</time>
      </trkpt>
      <trkpt lat="41.75063" lon="-1.69308">
        <ele>877.107969</ele>
        <time>2022-02-22T10:56:14.328Z</time>
      </trkpt>
      <trkpt lat="41.75016" lon="-1.69264">
        <ele>881.574033</ele>
        <time>2022-02-22T10:56:45.670Z</time>
      </trkpt>
      <trkpt lat="41.74965" lon="-1.69205">
        <ele>886.863712</ele>
        <time>2022-02-22T10:57:26.340Z</time>
      </trkpt>
      <trkpt lat="41.74829" lon="-1.69175">
        <ele>900.289438</ele>
        <time>2022-02-22T10:59:06.422Z</time>
      </trkpt>
      <trkpt lat="41.74727" lon="-1.69126">
        <ele>912.508825</ele>
        <time>2022-02-22T11:00:38.693Z</time>
      </trkpt>
      <trkpt lat="41.74674" lon="-1.69093">
        <ele>919.443708</ele>
        <time>2022-02-22T11:01:27.384Z</time>
      </trkpt>
      <trkpt lat="41.7458" lon="-1.68991">
        <ele>934.054929</ele>
        <time>2022-02-22T11:03:07.141Z</time>
      </trkpt>
      <trkpt lat="41.74476" lon="-1.68949">
        <ele>948.170321</ele>
        <time>2022-02-22T11:04:37.485Z</time>
      </trkpt>
      <trkpt lat="41.74299" lon="-1.6883">
        <ele>975.543247</ele>
        <time>2022-02-22T11:07:51.767Z</time>
      </trkpt>
      <trkpt lat="41.74276" lon="-1.68811">
        <ele>979.418589</ele>
        <time>2022-02-22T11:08:17.627Z</time>
      </trkpt>
      <trkpt lat="41.74237" lon="-1.68763">
        <ele>985.195736</ele>
        <time>2022-02-22T11:09:00.902Z</time>
      </trkpt>
      <trkpt lat="41.74184" lon="-1.68681">
        <ele>992.646858</ele>
        <time>2022-02-22T11:10:01.295Z</time>
      </trkpt>
      <trkpt lat="41.74172" lon="-1.68677">
        <ele>993.748885</ele>
        <time>2022-02-22T11:10:09.742Z</time>
      </trkpt>
      <trkpt lat="41.74115" lon="-1.68697">
        <ele>998.806157</ele>
        <time>2022-02-22T11:10:39.996Z</time>
      </trkpt>
      <trkpt lat="41.74056" lon="-1.68679">
        <ele>1001.091796</ele>
        <time>2022-02-22T11:11:06.694Z</time>
      </trkpt>
      <trkpt lat="41.74016" lon="-1.68644">
        <ele>1002.902723</ele>
        <time>2022-02-22T11:11:26.032Z</time>
      </trkpt>
      <trkpt lat="41.73968" lon="-1.68571">
        <ele>1005.176675</ele>
        <time>2022-02-22T11:11:55.119Z</time>
      </trkpt>
      <trkpt lat="41.73959" lon="-1.68572">
        <ele>1004.993143</ele>
        <time>2022-02-22T11:11:58.169Z</time>
      </trkpt>
      <trkpt lat="41.73933" lon="-1.68616">
        <ele>1004.099038</ele>
        <time>2022-02-22T11:12:10.755Z</time>
      </trkpt>
      <trkpt lat="41.73907" lon="-1.68643">
        <ele>1003.390546</ele>
        <time>2022-02-22T11:12:17.526Z</time>
      </trkpt>
      <trkpt lat="41.73873" lon="-1.68645">
        <ele>1002.678178</ele>
        <time>2022-02-22T11:12:23.386Z</time>
      </trkpt>
      <trkpt lat="41.73843" lon="-1.6862">
        <ele>1001.91354</ele>
        <time>2022-02-22T11:12:29.283Z</time>
      </trkpt>
      <trkpt lat="41.73796" lon="-1.68603">
        <ele>999.24995</ele>
        <time>2022-02-22T11:12:36.878Z</time>
      </trkpt>
      <trkpt lat="41.73751" lon="-1.6857">
        <ele>995.242699</ele>
        <time>2022-02-22T11:12:44.841Z</time>
      </trkpt>
      <trkpt lat="41.73733" lon="-1.6855">
        <ele>993.466991</ele>
        <time>2022-02-22T11:12:48.303Z</time>
      </trkpt>
      <trkpt lat="41.73638" lon="-1.6839">
        <ele>982.71301</ele>
        <time>2022-02-22T11:13:11.788Z</time>
      </trkpt>
      <trkpt lat="41.73619" lon="-1.68387">
        <ele>981.476661</ele>
        <time>2022-02-22T11:13:15.114Z</time>
      </trkpt>
      <trkpt lat="41.73607" lon="-1.68398">
        <ele>980.550138</ele>
        <time>2022-02-22T11:13:17.488Z</time>
      </trkpt>
      <trkpt lat="41.73596" lon="-1.6842">
        <ele>979.280674</ele>
        <time>2022-02-22T11:13:20.843Z</time>
      </trkpt>
      <trkpt lat="41.73588" lon="-1.68455">
        <ele>977.567078</ele>
        <time>2022-02-22T11:13:25.214Z</time>
      </trkpt>
      <trkpt lat="41.73582" lon="-1.68463">
        <ele>976.991289</ele>
        <time>2022-02-22T11:13:26.711Z</time>
      </trkpt>
      <trkpt lat="41.73572" lon="-1.68464">
        <ele>976.402164</ele>
        <time>2022-02-22T11:13:28.203Z</time>
      </trkpt>
      <trkpt lat="41.73558" lon="-1.68448">
        <ele>974.830901</ele>
        <time>2022-02-22T11:13:31.299Z</time>
      </trkpt>
      <trkpt lat="41.73529" lon="-1.68393">
        <ele>970.464769</ele>
        <time>2022-02-22T11:13:39.504Z</time>
      </trkpt>
      <trkpt lat="41.73493" lon="-1.68296">
        <ele>963.34189</ele>
        <time>2022-02-22T11:13:51.629Z</time>
      </trkpt>
      <trkpt lat="41.73488" lon="-1.68272">
        <ele>961.733354</ele>
        <time>2022-02-22T11:13:54.299Z</time>
      </trkpt>
      <trkpt lat="41.73489" lon="-1.68183">
        <ele>953.770421</ele>
        <time>2022-02-22T11:14:03.881Z</time>
      </trkpt>
      <trkpt lat="41.73477" lon="-1.68155">
        <ele>950.691076</ele>
        <time>2022-02-22T11:14:07.235Z</time>
      </trkpt>
      <trkpt lat="41.7344" lon="-1.68099">
        <ele>943.424598</ele>
        <time>2022-02-22T11:14:15.281Z</time>
      </trkpt>
      <trkpt lat="41.73406" lon="-1.68016">
        <ele>934.36491</ele>
        <time>2022-02-22T11:14:25.404Z</time>
      </trkpt>
      <trkpt lat="41.73385" lon="-1.6798">
        <ele>930.18276</ele>
        <time>2022-02-22T11:14:30.209Z</time>
      </trkpt>
      <trkpt lat="41.73338" lon="-1.67908">
        <ele>921.275692</ele>
        <time>2022-02-22T11:14:40.704Z</time>
      </trkpt>
      <trkpt lat="41.73272" lon="-1.67821">
        <ele>909.410788</ele>
        <time>2022-02-22T11:14:54.041Z</time>
      </trkpt>
      <trkpt lat="41.73228" lon="-1.67727">
        <ele>898.395113</ele>
        <time>2022-02-22T11:15:05.736Z</time>
      </trkpt>
      <trkpt lat="41.73176" lon="-1.67592">
        <ele>886.094863</ele>
        <time>2022-02-22T11:15:22.056Z</time>
      </trkpt>
      <trkpt lat="41.73163" lon="-1.67575">
        <ele>884.682375</ele>
        <time>2022-02-22T11:15:24.691Z</time>
      </trkpt>
      <trkpt lat="41.73136" lon="-1.67559">
        <ele>882.293779</ele>
        <time>2022-02-22T11:15:29.176Z</time>
      </trkpt>
      <trkpt lat="41.73122" lon="-1.67628">
        <ele>877.98801</ele>
        <time>2022-02-22T11:15:44.530Z</time>
      </trkpt>
      <trkpt lat="41.73123" lon="-1.67713">
        <ele>875.909053</ele>
        <time>2022-02-22T11:16:04.573Z</time>
      </trkpt>
      <trkpt lat="41.73111" lon="-1.67781">
        <ele>875.723091</ele>
        <time>2022-02-22T11:16:15.868Z</time>
      </trkpt>
      <trkpt lat="41.73111" lon="-1.67834">
        <ele>875.582039</ele>
        <time>2022-02-22T11:16:27.226Z</time>
      </trkpt>
      <trkpt lat="41.73099" lon="-1.67858">
        <ele>875.505264</ele>
        <time>2022-02-22T11:16:32.181Z</time>
      </trkpt>
      <trkpt lat="41.73097" lon="-1.67859">
        <ele>875.499065</ele>
        <time>2022-02-22T11:16:32.665Z</time>
      </trkpt>
      <trkpt lat="41.73079" lon="-1.67878">
        <ele>875.41838</ele>
        <time>2022-02-22T11:16:39.320Z</time>
      </trkpt>
      <trkpt lat="41.73075" lon="-1.67879">
        <ele>875.507241</ele>
        <time>2022-02-22T11:16:40.576Z</time>
      </trkpt>
      <trkpt lat="41.73061" lon="-1.67879">
        <ele>876.047824</ele>
        <time>2022-02-22T11:16:46.007Z</time>
      </trkpt>
      <trkpt lat="41.73049" lon="-1.67881">
        <ele>876.542447</ele>
        <time>2022-02-22T11:16:51.482Z</time>
      </trkpt>
      <trkpt lat="41.7304" lon="-1.67896">
        <ele>877.110759</ele>
        <time>2022-02-22T11:16:55.632Z</time>
      </trkpt>
      <trkpt lat="41.73024" lon="-1.67914">
        <ele>877.951851</ele>
        <time>2022-02-22T11:17:05.088Z</time>
      </trkpt>
      <trkpt lat="41.7302" lon="-1.67894">
        <ele>878.576733</ele>
        <time>2022-02-22T11:17:09.827Z</time>
      </trkpt>
      <trkpt lat="41.73004" lon="-1.67856">
        <ele>879.83549</ele>
        <time>2022-02-22T11:17:22.512Z</time>
      </trkpt>
      <trkpt lat="41.73005" lon="-1.67834">
        <ele>880.512111</ele>
        <time>2022-02-22T11:17:30.250Z</time>
      </trkpt>
      <trkpt lat="41.72999" lon="-1.67835">
        <ele>880.767896</ele>
        <time>2022-02-22T11:17:33.733Z</time>
      </trkpt>
      <trkpt lat="41.7299" lon="-1.67835">
        <ele>881.114518</ele>
        <time>2022-02-22T11:17:37.068Z</time>
      </trkpt>
      <trkpt lat="41.72988" lon="-1.67835">
        <ele>881.174214</ele>
        <time>2022-02-22T11:17:37.800Z</time>
      </trkpt>
      <trkpt lat="41.72962" lon="-1.6783">
        <ele>882.243579</ele>
        <time>2022-02-22T11:17:56.728Z</time>
      </trkpt>
      <trkpt lat="41.72954" lon="-1.67814">
        <ele>883.274731</ele>
        <time>2022-02-22T11:18:05.901Z</time>
      </trkpt>
      <trkpt lat="41.72923" lon="-1.67842">
        <ele>887.501769</ele>
        <time>2022-02-22T11:18:35.553Z</time>
      </trkpt>
      <trkpt lat="41.72899" lon="-1.67843">
        <ele>890.308395</ele>
        <time>2022-02-22T11:18:55.816Z</time>
      </trkpt>
      <trkpt lat="41.72891" lon="-1.67833">
        <ele>891.513179</ele>
        <time>2022-02-22T11:19:05.731Z</time>
      </trkpt>
      <trkpt lat="41.72884" lon="-1.67833">
        <ele>892.234298</ele>
        <time>2022-02-22T11:19:12.520Z</time>
      </trkpt>
      <trkpt lat="41.72831" lon="-1.67853">
        <ele>898.49036</ele>
        <time>2022-02-22T11:20:14.431Z</time>
      </trkpt>
      <trkpt lat="41.72791" lon="-1.67827">
        <ele>903.45869</ele>
        <time>2022-02-22T11:21:00.665Z</time>
      </trkpt>
      <trkpt lat="41.72761" lon="-1.6784">
        <ele>906.915805</ele>
        <time>2022-02-22T11:21:31.756Z</time>
      </trkpt>
      <trkpt lat="41.72708" lon="-1.67845">
        <ele>912.772636</ele>
        <time>2022-02-22T11:22:25.397Z</time>
      </trkpt>
      <trkpt lat="41.72715" lon="-1.67828">
        <ele>914.43276</ele>
        <time>2022-02-22T11:22:37.178Z</time>
      </trkpt>
      <trkpt lat="41.72741" lon="-1.67721">
        <ele>923.2937</ele>
        <time>2022-02-22T11:23:48.447Z</time>
      </trkpt>
      <trkpt lat="41.72745" lon="-1.67676">
        <ele>925.725796</ele>
        <time>2022-02-22T11:24:16.469Z</time>
      </trkpt>
      <trkpt lat="41.72741" lon="-1.67604">
        <ele>929.581606</ele>
        <time>2022-02-22T11:24:51.808Z</time>
      </trkpt>
      <trkpt lat="41.7276" lon="-1.67531">
        <ele>933.694627</ele>
        <time>2022-02-22T11:25:28.929Z</time>
      </trkpt>
      <trkpt lat="41.72744" lon="-1.6756">
        <ele>935.670196</ele>
        <time>2022-02-22T11:25:47.784Z</time>
      </trkpt>
      <trkpt lat="41.72732" lon="-1.67582">
        <ele>937.525209</ele>
        <time>2022-02-22T11:26:02.677Z</time>
      </trkpt>
      <trkpt lat="41.72674" lon="-1.67755">
        <ele>950.733516</ele>
        <time>2022-02-22T11:28:10.011Z</time>
      </trkpt>
      <trkpt lat="41.72626" lon="-1.67868">
        <ele>956.162723</ele>
        <time>2022-02-22T11:29:25.409Z</time>
      </trkpt>
      <trkpt lat="41.72617" lon="-1.67873">
        <ele>956.642565</ele>
        <time>2022-02-22T11:29:34.347Z</time>
      </trkpt>
      <trkpt lat="41.72615" lon="-1.67865">
        <ele>956.965226</ele>
        <time>2022-02-22T11:29:37.972Z</time>
      </trkpt>
      <trkpt lat="41.72643" lon="-1.67711">
        <ele>960.432879</ele>
        <time>2022-02-22T11:30:29.272Z</time>
      </trkpt>
      <trkpt lat="41.7265" lon="-1.6765">
        <ele>959.69675</ele>
        <time>2022-02-22T11:30:42.941Z</time>
      </trkpt>
      <trkpt lat="41.72653" lon="-1.67511">
        <ele>958.688235</ele>
        <time>2022-02-22T11:31:14.275Z</time>
      </trkpt>
      <trkpt lat="41.72647" lon="-1.67478">
        <ele>961.322014</ele>
        <time>2022-02-22T11:31:27.013Z</time>
      </trkpt>
      <trkpt lat="41.72635" lon="-1.67447">
        <ele>964.072195</ele>
        <time>2022-02-22T11:31:45.524Z</time>
      </trkpt>
      <trkpt lat="41.72617" lon="-1.67426">
        <ele>966.526441</ele>
        <time>2022-02-22T11:32:06.301Z</time>
      </trkpt>
      <trkpt lat="41.72596" lon="-1.67422">
        <ele>968.792821</ele>
        <time>2022-02-22T11:32:27.827Z</time>
      </trkpt>
      <trkpt lat="41.72564" lon="-1.67429">
        <ele>972.169733</ele>
        <time>2022-02-22T11:33:03.830Z</time>
      </trkpt>
      <trkpt lat="41.72478" lon="-1.67488">
        <ele>984.805919</ele>
        <time>2022-02-22T11:35:08.296Z</time>
      </trkpt>
      <trkpt lat="41.72448" lon="-1.67501">
        <ele>989.627917</ele>
        <time>2022-02-22T11:35:47.409Z</time>
      </trkpt>
      <trkpt lat="41.72396" lon="-1.67497">
        <ele>997.527745</ele>
        <time>2022-02-22T11:36:50.111Z</time>
      </trkpt>
      <trkpt lat="41.72388" lon="-1.67489">
        <ele>999.094221</ele>
        <time>2022-02-22T11:37:01.221Z</time>
      </trkpt>
      <trkpt lat="41.72386" lon="-1.67476">
        <ele>1000.641433</ele>
        <time>2022-02-22T11:37:11.735Z</time>
      </trkpt>
      <trkpt lat="41.72408" lon="-1.67379">
        <ele>1007.945829</ele>
        <time>2022-02-22T11:38:14.770Z</time>
      </trkpt>
      <trkpt lat="41.72412" lon="-1.67314">
        <ele>1011.233434</ele>
        <time>2022-02-22T11:38:46.468Z</time>
      </trkpt>
      <trkpt lat="41.72405" lon="-1.67245">
        <ele>1014.770819</ele>
        <time>2022-02-22T11:39:16.190Z</time>
      </trkpt>
      <trkpt lat="41.72393" lon="-1.67212">
        <ele>1016.61156</ele>
        <time>2022-02-22T11:39:33.461Z</time>
      </trkpt>
      <trkpt lat="41.72362" lon="-1.67181">
        <ele>1018.780049</ele>
        <time>2022-02-22T11:40:00.000Z</time>
      </trkpt>
      <trkpt lat="41.72328" lon="-1.67127">
        <ele>1021.737359</ele>
        <time>2022-02-22T11:40:35.828Z</time>
      </trkpt>
      <trkpt lat="41.72303" lon="-1.67019">
        <ele>1026.463502</ele>
        <time>2022-02-22T11:41:31.165Z</time>
      </trkpt>
      <trkpt lat="41.72292" lon="-1.66995">
        <ele>1027.658749</ele>
        <time>2022-02-22T11:41:42.556Z</time>
      </trkpt>
      <trkpt lat="41.72277" lon="-1.66979">
        <ele>1028.790063</ele>
        <time>2022-02-22T11:41:54.518Z</time>
      </trkpt>
      <trkpt lat="41.72261" lon="-1.66974">
        <ele>1029.734259</ele>
        <time>2022-02-22T11:42:03.669Z</time>
      </trkpt>
      <trkpt lat="41.72248" lon="-1.66979">
        <ele>1030.559587</ele>
        <time>2022-02-22T11:42:13.409Z</time>
      </trkpt>
      <trkpt lat="41.72248" lon="-1.6699">
        <ele>1031.033415</ele>
        <time>2022-02-22T11:42:17.941Z</time>
      </trkpt>
      <trkpt lat="41.72261" lon="-1.67005">
        <ele>1032.013805</ele>
        <time>2022-02-22T11:42:28.640Z</time>
      </trkpt>
      <trkpt lat="41.72267" lon="-1.67033">
        <ele>1033.286518</ele>
        <time>2022-02-22T11:42:43.287Z</time>
      </trkpt>
      <trkpt lat="41.72265" lon="-1.67048">
        <ele>1033.987119</ele>
        <time>2022-02-22T11:42:51.197Z</time>
      </trkpt>
      <trkpt lat="41.72255" lon="-1.67052">
        <ele>1034.609429</ele>
        <time>2022-02-22T11:42:59.470Z</time>
      </trkpt>
      <trkpt lat="41.72241" lon="-1.67034">
        <ele>1035.74549</ele>
        <time>2022-02-22T11:43:12.304Z</time>
      </trkpt>
      <trkpt lat="41.72164" lon="-1.67042">
        <ele>1041.251064</ele>
        <time>2022-02-22T11:44:09.847Z</time>
      </trkpt>
      <trkpt lat="41.7213" lon="-1.67039">
        <ele>1043.843457</ele>
        <time>2022-02-22T11:44:34.421Z</time>
      </trkpt>
      <trkpt lat="41.72074" lon="-1.67022">
        <ele>1048.282798</ele>
        <time>2022-02-22T11:45:18.100Z</time>
      </trkpt>
      <trkpt lat="41.7205" lon="-1.67023">
        <ele>1050.179493</ele>
        <time>2022-02-22T11:45:36.658Z</time>
      </trkpt>
      <trkpt lat="41.72025" lon="-1.67037">
        <ele>1052.881365</ele>
        <time>2022-02-22T11:45:57.061Z</time>
      </trkpt>
      <trkpt lat="41.71993" lon="-1.67066">
        <ele>1057.609322</ele>
        <time>2022-02-22T11:46:30.076Z</time>
      </trkpt>
      <trkpt lat="41.71906" lon="-1.67041">
        <ele>1068.709783</ele>
        <time>2022-02-22T11:47:54.369Z</time>
      </trkpt>
      <trkpt lat="41.71883" lon="-1.67041">
        <ele>1071.533379</ele>
        <time>2022-02-22T11:48:23.202Z</time>
      </trkpt>
      <trkpt lat="41.71867" lon="-1.67058">
        <ele>1074.34184</ele>
        <time>2022-02-22T11:48:51.963Z</time>
      </trkpt>
      <trkpt lat="41.71808" lon="-1.67161">
        <ele>1091.708358</ele>
        <time>2022-02-22T11:50:56.357Z</time>
      </trkpt>
      <trkpt lat="41.71799" lon="-1.67188">
        <ele>1095.535014</ele>
        <time>2022-02-22T11:51:28.837Z</time>
      </trkpt>
      <trkpt lat="41.7179" lon="-1.67197">
        <ele>1097.634733</ele>
        <time>2022-02-22T11:51:40.274Z</time>
      </trkpt>
      <trkpt lat="41.71774" lon="-1.67196">
        <ele>1100.421629</ele>
        <time>2022-02-22T11:52:03.980Z</time>
      </trkpt>
      <trkpt lat="41.71702" lon="-1.67233">
        <ele>1109.934208</ele>
        <time>2022-02-22T11:53:34.637Z</time>
      </trkpt>
      <trkpt lat="41.71689" lon="-1.67232">
        <ele>1111.052391</ele>
        <time>2022-02-22T11:53:45.012Z</time>
      </trkpt>
      <trkpt lat="41.71674" lon="-1.67199">
        <ele>1113.637367</ele>
        <time>2022-02-22T11:54:16.212Z</time>
      </trkpt>
      <trkpt lat="41.71668" lon="-1.67162">
        <ele>1116.147139</ele>
        <time>2022-02-22T11:54:35.300Z</time>
      </trkpt>
      <trkpt lat="41.71663" lon="-1.67039">
        <ele>1121.714297</ele>
        <time>2022-02-22T11:55:16.142Z</time>
      </trkpt>
      <trkpt lat="41.71606" lon="-1.66856">
        <ele>1122.462314</ele>
        <time>2022-02-22T11:56:09.999Z</time>
      </trkpt>
      <trkpt lat="41.71585" lon="-1.66819">
        <ele>1123.935488</ele>
        <time>2022-02-22T11:56:24.989Z</time>
      </trkpt>
      <trkpt lat="41.71556" lon="-1.66788">
        <ele>1125.559435</ele>
        <time>2022-02-22T11:56:45.030Z</time>
      </trkpt>
      <trkpt lat="41.71534" lon="-1.66773">
        <ele>1126.65156</ele>
        <time>2022-02-22T11:56:59.697Z</time>
      </trkpt>
      <trkpt lat="41.71502" lon="-1.66774">
        <ele>1128.089362</ele>
        <time>2022-02-22T11:57:21.207Z</time>
      </trkpt>
      <trkpt lat="41.71488" lon="-1.66792">
        <ele>1128.914098</ele>
        <time>2022-02-22T11:57:34.331Z</time>
      </trkpt>
      <trkpt lat="41.71479" lon="-1.66816">
        <ele>1129.792801</ele>
        <time>2022-02-22T11:57:48.925Z</time>
      </trkpt>
      <trkpt lat="41.71477" lon="-1.66855">
        <ele>1131.617739</ele>
        <time>2022-02-22T11:58:10.765Z</time>
      </trkpt>
      <trkpt lat="41.71483" lon="-1.66895">
        <ele>1134.02325</ele>
        <time>2022-02-22T11:58:32.321Z</time>
      </trkpt>
      <trkpt lat="41.71465" lon="-1.67">
        <ele>1140.370475</ele>
        <time>2022-02-22T11:59:33.940Z</time>
      </trkpt>
      <trkpt lat="41.71473" lon="-1.67006">
        <ele>1141.10391</ele>
        <time>2022-02-22T11:59:41.021Z</time>
      </trkpt>
      <trkpt lat="41.71515" lon="-1.66968">
        <ele>1145.324329</ele>
        <time>2022-02-22T12:00:21.654Z</time>
      </trkpt>
      <trkpt lat="41.71523" lon="-1.66967">
        <ele>1146.187188</ele>
        <time>2022-02-22T12:00:28.256Z</time>
      </trkpt>
      <trkpt lat="41.7153" lon="-1.6698">
        <ele>1147.538856</ele>
        <time>2022-02-22T12:00:37.618Z</time>
      </trkpt>
      <trkpt lat="41.71511" lon="-1.6702">
        <ele>1151.545199</ele>
        <time>2022-02-22T12:01:07.518Z</time>
      </trkpt>
      <trkpt lat="41.71393" lon="-1.67161">
        <ele>1169.16363</ele>
        <time>2022-02-22T12:03:44.016Z</time>
      </trkpt>
      <trkpt lat="41.71322" lon="-1.67263">
        <ele>1181.078138</ele>
        <time>2022-02-22T12:05:26.798Z</time>
      </trkpt>
      <trkpt lat="41.71303" lon="-1.6728">
        <ele>1183.746941</ele>
        <time>2022-02-22T12:05:45.705Z</time>
      </trkpt>
      <trkpt lat="41.71261" lon="-1.67298">
        <ele>1187.447107</ele>
        <time>2022-02-22T12:06:21.565Z</time>
      </trkpt>
      <trkpt lat="41.71238" lon="-1.67301">
        <ele>1189.074473</ele>
        <time>2022-02-22T12:06:40.264Z</time>
      </trkpt>
      <trkpt lat="41.71169" lon="-1.6729">
        <ele>1194.08613</ele>
        <time>2022-02-22T12:07:31.395Z</time>
      </trkpt>
      <trkpt lat="41.71141" lon="-1.67298">
        <ele>1196.124119</ele>
        <time>2022-02-22T12:07:50.183Z</time>
      </trkpt>
      <trkpt lat="41.71123" lon="-1.67311">
        <ele>1197.663315</ele>
        <time>2022-02-22T12:08:04.103Z</time>
      </trkpt>
      <trkpt lat="41.71101" lon="-1.67345">
        <ele>1198.781289</ele>
        <time>2022-02-22T12:08:24.134Z</time>
      </trkpt>
      <trkpt lat="41.71081" lon="-1.6746">
        <ele>1200.93487</ele>
        <time>2022-02-22T12:09:11.661Z</time>
      </trkpt>
      <trkpt lat="41.71079" lon="-1.67501">
        <ele>1201.680856</ele>
        <time>2022-02-22T12:09:26.397Z</time>
      </trkpt>
      <trkpt lat="41.71069" lon="-1.67514">
        <ele>1202.013394</ele>
        <time>2022-02-22T12:09:32.282Z</time>
      </trkpt>
      <trkpt lat="41.71063" lon="-1.67513">
        <ele>1202.173709</ele>
        <time>2022-02-22T12:09:34.896Z</time>
      </trkpt>
      <trkpt lat="41.71058" lon="-1.67504">
        <ele>1202.35439</ele>
        <time>2022-02-22T12:09:37.572Z</time>
      </trkpt>
      <trkpt lat="41.71038" lon="-1.67449">
        <ele>1200.035856</ele>
        <time>2022-02-22T12:09:52.078Z</time>
      </trkpt>
      <trkpt lat="41.7102" lon="-1.67429">
        <ele>1198.568275</ele>
        <time>2022-02-22T12:09:59.065Z</time>
      </trkpt>
      <trkpt lat="41.70988" lon="-1.67402">
        <ele>1196.172132</ele>
        <time>2022-02-22T12:10:09.907Z</time>
      </trkpt>
      <trkpt lat="41.70921" lon="-1.67366">
        <ele>1191.611128</ele>
        <time>2022-02-22T12:10:28.696Z</time>
      </trkpt>
      <trkpt lat="41.70886" lon="-1.673">
        <ele>1185.104388</ele>
        <time>2022-02-22T12:10:43.754Z</time>
      </trkpt>
      <trkpt lat="41.70853" lon="-1.67195">
        <ele>1175.479725</ele>
        <time>2022-02-22T12:11:04.718Z</time>
      </trkpt>
      <trkpt lat="41.70818" lon="-1.67125">
        <ele>1169.693206</ele>
        <time>2022-02-22T12:11:20.762Z</time>
      </trkpt>
      <trkpt lat="41.70805" lon="-1.67115">
        <ele>1168.961821</ele>
        <time>2022-02-22T12:11:24.776Z</time>
      </trkpt>
      <trkpt lat="41.70788" lon="-1.67113">
        <ele>1168.107991</ele>
        <time>2022-02-22T12:11:29.307Z</time>
      </trkpt>
      <trkpt lat="41.70727" lon="-1.67151">
        <ele>1164.847304</ele>
        <time>2022-02-22T12:11:48.693Z</time>
      </trkpt>
      <trkpt lat="41.70663" lon="-1.67228">
        <ele>1162.182295</ele>
        <time>2022-02-22T12:12:19.935Z</time>
      </trkpt>
      <trkpt lat="41.70649" lon="-1.67239">
        <ele>1162.308245</ele>
        <time>2022-02-22T12:12:27.562Z</time>
      </trkpt>
      <trkpt lat="41.70609" lon="-1.6725">
        <ele>1162.619549</ele>
        <time>2022-02-22T12:12:45.619Z</time>
      </trkpt>
      <trkpt lat="41.70453" lon="-1.67253">
        <ele>1162.402296</ele>
        <time>2022-02-22T12:13:51.259Z</time>
      </trkpt>
      <trkpt lat="41.70424" lon="-1.67259">
        <ele>1161.941812</ele>
        <time>2022-02-22T12:14:01.770Z</time>
      </trkpt>
      <trkpt lat="41.70409" lon="-1.67255">
        <ele>1161.701114</ele>
        <time>2022-02-22T12:14:06.999Z</time>
      </trkpt>
      <trkpt lat="41.7034" lon="-1.67214">
        <ele>1160.455663</ele>
        <time>2022-02-22T12:14:30.152Z</time>
      </trkpt>
      <trkpt lat="41.70314" lon="-1.6719">
        <ele>1157.867519</ele>
        <time>2022-02-22T12:14:39.404Z</time>
      </trkpt>
      <trkpt lat="41.70302" lon="-1.67169">
        <ele>1156.281162</ele>
        <time>2022-02-22T12:14:44.661Z</time>
      </trkpt>
      <trkpt lat="41.70288" lon="-1.67075">
        <ele>1150.452179</ele>
        <time>2022-02-22T12:15:03.089Z</time>
      </trkpt>
      <trkpt lat="41.70292" lon="-1.66993">
        <ele>1145.655665</ele>
        <time>2022-02-22T12:15:18.994Z</time>
      </trkpt>
      <trkpt lat="41.70305" lon="-1.66927">
        <ele>1143.328105</ele>
        <time>2022-02-22T12:15:32.333Z</time>
      </trkpt>
      <trkpt lat="41.7027" lon="-1.66936">
        <ele>1141.702066</ele>
        <time>2022-02-22T12:15:42.259Z</time>
      </trkpt>
      <trkpt lat="41.70217" lon="-1.66934">
        <ele>1139.289812</ele>
        <time>2022-02-22T12:15:58.201Z</time>
      </trkpt>
      <trkpt lat="41.70037" lon="-1.66899">
        <ele>1141.068216</ele>
        <time>2022-02-22T12:17:26.196Z</time>
      </trkpt>
      <trkpt lat="41.6997" lon="-1.66905">
        <ele>1142.798241</ele>
        <time>2022-02-22T12:18:03.578Z</time>
      </trkpt>
      <trkpt lat="41.69872" lon="-1.66924">
        <ele>1145.687217</ele>
        <time>2022-02-22T12:18:56.450Z</time>
      </trkpt>
      <trkpt lat="41.69852" lon="-1.66917">
        <ele>1146.273321</ele>
        <time>2022-02-22T12:19:06.867Z</time>
      </trkpt>
      <trkpt lat="41.69813" lon="-1.66882">
        <ele>1147.07891</ele>
        <time>2022-02-22T12:19:28.811Z</time>
      </trkpt>
      <trkpt lat="41.69791" lon="-1.66879">
        <ele>1147.13014</ele>
        <time>2022-02-22T12:19:37.902Z</time>
      </trkpt>
      <trkpt lat="41.69765" lon="-1.66886">
        <ele>1147.191979</ele>
        <time>2022-02-22T12:19:48.561Z</time>
      </trkpt>
      <trkpt lat="41.69745" lon="-1.6689">
        <ele>1147.239528</ele>
        <time>2022-02-22T12:19:57.220Z</time>
      </trkpt>
      <trkpt lat="41.69734" lon="-1.66881">
        <ele>1147.270905</ele>
        <time>2022-02-22T12:20:01.931Z</time>
      </trkpt>
      <trkpt lat="41.69724" lon="-1.66864">
        <ele>1147.306871</ele>
        <time>2022-02-22T12:20:07.786Z</time>
      </trkpt>
      <trkpt lat="41.69709" lon="-1.66802">
        <ele>1147.419793</ele>
        <time>2022-02-22T12:20:24.976Z</time>
      </trkpt>
      <trkpt lat="41.69694" lon="-1.66788">
        <ele>1147.160175</ele>
        <time>2022-02-22T12:20:31.387Z</time>
      </trkpt>
      <trkpt lat="41.69657" lon="-1.66782">
        <ele>1145.384251</ele>
        <time>2022-02-22T12:20:43.970Z</time>
      </trkpt>
      <trkpt lat="41.69603" lon="-1.66793">
        <ele>1142.76339</ele>
        <time>2022-02-22T12:21:00.080Z</time>
      </trkpt>
      <trkpt lat="41.69558" lon="-1.66765">
        <ele>1140.384689</ele>
        <time>2022-02-22T12:21:13.590Z</time>
      </trkpt>
      <trkpt lat="41.69535" lon="-1.66762">
        <ele>1139.283772</ele>
        <time>2022-02-22T12:21:19.754Z</time>
      </trkpt>
      <trkpt lat="41.69494" lon="-1.66769">
        <ele>1135.924162</ele>
        <time>2022-02-22T12:21:30.976Z</time>
      </trkpt>
      <trkpt lat="41.69477" lon="-1.6676">
        <ele>1134.320158</ele>
        <time>2022-02-22T12:21:35.763Z</time>
      </trkpt>
      <trkpt lat="41.69461" lon="-1.6676">
        <ele>1132.817696</ele>
        <time>2022-02-22T12:21:40.124Z</time>
      </trkpt>
      <trkpt lat="41.69413" lon="-1.66734">
        <ele>1128.181297</ele>
        <time>2022-02-22T12:21:53.688Z</time>
      </trkpt>
      <trkpt lat="41.69385" lon="-1.66706">
        <ele>1125.016904</ele>
        <time>2022-02-22T12:22:02.634Z</time>
      </trkpt>
      <trkpt lat="41.693" lon="-1.66642">
        <ele>1113.007143</ele>
        <time>2022-02-22T12:22:27.411Z</time>
      </trkpt>
      <trkpt lat="41.69255" lon="-1.66636">
        <ele>1106.942235</ele>
        <time>2022-02-22T12:22:38.572Z</time>
      </trkpt>
      <trkpt lat="41.6918" lon="-1.66644">
        <ele>1096.651099</ele>
        <time>2022-02-22T12:22:56.509Z</time>
      </trkpt>
      <trkpt lat="41.6906" lon="-1.66586">
        <ele>1077.6079</ele>
        <time>2022-02-22T12:23:27.002Z</time>
      </trkpt>
      <trkpt lat="41.69022" lon="-1.66582">
        <ele>1071.750854</ele>
        <time>2022-02-22T12:23:36.760Z</time>
      </trkpt>
      <trkpt lat="41.69013" lon="-1.66561">
        <ele>1069.654454</ele>
        <time>2022-02-22T12:23:41.130Z</time>
      </trkpt>
      <trkpt lat="41.69019" lon="-1.66534">
        <ele>1067.215303</ele>
        <time>2022-02-22T12:23:46.341Z</time>
      </trkpt>
      <trkpt lat="41.69012" lon="-1.66531">
        <ele>1066.380841</ele>
        <time>2022-02-22T12:23:48.084Z</time>
      </trkpt>
      <trkpt lat="41.68989" lon="-1.66541">
        <ele>1063.590627</ele>
        <time>2022-02-22T12:23:54.006Z</time>
      </trkpt>
      <trkpt lat="41.68971" lon="-1.66563">
        <ele>1060.778987</ele>
        <time>2022-02-22T12:24:00.051Z</time>
      </trkpt>
      <trkpt lat="41.68958" lon="-1.66561">
        <ele>1059.232868</ele>
        <time>2022-02-22T12:24:03.451Z</time>
      </trkpt>
      <trkpt lat="41.68952" lon="-1.6654">
        <ele>1057.279213</ele>
        <time>2022-02-22T12:24:07.788Z</time>
      </trkpt>
      <trkpt lat="41.68956" lon="-1.66515">
        <ele>1055.111015</ele>
        <time>2022-02-22T12:24:12.712Z</time>
      </trkpt>
      <trkpt lat="41.68929" lon="-1.6651">
        <ele>1052.004064</ele>
        <time>2022-02-22T12:24:19.729Z</time>
      </trkpt>
      <trkpt lat="41.68898" lon="-1.66528">
        <ele>1048.440184</ele>
        <time>2022-02-22T12:24:28.442Z</time>
      </trkpt>
      <trkpt lat="41.68881" lon="-1.66529">
        <ele>1046.675001</ele>
        <time>2022-02-22T12:24:33.030Z</time>
      </trkpt>
      <trkpt lat="41.68866" lon="-1.66522">
        <ele>1045.148464</ele>
        <time>2022-02-22T12:24:36.883Z</time>
      </trkpt>
      <trkpt lat="41.68814" lon="-1.66475">
        <ele>1038.829241</ele>
        <time>2022-02-22T12:24:52.878Z</time>
      </trkpt>
      <trkpt lat="41.68787" lon="-1.6646">
        <ele>1035.904811</ele>
        <time>2022-02-22T12:25:00.151Z</time>
      </trkpt>
      <trkpt lat="41.68761" lon="-1.66428">
        <ele>1032.436201</ele>
        <time>2022-02-22T12:25:09.330Z</time>
      </trkpt>
      <trkpt lat="41.68719" lon="-1.6643">
        <ele>1029.719424</ele>
        <time>2022-02-22T12:25:20.872Z</time>
      </trkpt>
      <trkpt lat="41.68663" lon="-1.66416">
        <ele>1026.024047</ele>
        <time>2022-02-22T12:25:36.643Z</time>
      </trkpt>
      <trkpt lat="41.68644" lon="-1.66405">
        <ele>1024.680078</ele>
        <time>2022-02-22T12:25:42.402Z</time>
      </trkpt>
      <trkpt lat="41.68597" lon="-1.66375">
        <ele>1021.29392</ele>
        <time>2022-02-22T12:25:57.241Z</time>
      </trkpt>
      <trkpt lat="41.68576" lon="-1.66354">
        <ele>1020.215507</ele>
        <time>2022-02-22T12:26:04.858Z</time>
      </trkpt>
      <trkpt lat="41.68524" lon="-1.66324">
        <ele>1018.276194</ele>
        <time>2022-02-22T12:26:21.567Z</time>
      </trkpt>
      <trkpt lat="41.68425" lon="-1.66243">
        <ele>1014.508224</ele>
        <time>2022-02-22T12:26:58.040Z</time>
      </trkpt>
      <trkpt lat="41.68379" lon="-1.66217">
        <ele>1013.711954</ele>
        <time>2022-02-22T12:27:14.584Z</time>
      </trkpt>
      <trkpt lat="41.68361" lon="-1.662">
        <ele>1013.371735</ele>
        <time>2022-02-22T12:27:21.677Z</time>
      </trkpt>
      <trkpt lat="41.68338" lon="-1.66165">
        <ele>1012.81188</ele>
        <time>2022-02-22T12:27:33.466Z</time>
      </trkpt>
      <trkpt lat="41.68312" lon="-1.6614">
        <ele>1012.305695</ele>
        <time>2022-02-22T12:27:44.246Z</time>
      </trkpt>
      <trkpt lat="41.68276" lon="-1.66129">
        <ele>1011.801346</ele>
        <time>2022-02-22T12:27:57.187Z</time>
      </trkpt>
      <trkpt lat="41.68229" lon="-1.66087">
        <ele>1011.461158</ele>
        <time>2022-02-22T12:28:17.425Z</time>
      </trkpt>
      <trkpt lat="41.68177" lon="-1.66094">
        <ele>1011.146056</ele>
        <time>2022-02-22T12:28:36.992Z</time>
      </trkpt>
      <trkpt lat="41.68067" lon="-1.66008">
        <ele>1009.728714</ele>
        <time>2022-02-22T12:29:20.844Z</time>
      </trkpt>
      <trkpt lat="41.6802" lon="-1.65997">
        <ele>1008.963546</ele>
        <time>2022-02-22T12:29:36.262Z</time>
      </trkpt>
      <trkpt lat="41.67946" lon="-1.65911">
        <ele>1007.895957</ele>
        <time>2022-02-22T12:30:07.925Z</time>
      </trkpt>
      <trkpt lat="41.67903" lon="-1.65879">
        <ele>1007.888164</ele>
        <time>2022-02-22T12:30:25.599Z</time>
      </trkpt>
      <trkpt lat="41.67859" lon="-1.65855">
        <ele>1007.880503</ele>
        <time>2022-02-22T12:30:43.845Z</time>
      </trkpt>
      <trkpt lat="41.67827" lon="-1.65902">
        <ele>1007.873006</ele>
        <time>2022-02-22T12:31:05.703Z</time>
      </trkpt>
      <trkpt lat="41.67791" lon="-1.65923">
        <ele>1008.421209</ele>
        <time>2022-02-22T12:31:22.205Z</time>
      </trkpt>
      <trkpt lat="41.67761" lon="-1.6595">
        <ele>1008.99331</ele>
        <time>2022-02-22T12:31:38.345Z</time>
      </trkpt>
      <trkpt lat="41.67749" lon="-1.65947">
        <ele>1009.190521</ele>
        <time>2022-02-22T12:31:43.724Z</time>
      </trkpt>
      <trkpt lat="41.67725" lon="-1.65923">
        <ele>1009.655975</ele>
        <time>2022-02-22T12:31:59.547Z</time>
      </trkpt>
      <trkpt lat="41.67702" lon="-1.65913">
        <ele>1010.053317</ele>
        <time>2022-02-22T12:32:12.667Z</time>
      </trkpt>
      <trkpt lat="41.6767" lon="-1.65873">
        <ele>1010.724166</ele>
        <time>2022-02-22T12:32:29.128Z</time>
      </trkpt>
      <trkpt lat="41.67624" lon="-1.65825">
        <ele>1011.011062</ele>
        <time>2022-02-22T12:32:52.496Z</time>
      </trkpt>
      <trkpt lat="41.67606" lon="-1.65735">
        <ele>1011.352006</ele>
        <time>2022-02-22T12:33:19.919Z</time>
      </trkpt>
      <trkpt lat="41.67594" lon="-1.65708">
        <ele>1011.469416</ele>
        <time>2022-02-22T12:33:29.401Z</time>
      </trkpt>
      <trkpt lat="41.67557" lon="-1.65678">
        <ele>1011.132621</ele>
        <time>2022-02-22T12:33:46.613Z</time>
      </trkpt>
      <trkpt lat="41.67511" lon="-1.65608">
        <ele>1009.085954</ele>
        <time>2022-02-22T12:34:11.206Z</time>
      </trkpt>
      <trkpt lat="41.67478" lon="-1.65589">
        <ele>1008.045993</ele>
        <time>2022-02-22T12:34:22.390Z</time>
      </trkpt>
      <trkpt lat="41.6745" lon="-1.6555">
        <ele>1006.856003</ele>
        <time>2022-02-22T12:34:34.069Z</time>
      </trkpt>
      <trkpt lat="41.67443" lon="-1.65518">
        <ele>1005.615078</ele>
        <time>2022-02-22T12:34:40.833Z</time>
      </trkpt>
      <trkpt lat="41.67451" lon="-1.6546">
        <ele>1001.185584</ele>
        <time>2022-02-22T12:34:52.426Z</time>
      </trkpt>
      <trkpt lat="41.6743" lon="-1.65424">
        <ele>997.78277</ele>
        <time>2022-02-22T12:35:01.053Z</time>
      </trkpt>
      <trkpt lat="41.67318" lon="-1.65338">
        <ele>984.604302</ele>
        <time>2022-02-22T12:35:33.721Z</time>
      </trkpt>
      <trkpt lat="41.673" lon="-1.65315">
        <ele>982.002166</ele>
        <time>2022-02-22T12:35:39.885Z</time>
      </trkpt>
      <trkpt lat="41.6728" lon="-1.65273">
        <ele>978.034441</ele>
        <time>2022-02-22T12:35:49.330Z</time>
      </trkpt>
      <trkpt lat="41.67266" lon="-1.6526">
        <ele>976.254425</ele>
        <time>2022-02-22T12:35:53.636Z</time>
      </trkpt>
      <trkpt lat="41.67196" lon="-1.65224">
        <ele>968.350932</ele>
        <time>2022-02-22T12:36:13.127Z</time>
      </trkpt>
      <trkpt lat="41.67101" lon="-1.65146">
        <ele>957.769073</ele>
        <time>2022-02-22T12:36:41.796Z</time>
      </trkpt>
      <trkpt lat="41.67039" lon="-1.65127">
        <ele>951.694927</ele>
        <time>2022-02-22T12:36:58.412Z</time>
      </trkpt>
      <trkpt lat="41.67002" lon="-1.65145">
        <ele>948.274824</ele>
        <time>2022-02-22T12:37:08.755Z</time>
      </trkpt>
      <trkpt lat="41.66957" lon="-1.65179">
        <ele>943.774269</ele>
        <time>2022-02-22T12:37:22.492Z</time>
      </trkpt>
      <trkpt lat="41.66863" lon="-1.65201">
        <ele>935.059943</ele>
        <time>2022-02-22T12:37:47.903Z</time>
      </trkpt>
      <trkpt lat="41.66834" lon="-1.6519">
        <ele>931.342444</ele>
        <time>2022-02-22T12:37:55.632Z</time>
      </trkpt>
      <trkpt lat="41.66761" lon="-1.65147">
        <ele>921.271713</ele>
        <time>2022-02-22T12:38:15.589Z</time>
      </trkpt>
      <trkpt lat="41.66685" lon="-1.65009">
        <ele>902.808709</ele>
        <time>2022-02-22T12:38:46.080Z</time>
      </trkpt>
      <trkpt lat="41.66683" lon="-1.64995">
        <ele>901.031403</ele>
        <time>2022-02-22T12:38:48.660Z</time>
      </trkpt>
      <trkpt lat="41.66656" lon="-1.64941">
        <ele>893.267033</ele>
        <time>2022-02-22T12:39:00.248Z</time>
      </trkpt>
      <trkpt lat="41.66639" lon="-1.64927">
        <ele>890.050852</ele>
        <time>2022-02-22T12:39:05.005Z</time>
      </trkpt>
      <trkpt lat="41.66569" lon="-1.64931">
        <ele>880.517046</ele>
        <time>2022-02-22T12:39:22.256Z</time>
      </trkpt>
      <trkpt lat="41.66553" lon="-1.64914">
        <ele>878.294278</ele>
        <time>2022-02-22T12:39:27.217Z</time>
      </trkpt>
      <trkpt lat="41.66536" lon="-1.64885">
        <ele>875.156694</ele>
        <time>2022-02-22T12:39:34.236Z</time>
      </trkpt>
      <trkpt lat="41.66526" lon="-1.64839">
        <ele>871.091769</ele>
        <time>2022-02-22T12:39:43.432Z</time>
      </trkpt>
      <trkpt lat="41.66518" lon="-1.64827">
        <ele>869.759116</ele>
        <time>2022-02-22T12:39:46.532Z</time>
      </trkpt>
      <trkpt lat="41.66505" lon="-1.64818">
        <ele>868.129951</ele>
        <time>2022-02-22T12:39:50.364Z</time>
      </trkpt>
      <trkpt lat="41.66472" lon="-1.64816">
        <ele>864.324123</ele>
        <time>2022-02-22T12:39:59.089Z</time>
      </trkpt>
      <trkpt lat="41.66432" lon="-1.648">
        <ele>859.384834</ele>
        <time>2022-02-22T12:40:09.882Z</time>
      </trkpt>
      <trkpt lat="41.66391" lon="-1.64811">
        <ele>854.553741</ele>
        <time>2022-02-22T12:40:20.216Z</time>
      </trkpt>
      <trkpt lat="41.66366" lon="-1.64833">
        <ele>851.034395</ele>
        <time>2022-02-22T12:40:27.665Z</time>
      </trkpt>
      <trkpt lat="41.66358" lon="-1.64835">
        <ele>850.03366</ele>
        <time>2022-02-22T12:40:29.773Z</time>
      </trkpt>
      <trkpt lat="41.66237" lon="-1.64824">
        <ele>835.635473</ele>
        <time>2022-02-22T12:40:59.711Z</time>
      </trkpt>
      <trkpt lat="41.66195" lon="-1.64832">
        <ele>830.556011</ele>
        <time>2022-02-22T12:41:10.247Z</time>
      </trkpt>
      <trkpt lat="41.6618" lon="-1.64855">
        <ele>827.773516</ele>
        <time>2022-02-22T12:41:16.103Z</time>
      </trkpt>
      <trkpt lat="41.66171" lon="-1.6486">
        <ele>826.602911</ele>
        <time>2022-02-22T12:41:18.522Z</time>
      </trkpt>
      <trkpt lat="41.66128" lon="-1.64849">
        <ele>821.543604</ele>
        <time>2022-02-22T12:41:29.510Z</time>
      </trkpt>
      <trkpt lat="41.66087" lon="-1.6485">
        <ele>818.033455</ele>
        <time>2022-02-22T12:41:40.010Z</time>
      </trkpt>
      <trkpt lat="41.66054" lon="-1.64815">
        <ele>814.320918</ele>
        <time>2022-02-22T12:41:51.336Z</time>
      </trkpt>
      <trkpt lat="41.65999" lon="-1.64789">
        <ele>809.317453</ele>
        <time>2022-02-22T12:42:06.843Z</time>
      </trkpt>
      <trkpt lat="41.65955" lon="-1.64751">
        <ele>805.022072</ele>
        <time>2022-02-22T12:42:21.055Z</time>
      </trkpt>
      <trkpt lat="41.65895" lon="-1.64716">
        <ele>800.171738</ele>
        <time>2022-02-22T12:42:38.813Z</time>
      </trkpt>
      <trkpt lat="41.65867" lon="-1.64651">
        <ele>796.01095</ele>
        <time>2022-02-22T12:42:54.172Z</time>
      </trkpt>
      <trkpt lat="41.65854" lon="-1.6464">
        <ele>794.874104</ele>
        <time>2022-02-22T12:42:58.246Z</time>
      </trkpt>
      <trkpt lat="41.65837" lon="-1.64654">
        <ele>793.441728</ele>
        <time>2022-02-22T12:43:03.455Z</time>
      </trkpt>
      <trkpt lat="41.65817" lon="-1.64689">
        <ele>790.446141</ele>
        <time>2022-02-22T12:43:12.296Z</time>
      </trkpt>
      <trkpt lat="41.65797" lon="-1.64709">
        <ele>788.05938</ele>
        <time>2022-02-22T12:43:19.093Z</time>
      </trkpt>
      <trkpt lat="41.6578" lon="-1.64746">
        <ele>785.045128</ele>
        <time>2022-02-22T12:43:27.697Z</time>
      </trkpt>
      <trkpt lat="41.65762" lon="-1.64758">
        <ele>783.218831</ele>
        <time>2022-02-22T12:43:32.927Z</time>
      </trkpt>
      <trkpt lat="41.65735" lon="-1.64762">
        <ele>780.653323</ele>
        <time>2022-02-22T12:43:40.055Z</time>
      </trkpt>
      <trkpt lat="41.65699" lon="-1.64749">
        <ele>777.163843</ele>
        <time>2022-02-22T12:43:49.337Z</time>
      </trkpt>
      <trkpt lat="41.65641" lon="-1.64758">
        <ele>770.207409</ele>
        <time>2022-02-22T12:44:03.828Z</time>
      </trkpt>
      <trkpt lat="41.656" lon="-1.64737">
        <ele>764.765836</ele>
        <time>2022-02-22T12:44:14.687Z</time>
      </trkpt>
      <trkpt lat="41.65579" lon="-1.64749">
        <ele>761.901884</ele>
        <time>2022-02-22T12:44:20.270Z</time>
      </trkpt>
      <trkpt lat="41.65433" lon="-1.64614">
        <ele>742.989425</ele>
        <time>2022-02-22T12:45:04.887Z</time>
      </trkpt>
      <trkpt lat="41.65397" lon="-1.64588">
        <ele>739.101028</ele>
        <time>2022-02-22T12:45:15.859Z</time>
      </trkpt>
      <trkpt lat="41.65357" lon="-1.64579">
        <ele>736.057504</ele>
        <time>2022-02-22T12:45:27.423Z</time>
      </trkpt>
      <trkpt lat="41.65273" lon="-1.64548">
        <ele>733.175896</ele>
        <time>2022-02-22T12:45:53.788Z</time>
      </trkpt>
      <trkpt lat="41.65242" lon="-1.64544">
        <ele>732.140807</ele>
        <time>2022-02-22T12:46:03.853Z</time>
      </trkpt>
      <trkpt lat="41.65199" lon="-1.64548">
        <ele>730.717221</ele>
        <time>2022-02-22T12:46:18.047Z</time>
      </trkpt>
      <trkpt lat="41.65134" lon="-1.64516">
        <ele>729.437934</ele>
        <time>2022-02-22T12:46:41.135Z</time>
      </trkpt>
      <trkpt lat="41.65088" lon="-1.6451">
        <ele>728.631352</ele>
        <time>2022-02-22T12:46:56.369Z</time>
      </trkpt>
      <trkpt lat="41.65026" lon="-1.64465">
        <ele>727.397072</ele>
        <time>2022-02-22T12:47:19.273Z</time>
      </trkpt>
      <trkpt lat="41.65009" lon="-1.64442">
        <ele>726.845692</ele>
        <time>2022-02-22T12:47:27.325Z</time>
      </trkpt>
      <trkpt lat="41.6499" lon="-1.64437">
        <ele>726.427787</ele>
        <time>2022-02-22T12:47:33.413Z</time>
      </trkpt>
      <trkpt lat="41.64972" lon="-1.64413">
        <ele>725.859837</ele>
        <time>2022-02-22T12:47:41.685Z</time>
      </trkpt>
      <trkpt lat="41.64939" lon="-1.64386">
        <ele>724.989775</ele>
        <time>2022-02-22T12:47:54.393Z</time>
      </trkpt>
      <trkpt lat="41.64848" lon="-1.64362">
        <ele>722.662941</ele>
        <time>2022-02-22T12:48:23.809Z</time>
      </trkpt>
      <trkpt lat="41.64805" lon="-1.64326">
        <ele>720.943416</ele>
        <time>2022-02-22T12:48:39.576Z</time>
      </trkpt>
      <trkpt lat="41.6472" lon="-1.6436">
        <ele>717.951794</ele>
        <time>2022-02-22T12:49:06.442Z</time>
      </trkpt>
      <trkpt lat="41.64633" lon="-1.64362">
        <ele>712.24007</ele>
        <time>2022-02-22T12:49:32.052Z</time>
      </trkpt>
      <trkpt lat="41.64592" lon="-1.64353">
        <ele>709.20356</ele>
        <time>2022-02-22T12:49:42.687Z</time>
      </trkpt>
      <trkpt lat="41.64562" lon="-1.6438">
        <ele>706.511278</ele>
        <time>2022-02-22T12:49:52.204Z</time>
      </trkpt>
      <trkpt lat="41.64545" lon="-1.64405">
        <ele>704.653391</ele>
        <time>2022-02-22T12:49:58.754Z</time>
      </trkpt>
      <trkpt lat="41.64535" lon="-1.64444">
        <ele>702.008562</ele>
        <time>2022-02-22T12:50:06.864Z</time>
      </trkpt>
      <trkpt lat="41.64536" lon="-1.64469">
        <ele>700.262847</ele>
        <time>2022-02-22T12:50:11.794Z</time>
      </trkpt>
      <trkpt lat="41.64513" lon="-1.64476">
        <ele>698.141133</ele>
        <time>2022-02-22T12:50:15.113Z</time>
      </trkpt>
      <trkpt lat="41.64469" lon="-1.64469">
        <ele>694.076011</ele>
        <time>2022-02-22T12:50:21.503Z</time>
      </trkpt>
      <trkpt lat="41.64445" lon="-1.64461">
        <ele>691.82405</ele>
        <time>2022-02-22T12:50:25.015Z</time>
      </trkpt>
      <trkpt lat="41.64436" lon="-1.64449">
        <ele>690.631423</ele>
        <time>2022-02-22T12:50:26.886Z</time>
      </trkpt>
      <trkpt lat="41.64426" lon="-1.64391">
        <ele>686.738908</ele>
        <time>2022-02-22T12:50:33.302Z</time>
      </trkpt>
      <trkpt lat="41.64428" lon="-1.64295">
        <ele>681.320158</ele>
        <time>2022-02-22T12:50:44.250Z</time>
      </trkpt>
      <trkpt lat="41.64435" lon="-1.64249">
        <ele>678.638426</ele>
        <time>2022-02-22T12:50:49.554Z</time>
      </trkpt>
      <trkpt lat="41.64406" lon="-1.64189">
        <ele>674.580331</ele>
        <time>2022-02-22T12:50:57.345Z</time>
      </trkpt>
      <trkpt lat="41.6439" lon="-1.64142">
        <ele>671.468587</ele>
        <time>2022-02-22T12:51:02.936Z</time>
      </trkpt>
      <trkpt lat="41.64389" lon="-1.64123">
        <ele>670.368749</ele>
        <time>2022-02-22T12:51:04.860Z</time>
      </trkpt>
      <trkpt lat="41.64365" lon="-1.64116">
        <ele>668.392815</ele>
        <time>2022-02-22T12:51:08.592Z</time>
      </trkpt>
      <trkpt lat="41.64358" lon="-1.6412">
        <ele>667.698968</ele>
        <time>2022-02-22T12:51:09.890Z</time>
      </trkpt>
      <trkpt lat="41.64346" lon="-1.64096">
        <ele>665.952537</ele>
        <time>2022-02-22T12:51:13.226Z</time>
      </trkpt>
      <trkpt lat="41.64337" lon="-1.64092">
        <ele>665.207115</ele>
        <time>2022-02-22T12:51:14.626Z</time>
      </trkpt>
      <trkpt lat="41.64335" lon="-1.64077">
        <ele>664.288302</ele>
        <time>2022-02-22T12:51:16.349Z</time>
      </trkpt>
      <trkpt lat="41.64317" lon="-1.6408">
        <ele>662.822449</ele>
        <time>2022-02-22T12:51:19.131Z</time>
      </trkpt>
      <trkpt lat="41.64308" lon="-1.64077">
        <ele>662.107799</ele>
        <time>2022-02-22T12:51:20.461Z</time>
      </trkpt>
      <trkpt lat="41.64298" lon="-1.64068">
        <ele>661.103629</ele>
        <time>2022-02-22T12:51:22.344Z</time>
      </trkpt>
      <trkpt lat="41.64272" lon="-1.64026">
        <ele>659.154314</ele>
        <time>2022-02-22T12:51:28.704Z</time>
      </trkpt>
      <trkpt lat="41.64266" lon="-1.64017">
        <ele>659.039803</ele>
        <time>2022-02-22T12:51:30.251Z</time>
      </trkpt>
      <trkpt lat="41.64272" lon="-1.63996">
        <ele>658.824994</ele>
        <time>2022-02-22T12:51:33.234Z</time>
      </trkpt>
      <trkpt lat="41.64266" lon="-1.63974">
        <ele>658.605044</ele>
        <time>2022-02-22T12:51:36.483Z</time>
      </trkpt>
      <trkpt lat="41.6422" lon="-1.6393">
        <ele>657.901621</ele>
        <time>2022-02-22T12:51:49.371Z</time>
      </trkpt>
      <trkpt lat="41.64206" lon="-1.63901">
        <ele>657.581533</ele>
        <time>2022-02-22T12:51:57.583Z</time>
      </trkpt>
      <trkpt lat="41.64198" lon="-1.6387">
        <ele>657.273438</ele>
        <time>2022-02-22T12:52:06.061Z</time>
      </trkpt>
      <trkpt lat="41.64165" lon="-1.6382">
        <ele>657.619513</ele>
        <time>2022-02-22T12:52:25.711Z</time>
      </trkpt>
      <trkpt lat="41.64116" lon="-1.63773">
        <ele>658.310678</ele>
        <time>2022-02-22T12:52:45.837Z</time>
      </trkpt>
      <trkpt lat="41.64039" lon="-1.63733">
        <ele>659.070885</ele>
        <time>2022-02-22T12:53:06.697Z</time>
      </trkpt>
      <trkpt lat="41.63973" lon="-1.63691">
        <ele>655.927662</ele>
        <time>2022-02-22T12:53:18.804Z</time>
      </trkpt>
      <trkpt lat="41.63881" lon="-1.63624">
        <ele>651.450824</ele>
        <time>2022-02-22T12:53:35.040Z</time>
      </trkpt>
      <trkpt lat="41.63813" lon="-1.63564">
        <ele>647.886854</ele>
        <time>2022-02-22T12:53:47.733Z</time>
      </trkpt>
      <trkpt lat="41.63747" lon="-1.63527">
        <ele>644.78367</ele>
        <time>2022-02-22T12:53:59.494Z</time>
      </trkpt>
      <trkpt lat="41.6373" lon="-1.63502">
        <ele>643.695581</ele>
        <time>2022-02-22T12:54:04.067Z</time>
      </trkpt>
      <trkpt lat="41.63714" lon="-1.63452">
        <ele>643.283661</ele>
        <time>2022-02-22T12:54:11.776Z</time>
      </trkpt>
      <trkpt lat="41.63666" lon="-1.63405">
        <ele>642.697848</ele>
        <time>2022-02-22T12:54:23.593Z</time>
      </trkpt>
      <trkpt lat="41.6364" lon="-1.63327">
        <ele>642.066416</ele>
        <time>2022-02-22T12:54:37.316Z</time>
      </trkpt>
      <trkpt lat="41.63615" lon="-1.6329">
        <ele>641.758638</ele>
        <time>2022-02-22T12:54:45.502Z</time>
      </trkpt>
      <trkpt lat="41.63534" lon="-1.63226">
        <ele>641.0932</ele>
        <time>2022-02-22T12:55:05.665Z</time>
      </trkpt>
      <trkpt lat="41.63514" lon="-1.632">
        <ele>640.890901</ele>
        <time>2022-02-22T12:55:11.191Z</time>
      </trkpt>
      <trkpt lat="41.63488" lon="-1.63138">
        <ele>640.399125</ele>
        <time>2022-02-22T12:55:21.167Z</time>
      </trkpt>
      <trkpt lat="41.63462" lon="-1.63022">
        <ele>639.106859</ele>
        <time>2022-02-22T12:55:38.482Z</time>
      </trkpt>
      <trkpt lat="41.63438" lon="-1.62959">
        <ele>638.361713</ele>
        <time>2022-02-22T12:55:48.553Z</time>
      </trkpt>
      <trkpt lat="41.63388" lon="-1.62925">
        <ele>637.671315</ele>
        <time>2022-02-22T12:55:59.260Z</time>
      </trkpt>
      <trkpt lat="41.63333" lon="-1.629">
        <ele>637.016468</ele>
        <time>2022-02-22T12:56:10.630Z</time>
      </trkpt>
      <trkpt lat="41.63285" lon="-1.62854">
        <ele>636.353765</ele>
        <time>2022-02-22T12:56:22.568Z</time>
      </trkpt>
      <trkpt lat="41.63257" lon="-1.62784">
        <ele>635.631405</ele>
        <time>2022-02-22T12:56:34.728Z</time>
      </trkpt>
      <trkpt lat="41.63236" lon="-1.62706">
        <ele>634.834979</ele>
        <time>2022-02-22T12:56:46.463Z</time>
      </trkpt>
      <trkpt lat="41.63207" lon="-1.62663">
        <ele>634.278362</ele>
        <time>2022-02-22T12:56:54.692Z</time>
      </trkpt>
      <trkpt lat="41.63162" lon="-1.62644">
        <ele>633.787011</ele>
        <time>2022-02-22T12:57:03.610Z</time>
      </trkpt>
      <trkpt lat="41.63153" lon="-1.62636">
        <ele>633.888075</ele>
        <time>2022-02-22T12:57:05.747Z</time>
      </trkpt>
      <trkpt lat="41.63082" lon="-1.62522">
        <ele>634.846975</ele>
        <time>2022-02-22T12:57:28.426Z</time>
      </trkpt>
      <trkpt lat="41.63078" lon="-1.62505">
        <ele>634.961305</ele>
        <time>2022-02-22T12:57:35.501Z</time>
      </trkpt>
      <trkpt lat="41.6308" lon="-1.62489">
        <ele>635.066323</ele>
        <time>2022-02-22T12:57:38.502Z</time>
      </trkpt>
      <trkpt lat="41.63122" lon="-1.62467">
        <ele>636.565491</ele>
        <time>2022-02-22T12:57:59.172Z</time>
      </trkpt>
      <trkpt lat="41.63134" lon="-1.62447">
        <ele>637.927659</ele>
        <time>2022-02-22T12:58:09.936Z</time>
      </trkpt>
      <trkpt lat="41.63131" lon="-1.62427">
        <ele>639.034837</ele>
        <time>2022-02-22T12:58:16.167Z</time>
      </trkpt>
      <trkpt lat="41.63122" lon="-1.62407">
        <ele>640.287845</ele>
        <time>2022-02-22T12:58:27.510Z</time>
      </trkpt>
      <trkpt lat="41.63111" lon="-1.6239">
        <ele>641.455837</ele>
        <time>2022-02-22T12:58:34.644Z</time>
      </trkpt>
      <trkpt lat="41.63097" lon="-1.62384">
        <ele>642.553065</ele>
        <time>2022-02-22T12:58:47.244Z</time>
      </trkpt>
      <trkpt lat="41.63033" lon="-1.62381">
        <ele>647.096763</ele>
        <time>2022-02-22T12:59:26.228Z</time>
      </trkpt>
      <trkpt lat="41.62999" lon="-1.6234">
        <ele>650.033781</ele>
        <time>2022-02-22T12:59:59.222Z</time>
      </trkpt>
      <trkpt lat="41.62967" lon="-1.62324">
        <ele>652.112982</ele>
        <time>2022-02-22T13:00:23.437Z</time>
      </trkpt>
      <trkpt lat="41.62952" lon="-1.62305">
        <ele>653.3228</ele>
        <time>2022-02-22T13:00:33.650Z</time>
      </trkpt>
      <trkpt lat="41.62908" lon="-1.62216">
        <ele>658.117689</ele>
        <time>2022-02-22T13:01:08.659Z</time>
      </trkpt>
      <trkpt lat="41.62897" lon="-1.62208">
        <ele>658.873357</ele>
        <time>2022-02-22T13:01:13.963Z</time>
      </trkpt>
      <trkpt lat="41.62888" lon="-1.62218">
        <ele>658.959744</ele>
        <time>2022-02-22T13:01:19.001Z</time>
      </trkpt>
      <trkpt lat="41.62878" lon="-1.62309">
        <ele>658.761368</ele>
        <time>2022-02-22T13:01:39.199Z</time>
      </trkpt>
      <trkpt lat="41.62857" lon="-1.6233">
        <ele>658.684475</ele>
        <time>2022-02-22T13:01:44.751Z</time>
      </trkpt>
      <trkpt lat="41.62845" lon="-1.62331">
        <ele>658.64846</ele>
        <time>2022-02-22T13:01:47.333Z</time>
      </trkpt>
      <trkpt lat="41.62807" lon="-1.62311">
        <ele>658.531582</ele>
        <time>2022-02-22T13:01:54.797Z</time>
      </trkpt>
      <trkpt lat="41.62763" lon="-1.62324">
        <ele>657.065624</ele>
        <time>2022-02-22T13:02:02.161Z</time>
      </trkpt>
      <trkpt lat="41.62732" lon="-1.62321">
        <ele>655.153779</ele>
        <time>2022-02-22T13:02:07.072Z</time>
      </trkpt>
      <trkpt lat="41.62697" lon="-1.62359">
        <ele>652.384928</ele>
        <time>2022-02-22T13:02:13.968Z</time>
      </trkpt>
      <trkpt lat="41.62678" lon="-1.62368">
        <ele>651.145741</ele>
        <time>2022-02-22T13:02:16.988Z</time>
      </trkpt>
      <trkpt lat="41.62605" lon="-1.62368">
        <ele>646.714051</ele>
        <time>2022-02-22T13:02:27.720Z</time>
      </trkpt>
      <trkpt lat="41.6257" lon="-1.62375">
        <ele>644.59561</ele>
        <time>2022-02-22T13:02:33.024Z</time>
      </trkpt>
      <trkpt lat="41.62522" lon="-1.6236">
        <ele>641.616384</ele>
        <time>2022-02-22T13:02:40.518Z</time>
      </trkpt>
      <trkpt lat="41.62508" lon="-1.62347">
        <ele>640.596563</ele>
        <time>2022-02-22T13:02:43.124Z</time>
      </trkpt>
      <trkpt lat="41.62502" lon="-1.62335">
        <ele>639.968216</ele>
        <time>2022-02-22T13:02:44.733Z</time>
      </trkpt>
      <trkpt lat="41.6249" lon="-1.62248">
        <ele>636.299909</ele>
        <time>2022-02-22T13:02:55.331Z</time>
      </trkpt>
      <trkpt lat="41.62419" lon="-1.62154">
        <ele>633.072571</ele>
        <time>2022-02-22T13:03:12.464Z</time>
      </trkpt>
      <trkpt lat="41.62412" lon="-1.6213">
        <ele>632.444922</ele>
        <time>2022-02-22T13:03:15.900Z</time>
      </trkpt>
      <trkpt lat="41.62409" lon="-1.62081">
        <ele>631.265268</ele>
        <time>2022-02-22T13:03:22.331Z</time>
      </trkpt>
      <trkpt lat="41.62385" lon="-1.62033">
        <ele>630.736379</ele>
        <time>2022-02-22T13:03:30.249Z</time>
      </trkpt>
      <trkpt lat="41.62361" lon="-1.62017">
        <ele>630.610049</ele>
        <time>2022-02-22T13:03:34.794Z</time>
      </trkpt>
      <trkpt lat="41.62272" lon="-1.61985">
        <ele>630.185158</ele>
        <time>2022-02-22T13:03:57.526Z</time>
      </trkpt>
      <trkpt lat="41.6226" lon="-1.61971">
        <ele>630.113519</ele>
        <time>2022-02-22T13:04:00.309Z</time>
      </trkpt>
      <trkpt lat="41.62263" lon="-1.61958">
        <ele>630.066019</ele>
        <time>2022-02-22T13:04:06.897Z</time>
      </trkpt>
      <trkpt lat="41.62278" lon="-1.6195">
        <ele>630.325698</ele>
        <time>2022-02-22T13:04:10.188Z</time>
      </trkpt>
      <trkpt lat="41.62287" lon="-1.61934">
        <ele>630.645574</ele>
        <time>2022-02-22T13:04:15.397Z</time>
      </trkpt>
      <trkpt lat="41.62286" lon="-1.6191">
        <ele>631.042875</ele>
        <time>2022-02-22T13:04:21.475Z</time>
      </trkpt>
      <trkpt lat="41.62275" lon="-1.61903">
        <ele>631.298305</ele>
        <time>2022-02-22T13:04:23.824Z</time>
      </trkpt>
      <trkpt lat="41.6215" lon="-1.61902">
        <ele>633.912805</ele>
        <time>2022-02-22T13:05:10.106Z</time>
      </trkpt>
      <trkpt lat="41.62125" lon="-1.61878">
        <ele>633.954847</ele>
        <time>2022-02-22T13:05:19.873Z</time>
      </trkpt>
      <trkpt lat="41.62116" lon="-1.61875">
        <ele>633.967517</ele>
        <time>2022-02-22T13:05:22.535Z</time>
      </trkpt>
      <trkpt lat="41.62107" lon="-1.61879">
        <ele>633.979858</ele>
        <time>2022-02-22T13:05:25.023Z</time>
      </trkpt>
      <trkpt lat="41.62095" lon="-1.61905">
        <ele>634.010281</ele>
        <time>2022-02-22T13:05:30.964Z</time>
      </trkpt>
      <trkpt lat="41.62087" lon="-1.61911">
        <ele>634.023101</ele>
        <time>2022-02-22T13:05:33.187Z</time>
      </trkpt>
      <trkpt lat="41.62055" lon="-1.61916">
        <ele>634.066359</ele>
        <time>2022-02-22T13:05:40.492Z</time>
      </trkpt>
      <trkpt lat="41.62031" lon="-1.61907">
        <ele>634.100293</ele>
        <time>2022-02-22T13:05:45.780Z</time>
      </trkpt>
      <trkpt lat="41.6185" lon="-1.61735">
        <ele>629.503945</ele>
        <time>2022-02-22T13:06:25.680Z</time>
      </trkpt>
      <trkpt lat="41.61643" lon="-1.61634">
        <ele>620.575206</ele>
        <time>2022-02-22T13:07:01.331Z</time>
      </trkpt>
      <trkpt lat="41.61636" lon="-1.61613">
        <ele>619.905222</ele>
        <time>2022-02-22T13:07:04.197Z</time>
      </trkpt>
      <trkpt lat="41.61643" lon="-1.61559">
        <ele>618.314619</ele>
        <time>2022-02-22T13:07:11.136Z</time>
      </trkpt>
      <trkpt lat="41.61632" lon="-1.61543">
        <ele>617.663703</ele>
        <time>2022-02-22T13:07:13.852Z</time>
      </trkpt>
      <trkpt lat="41.61606" lon="-1.6155">
        <ele>616.636819</ele>
        <time>2022-02-22T13:07:18.150Z</time>
      </trkpt>
      <trkpt lat="41.61576" lon="-1.61581">
        <ele>615.126154</ele>
        <time>2022-02-22T13:07:24.444Z</time>
      </trkpt>
      <trkpt lat="41.61535" lon="-1.61604">
        <ele>613.176312</ele>
        <time>2022-02-22T13:07:31.796Z</time>
      </trkpt>
      <trkpt lat="41.61517" lon="-1.61607">
        <ele>612.349402</ele>
        <time>2022-02-22T13:07:34.892Z</time>
      </trkpt>
      <trkpt lat="41.61492" lon="-1.61597">
        <ele>611.227211</ele>
        <time>2022-02-22T13:07:38.935Z</time>
      </trkpt>
      <trkpt lat="41.61479" lon="-1.61577">
        <ele>610.355401</ele>
        <time>2022-02-22T13:07:42.102Z</time>
      </trkpt>
      <trkpt lat="41.61446" lon="-1.61483">
        <ele>607.036181</ele>
        <time>2022-02-22T13:07:54.506Z</time>
      </trkpt>
      <trkpt lat="41.61409" lon="-1.61434">
        <ele>605.471102</ele>
        <time>2022-02-22T13:08:02.868Z</time>
      </trkpt>
      <trkpt lat="41.61342" lon="-1.6129">
        <ele>601.843485</ele>
        <time>2022-02-22T13:08:25.686Z</time>
      </trkpt>
      <trkpt lat="41.61255" lon="-1.61125">
        <ele>600.822891</ele>
        <time>2022-02-22T13:08:56.921Z</time>
      </trkpt>
      <trkpt lat="41.61246" lon="-1.61115">
        <ele>600.74186</ele>
        <time>2022-02-22T13:08:59.582Z</time>
      </trkpt>
      <trkpt lat="41.61215" lon="-1.611">
        <ele>600.802348</ele>
        <time>2022-02-22T13:09:06.928Z</time>
      </trkpt>
      <trkpt lat="41.61181" lon="-1.61043">
        <ele>601.085613</ele>
        <time>2022-02-22T13:09:20.934Z</time>
      </trkpt>
      <trkpt lat="41.61115" lon="-1.60966">
        <ele>601.537038</ele>
        <time>2022-02-22T13:09:43.390Z</time>
      </trkpt>
      <trkpt lat="41.61099" lon="-1.6094">
        <ele>601.678705</ele>
        <time>2022-02-22T13:09:50.212Z</time>
      </trkpt>
      <trkpt lat="41.61073" lon="-1.6093">
        <ele>601.839943</ele>
        <time>2022-02-22T13:09:57.080Z</time>
      </trkpt>
      <trkpt lat="41.61044" lon="-1.60933">
        <ele>602.019539</ele>
        <time>2022-02-22T13:10:04.343Z</time>
      </trkpt>
      <trkpt lat="41.60979" lon="-1.60997">
        <ele>602.516411</ele>
        <time>2022-02-22T13:10:23.467Z</time>
      </trkpt>
      <trkpt lat="41.60968" lon="-1.61003">
        <ele>602.58842</ele>
        <time>2022-02-22T13:10:26.080Z</time>
      </trkpt>
      <trkpt lat="41.6086" lon="-1.61001">
        <ele>605.397184</ele>
        <time>2022-02-22T13:10:57.301Z</time>
      </trkpt>
      <trkpt lat="41.60849" lon="-1.6099">
        <ele>605.790818</ele>
        <time>2022-02-22T13:11:01.638Z</time>
      </trkpt>
      <trkpt lat="41.60842" lon="-1.60968">
        <ele>606.350127</ele>
        <time>2022-02-22T13:11:11.532Z</time>
      </trkpt>
      <trkpt lat="41.60826" lon="-1.60898">
        <ele>607.996833</ele>
        <time>2022-02-22T13:11:38.122Z</time>
      </trkpt>
      <trkpt lat="41.60823" lon="-1.60868">
        <ele>608.41847</ele>
        <time>2022-02-22T13:11:51.779Z</time>
      </trkpt>
      <trkpt lat="41.60835" lon="-1.60814">
        <ele>609.027824</ele>
        <time>2022-02-22T13:12:06.057Z</time>
      </trkpt>
      <trkpt lat="41.60832" lon="-1.60793">
        <ele>609.250732</ele>
        <time>2022-02-22T13:12:11.415Z</time>
      </trkpt>
      <trkpt lat="41.60824" lon="-1.60776">
        <ele>609.471184</ele>
        <time>2022-02-22T13:12:17.255Z</time>
      </trkpt>
      <trkpt lat="41.60811" lon="-1.60773">
        <ele>609.650995</ele>
        <time>2022-02-22T13:12:19.542Z</time>
      </trkpt>
      <trkpt lat="41.60789" lon="-1.6078">
        <ele>609.984824</ele>
        <time>2022-02-22T13:12:28.773Z</time>
      </trkpt>
      <trkpt lat="41.60775" lon="-1.60912">
        <ele>608.169948</ele>
        <time>2022-02-22T13:12:47.102Z</time>
      </trkpt>
      <trkpt lat="41.60764" lon="-1.6094">
        <ele>606.813132</ele>
        <time>2022-02-22T13:12:50.711Z</time>
      </trkpt>
      <trkpt lat="41.6075" lon="-1.60956">
        <ele>605.73941</ele>
        <time>2022-02-22T13:12:53.676Z</time>
      </trkpt>
      <trkpt lat="41.60729" lon="-1.60955">
        <ele>604.562892</ele>
        <time>2022-02-22T13:12:56.620Z</time>
      </trkpt>
      <trkpt lat="41.60704" lon="-1.60941">
        <ele>603.045188</ele>
        <time>2022-02-22T13:13:00.465Z</time>
      </trkpt>
      <trkpt lat="41.60693" lon="-1.60929">
        <ele>602.203312</ele>
        <time>2022-02-22T13:13:02.598Z</time>
      </trkpt>
      <trkpt lat="41.60649" lon="-1.60842">
        <ele>598.987564</ele>
        <time>2022-02-22T13:13:14.713Z</time>
      </trkpt>
      <trkpt lat="41.60639" lon="-1.60835">
        <ele>598.639546</ele>
        <time>2022-02-22T13:13:16.558Z</time>
      </trkpt>
      <trkpt lat="41.60611" lon="-1.6083">
        <ele>597.73001</ele>
        <time>2022-02-22T13:13:21.187Z</time>
      </trkpt>
      <trkpt lat="41.60591" lon="-1.60812">
        <ele>596.950769</ele>
        <time>2022-02-22T13:13:25.268Z</time>
      </trkpt>
      <trkpt lat="41.60578" lon="-1.60746">
        <ele>595.341954</ele>
        <time>2022-02-22T13:13:34.560Z</time>
      </trkpt>
      <trkpt lat="41.60562" lon="-1.60659">
        <ele>595.732446</ele>
        <time>2022-02-22T13:13:57.370Z</time>
      </trkpt>
      <trkpt lat="41.60542" lon="-1.60616">
        <ele>596.39671</ele>
        <time>2022-02-22T13:14:12.600Z</time>
      </trkpt>
      <trkpt lat="41.60536" lon="-1.60607">
        <ele>596.562434</ele>
        <time>2022-02-22T13:14:15.789Z</time>
      </trkpt>
      <trkpt lat="41.60514" lon="-1.60583">
        <ele>597.053155</ele>
        <time>2022-02-22T13:14:25.994Z</time>
      </trkpt>
      <trkpt lat="41.6049" lon="-1.6057">
        <ele>597.521935</ele>
        <time>2022-02-22T13:14:33.758Z</time>
      </trkpt>
      <trkpt lat="41.60447" lon="-1.60558">
        <ele>597.775796</ele>
        <time>2022-02-22T13:14:44.751Z</time>
      </trkpt>
      <trkpt lat="41.60413" lon="-1.60551">
        <ele>597.27667</ele>
        <time>2022-02-22T13:14:52.542Z</time>
      </trkpt>
      <trkpt lat="41.60367" lon="-1.60559">
        <ele>596.597436</ele>
        <time>2022-02-22T13:15:03.523Z</time>
      </trkpt>
      <trkpt lat="41.60308" lon="-1.60546">
        <ele>595.721634</ele>
        <time>2022-02-22T13:15:13.996Z</time>
      </trkpt>
      <trkpt lat="41.60294" lon="-1.60535">
        <ele>595.484019</ele>
        <time>2022-02-22T13:15:16.539Z</time>
      </trkpt>
      <trkpt lat="41.60279" lon="-1.60506">
        <ele>594.786218</ele>
        <time>2022-02-22T13:15:20.720Z</time>
      </trkpt>
      <trkpt lat="41.60256" lon="-1.60476">
        <ele>593.830755</ele>
        <time>2022-02-22T13:15:25.795Z</time>
      </trkpt>
      <trkpt lat="41.60204" lon="-1.6045">
        <ele>592.148904</ele>
        <time>2022-02-22T13:15:35.259Z</time>
      </trkpt>
      <trkpt lat="41.60181" lon="-1.60431">
        <ele>591.346003</ele>
        <time>2022-02-22T13:15:40.311Z</time>
      </trkpt>
      <trkpt lat="41.60169" lon="-1.60395">
        <ele>590.448372</ele>
        <time>2022-02-22T13:15:46.295Z</time>
      </trkpt>
      <trkpt lat="41.60132" lon="-1.60318">
        <ele>589.167152</ele>
        <time>2022-02-22T13:15:59.176Z</time>
      </trkpt>
      <trkpt lat="41.60088" lon="-1.60254">
        <ele>588.155473</ele>
        <time>2022-02-22T13:16:11.514Z</time>
      </trkpt>
      <trkpt lat="41.60022" lon="-1.60193">
        <ele>587.195021</ele>
        <time>2022-02-22T13:16:26.708Z</time>
      </trkpt>
      <trkpt lat="41.59972" lon="-1.60135">
        <ele>587.192833</ele>
        <time>2022-02-22T13:16:39.521Z</time>
      </trkpt>
      <trkpt lat="41.59925" lon="-1.60117">
        <ele>587.191199</ele>
        <time>2022-02-22T13:16:49.939Z</time>
      </trkpt>
      <trkpt lat="41.59899" lon="-1.60094">
        <ele>587.190176</ele>
        <time>2022-02-22T13:16:58.804Z</time>
      </trkpt>
      <trkpt lat="41.59896" lon="-1.6007">
        <ele>587.314599</ele>
        <time>2022-02-22T13:17:05.593Z</time>
      </trkpt>
      <trkpt lat="41.59898" lon="-1.60046">
        <ele>588.158485</ele>
        <time>2022-02-22T13:17:12.150Z</time>
      </trkpt>
      <trkpt lat="41.5991" lon="-1.60008">
        <ele>589.583886</ele>
        <time>2022-02-22T13:17:24.578Z</time>
      </trkpt>
      <trkpt lat="41.59913" lon="-1.59972">
        <ele>590.807301</ele>
        <time>2022-02-22T13:17:36.775Z</time>
      </trkpt>
      <trkpt lat="41.59905" lon="-1.59864">
        <ele>594.568662</ele>
        <time>2022-02-22T13:18:17.261Z</time>
      </trkpt>
      <trkpt lat="41.5988" lon="-1.59838">
        <ele>596.028293</ele>
        <time>2022-02-22T13:18:34.651Z</time>
      </trkpt>
      <trkpt lat="41.59869" lon="-1.5981">
        <ele>597.12533</ele>
        <time>2022-02-22T13:18:47.759Z</time>
      </trkpt>
      <trkpt lat="41.59872" lon="-1.59777">
        <ele>598.268911</ele>
        <time>2022-02-22T13:19:00.645Z</time>
      </trkpt>
      <trkpt lat="41.59892" lon="-1.59692">
        <ele>601.323809</ele>
        <time>2022-02-22T13:19:31.815Z</time>
      </trkpt>
      <trkpt lat="41.59885" lon="-1.59671">
        <ele>602.120645</ele>
        <time>2022-02-22T13:19:38.637Z</time>
      </trkpt>
      <trkpt lat="41.59869" lon="-1.59657">
        <ele>602.997498</ele>
        <time>2022-02-22T13:19:45.856Z</time>
      </trkpt>
      <trkpt lat="41.59827" lon="-1.59653">
        <ele>603.896689</ele>
        <time>2022-02-22T13:20:00.512Z</time>
      </trkpt>
      <trkpt lat="41.59813" lon="-1.59621">
        <ele>604.023253</ele>
        <time>2022-02-22T13:20:08.448Z</time>
      </trkpt>
      <trkpt lat="41.598" lon="-1.59573">
        <ele>604.20276</ele>
        <time>2022-02-22T13:20:17.783Z</time>
      </trkpt>
      <trkpt lat="41.59762" lon="-1.59524">
        <ele>604.446571</ele>
        <time>2022-02-22T13:20:28.565Z</time>
      </trkpt>
      <trkpt lat="41.59741" lon="-1.59517">
        <ele>604.546866</ele>
        <time>2022-02-22T13:20:32.849Z</time>
      </trkpt>
      <trkpt lat="41.59717" lon="-1.59538">
        <ele>604.633106</ele>
        <time>2022-02-22T13:20:38.664Z</time>
      </trkpt>
      <trkpt lat="41.597" lon="-1.59545">
        <ele>604.657174</ele>
        <time>2022-02-22T13:20:42.348Z</time>
      </trkpt>
      <trkpt lat="41.59688" lon="-1.59527">
        <ele>604.680884</ele>
        <time>2022-02-22T13:20:46.033Z</time>
      </trkpt>
      <trkpt lat="41.59684" lon="-1.59506">
        <ele>604.702559</ele>
        <time>2022-02-22T13:20:49.457Z</time>
      </trkpt>
      <trkpt lat="41.59669" lon="-1.59474">
        <ele>604.73958</ele>
        <time>2022-02-22T13:20:55.551Z</time>
      </trkpt>
      <trkpt lat="41.5964" lon="-1.59344">
        <ele>604.815662</ele>
        <time>2022-02-22T13:21:22.257Z</time>
      </trkpt>
      <trkpt lat="41.59646" lon="-1.59305">
        <ele>604.747773</ele>
        <time>2022-02-22T13:21:30.820Z</time>
      </trkpt>
      <trkpt lat="41.59657" lon="-1.59282">
        <ele>604.699486</ele>
        <time>2022-02-22T13:21:36.815Z</time>
      </trkpt>
      <trkpt lat="41.59653" lon="-1.59263">
        <ele>604.665828</ele>
        <time>2022-02-22T13:21:40.426Z</time>
      </trkpt>
      <trkpt lat="41.5964" lon="-1.59255">
        <ele>604.631878</ele>
        <time>2022-02-22T13:21:44.202Z</time>
      </trkpt>
      <trkpt lat="41.59611" lon="-1.59259">
        <ele>604.564974</ele>
        <time>2022-02-22T13:21:50.498Z</time>
      </trkpt>
      <trkpt lat="41.59598" lon="-1.59268">
        <ele>604.529822</ele>
        <time>2022-02-22T13:21:53.678Z</time>
      </trkpt>
      <trkpt lat="41.59584" lon="-1.59313">
        <ele>604.444578</ele>
        <time>2022-02-22T13:22:00.364Z</time>
      </trkpt>
      <trkpt lat="41.59561" lon="-1.59438">
        <ele>601.503716</ele>
        <time>2022-02-22T13:22:16.782Z</time>
      </trkpt>
      <trkpt lat="41.59559" lon="-1.59475">
        <ele>600.629638</ele>
        <time>2022-02-22T13:22:21.316Z</time>
      </trkpt>
      <trkpt lat="41.59548" lon="-1.59497">
        <ele>600.012225</ele>
        <time>2022-02-22T13:22:24.451Z</time>
      </trkpt>
      <trkpt lat="41.59528" lon="-1.59513">
        <ele>599.254093</ele>
        <time>2022-02-22T13:22:28.379Z</time>
      </trkpt>
      <trkpt lat="41.59507" lon="-1.5951">
        <ele>598.677538</ele>
        <time>2022-02-22T13:22:31.729Z</time>
      </trkpt>
      <trkpt lat="41.58644" lon="-1.58926">
        <ele>587.851747</ele>
        <time>2022-02-22T13:25:41.946Z</time>
      </trkpt>
      <trkpt lat="41.58591" lon="-1.58894">
        <ele>587.871688</ele>
        <time>2022-02-22T13:25:54.629Z</time>
      </trkpt>
      <trkpt lat="41.58545" lon="-1.58919">
        <ele>587.902427</ele>
        <time>2022-02-22T13:26:08.504Z</time>
      </trkpt>
      <trkpt lat="41.58527" lon="-1.58918">
        <ele>588.558576</ele>
        <time>2022-02-22T13:26:13.925Z</time>
      </trkpt>
      <trkpt lat="41.58466" lon="-1.58865">
        <ele>591.266376</ele>
        <time>2022-02-22T13:26:41.090Z</time>
      </trkpt>
      <trkpt lat="41.58361" lon="-1.58731">
        <ele>597.397137</ele>
        <time>2022-02-22T13:27:50.927Z</time>
      </trkpt>
      <trkpt lat="41.58263" lon="-1.58595">
        <ele>604.253319</ele>
        <time>2022-02-22T13:28:57.448Z</time>
      </trkpt>
      <trkpt lat="41.58245" lon="-1.58536">
        <ele>606.153049</ele>
        <time>2022-02-22T13:29:18.460Z</time>
      </trkpt>
      <trkpt lat="41.58245" lon="-1.5845">
        <ele>608.729994</ele>
        <time>2022-02-22T13:29:46.758Z</time>
      </trkpt>
      <trkpt lat="41.58263" lon="-1.58294">
        <ele>611.406066</ele>
        <time>2022-02-22T13:30:29.746Z</time>
      </trkpt>
      <trkpt lat="41.58284" lon="-1.58151">
        <ele>612.450311</ele>
        <time>2022-02-22T13:30:56.036Z</time>
      </trkpt>
      <trkpt lat="41.58284" lon="-1.58048">
        <ele>610.108131</ele>
        <time>2022-02-22T13:31:09.664Z</time>
      </trkpt>
      <trkpt lat="41.58268" lon="-1.58028">
        <ele>609.389831</ele>
        <time>2022-02-22T13:31:13.365Z</time>
      </trkpt>
      <trkpt lat="41.58181" lon="-1.58012">
        <ele>606.514894</ele>
        <time>2022-02-22T13:31:27.700Z</time>
      </trkpt>
      <trkpt lat="41.58149" lon="-1.57986">
        <ele>604.961004</ele>
        <time>2022-02-22T13:31:33.681Z</time>
      </trkpt>
      <trkpt lat="41.58056" lon="-1.57864">
        <ele>599.539134</ele>
        <time>2022-02-22T13:31:54.924Z</time>
      </trkpt>
      <trkpt lat="41.58035" lon="-1.57836">
        <ele>598.518013</ele>
        <time>2022-02-22T13:31:59.933Z</time>
      </trkpt>
      <trkpt lat="41.57962" lon="-1.57621">
        <ele>592.873545</ele>
        <time>2022-02-22T13:32:30.534Z</time>
      </trkpt>
      <trkpt lat="41.57877" lon="-1.57384">
        <ele>585.736417</ele>
        <time>2022-02-22T13:33:03.439Z</time>
      </trkpt>
      <trkpt lat="41.57484" lon="-1.56742">
        <ele>561.313369</ele>
        <time>2022-02-22T13:34:45.460Z</time>
      </trkpt>
      <trkpt lat="41.57441" lon="-1.56687">
        <ele>559.196288</ele>
        <time>2022-02-22T13:34:55.875Z</time>
      </trkpt>
      <trkpt lat="41.56782" lon="-1.56114">
        <ele>543.37757</ele>
        <time>2022-02-22T13:37:20.356Z</time>
      </trkpt>
      <trkpt lat="41.56242" lon="-1.55646">
        <ele>529.54548</ele>
        <time>2022-02-22T13:39:17.016Z</time>
      </trkpt>
      <trkpt lat="41.55879" lon="-1.55357">
        <ele>521.115972</ele>
        <time>2022-02-22T13:40:34.583Z</time>
      </trkpt>
      <trkpt lat="41.55831" lon="-1.55306">
        <ele>520.025663</ele>
        <time>2022-02-22T13:40:45.893Z</time>
      </trkpt>
      <trkpt lat="41.55505" lon="-1.548">
        <ele>512.805148</ele>
        <time>2022-02-22T13:42:21.196Z</time>
      </trkpt>
      <trkpt lat="41.55418" lon="-1.54657">
        <ele>511.518328</ele>
        <time>2022-02-22T13:42:49.302Z</time>
      </trkpt>
      <trkpt lat="41.55395" lon="-1.54603">
        <ele>511.282324</ele>
        <time>2022-02-22T13:42:58.908Z</time>
      </trkpt>
      <trkpt lat="41.55321" lon="-1.54345">
        <ele>510.171533</ele>
        <time>2022-02-22T13:43:42.453Z</time>
      </trkpt>
      <trkpt lat="41.55307" lon="-1.54313">
        <ele>510.015857</ele>
        <time>2022-02-22T13:43:48.229Z</time>
      </trkpt>
      <trkpt lat="41.55225" lon="-1.5415">
        <ele>508.273589</ele>
        <time>2022-02-22T13:44:17.959Z</time>
      </trkpt>
      <trkpt lat="41.55213" lon="-1.54125">
        <ele>507.932626</ele>
        <time>2022-02-22T13:44:22.323Z</time>
      </trkpt>
      <trkpt lat="41.55088" lon="-1.53967">
        <ele>503.373966</ele>
        <time>2022-02-22T13:44:52.739Z</time>
      </trkpt>
      <trkpt lat="41.5505" lon="-1.53922">
        <ele>501.726548</ele>
        <time>2022-02-22T13:45:01.000Z</time>
      </trkpt>
      <trkpt lat="41.54934" lon="-1.53786">
        <ele>494.391016</ele>
        <time>2022-02-22T13:45:25.553Z</time>
      </trkpt>
      <trkpt lat="41.54902" lon="-1.53738">
        <ele>491.993059</ele>
        <time>2022-02-22T13:45:33.134Z</time>
      </trkpt>
      <trkpt lat="41.54883" lon="-1.5371">
        <ele>490.470655</ele>
        <time>2022-02-22T13:45:37.609Z</time>
      </trkpt>
      <trkpt lat="41.54837" lon="-1.53643">
        <ele>486.856473</ele>
        <time>2022-02-22T13:45:48.416Z</time>
      </trkpt>
      <trkpt lat="41.54816" lon="-1.53627">
        <ele>485.571327</ele>
        <time>2022-02-22T13:45:52.141Z</time>
      </trkpt>
      <trkpt lat="41.54796" lon="-1.53623">
        <ele>484.507054</ele>
        <time>2022-02-22T13:45:55.108Z</time>
      </trkpt>
      <trkpt lat="41.54755" lon="-1.53631">
        <ele>482.430293</ele>
        <time>2022-02-22T13:46:01.691Z</time>
      </trkpt>
      <trkpt lat="41.54718" lon="-1.53621">
        <ele>481.291732</ele>
        <time>2022-02-22T13:46:07.784Z</time>
      </trkpt>
      <trkpt lat="41.54706" lon="-1.53601">
        <ele>480.714423</ele>
        <time>2022-02-22T13:46:11.005Z</time>
      </trkpt>
      <trkpt lat="41.54689" lon="-1.53545">
        <ele>479.342681</ele>
        <time>2022-02-22T13:46:18.939Z</time>
      </trkpt>
      <trkpt lat="41.54672" lon="-1.53487">
        <ele>477.930917</ele>
        <time>2022-02-22T13:46:27.633Z</time>
      </trkpt>
      <trkpt lat="41.54651" lon="-1.53439">
        <ele>477.066596</ele>
        <time>2022-02-22T13:46:35.500Z</time>
      </trkpt>
      <trkpt lat="41.54628" lon="-1.53404">
        <ele>476.817702</ele>
        <time>2022-02-22T13:46:41.857Z</time>
      </trkpt>
      <trkpt lat="41.54619" lon="-1.53409">
        <ele>476.743664</ele>
        <time>2022-02-22T13:46:43.827Z</time>
      </trkpt>
      <trkpt lat="41.54546" lon="-1.53484">
        <ele>476.075028</ele>
        <time>2022-02-22T13:47:03.708Z</time>
      </trkpt>
      <trkpt lat="41.54523" lon="-1.53497">
        <ele>475.898148</ele>
        <time>2022-02-22T13:47:08.752Z</time>
      </trkpt>
      <trkpt lat="41.54502" lon="-1.53495">
        <ele>476.320272</ele>
        <time>2022-02-22T13:47:13.042Z</time>
      </trkpt>
      <trkpt lat="41.5445" lon="-1.53461">
        <ele>477.544407</ele>
        <time>2022-02-22T13:47:29.260Z</time>
      </trkpt>
      <trkpt lat="41.54408" lon="-1.53411">
        <ele>478.730763</ele>
        <time>2022-02-22T13:47:49.940Z</time>
      </trkpt>
      <trkpt lat="41.54388" lon="-1.53375">
        <ele>479.440075</ele>
        <time>2022-02-22T13:48:03.028Z</time>
      </trkpt>
      <trkpt lat="41.54384" lon="-1.53326">
        <ele>480.785736</ele>
        <time>2022-02-22T13:48:19.048Z</time>
      </trkpt>
      <trkpt lat="41.54384" lon="-1.53282">
        <ele>482.179842</ele>
        <time>2022-02-22T13:48:34.089Z</time>
      </trkpt>
      <trkpt lat="41.54369" lon="-1.53257">
        <ele>483.195446</ele>
        <time>2022-02-22T13:48:44.975Z</time>
      </trkpt>
      <trkpt lat="41.54312" lon="-1.53195">
        <ele>486.384472</ele>
        <time>2022-02-22T13:49:20.025Z</time>
      </trkpt>
      <trkpt lat="41.54267" lon="-1.53181">
        <ele>487.699755</ele>
        <time>2022-02-22T13:49:39.578Z</time>
      </trkpt>
      <trkpt lat="41.5424" lon="-1.53118">
        <ele>488.382353</ele>
        <time>2022-02-22T13:49:55.131Z</time>
      </trkpt>
      <trkpt lat="41.54188" lon="-1.53046">
        <ele>489.322212</ele>
        <time>2022-02-22T13:50:13.124Z</time>
      </trkpt>
      <trkpt lat="41.54139" lon="-1.53037">
        <ele>489.814138</ele>
        <time>2022-02-22T13:50:23.980Z</time>
      </trkpt>
      <trkpt lat="41.54115" lon="-1.53025">
        <ele>489.963866</ele>
        <time>2022-02-22T13:50:29.633Z</time>
      </trkpt>
      <trkpt lat="41.54055" lon="-1.52962">
        <ele>490.420616</ele>
        <time>2022-02-22T13:50:48.194Z</time>
      </trkpt>
      <trkpt lat="41.54044" lon="-1.52917">
        <ele>490.630407</ele>
        <time>2022-02-22T13:50:57.639Z</time>
      </trkpt>
      <trkpt lat="41.54031" lon="-1.52896">
        <ele>490.749968</ele>
        <time>2022-02-22T13:51:03.211Z</time>
      </trkpt>
      <trkpt lat="41.54015" lon="-1.52887">
        <ele>491.07626</ele>
        <time>2022-02-22T13:51:08.465Z</time>
      </trkpt>
      <trkpt lat="41.53997" lon="-1.52865">
        <ele>491.559038</ele>
        <time>2022-02-22T13:51:15.948Z</time>
      </trkpt>
      <trkpt lat="41.53982" lon="-1.52837">
        <ele>492.088412</ele>
        <time>2022-02-22T13:51:24.784Z</time>
      </trkpt>
      <trkpt lat="41.5395" lon="-1.52742">
        <ele>493.639675</ele>
        <time>2022-02-22T13:51:52.280Z</time>
      </trkpt>
      <trkpt lat="41.53929" lon="-1.52711">
        <ele>494.270538</ele>
        <time>2022-02-22T13:52:02.835Z</time>
      </trkpt>
      <trkpt lat="41.53893" lon="-1.52674">
        <ele>494.419693</ele>
        <time>2022-02-22T13:52:15.967Z</time>
      </trkpt>
      <trkpt lat="41.53835" lon="-1.52594">
        <ele>494.518932</ele>
        <time>2022-02-22T13:52:35.420Z</time>
      </trkpt>
      <trkpt lat="41.53778" lon="-1.52527">
        <ele>494.460475</ele>
        <time>2022-02-22T13:52:50.110Z</time>
      </trkpt>
      <trkpt lat="41.53772" lon="-1.52475">
        <ele>494.206967</ele>
        <time>2022-02-22T13:52:57.611Z</time>
      </trkpt>
      <trkpt lat="41.53762" lon="-1.52439">
        <ele>494.01915</ele>
        <time>2022-02-22T13:53:03.229Z</time>
      </trkpt>
      <trkpt lat="41.53761" lon="-1.52436">
        <ele>494.005206</ele>
        <time>2022-02-22T13:53:03.633Z</time>
      </trkpt>
      <trkpt lat="41.53756" lon="-1.52421">
        <ele>493.926676</ele>
        <time>2022-02-22T13:53:05.986Z</time>
      </trkpt>
      <trkpt lat="41.53749" lon="-1.524">
        <ele>493.814269</ele>
        <time>2022-02-22T13:53:09.407Z</time>
      </trkpt>
      <trkpt lat="41.53746" lon="-1.52352">
        <ele>493.586088</ele>
        <time>2022-02-22T13:53:17.086Z</time>
      </trkpt>
      <trkpt lat="41.53753" lon="-1.52288">
        <ele>494.137492</ele>
        <time>2022-02-22T13:53:30.448Z</time>
      </trkpt>
      <trkpt lat="41.53741" lon="-1.52217">
        <ele>495.69318</ele>
        <time>2022-02-22T13:53:47.511Z</time>
      </trkpt>
      <trkpt lat="41.53701" lon="-1.52073">
        <ele>499.113383</ele>
        <time>2022-02-22T13:54:36.199Z</time>
      </trkpt>
      <trkpt lat="41.5367" lon="-1.51996">
        <ele>501.604598</ele>
        <time>2022-02-22T13:55:06.870Z</time>
      </trkpt>
      <trkpt lat="41.5366" lon="-1.51948">
        <ele>503.022856</ele>
        <time>2022-02-22T13:55:24.165Z</time>
      </trkpt>
      <trkpt lat="41.53649" lon="-1.51928">
        <ele>503.752618</ele>
        <time>2022-02-22T13:55:32.834Z</time>
      </trkpt>
      <trkpt lat="41.53518" lon="-1.51849">
        <ele>505.39065</ele>
        <time>2022-02-22T13:56:16.082Z</time>
      </trkpt>
      <trkpt lat="41.53479" lon="-1.51825">
        <ele>505.378128</ele>
        <time>2022-02-22T13:56:24.369Z</time>
      </trkpt>
      <trkpt lat="41.53386" lon="-1.51754">
        <ele>502.820528</ele>
        <time>2022-02-22T13:56:42.832Z</time>
      </trkpt>
      <trkpt lat="41.53328" lon="-1.51693">
        <ele>500.091388</ele>
        <time>2022-02-22T13:56:54.785Z</time>
      </trkpt>
      <trkpt lat="41.53266" lon="-1.51701">
        <ele>497.998029</ele>
        <time>2022-02-22T13:57:05.060Z</time>
      </trkpt>
      <trkpt lat="41.53231" lon="-1.51726">
        <ele>496.865721</ele>
        <time>2022-02-22T13:57:11.624Z</time>
      </trkpt>
      <trkpt lat="41.5317" lon="-1.51808">
        <ele>494.346317</ele>
        <time>2022-02-22T13:57:26.870Z</time>
      </trkpt>
      <trkpt lat="41.53143" lon="-1.51815">
        <ele>493.557017</ele>
        <time>2022-02-22T13:57:31.918Z</time>
      </trkpt>
      <trkpt lat="41.53125" lon="-1.51809">
        <ele>493.208357</ele>
        <time>2022-02-22T13:57:35.435Z</time>
      </trkpt>
      <trkpt lat="41.53105" lon="-1.51781">
        <ele>492.667183</ele>
        <time>2022-02-22T13:57:41.402Z</time>
      </trkpt>
      <trkpt lat="41.531" lon="-1.51753">
        <ele>492.258455</ele>
        <time>2022-02-22T13:57:45.799Z</time>
      </trkpt>
      <trkpt lat="41.53108" lon="-1.51718">
        <ele>491.755919</ele>
        <time>2022-02-22T13:57:51.119Z</time>
      </trkpt>
      <trkpt lat="41.53144" lon="-1.51647">
        <ele>490.555238</ele>
        <time>2022-02-22T13:58:02.969Z</time>
      </trkpt>
      <trkpt lat="41.53149" lon="-1.51607">
        <ele>489.721796</ele>
        <time>2022-02-22T13:58:08.282Z</time>
      </trkpt>
      <trkpt lat="41.53136" lon="-1.51531">
        <ele>487.135828</ele>
        <time>2022-02-22T13:58:17.944Z</time>
      </trkpt>
      <trkpt lat="41.53122" lon="-1.5149">
        <ele>485.641052</ele>
        <time>2022-02-22T13:58:23.382Z</time>
      </trkpt>
      <trkpt lat="41.53077" lon="-1.51393">
        <ele>481.808875</ele>
        <time>2022-02-22T13:58:36.778Z</time>
      </trkpt>
      <trkpt lat="41.53052" lon="-1.51361">
        <ele>479.943456</ele>
        <time>2022-02-22T13:58:42.206Z</time>
      </trkpt>
      <trkpt lat="41.52991" lon="-1.51308">
        <ele>476.016456</ele>
        <time>2022-02-22T13:58:53.689Z</time>
      </trkpt>
      <trkpt lat="41.5297" lon="-1.51279">
        <ele>474.370429</ele>
        <time>2022-02-22T13:58:58.461Z</time>
      </trkpt>
      <trkpt lat="41.52951" lon="-1.51237">
        <ele>472.39843</ele>
        <time>2022-02-22T13:59:04.059Z</time>
      </trkpt>
      <trkpt lat="41.52926" lon="-1.51124">
        <ele>467.054441</ele>
        <time>2022-02-22T13:59:17.598Z</time>
      </trkpt>
      <trkpt lat="41.52898" lon="-1.51091">
        <ele>464.790712</ele>
        <time>2022-02-22T13:59:23.234Z</time>
      </trkpt>
      <trkpt lat="41.52874" lon="-1.51075">
        <ele>463.162695</ele>
        <time>2022-02-22T13:59:27.269Z</time>
      </trkpt>
      <trkpt lat="41.52737" lon="-1.51042">
        <ele>457.583328</ele>
        <time>2022-02-22T13:59:49.421Z</time>
      </trkpt>
      <trkpt lat="41.52666" lon="-1.51009">
        <ele>455.353786</ele>
        <time>2022-02-22T14:00:04.277Z</time>
      </trkpt>
      <trkpt lat="41.52649" lon="-1.50992">
        <ele>455.509891</ele>
        <time>2022-02-22T14:00:09.294Z</time>
      </trkpt>
      <trkpt lat="41.52644" lon="-1.50975">
        <ele>455.616142</ele>
        <time>2022-02-22T14:00:12.592Z</time>
      </trkpt>
      <trkpt lat="41.52647" lon="-1.50904">
        <ele>456.016218</ele>
        <time>2022-02-22T14:00:27.426Z</time>
      </trkpt>
      <trkpt lat="41.52645" lon="-1.50859">
        <ele>456.275185</ele>
        <time>2022-02-22T14:00:37.420Z</time>
      </trkpt>
      <trkpt lat="41.52632" lon="-1.50817">
        <ele>456.531261</ele>
        <time>2022-02-22T14:00:47.354Z</time>
      </trkpt>
      <trkpt lat="41.52616" lon="-1.50783">
        <ele>456.762635</ele>
        <time>2022-02-22T14:00:56.176Z</time>
      </trkpt>
      <trkpt lat="41.52548" lon="-1.50695">
        <ele>457.490342</ele>
        <time>2022-02-22T14:01:21.760Z</time>
      </trkpt>
      <trkpt lat="41.52436" lon="-1.50562">
        <ele>457.462723</ele>
        <time>2022-02-22T14:01:56.637Z</time>
      </trkpt>
      <trkpt lat="41.52418" lon="-1.50533">
        <ele>457.261017</ele>
        <time>2022-02-22T14:02:02.587Z</time>
      </trkpt>
      <trkpt lat="41.52385" lon="-1.50441">
        <ele>456.590172</ele>
        <time>2022-02-22T14:02:17.269Z</time>
      </trkpt>
      <trkpt lat="41.5237" lon="-1.50415">
        <ele>455.804252</ele>
        <time>2022-02-22T14:02:21.628Z</time>
      </trkpt>
      <trkpt lat="41.52318" lon="-1.50379">
        <ele>453.916022</ele>
        <time>2022-02-22T14:02:31.753Z</time>
      </trkpt>
      <trkpt lat="41.52267" lon="-1.50334">
        <ele>451.933604</ele>
        <time>2022-02-22T14:02:41.951Z</time>
      </trkpt>
      <trkpt lat="41.52181" lon="-1.50244">
        <ele>448.037719</ele>
        <time>2022-02-22T14:02:59.691Z</time>
      </trkpt>
      <trkpt lat="41.52036" lon="-1.50014">
        <ele>441.045955</ele>
        <time>2022-02-22T14:03:38.069Z</time>
      </trkpt>
      <trkpt lat="41.51864" lon="-1.49755">
        <ele>437.205425</ele>
        <time>2022-02-22T14:04:28.686Z</time>
      </trkpt>
      <trkpt lat="41.51782" lon="-1.49711">
        <ele>436.194119</ele>
        <time>2022-02-22T14:04:47.205Z</time>
      </trkpt>
      <trkpt lat="41.51754" lon="-1.49701">
        <ele>435.870901</ele>
        <time>2022-02-22T14:04:52.746Z</time>
      </trkpt>
      <trkpt lat="41.51735" lon="-1.49704">
        <ele>435.648515</ele>
        <time>2022-02-22T14:04:56.496Z</time>
      </trkpt>
      <trkpt lat="41.51702" lon="-1.49725">
        <ele>434.919874</ele>
        <time>2022-02-22T14:05:03.345Z</time>
      </trkpt>
      <trkpt lat="41.51529" lon="-1.49857">
        <ele>428.591285</ele>
        <time>2022-02-22T14:05:37.441Z</time>
      </trkpt>
      <trkpt lat="41.51514" lon="-1.49862">
        <ele>427.988272</ele>
        <time>2022-02-22T14:05:39.819Z</time>
      </trkpt>
      <trkpt lat="41.515" lon="-1.49857">
        <ele>427.401092</ele>
        <time>2022-02-22T14:05:42.154Z</time>
      </trkpt>
      <trkpt lat="41.51433" lon="-1.4981">
        <ele>424.288563</ele>
        <time>2022-02-22T14:05:54.467Z</time>
      </trkpt>
      <trkpt lat="41.51416" lon="-1.49805">
        <ele>423.587565</ele>
        <time>2022-02-22T14:05:57.185Z</time>
      </trkpt>
      <trkpt lat="41.51375" lon="-1.49805">
        <ele>422.419053</ele>
        <time>2022-02-22T14:06:03.836Z</time>
      </trkpt>
      <trkpt lat="41.51351" lon="-1.49797">
        <ele>422.020831</ele>
        <time>2022-02-22T14:06:08.065Z</time>
      </trkpt>
      <trkpt lat="41.51332" lon="-1.4978">
        <ele>421.638955</ele>
        <time>2022-02-22T14:06:12.395Z</time>
      </trkpt>
      <trkpt lat="41.51301" lon="-1.49776">
        <ele>421.144853</ele>
        <time>2022-02-22T14:06:17.826Z</time>
      </trkpt>
      <trkpt lat="41.51286" lon="-1.49785">
        <ele>420.873553</ele>
        <time>2022-02-22T14:06:20.896Z</time>
      </trkpt>
      <trkpt lat="41.51257" lon="-1.49812">
        <ele>420.298122</ele>
        <time>2022-02-22T14:06:27.936Z</time>
      </trkpt>
      <trkpt lat="41.51214" lon="-1.49846">
        <ele>420.506563</ele>
        <time>2022-02-22T14:06:41.781Z</time>
      </trkpt>
      <trkpt lat="41.51188" lon="-1.49855">
        <ele>421.402579</ele>
        <time>2022-02-22T14:06:50.486Z</time>
      </trkpt>
      <trkpt lat="41.51104" lon="-1.49859">
        <ele>424.193938</ele>
        <time>2022-02-22T14:07:27.711Z</time>
      </trkpt>
      <trkpt lat="41.5107" lon="-1.49849">
        <ele>425.352386</ele>
        <time>2022-02-22T14:07:43.137Z</time>
      </trkpt>
      <trkpt lat="41.51007" lon="-1.49807">
        <ele>427.848604</ele>
        <time>2022-02-22T14:08:12.534Z</time>
      </trkpt>
      <trkpt lat="41.50972" lon="-1.4978">
        <ele>429.316873</ele>
        <time>2022-02-22T14:08:28.917Z</time>
      </trkpt>
      <trkpt lat="41.50933" lon="-1.49766">
        <ele>430.788244</ele>
        <time>2022-02-22T14:08:45.368Z</time>
      </trkpt>
      <trkpt lat="41.50843" lon="-1.4974">
        <ele>433.230925</ele>
        <time>2022-02-22T14:09:19.882Z</time>
      </trkpt>
      <trkpt lat="41.50784" lon="-1.49724">
        <ele>434.377415</ele>
        <time>2022-02-22T14:09:40.032Z</time>
      </trkpt>
      <trkpt lat="41.50762" lon="-1.49712">
        <ele>434.815266</ele>
        <time>2022-02-22T14:09:47.510Z</time>
      </trkpt>
      <trkpt lat="41.50724" lon="-1.49665">
        <ele>435.614365</ele>
        <time>2022-02-22T14:10:02.209Z</time>
      </trkpt>
      <trkpt lat="41.50501" lon="-1.49346">
        <ele>431.820477</ele>
        <time>2022-02-22T14:11:04.877Z</time>
      </trkpt>
      <trkpt lat="41.50397" lon="-1.49278">
        <ele>431.385621</ele>
        <time>2022-02-22T14:11:27.869Z</time>
      </trkpt>
      <trkpt lat="41.50278" lon="-1.49205">
        <ele>432.155628</ele>
        <time>2022-02-22T14:12:01.881Z</time>
      </trkpt>
      <trkpt lat="41.5012" lon="-1.49138">
        <ele>435.975114</ele>
        <time>2022-02-22T14:12:59.363Z</time>
      </trkpt>
      <trkpt lat="41.50082" lon="-1.49137">
        <ele>437.301635</ele>
        <time>2022-02-22T14:13:14.158Z</time>
      </trkpt>
      <trkpt lat="41.49973" lon="-1.49151">
        <ele>441.1144</ele>
        <time>2022-02-22T14:13:59.885Z</time>
      </trkpt>
      <trkpt lat="41.49663" lon="-1.49203">
        <ele>451.181108</ele>
        <time>2022-02-22T14:16:08.919Z</time>
      </trkpt>
      <trkpt lat="41.49616" lon="-1.49203">
        <ele>452.283438</ele>
        <time>2022-02-22T14:16:19.650Z</time>
      </trkpt>
      <trkpt lat="41.49582" lon="-1.49195">
        <ele>451.43673</ele>
        <time>2022-02-22T14:16:26.479Z</time>
      </trkpt>
      <trkpt lat="41.49566" lon="-1.49184">
        <ele>450.805391</ele>
        <time>2022-02-22T14:16:29.563Z</time>
      </trkpt>
      <trkpt lat="41.49524" lon="-1.49125">
        <ele>448.59104</ele>
        <time>2022-02-22T14:16:40.025Z</time>
      </trkpt>
      <trkpt lat="41.49504" lon="-1.49114">
        <ele>447.83247</ele>
        <time>2022-02-22T14:16:43.364Z</time>
      </trkpt>
      <trkpt lat="41.49478" lon="-1.49118">
        <ele>446.892053</ele>
        <time>2022-02-22T14:16:47.388Z</time>
      </trkpt>
      <trkpt lat="41.49415" lon="-1.4914">
        <ele>443.287371</ele>
        <time>2022-02-22T14:16:57.500Z</time>
      </trkpt>
      <trkpt lat="41.49391" lon="-1.49141">
        <ele>441.658721</ele>
        <time>2022-02-22T14:17:01.153Z</time>
      </trkpt>
      <trkpt lat="41.4929" lon="-1.49124">
        <ele>434.795191</ele>
        <time>2022-02-22T14:17:16.393Z</time>
      </trkpt>
      <trkpt lat="41.49264" lon="-1.49111">
        <ele>433.152381</ele>
        <time>2022-02-22T14:17:20.398Z</time>
      </trkpt>
      <trkpt lat="41.49241" lon="-1.49086">
        <ele>431.49651</ele>
        <time>2022-02-22T14:17:24.948Z</time>
      </trkpt>
      <trkpt lat="41.49174" lon="-1.48986">
        <ele>426.004838</ele>
        <time>2022-02-22T14:17:40.619Z</time>
      </trkpt>
      <trkpt lat="41.49072" lon="-1.4893">
        <ele>421.47507</ele>
        <time>2022-02-22T14:17:58.976Z</time>
      </trkpt>
      <trkpt lat="41.49045" lon="-1.4889">
        <ele>420.112365</ele>
        <time>2022-02-22T14:18:05.778Z</time>
      </trkpt>
      <trkpt lat="41.48978" lon="-1.48768">
        <ele>416.992509</ele>
        <time>2022-02-22T14:18:25.632Z</time>
      </trkpt>
      <trkpt lat="41.48916" lon="-1.4857">
        <ele>414.327129</ele>
        <time>2022-02-22T14:18:56.139Z</time>
      </trkpt>
      <trkpt lat="41.48856" lon="-1.48375">
        <ele>413.133241</ele>
        <time>2022-02-22T14:19:28.783Z</time>
      </trkpt>
      <trkpt lat="41.48828" lon="-1.48314">
        <ele>413.002913</ele>
        <time>2022-02-22T14:19:40.057Z</time>
      </trkpt>
      <trkpt lat="41.48797" lon="-1.48276">
        <ele>412.90226</ele>
        <time>2022-02-22T14:19:49.071Z</time>
      </trkpt>
      <trkpt lat="41.48771" lon="-1.48222">
        <ele>412.785982</ele>
        <time>2022-02-22T14:19:59.939Z</time>
      </trkpt>
      <trkpt lat="41.48751" lon="-1.48156">
        <ele>412.70636</ele>
        <time>2022-02-22T14:20:12.493Z</time>
      </trkpt>
      <trkpt lat="41.48711" lon="-1.48087">
        <ele>412.681365</ele>
        <time>2022-02-22T14:20:27.111Z</time>
      </trkpt>
      <trkpt lat="41.48688" lon="-1.48053">
        <ele>412.668331</ele>
        <time>2022-02-22T14:20:34.835Z</time>
      </trkpt>
      <trkpt lat="41.48678" lon="-1.48043">
        <ele>412.663609</ele>
        <time>2022-02-22T14:20:37.751Z</time>
      </trkpt>
      <trkpt lat="41.48671" lon="-1.48036">
        <ele>412.660114</ele>
        <time>2022-02-22T14:20:39.958Z</time>
      </trkpt>
      <trkpt lat="41.48658" lon="-1.48023">
        <ele>412.653705</ele>
        <time>2022-02-22T14:20:44.240Z</time>
      </trkpt>
      <trkpt lat="41.48644" lon="-1.4801">
        <ele>412.647307</ele>
        <time>2022-02-22T14:20:48.129Z</time>
      </trkpt>
      <trkpt lat="41.48637" lon="-1.48003">
        <ele>412.62713</ele>
        <time>2022-02-22T14:20:50.199Z</time>
      </trkpt>
      <trkpt lat="41.48604" lon="-1.47969">
        <ele>412.512572</ele>
        <time>2022-02-22T14:20:59.932Z</time>
      </trkpt>
      <trkpt lat="41.48584" lon="-1.47951">
        <ele>412.44549</ele>
        <time>2022-02-22T14:21:05.322Z</time>
      </trkpt>
      <trkpt lat="41.48579" lon="-1.47946">
        <ele>412.429801</ele>
        <time>2022-02-22T14:21:06.590Z</time>
      </trkpt>
      <trkpt lat="41.48558" lon="-1.47892">
        <ele>412.30562</ele>
        <time>2022-02-22T14:21:16.483Z</time>
      </trkpt>
      <trkpt lat="41.48539" lon="-1.47842">
        <ele>412.18952</ele>
        <time>2022-02-22T14:21:25.681Z</time>
      </trkpt>
      <trkpt lat="41.48463" lon="-1.47759">
        <ele>412.089412</ele>
        <time>2022-02-22T14:21:48.077Z</time>
      </trkpt>
      <trkpt lat="41.4842" lon="-1.47735">
        <ele>412.053922</ele>
        <time>2022-02-22T14:21:58.820Z</time>
      </trkpt>
      <trkpt lat="41.48405" lon="-1.47714">
        <ele>412.036996</ele>
        <time>2022-02-22T14:22:03.981Z</time>
      </trkpt>
      <trkpt lat="41.48393" lon="-1.4764">
        <ele>411.852714</ele>
        <time>2022-02-22T14:22:17.516Z</time>
      </trkpt>
      <trkpt lat="41.4833" lon="-1.47549">
        <ele>411.356603</ele>
        <time>2022-02-22T14:22:38.328Z</time>
      </trkpt>
      <trkpt lat="41.48296" lon="-1.47545">
        <ele>411.177965</ele>
        <time>2022-02-22T14:22:45.487Z</time>
      </trkpt>
      <trkpt lat="41.48208" lon="-1.47501">
        <ele>409.27584</ele>
        <time>2022-02-22T14:23:04.018Z</time>
      </trkpt>
      <trkpt lat="41.48174" lon="-1.47492">
        <ele>408.414278</ele>
        <time>2022-02-22T14:23:10.384Z</time>
      </trkpt>
      <trkpt lat="41.48137" lon="-1.47474">
        <ele>407.439048</ele>
        <time>2022-02-22T14:23:17.415Z</time>
      </trkpt>
      <trkpt lat="41.48035" lon="-1.47398">
        <ele>404.031439</ele>
        <time>2022-02-22T14:23:38.076Z</time>
      </trkpt>
      <trkpt lat="41.48026" lon="-1.47383">
        <ele>403.560181</ele>
        <time>2022-02-22T14:23:40.749Z</time>
      </trkpt>
      <trkpt lat="41.47949" lon="-1.47313">
        <ele>400.868047</ele>
        <time>2022-02-22T14:23:57.594Z</time>
      </trkpt>
      <trkpt lat="41.47935" lon="-1.4731">
        <ele>400.711574</ele>
        <time>2022-02-22T14:24:00.197Z</time>
      </trkpt>
      <trkpt lat="41.47907" lon="-1.47318">
        <ele>400.387266</ele>
        <time>2022-02-22T14:24:05.739Z</time>
      </trkpt>
      <trkpt lat="41.47885" lon="-1.47308">
        <ele>400.129464</ele>
        <time>2022-02-22T14:24:10.205Z</time>
      </trkpt>
      <trkpt lat="41.47842" lon="-1.47293">
        <ele>399.631317</ele>
        <time>2022-02-22T14:24:19.274Z</time>
      </trkpt>
      <trkpt lat="41.47785" lon="-1.47256">
        <ele>399.066927</ele>
        <time>2022-02-22T14:24:33.871Z</time>
      </trkpt>
      <trkpt lat="41.47764" lon="-1.47258">
        <ele>399.54973</ele>
        <time>2022-02-22T14:24:40.484Z</time>
      </trkpt>
      <trkpt lat="41.47755" lon="-1.47268">
        <ele>399.83371</ele>
        <time>2022-02-22T14:24:43.714Z</time>
      </trkpt>
      <trkpt lat="41.47703" lon="-1.47347">
        <ele>401.697538</ele>
        <time>2022-02-22T14:25:10.302Z</time>
      </trkpt>
      <trkpt lat="41.47694" lon="-1.4735">
        <ele>401.902709</ele>
        <time>2022-02-22T14:25:14.018Z</time>
      </trkpt>
      <trkpt lat="41.47657" lon="-1.47348">
        <ele>402.796298</ele>
        <time>2022-02-22T14:25:29.248Z</time>
      </trkpt>
      <trkpt lat="41.47592" lon="-1.47363">
        <ele>405.624151</ele>
        <time>2022-02-22T14:25:57.556Z</time>
      </trkpt>
      <trkpt lat="41.47541" lon="-1.47352">
        <ele>408.247267</ele>
        <time>2022-02-22T14:26:23.301Z</time>
      </trkpt>
      <trkpt lat="41.47427" lon="-1.47377">
        <ele>414.341663</ele>
        <time>2022-02-22T14:27:23.227Z</time>
      </trkpt>
      <trkpt lat="41.47416" lon="-1.4738">
        <ele>414.959648</ele>
        <time>2022-02-22T14:27:29.242Z</time>
      </trkpt>
      <trkpt lat="41.47399" lon="-1.47369">
        <ele>416.010803</ele>
        <time>2022-02-22T14:27:39.267Z</time>
      </trkpt>
      <trkpt lat="41.47386" lon="-1.47401">
        <ele>417.587035</ele>
        <time>2022-02-22T14:27:54.368Z</time>
      </trkpt>
      <trkpt lat="41.47364" lon="-1.47385">
        <ele>419.014294</ele>
        <time>2022-02-22T14:28:07.539Z</time>
      </trkpt>
      <trkpt lat="41.47315" lon="-1.4737">
        <ele>421.828908</ele>
        <time>2022-02-22T14:28:32.244Z</time>
      </trkpt>
      <trkpt lat="41.47304" lon="-1.47398">
        <ele>423.026704</ele>
        <time>2022-02-22T14:28:43.119Z</time>
      </trkpt>
      <trkpt lat="41.47262" lon="-1.47367">
        <ele>425.250752</ele>
        <time>2022-02-22T14:29:06.399Z</time>
      </trkpt>
      <trkpt lat="41.47234" lon="-1.47348">
        <ele>426.711212</ele>
        <time>2022-02-22T14:29:21.084Z</time>
      </trkpt>
      <trkpt lat="41.47217" lon="-1.47366">
        <ele>427.700262</ele>
        <time>2022-02-22T14:29:31.116Z</time>
      </trkpt>
      <trkpt lat="41.47188" lon="-1.47389">
        <ele>429.265192</ele>
        <time>2022-02-22T14:29:47.355Z</time>
      </trkpt>
      <trkpt lat="41.47192" lon="-1.47403">
        <ele>429.788058</ele>
        <time>2022-02-22T14:29:52.640Z</time>
      </trkpt>
      <trkpt lat="41.47188" lon="-1.47402">
        <ele>429.934439</ele>
        <time>2022-02-22T14:29:54.118Z</time>
      </trkpt>
      <trkpt lat="41.47184" lon="-1.47402">
        <ele>430.160765</ele>
        <time>2022-02-22T14:29:56.235Z</time>
      </trkpt>
      <trkpt lat="41.47154" lon="-1.47401">
        <ele>431.246889</ele>
        <time>2022-02-22T14:30:08.511Z</time>
      </trkpt>
      <trkpt lat="41.47077" lon="-1.47406">
        <ele>433.389139</ele>
        <time>2022-02-22T14:30:36.788Z</time>
      </trkpt>
      <trkpt lat="41.47062" lon="-1.47407">
        <ele>433.804712</ele>
        <time>2022-02-22T14:30:42.124Z</time>
      </trkpt>
      <trkpt lat="41.47037" lon="-1.47385">
        <ele>434.633241</ele>
        <time>2022-02-22T14:30:52.264Z</time>
      </trkpt>
      <trkpt lat="41.4698" lon="-1.47315">
        <ele>436.55038</ele>
        <time>2022-02-22T14:31:17.374Z</time>
      </trkpt>
      <trkpt lat="41.46949" lon="-1.47303">
        <ele>437.253742</ele>
        <time>2022-02-22T14:31:27.191Z</time>
      </trkpt>
      <trkpt lat="41.46937" lon="-1.47301">
        <ele>437.493525</ele>
        <time>2022-02-22T14:31:30.706Z</time>
      </trkpt>
      <trkpt lat="41.46812" lon="-1.47277">
        <ele>440.546906</ele>
        <time>2022-02-22T14:32:12.732Z</time>
      </trkpt>
      <trkpt lat="41.46755" lon="-1.47253">
        <ele>442.623431</ele>
        <time>2022-02-22T14:32:36.823Z</time>
      </trkpt>
      <trkpt lat="41.4675" lon="-1.47249">
        <ele>442.850503</ele>
        <time>2022-02-22T14:32:39.262Z</time>
      </trkpt>
      <trkpt lat="41.46664" lon="-1.47154">
        <ele>447.120455</ele>
        <time>2022-02-22T14:33:26.090Z</time>
      </trkpt>
      <trkpt lat="41.46647" lon="-1.47133">
        <ele>448.278707</ele>
        <time>2022-02-22T14:33:36.343Z</time>
      </trkpt>
      <trkpt lat="41.46626" lon="-1.47106">
        <ele>449.714439</ele>
        <time>2022-02-22T14:33:48.952Z</time>
      </trkpt>
      <trkpt lat="41.46488" lon="-1.46932">
        <ele>459.494842</ele>
        <time>2022-02-22T14:35:24.458Z</time>
      </trkpt>
      <trkpt lat="41.46452" lon="-1.46888">
        <ele>462.073552</ele>
        <time>2022-02-22T14:35:47.934Z</time>
      </trkpt>
      <trkpt lat="41.46393" lon="-1.46815">
        <ele>466.122111</ele>
        <time>2022-02-22T14:36:26.183Z</time>
      </trkpt>
      <trkpt lat="41.46358" lon="-1.46769">
        <ele>468.34571</ele>
        <time>2022-02-22T14:36:49.119Z</time>
      </trkpt>
      <trkpt lat="41.46234" lon="-1.46605">
        <ele>476.874577</ele>
        <time>2022-02-22T14:38:05.391Z</time>
      </trkpt>
      <trkpt lat="41.46173" lon="-1.46551">
        <ele>480.715277</ele>
        <time>2022-02-22T14:38:41.804Z</time>
      </trkpt>
      <trkpt lat="41.46143" lon="-1.46533">
        <ele>482.545575</ele>
        <time>2022-02-22T14:38:59.470Z</time>
      </trkpt>
      <trkpt lat="41.4606" lon="-1.46502">
        <ele>489.013972</ele>
        <time>2022-02-22T14:39:50.871Z</time>
      </trkpt>
      <trkpt lat="41.4598" lon="-1.46495">
        <ele>494.962088</ele>
        <time>2022-02-22T14:40:41.338Z</time>
      </trkpt>
      <trkpt lat="41.45969" lon="-1.46495">
        <ele>495.719736</ele>
        <time>2022-02-22T14:40:47.500Z</time>
      </trkpt>
      <trkpt lat="41.45906" lon="-1.46496">
        <ele>499.521941</ele>
        <time>2022-02-22T14:41:24.563Z</time>
      </trkpt>
      <trkpt lat="41.45875" lon="-1.46502">
        <ele>501.444213</ele>
        <time>2022-02-22T14:41:42.507Z</time>
      </trkpt>
      <trkpt lat="41.45856" lon="-1.46522">
        <ele>502.865443</ele>
        <time>2022-02-22T14:41:54.798Z</time>
      </trkpt>
      <trkpt lat="41.45849" lon="-1.4654">
        <ele>503.820734</ele>
        <time>2022-02-22T14:42:02.003Z</time>
      </trkpt>
      <trkpt lat="41.45828" lon="-1.46547">
        <ele>505.124554</ele>
        <time>2022-02-22T14:42:12.126Z</time>
      </trkpt>
      <trkpt lat="41.45813" lon="-1.46533">
        <ele>506.226958</ele>
        <time>2022-02-22T14:42:19.672Z</time>
      </trkpt>
      <trkpt lat="41.45793" lon="-1.46521">
        <ele>507.040655</ele>
        <time>2022-02-22T14:42:28.987Z</time>
      </trkpt>
      <trkpt lat="41.4577" lon="-1.46521">
        <ele>507.761093</ele>
        <time>2022-02-22T14:42:37.330Z</time>
      </trkpt>
      <trkpt lat="41.45696" lon="-1.46564">
        <ele>510.319462</ele>
        <time>2022-02-22T14:43:06.346Z</time>
      </trkpt>
      <trkpt lat="41.45658" lon="-1.46578">
        <ele>511.595287</ele>
        <time>2022-02-22T14:43:23.457Z</time>
      </trkpt>
      <trkpt lat="41.45433" lon="-1.46623">
        <ele>515.645903</ele>
        <time>2022-02-22T14:44:39.308Z</time>
      </trkpt>
      <trkpt lat="41.45373" lon="-1.46633">
        <ele>514.850684</ele>
        <time>2022-02-22T14:44:51.417Z</time>
      </trkpt>
      <trkpt lat="41.45352" lon="-1.46618">
        <ele>514.534938</ele>
        <time>2022-02-22T14:44:55.829Z</time>
      </trkpt>
      <trkpt lat="41.4534" lon="-1.46596">
        <ele>514.270946</ele>
        <time>2022-02-22T14:44:59.337Z</time>
      </trkpt>
      <trkpt lat="41.45309" lon="-1.46492">
        <ele>512.086955</ele>
        <time>2022-02-22T14:45:13.231Z</time>
      </trkpt>
      <trkpt lat="41.45297" lon="-1.46401">
        <ele>509.203586</ele>
        <time>2022-02-22T14:45:24.716Z</time>
      </trkpt>
      <trkpt lat="41.4528" lon="-1.46322">
        <ele>506.663856</ele>
        <time>2022-02-22T14:45:34.491Z</time>
      </trkpt>
      <trkpt lat="41.45243" lon="-1.46218">
        <ele>502.788174</ele>
        <time>2022-02-22T14:45:48.463Z</time>
      </trkpt>
      <trkpt lat="41.45227" lon="-1.46162">
        <ele>500.778322</ele>
        <time>2022-02-22T14:45:55.553Z</time>
      </trkpt>
      <trkpt lat="41.4521" lon="-1.46055">
        <ele>497.589996</ele>
        <time>2022-02-22T14:46:09.034Z</time>
      </trkpt>
      <trkpt lat="41.45197" lon="-1.46019">
        <ele>496.949604</ele>
        <time>2022-02-22T14:46:13.939Z</time>
      </trkpt>
      <trkpt lat="41.45167" lon="-1.45971">
        <ele>495.951086</ele>
        <time>2022-02-22T14:46:22.051Z</time>
      </trkpt>
      <trkpt lat="41.45138" lon="-1.45944">
        <ele>495.176613</ele>
        <time>2022-02-22T14:46:28.518Z</time>
      </trkpt>
      <trkpt lat="41.45119" lon="-1.45935">
        <ele>494.745742</ele>
        <time>2022-02-22T14:46:32.061Z</time>
      </trkpt>
      <trkpt lat="41.44953" lon="-1.45902">
        <ele>496.41592</ele>
        <time>2022-02-22T14:47:23.424Z</time>
      </trkpt>
      <trkpt lat="41.4493" lon="-1.4591">
        <ele>496.788015</ele>
        <time>2022-02-22T14:47:32.207Z</time>
      </trkpt>
      <trkpt lat="41.44915" lon="-1.45921">
        <ele>497.046499</ele>
        <time>2022-02-22T14:47:37.596Z</time>
      </trkpt>
      <trkpt lat="41.44903" lon="-1.45917">
        <ele>497.179609</ele>
        <time>2022-02-22T14:47:42.120Z</time>
      </trkpt>
      <trkpt lat="41.44897" lon="-1.45907">
        <ele>497.287192</ele>
        <time>2022-02-22T14:47:44.662Z</time>
      </trkpt>
      <trkpt lat="41.44876" lon="-1.45889">
        <ele>497.563042</ele>
        <time>2022-02-22T14:47:53.235Z</time>
      </trkpt>
      <trkpt lat="41.44769" lon="-1.45871">
        <ele>498.761581</ele>
        <time>2022-02-22T14:48:26.507Z</time>
      </trkpt>
      <trkpt lat="41.44714" lon="-1.4588">
        <ele>498.690354</ele>
        <time>2022-02-22T14:48:36.720Z</time>
      </trkpt>
      <trkpt lat="41.44675" lon="-1.45903">
        <ele>498.301707</ele>
        <time>2022-02-22T14:48:43.919Z</time>
      </trkpt>
      <trkpt lat="41.44553" lon="-1.45999">
        <ele>498.127188</ele>
        <time>2022-02-22T14:49:13.872Z</time>
      </trkpt>
      <trkpt lat="41.44538" lon="-1.46025">
        <ele>498.636089</ele>
        <time>2022-02-22T14:49:21.900Z</time>
      </trkpt>
      <trkpt lat="41.44537" lon="-1.46035">
        <ele>498.789316</ele>
        <time>2022-02-22T14:49:24.171Z</time>
      </trkpt>
      <trkpt lat="41.44531" lon="-1.46046">
        <ele>498.985675</ele>
        <time>2022-02-22T14:49:27.332Z</time>
      </trkpt>
      <trkpt lat="41.4452" lon="-1.46051">
        <ele>499.231015</ele>
        <time>2022-02-22T14:49:31.589Z</time>
      </trkpt>
      <trkpt lat="41.44504" lon="-1.46042">
        <ele>499.59156</ele>
        <time>2022-02-22T14:49:37.594Z</time>
      </trkpt>
      <trkpt lat="41.44501" lon="-1.4602">
        <ele>499.951908</ele>
        <time>2022-02-22T14:49:44.095Z</time>
      </trkpt>
      <trkpt lat="41.44494" lon="-1.45987">
        <ele>500.477211</ele>
        <time>2022-02-22T14:49:53.691Z</time>
      </trkpt>
      <trkpt lat="41.44455" lon="-1.45932">
        <ele>501.735229</ele>
        <time>2022-02-22T14:50:17.341Z</time>
      </trkpt>
      <trkpt lat="41.44407" lon="-1.45883">
        <ele>503.164053</ele>
        <time>2022-02-22T14:50:41.639Z</time>
      </trkpt>
      <trkpt lat="41.44361" lon="-1.45848">
        <ele>504.432164</ele>
        <time>2022-02-22T14:51:00.476Z</time>
      </trkpt>
      <trkpt lat="41.44318" lon="-1.45825">
        <ele>505.178761</ele>
        <time>2022-02-22T14:51:11.936Z</time>
      </trkpt>
      <trkpt lat="41.44231" lon="-1.45795">
        <ele>503.585305</ele>
        <time>2022-02-22T14:51:28.960Z</time>
      </trkpt>
      <trkpt lat="41.44016" lon="-1.45751">
        <ele>498.912734</ele>
        <time>2022-02-22T14:52:06.730Z</time>
      </trkpt>
      <trkpt lat="41.43912" lon="-1.45712">
        <ele>497.282841</ele>
        <time>2022-02-22T14:52:28.066Z</time>
      </trkpt>
      <trkpt lat="41.43818" lon="-1.45661">
        <ele>496.334691</ele>
        <time>2022-02-22T14:52:49.966Z</time>
      </trkpt>
      <trkpt lat="41.4325" lon="-1.45323">
        <ele>483.963013</ele>
        <time>2022-02-22T14:54:42.941Z</time>
      </trkpt>
      <trkpt lat="41.43162" lon="-1.45295">
        <ele>482.627879</ele>
        <time>2022-02-22T14:55:00.501Z</time>
      </trkpt>
      <trkpt lat="41.43114" lon="-1.4529">
        <ele>482.3477</ele>
        <time>2022-02-22T14:55:10.345Z</time>
      </trkpt>
      <trkpt lat="41.43031" lon="-1.45293">
        <ele>482.447402</ele>
        <time>2022-02-22T14:55:28.489Z</time>
      </trkpt>
      <trkpt lat="41.42818" lon="-1.45324">
        <ele>484.255333</ele>
        <time>2022-02-22T14:56:25.906Z</time>
      </trkpt>
      <trkpt lat="41.42525" lon="-1.45358">
        <ele>489.63344</ele>
        <time>2022-02-22T14:58:03.088Z</time>
      </trkpt>
      <trkpt lat="41.42464" lon="-1.45367">
        <ele>490.522698</ele>
        <time>2022-02-22T14:58:20.303Z</time>
      </trkpt>
      <trkpt lat="41.42138" lon="-1.45497">
        <ele>494.084606</ele>
        <time>2022-02-22T14:59:46.572Z</time>
      </trkpt>
      <trkpt lat="41.42059" lon="-1.45472">
        <ele>495.88948</ele>
        <time>2022-02-22T15:00:16.969Z</time>
      </trkpt>
      <trkpt lat="41.42007" lon="-1.45464">
        <ele>498.070787</ele>
        <time>2022-02-22T15:00:38.625Z</time>
      </trkpt>
      <trkpt lat="41.41943" lon="-1.4546">
        <ele>500.694185</ele>
        <time>2022-02-22T15:01:07.678Z</time>
      </trkpt>
      <trkpt lat="41.41887" lon="-1.45471">
        <ele>502.789064</ele>
        <time>2022-02-22T15:01:33.532Z</time>
      </trkpt>
      <trkpt lat="41.41872" lon="-1.45468">
        <ele>503.156334</ele>
        <time>2022-02-22T15:01:40.692Z</time>
      </trkpt>
      <trkpt lat="41.41841" lon="-1.45455">
        <ele>503.956848</ele>
        <time>2022-02-22T15:01:56.402Z</time>
      </trkpt>
      <trkpt lat="41.41814" lon="-1.45429">
        <ele>504.75337</ele>
        <time>2022-02-22T15:02:09.458Z</time>
      </trkpt>
      <trkpt lat="41.41778" lon="-1.45334">
        <ele>506.708206</ele>
        <time>2022-02-22T15:02:30.649Z</time>
      </trkpt>
      <trkpt lat="41.41701" lon="-1.45079">
        <ele>503.992304</ele>
        <time>2022-02-22T15:03:09.601Z</time>
      </trkpt>
      <trkpt lat="41.41679" lon="-1.45007">
        <ele>503.04952</ele>
        <time>2022-02-22T15:03:19.991Z</time>
      </trkpt>
      <trkpt lat="41.41667" lon="-1.44985">
        <ele>502.716337</ele>
        <time>2022-02-22T15:03:23.655Z</time>
      </trkpt>
      <trkpt lat="41.41626" lon="-1.44941">
        <ele>501.86695</ele>
        <time>2022-02-22T15:03:33.343Z</time>
      </trkpt>
      <trkpt lat="41.41541" lon="-1.44865">
        <ele>502.525163</ele>
        <time>2022-02-22T15:03:57.610Z</time>
      </trkpt>
      <trkpt lat="41.41483" lon="-1.4479">
        <ele>503.689357</ele>
        <time>2022-02-22T15:04:24.677Z</time>
      </trkpt>
      <trkpt lat="41.4143" lon="-1.44773">
        <ele>504.945695</ele>
        <time>2022-02-22T15:04:44.676Z</time>
      </trkpt>
      <trkpt lat="41.41387" lon="-1.44773">
        <ele>506.234608</ele>
        <time>2022-02-22T15:05:01.737Z</time>
      </trkpt>
      <trkpt lat="41.41367" lon="-1.44766">
        <ele>506.845966</ele>
        <time>2022-02-22T15:05:09.796Z</time>
      </trkpt>
      <trkpt lat="41.41332" lon="-1.44732">
        <ele>508.127459</ele>
        <time>2022-02-22T15:05:26.396Z</time>
      </trkpt>
      <trkpt lat="41.4131" lon="-1.4468">
        <ele>509.43465</ele>
        <time>2022-02-22T15:05:42.287Z</time>
      </trkpt>
      <trkpt lat="41.4129" lon="-1.4466">
        <ele>510.009554</ele>
        <time>2022-02-22T15:05:50.500Z</time>
      </trkpt>
      <trkpt lat="41.4116" lon="-1.44613">
        <ele>513.12306</ele>
        <time>2022-02-22T15:06:35.285Z</time>
      </trkpt>
      <trkpt lat="41.4105" lon="-1.44551">
        <ele>516.304299</ele>
        <time>2022-02-22T15:07:15.626Z</time>
      </trkpt>
      <trkpt lat="41.40963" lon="-1.44488">
        <ele>519.455173</ele>
        <time>2022-02-22T15:07:52.021Z</time>
      </trkpt>
      <trkpt lat="41.40778" lon="-1.44415">
        <ele>529.294863</ele>
        <time>2022-02-22T15:09:25.818Z</time>
      </trkpt>
      <trkpt lat="41.40663" lon="-1.44343">
        <ele>536.959162</ele>
        <time>2022-02-22T15:10:37.732Z</time>
      </trkpt>
      <trkpt lat="41.40594" lon="-1.44308">
        <ele>539.17084</ele>
        <time>2022-02-22T15:11:11.812Z</time>
      </trkpt>
      <trkpt lat="41.40513" lon="-1.44289">
        <ele>540.803599</ele>
        <time>2022-02-22T15:11:37.284Z</time>
      </trkpt>
      <trkpt lat="41.40446" lon="-1.44292">
        <ele>541.058915</ele>
        <time>2022-02-22T15:11:50.348Z</time>
      </trkpt>
      <trkpt lat="41.40263" lon="-1.44321">
        <ele>537.042902</ele>
        <time>2022-02-22T15:12:22.472Z</time>
      </trkpt>
      <trkpt lat="41.4018" lon="-1.44317">
        <ele>535.675145</ele>
        <time>2022-02-22T15:12:38.128Z</time>
      </trkpt>
      <trkpt lat="41.40114" lon="-1.44303">
        <ele>534.595237</ele>
        <time>2022-02-22T15:12:51.510Z</time>
      </trkpt>
      <trkpt lat="41.39811" lon="-1.44268">
        <ele>530.71285</ele>
        <time>2022-02-22T15:13:51.980Z</time>
      </trkpt>
      <trkpt lat="41.39734" lon="-1.4422">
        <ele>529.404265</ele>
        <time>2022-02-22T15:14:06.480Z</time>
      </trkpt>
      <trkpt lat="41.39688" lon="-1.44148">
        <ele>528.470272</ele>
        <time>2022-02-22T15:14:19.510Z</time>
      </trkpt>
      <trkpt lat="41.39647" lon="-1.44148">
        <ele>527.927146</ele>
        <time>2022-02-22T15:14:27.421Z</time>
      </trkpt>
      <trkpt lat="41.39566" lon="-1.44162">
        <ele>528.203207</ele>
        <time>2022-02-22T15:14:48.117Z</time>
      </trkpt>
      <trkpt lat="41.39494" lon="-1.44119">
        <ele>529.709834</ele>
        <time>2022-02-22T15:15:15.132Z</time>
      </trkpt>
      <trkpt lat="41.39483" lon="-1.44115">
        <ele>529.928746</ele>
        <time>2022-02-22T15:15:19.408Z</time>
      </trkpt>
      <trkpt lat="41.39439" lon="-1.44121">
        <ele>530.762924</ele>
        <time>2022-02-22T15:15:34.930Z</time>
      </trkpt>
      <trkpt lat="41.39397" lon="-1.44128">
        <ele>531.972039</ele>
        <time>2022-02-22T15:15:48.973Z</time>
      </trkpt>
      <trkpt lat="41.39336" lon="-1.4415">
        <ele>533.808892</ele>
        <time>2022-02-22T15:16:13.084Z</time>
      </trkpt>
      <trkpt lat="41.39282" lon="-1.44195">
        <ele>535.662327</ele>
        <time>2022-02-22T15:16:36.978Z</time>
      </trkpt>
      <trkpt lat="41.39232" lon="-1.44239">
        <ele>537.348217</ele>
        <time>2022-02-22T15:16:59.131Z</time>
      </trkpt>
      <trkpt lat="41.39215" lon="-1.44249">
        <ele>537.871937</ele>
        <time>2022-02-22T15:17:06.029Z</time>
      </trkpt>
      <trkpt lat="41.39176" lon="-1.44256">
        <ele>538.982749</ele>
        <time>2022-02-22T15:17:20.832Z</time>
      </trkpt>
      <trkpt lat="41.3913" lon="-1.44231">
        <ele>540.389965</ele>
        <time>2022-02-22T15:17:40.066Z</time>
      </trkpt>
      <trkpt lat="41.39077" lon="-1.44192">
        <ele>541.574179</ele>
        <time>2022-02-22T15:17:59.603Z</time>
      </trkpt>
      <trkpt lat="41.38989" lon="-1.44172">
        <ele>542.787578</ele>
        <time>2022-02-22T15:18:24.731Z</time>
      </trkpt>
      <trkpt lat="41.38934" lon="-1.44108">
        <ele>543.635308</ele>
        <time>2022-02-22T15:18:44.369Z</time>
      </trkpt>
      <trkpt lat="41.38884" lon="-1.44076">
        <ele>543.942707</ele>
        <time>2022-02-22T15:18:57.825Z</time>
      </trkpt>
      <trkpt lat="41.38559" lon="-1.43959">
        <ele>546.114251</ele>
        <time>2022-02-22T15:20:21.086Z</time>
      </trkpt>
      <trkpt lat="41.38477" lon="-1.43976">
        <ele>547.175341</ele>
        <time>2022-02-22T15:20:43.921Z</time>
      </trkpt>
      <trkpt lat="41.38457" lon="-1.43988">
        <ele>547.464421</ele>
        <time>2022-02-22T15:20:50.814Z</time>
      </trkpt>
      <trkpt lat="41.38406" lon="-1.44033">
        <ele>549.26292</ele>
        <time>2022-02-22T15:21:11.269Z</time>
      </trkpt>
      <trkpt lat="41.38245" lon="-1.44046">
        <ele>556.091933</ele>
        <time>2022-02-22T15:22:23.807Z</time>
      </trkpt>
      <trkpt lat="41.38224" lon="-1.44039">
        <ele>557.295972</ele>
        <time>2022-02-22T15:22:36.168Z</time>
      </trkpt>
      <trkpt lat="41.38098" lon="-1.43942">
        <ele>565.274069</ele>
        <time>2022-02-22T15:23:50.064Z</time>
      </trkpt>
      <trkpt lat="41.38063" lon="-1.43905">
        <ele>567.417502</ele>
        <time>2022-02-22T15:24:11.382Z</time>
      </trkpt>
      <trkpt lat="41.37997" lon="-1.43879">
        <ele>570.682667</ele>
        <time>2022-02-22T15:24:44.657Z</time>
      </trkpt>
      <trkpt lat="41.37982" lon="-1.43867">
        <ele>571.538909</ele>
        <time>2022-02-22T15:24:53.011Z</time>
      </trkpt>
      <trkpt lat="41.37876" lon="-1.43613">
        <ele>578.302247</ele>
        <time>2022-02-22T15:26:20.033Z</time>
      </trkpt>
      <trkpt lat="41.37875" lon="-1.43584">
        <ele>578.068707</ele>
        <time>2022-02-22T15:26:23.746Z</time>
      </trkpt>
      <trkpt lat="41.37893" lon="-1.43509">
        <ele>576.460647</ele>
        <time>2022-02-22T15:26:34.092Z</time>
      </trkpt>
      <trkpt lat="41.37914" lon="-1.43441">
        <ele>574.960052</ele>
        <time>2022-02-22T15:26:43.144Z</time>
      </trkpt>
      <trkpt lat="41.37912" lon="-1.43413">
        <ele>574.406204</ele>
        <time>2022-02-22T15:26:46.321Z</time>
      </trkpt>
      <trkpt lat="41.37895" lon="-1.4337">
        <ele>573.588659</ele>
        <time>2022-02-22T15:26:52.558Z</time>
      </trkpt>
      <trkpt lat="41.37842" lon="-1.43307">
        <ele>573.396101</ele>
        <time>2022-02-22T15:27:06.118Z</time>
      </trkpt>
      <trkpt lat="41.37816" lon="-1.43296">
        <ele>573.322414</ele>
        <time>2022-02-22T15:27:12.501Z</time>
      </trkpt>
      <trkpt lat="41.37719" lon="-1.43323">
        <ele>573.699945</ele>
        <time>2022-02-22T15:27:42.627Z</time>
      </trkpt>
      <trkpt lat="41.37691" lon="-1.43323">
        <ele>574.347235</ele>
        <time>2022-02-22T15:27:52.209Z</time>
      </trkpt>
      <trkpt lat="41.37664" lon="-1.43305">
        <ele>575.040465</ele>
        <time>2022-02-22T15:28:02.640Z</time>
      </trkpt>
      <trkpt lat="41.37599" lon="-1.43222">
        <ele>577.135223</ele>
        <time>2022-02-22T15:28:32.415Z</time>
      </trkpt>
      <trkpt lat="41.37495" lon="-1.43207">
        <ele>582.24311</ele>
        <time>2022-02-22T15:29:13.737Z</time>
      </trkpt>
      <trkpt lat="41.37409" lon="-1.43138">
        <ele>588.300002</ele>
        <time>2022-02-22T15:30:08.253Z</time>
      </trkpt>
      <trkpt lat="41.37315" lon="-1.43077">
        <ele>599.508494</ele>
        <time>2022-02-22T15:31:29.845Z</time>
      </trkpt>
      <trkpt lat="41.37267" lon="-1.43032">
        <ele>605.826414</ele>
        <time>2022-02-22T15:32:16.654Z</time>
      </trkpt>
      <trkpt lat="41.37221" lon="-1.43029">
        <ele>611.705485</ele>
        <time>2022-02-22T15:32:59.859Z</time>
      </trkpt>
      <trkpt lat="41.37191" lon="-1.42993">
        <ele>616.969844</ele>
        <time>2022-02-22T15:33:37.165Z</time>
      </trkpt>
      <trkpt lat="41.37149" lon="-1.42981">
        <ele>622.48616</ele>
        <time>2022-02-22T15:34:17.642Z</time>
      </trkpt>
      <trkpt lat="41.37131" lon="-1.42968">
        <ele>625.084806</ele>
        <time>2022-02-22T15:34:37.324Z</time>
      </trkpt>
      <trkpt lat="41.3712" lon="-1.42941">
        <ele>628.056299</ele>
        <time>2022-02-22T15:34:57.177Z</time>
      </trkpt>
      <trkpt lat="41.37054" lon="-1.43021">
        <ele>633.870199</ele>
        <time>2022-02-22T15:35:56.031Z</time>
      </trkpt>
      <trkpt lat="41.37048" lon="-1.43047">
        <ele>635.134145</ele>
        <time>2022-02-22T15:36:07.927Z</time>
      </trkpt>
      <trkpt lat="41.37037" lon="-1.43069">
        <ele>636.363588</ele>
        <time>2022-02-22T15:36:18.864Z</time>
      </trkpt>
      <trkpt lat="41.3702" lon="-1.43064">
        <ele>637.41996</ele>
        <time>2022-02-22T15:36:25.453Z</time>
      </trkpt>
      <trkpt lat="41.37006" lon="-1.43142">
        <ele>639.166557</ele>
        <time>2022-02-22T15:36:42.181Z</time>
      </trkpt>
      <trkpt lat="41.36962" lon="-1.43154">
        <ele>637.775962</ele>
        <time>2022-02-22T15:36:50.492Z</time>
      </trkpt>
      <trkpt lat="41.36906" lon="-1.43211">
        <ele>635.625043</ele>
        <time>2022-02-22T15:37:01.715Z</time>
      </trkpt>
      <trkpt lat="41.36842" lon="-1.4332">
        <ele>633.133307</ele>
        <time>2022-02-22T15:37:18.142Z</time>
      </trkpt>
      <trkpt lat="41.36829" lon="-1.4334">
        <ele>632.760806</ele>
        <time>2022-02-22T15:37:21.695Z</time>
      </trkpt>
      <trkpt lat="41.36809" lon="-1.43357">
        <ele>632.306989</ele>
        <time>2022-02-22T15:37:25.845Z</time>
      </trkpt>
      <trkpt lat="41.3679" lon="-1.43383">
        <ele>631.78916</ele>
        <time>2022-02-22T15:37:31.415Z</time>
      </trkpt>
      <trkpt lat="41.36734" lon="-1.43438">
        <ele>631.874078</ele>
        <time>2022-02-22T15:37:49.521Z</time>
      </trkpt>
      <trkpt lat="41.36599" lon="-1.43545">
        <ele>639.450256</ele>
        <time>2022-02-22T15:39:07.154Z</time>
      </trkpt>
      <trkpt lat="41.36576" lon="-1.43578">
        <ele>641.962573</ele>
        <time>2022-02-22T15:39:27.359Z</time>
      </trkpt>
      <trkpt lat="41.36557" lon="-1.43606">
        <ele>644.199755</ele>
        <time>2022-02-22T15:39:45.903Z</time>
      </trkpt>
      <trkpt lat="41.36527" lon="-1.43615">
        <ele>646.517088</ele>
        <time>2022-02-22T15:40:05.136Z</time>
      </trkpt>
      <trkpt lat="41.36513" lon="-1.43599">
        <ele>647.919755</ele>
        <time>2022-02-22T15:40:17.531Z</time>
      </trkpt>
      <trkpt lat="41.36507" lon="-1.43577">
        <ele>649.290127</ele>
        <time>2022-02-22T15:40:28.805Z</time>
      </trkpt>
      <trkpt lat="41.36509" lon="-1.43532">
        <ele>651.878283</ele>
        <time>2022-02-22T15:40:50.094Z</time>
      </trkpt>
      <trkpt lat="41.36531" lon="-1.43483">
        <ele>654.444812</ele>
        <time>2022-02-22T15:41:16.760Z</time>
      </trkpt>
      <trkpt lat="41.36561" lon="-1.43441">
        <ele>656.567849</ele>
        <time>2022-02-22T15:41:38.155Z</time>
      </trkpt>
      <trkpt lat="41.36611" lon="-1.43342">
        <ele>660.825524</ele>
        <time>2022-02-22T15:42:16.848Z</time>
      </trkpt>
      <trkpt lat="41.36652" lon="-1.4329">
        <ele>662.070317</ele>
        <time>2022-02-22T15:42:37.380Z</time>
      </trkpt>
      <trkpt lat="41.36668" lon="-1.4324">
        <ele>662.216447</ele>
        <time>2022-02-22T15:42:47.304Z</time>
      </trkpt>
      <trkpt lat="41.36667" lon="-1.43184">
        <ele>662.365831</ele>
        <time>2022-02-22T15:42:56.514Z</time>
      </trkpt>
      <trkpt lat="41.36683" lon="-1.4312">
        <ele>662.543822</ele>
        <time>2022-02-22T15:43:06.707Z</time>
      </trkpt>
      <trkpt lat="41.36677" lon="-1.43093">
        <ele>662.280895</ele>
        <time>2022-02-22T15:43:10.853Z</time>
      </trkpt>
      <trkpt lat="41.36641" lon="-1.43041">
        <ele>660.209497</ele>
        <time>2022-02-22T15:43:20.513Z</time>
      </trkpt>
      <trkpt lat="41.36637" lon="-1.43024">
        <ele>659.683153</ele>
        <time>2022-02-22T15:43:22.915Z</time>
      </trkpt>
      <trkpt lat="41.36639" lon="-1.42948">
        <ele>657.436005</ele>
        <time>2022-02-22T15:43:32.063Z</time>
      </trkpt>
      <trkpt lat="41.36635" lon="-1.42932">
        <ele>656.947391</ele>
        <time>2022-02-22T15:43:34.052Z</time>
      </trkpt>
      <trkpt lat="41.36629" lon="-1.42921">
        <ele>656.54607</ele>
        <time>2022-02-22T15:43:35.809Z</time>
      </trkpt>
      <trkpt lat="41.36593" lon="-1.42916">
        <ele>654.858535</ele>
        <time>2022-02-22T15:43:41.274Z</time>
      </trkpt>
      <trkpt lat="41.36581" lon="-1.42899">
        <ele>653.67566</ele>
        <time>2022-02-22T15:43:43.870Z</time>
      </trkpt>
      <trkpt lat="41.36577" lon="-1.42879">
        <ele>652.676961</ele>
        <time>2022-02-22T15:43:46.381Z</time>
      </trkpt>
      <trkpt lat="41.36571" lon="-1.42757">
        <ele>646.660161</ele>
        <time>2022-02-22T15:44:00.006Z</time>
      </trkpt>
      <trkpt lat="41.36577" lon="-1.42728">
        <ele>645.206862</ele>
        <time>2022-02-22T15:44:03.486Z</time>
      </trkpt>
      <trkpt lat="41.36607" lon="-1.42655">
        <ele>642.33008</ele>
        <time>2022-02-22T15:44:13.131Z</time>
      </trkpt>
      <trkpt lat="41.36608" lon="-1.42639">
        <ele>641.913957</ele>
        <time>2022-02-22T15:44:15.056Z</time>
      </trkpt>
      <trkpt lat="41.36599" lon="-1.42623">
        <ele>641.361812</ele>
        <time>2022-02-22T15:44:17.570Z</time>
      </trkpt>
      <trkpt lat="41.36587" lon="-1.42621">
        <ele>640.954699</ele>
        <time>2022-02-22T15:44:19.432Z</time>
      </trkpt>
      <trkpt lat="41.36506" lon="-1.42669">
        <ele>637.801925</ele>
        <time>2022-02-22T15:44:35.183Z</time>
      </trkpt>
      <trkpt lat="41.36486" lon="-1.42663">
        <ele>637.251846</ele>
        <time>2022-02-22T15:44:39.103Z</time>
      </trkpt>
      <trkpt lat="41.36455" lon="-1.42635">
        <ele>636.674922</ele>
        <time>2022-02-22T15:44:46.796Z</time>
      </trkpt>
      <trkpt lat="41.3643" lon="-1.4264">
        <ele>636.286808</ele>
        <time>2022-02-22T15:44:52.100Z</time>
      </trkpt>
      <trkpt lat="41.36371" lon="-1.42677">
        <ele>635.268773</ele>
        <time>2022-02-22T15:45:04.946Z</time>
      </trkpt>
      <trkpt lat="41.36359" lon="-1.42675">
        <ele>635.0917</ele>
        <time>2022-02-22T15:45:07.149Z</time>
      </trkpt>
      <trkpt lat="41.36343" lon="-1.42651">
        <ele>634.710784</ele>
        <time>2022-02-22T15:45:11.592Z</time>
      </trkpt>
      <trkpt lat="41.36341" lon="-1.42637">
        <ele>634.462001</ele>
        <time>2022-02-22T15:45:13.674Z</time>
      </trkpt>
      <trkpt lat="41.36425" lon="-1.42468">
        <ele>629.001377</ele>
        <time>2022-02-22T15:45:38.867Z</time>
      </trkpt>
      <trkpt lat="41.36443" lon="-1.42429">
        <ele>627.774068</ele>
        <time>2022-02-22T15:45:44.423Z</time>
      </trkpt>
      <trkpt lat="41.36446" lon="-1.42414">
        <ele>627.371638</ele>
        <time>2022-02-22T15:45:46.329Z</time>
      </trkpt>
      <trkpt lat="41.36442" lon="-1.424">
        <ele>626.961149</ele>
        <time>2022-02-22T15:45:48.294Z</time>
      </trkpt>
      <trkpt lat="41.36429" lon="-1.42391">
        <ele>626.481348</ele>
        <time>2022-02-22T15:45:50.630Z</time>
      </trkpt>
      <trkpt lat="41.36397" lon="-1.42391">
        <ele>625.362135</ele>
        <time>2022-02-22T15:45:56.144Z</time>
      </trkpt>
      <trkpt lat="41.36351" lon="-1.42379">
        <ele>623.729999</ele>
        <time>2022-02-22T15:46:04.295Z</time>
      </trkpt>
      <trkpt lat="41.36343" lon="-1.42374">
        <ele>623.446481</ele>
        <time>2022-02-22T15:46:05.688Z</time>
      </trkpt>
      <trkpt lat="41.36337" lon="-1.42354">
        <ele>622.88342</ele>
        <time>2022-02-22T15:46:08.441Z</time>
      </trkpt>
      <trkpt lat="41.36341" lon="-1.42336">
        <ele>622.391574</ele>
        <time>2022-02-22T15:46:10.984Z</time>
      </trkpt>
      <trkpt lat="41.36386" lon="-1.42323">
        <ele>620.338397</ele>
        <time>2022-02-22T15:46:18.918Z</time>
      </trkpt>
      <trkpt lat="41.36403" lon="-1.42312">
        <ele>619.392304</ele>
        <time>2022-02-22T15:46:22.064Z</time>
      </trkpt>
      <trkpt lat="41.36416" lon="-1.42277">
        <ele>617.974078</ele>
        <time>2022-02-22T15:46:26.595Z</time>
      </trkpt>
      <trkpt lat="41.3641" lon="-1.4225">
        <ele>616.92607</ele>
        <time>2022-02-22T15:46:29.824Z</time>
      </trkpt>
      <trkpt lat="41.36401" lon="-1.42241">
        <ele>616.385354</ele>
        <time>2022-02-22T15:46:31.504Z</time>
      </trkpt>
      <trkpt lat="41.36362" lon="-1.42226">
        <ele>614.358202</ele>
        <time>2022-02-22T15:46:37.789Z</time>
      </trkpt>
      <trkpt lat="41.36276" lon="-1.42174">
        <ele>609.93609</ele>
        <time>2022-02-22T15:46:52.628Z</time>
      </trkpt>
      <trkpt lat="41.3626" lon="-1.42176">
        <ele>609.20319</ele>
        <time>2022-02-22T15:46:55.173Z</time>
      </trkpt>
      <trkpt lat="41.36228" lon="-1.42199">
        <ele>607.5472</ele>
        <time>2022-02-22T15:47:00.980Z</time>
      </trkpt>
      <trkpt lat="41.3621" lon="-1.42197">
        <ele>606.711654</ele>
        <time>2022-02-22T15:47:03.920Z</time>
      </trkpt>
      <trkpt lat="41.36201" lon="-1.42186">
        <ele>606.183607</ele>
        <time>2022-02-22T15:47:05.815Z</time>
      </trkpt>
      <trkpt lat="41.36196" lon="-1.42171">
        <ele>605.619076</ele>
        <time>2022-02-22T15:47:07.945Z</time>
      </trkpt>
      <trkpt lat="41.36198" lon="-1.42121">
        <ele>604.289206</ele>
        <time>2022-02-22T15:47:14.413Z</time>
      </trkpt>
      <trkpt lat="41.36129" lon="-1.41873">
        <ele>599.916816</ele>
        <time>2022-02-22T15:47:49.780Z</time>
      </trkpt>
      <trkpt lat="41.36118" lon="-1.41847">
        <ele>599.810194</ele>
        <time>2022-02-22T15:47:53.906Z</time>
      </trkpt>
      <trkpt lat="41.36103" lon="-1.41836">
        <ele>599.729963</ele>
        <time>2022-02-22T15:47:57.008Z</time>
      </trkpt>
      <trkpt lat="41.36079" lon="-1.4183">
        <ele>599.612492</ele>
        <time>2022-02-22T15:48:01.926Z</time>
      </trkpt>
      <trkpt lat="41.35994" lon="-1.41856">
        <ele>599.550712</ele>
        <time>2022-02-22T15:48:24.765Z</time>
      </trkpt>
      <trkpt lat="41.35934" lon="-1.41855">
        <ele>601.50643</ele>
        <time>2022-02-22T15:48:47.051Z</time>
      </trkpt>
      <trkpt lat="41.35786" lon="-1.41818">
        <ele>606.241716</ele>
        <time>2022-02-22T15:49:51.144Z</time>
      </trkpt>
      <trkpt lat="41.35686" lon="-1.41758">
        <ele>609.356263</ele>
        <time>2022-02-22T15:50:32.066Z</time>
      </trkpt>
      <trkpt lat="41.356" lon="-1.41681">
        <ele>610.635526</ele>
        <time>2022-02-22T15:51:00.784Z</time>
      </trkpt>
      <trkpt lat="41.3532" lon="-1.41511">
        <ele>611.902146</ele>
        <time>2022-02-22T15:52:09.600Z</time>
      </trkpt>
      <trkpt lat="41.35294" lon="-1.41502">
        <ele>612.402758</ele>
        <time>2022-02-22T15:52:17.504Z</time>
      </trkpt>
      <trkpt lat="41.35228" lon="-1.41505">
        <ele>613.603858</ele>
        <time>2022-02-22T15:52:39.236Z</time>
      </trkpt>
      <trkpt lat="41.35163" lon="-1.41475">
        <ele>614.882309</ele>
        <time>2022-02-22T15:53:03.046Z</time>
      </trkpt>
      <trkpt lat="41.35116" lon="-1.41429">
        <ele>616.189442</ele>
        <time>2022-02-22T15:53:24.343Z</time>
      </trkpt>
      <trkpt lat="41.35085" lon="-1.41376">
        <ele>617.35408</ele>
        <time>2022-02-22T15:53:41.455Z</time>
      </trkpt>
      <trkpt lat="41.35057" lon="-1.41351">
        <ele>618.111127</ele>
        <time>2022-02-22T15:53:52.236Z</time>
      </trkpt>
      <trkpt lat="41.35022" lon="-1.41336">
        <ele>618.939848</ele>
        <time>2022-02-22T15:54:03.863Z</time>
      </trkpt>
      <trkpt lat="41.35004" lon="-1.41323">
        <ele>619.323963</ele>
        <time>2022-02-22T15:54:10.415Z</time>
      </trkpt>
      <trkpt lat="41.34968" lon="-1.41283">
        <ele>620.19243</ele>
        <time>2022-02-22T15:54:24.247Z</time>
      </trkpt>
      <trkpt lat="41.34927" lon="-1.41215">
        <ele>621.414889</ele>
        <time>2022-02-22T15:54:45.280Z</time>
      </trkpt>
      <trkpt lat="41.34916" lon="-1.41209">
        <ele>621.631167</ele>
        <time>2022-02-22T15:54:48.974Z</time>
      </trkpt>
      <trkpt lat="41.3486" lon="-1.41199">
        <ele>622.637928</ele>
        <time>2022-02-22T15:55:07.724Z</time>
      </trkpt>
      <trkpt lat="41.34834" lon="-1.41181">
        <ele>623.125302</ele>
        <time>2022-02-22T15:55:17.037Z</time>
      </trkpt>
      <trkpt lat="41.34773" lon="-1.41069">
        <ele>624.848018</ele>
        <time>2022-02-22T15:55:48.360Z</time>
      </trkpt>
      <trkpt lat="41.3464" lon="-1.4096">
        <ele>626.758593</ele>
        <time>2022-02-22T15:56:32.938Z</time>
      </trkpt>
      <trkpt lat="41.34616" lon="-1.40935">
        <ele>627.106935</ele>
        <time>2022-02-22T15:56:40.798Z</time>
      </trkpt>
      <trkpt lat="41.3455" lon="-1.40837">
        <ele>628.277808</ele>
        <time>2022-02-22T15:57:06.942Z</time>
      </trkpt>
      <trkpt lat="41.34523" lon="-1.40797">
        <ele>628.757009</ele>
        <time>2022-02-22T15:57:18.540Z</time>
      </trkpt>
      <trkpt lat="41.34503" lon="-1.40779">
        <ele>629.041855</ele>
        <time>2022-02-22T15:57:24.929Z</time>
      </trkpt>
      <trkpt lat="41.34302" lon="-1.40664">
        <ele>633.127247</ele>
        <time>2022-02-22T15:58:34.761Z</time>
      </trkpt>
      <trkpt lat="41.34274" lon="-1.40628">
        <ele>634.099964</ele>
        <time>2022-02-22T15:58:48.098Z</time>
      </trkpt>
      <trkpt lat="41.34216" lon="-1.40531">
        <ele>636.432335</ele>
        <time>2022-02-22T15:59:22.082Z</time>
      </trkpt>
      <trkpt lat="41.34157" lon="-1.4051">
        <ele>637.666042</ele>
        <time>2022-02-22T15:59:43.654Z</time>
      </trkpt>
      <trkpt lat="41.3414" lon="-1.40502">
        <ele>637.863643</ele>
        <time>2022-02-22T15:59:49.309Z</time>
      </trkpt>
      <trkpt lat="41.34133" lon="-1.40493">
        <ele>637.969068</ele>
        <time>2022-02-22T15:59:52.462Z</time>
      </trkpt>
      <trkpt lat="41.34121" lon="-1.40427">
        <ele>638.517455</ele>
        <time>2022-02-22T16:00:06.980Z</time>
      </trkpt>
      <trkpt lat="41.34139" lon="-1.40272">
        <ele>639.120047</ele>
        <time>2022-02-22T16:00:34.483Z</time>
      </trkpt>
      <trkpt lat="41.34135" lon="-1.40245">
        <ele>638.968741</ele>
        <time>2022-02-22T16:00:38.504Z</time>
      </trkpt>
      <trkpt lat="41.34104" lon="-1.4019">
        <ele>638.576826</ele>
        <time>2022-02-22T16:00:48.713Z</time>
      </trkpt>
      <trkpt lat="41.3408" lon="-1.40135">
        <ele>638.220848</ele>
        <time>2022-02-22T16:00:57.940Z</time>
      </trkpt>
      <trkpt lat="41.34058" lon="-1.40038">
        <ele>637.935867</ele>
        <time>2022-02-22T16:01:13.462Z</time>
      </trkpt>
      <trkpt lat="41.34036" lon="-1.40003">
        <ele>637.859991</ele>
        <time>2022-02-22T16:01:21.023Z</time>
      </trkpt>
      <trkpt lat="41.34013" lon="-1.39974">
        <ele>637.790504</ele>
        <time>2022-02-22T16:01:28.182Z</time>
      </trkpt>
      <trkpt lat="41.33967" lon="-1.39937">
        <ele>637.673369</ele>
        <time>2022-02-22T16:01:40.094Z</time>
      </trkpt>
      <trkpt lat="41.33954" lon="-1.39912">
        <ele>637.771075</ele>
        <time>2022-02-22T16:01:45.140Z</time>
      </trkpt>
      <trkpt lat="41.3392" lon="-1.39816">
        <ele>638.354515</ele>
        <time>2022-02-22T16:02:04.582Z</time>
      </trkpt>
      <trkpt lat="41.33902" lon="-1.39788">
        <ele>638.554039</ele>
        <time>2022-02-22T16:02:11.585Z</time>
      </trkpt>
      <trkpt lat="41.33893" lon="-1.39777">
        <ele>638.64879</ele>
        <time>2022-02-22T16:02:15.003Z</time>
      </trkpt>
      <trkpt lat="41.33889" lon="-1.39773">
        <ele>638.680128</ele>
        <time>2022-02-22T16:02:16.075Z</time>
      </trkpt>
      <trkpt lat="41.33867" lon="-1.39755">
        <ele>638.869605</ele>
        <time>2022-02-22T16:02:23.218Z</time>
      </trkpt>
      <trkpt lat="41.33848" lon="-1.39752">
        <ele>639.123324</ele>
        <time>2022-02-22T16:02:28.428Z</time>
      </trkpt>
      <trkpt lat="41.33713" lon="-1.39766">
        <ele>642.938278</ele>
        <time>2022-02-22T16:03:16.151Z</time>
      </trkpt>
      <trkpt lat="41.33682" lon="-1.39763">
        <ele>643.811025</ele>
        <time>2022-02-22T16:03:29.627Z</time>
      </trkpt>
      <trkpt lat="41.33544" lon="-1.3967">
        <ele>649.590232</ele>
        <time>2022-02-22T16:04:37.138Z</time>
      </trkpt>
      <trkpt lat="41.33429" lon="-1.39557">
        <ele>653.127074</ele>
        <time>2022-02-22T16:05:26.644Z</time>
      </trkpt>
      <trkpt lat="41.3335" lon="-1.39531">
        <ele>654.784319</ele>
        <time>2022-02-22T16:05:49.031Z</time>
      </trkpt>
      <trkpt lat="41.33328" lon="-1.39516">
        <ele>655.268142</ele>
        <time>2022-02-22T16:05:56.668Z</time>
      </trkpt>
      <trkpt lat="41.33283" lon="-1.39507">
        <ele>656.140713</ele>
        <time>2022-02-22T16:06:11.279Z</time>
      </trkpt>
      <trkpt lat="41.33222" lon="-1.3948">
        <ele>657.351903</ele>
        <time>2022-02-22T16:06:32.088Z</time>
      </trkpt>
      <trkpt lat="41.33153" lon="-1.39438">
        <ele>658.554832</ele>
        <time>2022-02-22T16:06:58.101Z</time>
      </trkpt>
      <trkpt lat="41.33088" lon="-1.39395">
        <ele>659.480603</ele>
        <time>2022-02-22T16:07:20.883Z</time>
      </trkpt>
      <trkpt lat="41.33071" lon="-1.39378">
        <ele>659.753331</ele>
        <time>2022-02-22T16:07:26.688Z</time>
      </trkpt>
      <trkpt lat="41.33006" lon="-1.39235">
        <ele>660.092936</ele>
        <time>2022-02-22T16:07:53.333Z</time>
      </trkpt>
      <trkpt lat="41.3296" lon="-1.39185">
        <ele>659.920153</ele>
        <time>2022-02-22T16:08:05.329Z</time>
      </trkpt>
      <trkpt lat="41.32919" lon="-1.39153">
        <ele>659.90662</ele>
        <time>2022-02-22T16:08:15.554Z</time>
      </trkpt>
      <trkpt lat="41.32809" lon="-1.39091">
        <ele>661.489103</ele>
        <time>2022-02-22T16:08:48.800Z</time>
      </trkpt>
      <trkpt lat="41.3274" lon="-1.3908">
        <ele>662.474615</ele>
        <time>2022-02-22T16:09:12.981Z</time>
      </trkpt>
      <trkpt lat="41.32656" lon="-1.39039">
        <ele>664.037395</ele>
        <time>2022-02-22T16:09:43.633Z</time>
      </trkpt>
      <trkpt lat="41.32586" lon="-1.38936">
        <ele>665.530098</ele>
        <time>2022-02-22T16:10:11.238Z</time>
      </trkpt>
      <trkpt lat="41.32564" lon="-1.38912">
        <ele>665.735478</ele>
        <time>2022-02-22T16:10:18.811Z</time>
      </trkpt>
      <trkpt lat="41.32519" lon="-1.38878">
        <ele>666.11087</ele>
        <time>2022-02-22T16:10:31.988Z</time>
      </trkpt>
      <trkpt lat="41.32384" lon="-1.38784">
        <ele>667.479386</ele>
        <time>2022-02-22T16:11:10.433Z</time>
      </trkpt>
      <trkpt lat="41.32299" lon="-1.38692">
        <ele>668.732343</ele>
        <time>2022-02-22T16:11:43.029Z</time>
      </trkpt>
      <trkpt lat="41.32275" lon="-1.38677">
        <ele>669.21052</ele>
        <time>2022-02-22T16:11:50.246Z</time>
      </trkpt>
      <trkpt lat="41.32126" lon="-1.38625">
        <ele>672.08763</ele>
        <time>2022-02-22T16:12:37.963Z</time>
      </trkpt>
      <trkpt lat="41.32046" lon="-1.38614">
        <ele>674.424417</ele>
        <time>2022-02-22T16:13:08.800Z</time>
      </trkpt>
      <trkpt lat="41.31987" lon="-1.386">
        <ele>676.156908</ele>
        <time>2022-02-22T16:13:31.867Z</time>
      </trkpt>
      <trkpt lat="41.31953" lon="-1.38586">
        <ele>677.119587</ele>
        <time>2022-02-22T16:13:45.369Z</time>
      </trkpt>
      <trkpt lat="41.31828" lon="-1.38457">
        <ele>680.832451</ele>
        <time>2022-02-22T16:14:39.097Z</time>
      </trkpt>
      <trkpt lat="41.3179" lon="-1.38424">
        <ele>681.84905</ele>
        <time>2022-02-22T16:14:52.702Z</time>
      </trkpt>
      <trkpt lat="41.31684" lon="-1.38351">
        <ele>684.479728</ele>
        <time>2022-02-22T16:15:31.482Z</time>
      </trkpt>
      <trkpt lat="41.31485" lon="-1.38249">
        <ele>690.848505</ele>
        <time>2022-02-22T16:16:50.100Z</time>
      </trkpt>
      <trkpt lat="41.31388" lon="-1.38176">
        <ele>695.770365</ele>
        <time>2022-02-22T16:17:41.290Z</time>
      </trkpt>
      <trkpt lat="41.31302" lon="-1.38168">
        <ele>699.031063</ele>
        <time>2022-02-22T16:18:20.896Z</time>
      </trkpt>
      <trkpt lat="41.31251" lon="-1.38119">
        <ele>700.426224</ele>
        <time>2022-02-22T16:18:45.713Z</time>
      </trkpt>
      <trkpt lat="41.31187" lon="-1.38027">
        <ele>702.46847</ele>
        <time>2022-02-22T16:19:12.098Z</time>
      </trkpt>
      <trkpt lat="41.31148" lon="-1.37968">
        <ele>701.849372</ele>
        <time>2022-02-22T16:19:23.339Z</time>
      </trkpt>
      <trkpt lat="41.3113" lon="-1.37951">
        <ele>701.611719</ele>
        <time>2022-02-22T16:19:27.497Z</time>
      </trkpt>
      <trkpt lat="41.31066" lon="-1.37916">
        <ele>700.887244</ele>
        <time>2022-02-22T16:19:40.401Z</time>
      </trkpt>
      <trkpt lat="41.31037" lon="-1.37915">
        <ele>700.606455</ele>
        <time>2022-02-22T16:19:45.932Z</time>
      </trkpt>
      <trkpt lat="41.30975" lon="-1.37925">
        <ele>701.422458</ele>
        <time>2022-02-22T16:20:00.936Z</time>
      </trkpt>
      <trkpt lat="41.30835" lon="-1.379">
        <ele>703.58489</ele>
        <time>2022-02-22T16:20:47.682Z</time>
      </trkpt>
      <trkpt lat="41.30759" lon="-1.37899">
        <ele>705.540364</ele>
        <time>2022-02-22T16:21:14.947Z</time>
      </trkpt>
      <trkpt lat="41.30665" lon="-1.37884">
        <ele>708.07072</ele>
        <time>2022-02-22T16:21:48.071Z</time>
      </trkpt>
      <trkpt lat="41.30599" lon="-1.37897">
        <ele>710.219929</ele>
        <time>2022-02-22T16:22:12.841Z</time>
      </trkpt>
      <trkpt lat="41.30487" lon="-1.37888">
        <ele>713.831081</ele>
        <time>2022-02-22T16:22:57.622Z</time>
      </trkpt>
      <trkpt lat="41.30441" lon="-1.37874">
        <ele>715.419915</ele>
        <time>2022-02-22T16:23:16.851Z</time>
      </trkpt>
      <trkpt lat="41.30398" lon="-1.37847">
        <ele>717.019305</ele>
        <time>2022-02-22T16:23:35.903Z</time>
      </trkpt>
      <trkpt lat="41.30359" lon="-1.37809">
        <ele>718.662795</ele>
        <time>2022-02-22T16:23:54.920Z</time>
      </trkpt>
      <trkpt lat="41.30336" lon="-1.37803">
        <ele>719.416922</ele>
        <time>2022-02-22T16:24:03.408Z</time>
      </trkpt>
      <trkpt lat="41.30276" lon="-1.3781">
        <ele>720.748294</ele>
        <time>2022-02-22T16:24:24.392Z</time>
      </trkpt>
      <trkpt lat="41.30223" lon="-1.37772">
        <ele>722.057608</ele>
        <time>2022-02-22T16:24:43.747Z</time>
      </trkpt>
      <trkpt lat="41.30158" lon="-1.37738">
        <ele>723.530947</ele>
        <time>2022-02-22T16:25:06.143Z</time>
      </trkpt>
      <trkpt lat="41.30046" lon="-1.37634">
        <ele>725.771211</ele>
        <time>2022-02-22T16:25:47.205Z</time>
      </trkpt>
      <trkpt lat="41.30018" lon="-1.37587">
        <ele>726.48465</ele>
        <time>2022-02-22T16:26:00.889Z</time>
      </trkpt>
      <trkpt lat="41.29948" lon="-1.37511">
        <ele>727.864666</ele>
        <time>2022-02-22T16:26:28.228Z</time>
      </trkpt>
      <trkpt lat="41.29926" lon="-1.37471">
        <ele>728.432598</ele>
        <time>2022-02-22T16:26:39.107Z</time>
      </trkpt>
      <trkpt lat="41.29909" lon="-1.37453">
        <ele>728.76724</ele>
        <time>2022-02-22T16:26:45.595Z</time>
      </trkpt>
      <trkpt lat="41.29832" lon="-1.37455">
        <ele>729.631665</ele>
        <time>2022-02-22T16:27:08.421Z</time>
      </trkpt>
      <trkpt lat="41.29793" lon="-1.37445">
        <ele>730.033365</ele>
        <time>2022-02-22T16:27:19.316Z</time>
      </trkpt>
      <trkpt lat="41.29728" lon="-1.37414">
        <ele>730.735925</ele>
        <time>2022-02-22T16:27:37.204Z</time>
      </trkpt>
      <trkpt lat="41.29715" lon="-1.37413">
        <ele>730.874617</ele>
        <time>2022-02-22T16:27:40.465Z</time>
      </trkpt>
      <trkpt lat="41.297" lon="-1.3742">
        <ele>731.078161</ele>
        <time>2022-02-22T16:27:44.563Z</time>
      </trkpt>
      <trkpt lat="41.29672" lon="-1.3745">
        <ele>731.528304</ele>
        <time>2022-02-22T16:27:53.447Z</time>
      </trkpt>
      <trkpt lat="41.29657" lon="-1.37478">
        <ele>731.843067</ele>
        <time>2022-02-22T16:27:59.985Z</time>
      </trkpt>
      <trkpt lat="41.29647" lon="-1.37519">
        <ele>732.244731</ele>
        <time>2022-02-22T16:28:08.953Z</time>
      </trkpt>
      <trkpt lat="41.29628" lon="-1.37556">
        <ele>732.656498</ele>
        <time>2022-02-22T16:28:19.182Z</time>
      </trkpt>
      <trkpt lat="41.29604" lon="-1.37572">
        <ele>732.993618</ele>
        <time>2022-02-22T16:28:28.200Z</time>
      </trkpt>
      <trkpt lat="41.29567" lon="-1.37575">
        <ele>733.679222</ele>
        <time>2022-02-22T16:28:40.638Z</time>
      </trkpt>
      <trkpt lat="41.29518" lon="-1.37562">
        <ele>734.648748</ele>
        <time>2022-02-22T16:28:57.001Z</time>
      </trkpt>
      <trkpt lat="41.29493" lon="-1.37558">
        <ele>735.15035</ele>
        <time>2022-02-22T16:29:05.154Z</time>
      </trkpt>
      <trkpt lat="41.29469" lon="-1.37571">
        <ele>735.648974</ele>
        <time>2022-02-22T16:29:13.840Z</time>
      </trkpt>
      <trkpt lat="41.29454" lon="-1.3757">
        <ele>735.942437</ele>
        <time>2022-02-22T16:29:18.485Z</time>
      </trkpt>
      <trkpt lat="41.29438" lon="-1.37584">
        <ele>736.32244</ele>
        <time>2022-02-22T16:29:25.200Z</time>
      </trkpt>
      <trkpt lat="41.29426" lon="-1.37587">
        <ele>736.553228</ele>
        <time>2022-02-22T16:29:28.806Z</time>
      </trkpt>
      <trkpt lat="41.29403" lon="-1.37661">
        <ele>737.187654</ele>
        <time>2022-02-22T16:29:47.886Z</time>
      </trkpt>
      <trkpt lat="41.29391" lon="-1.37657">
        <ele>737.320714</ele>
        <time>2022-02-22T16:29:51.403Z</time>
      </trkpt>
      <trkpt lat="41.29358" lon="-1.37631">
        <ele>737.708839</ele>
        <time>2022-02-22T16:30:01.373Z</time>
      </trkpt>
      <trkpt lat="41.29344" lon="-1.37681">
        <ele>738.120476</ele>
        <time>2022-02-22T16:30:10.812Z</time>
      </trkpt>
      <trkpt lat="41.29306" lon="-1.3773">
        <ele>738.832468</ele>
        <time>2022-02-22T16:30:24.232Z</time>
      </trkpt>
      <trkpt lat="41.29232" lon="-1.37849">
        <ele>740.807167</ele>
        <time>2022-02-22T16:30:59.832Z</time>
      </trkpt>
      <trkpt lat="41.29177" lon="-1.37952">
        <ele>743.17851</ele>
        <time>2022-02-22T16:31:33.491Z</time>
      </trkpt>
      <trkpt lat="41.2905" lon="-1.38138">
        <ele>749.345598</ele>
        <time>2022-02-22T16:32:46.580Z</time>
      </trkpt>
      <trkpt lat="41.28949" lon="-1.38333">
        <ele>755.770502</ele>
        <time>2022-02-22T16:34:01.076Z</time>
      </trkpt>
      <trkpt lat="41.28849" lon="-1.38453">
        <ele>760.510251</ele>
        <time>2022-02-22T16:34:53.405Z</time>
      </trkpt>
      <trkpt lat="41.28829" lon="-1.38554">
        <ele>763.289124</ele>
        <time>2022-02-22T16:35:23.122Z</time>
      </trkpt>
      <trkpt lat="41.28662" lon="-1.38781">
        <ele>771.959164</ele>
        <time>2022-02-22T16:37:03.071Z</time>
      </trkpt>
      <trkpt lat="41.28601" lon="-1.38908">
        <ele>775.197297</ele>
        <time>2022-02-22T16:37:44.162Z</time>
      </trkpt>
      <trkpt lat="41.28551" lon="-1.39064">
        <ele>778.454129</ele>
        <time>2022-02-22T16:38:26.879Z</time>
      </trkpt>
      <trkpt lat="41.28476" lon="-1.39204">
        <ele>781.559287</ele>
        <time>2022-02-22T16:39:10.899Z</time>
      </trkpt>
      <trkpt lat="41.28345" lon="-1.39501">
        <ele>788.321033</ele>
        <time>2022-02-22T16:40:42.367Z</time>
      </trkpt>
      <trkpt lat="41.28293" lon="-1.39575">
        <ele>790.440552</ele>
        <time>2022-02-22T16:41:09.493Z</time>
      </trkpt>
      <trkpt lat="41.28178" lon="-1.39665">
        <ele>794.486243</ele>
        <time>2022-02-22T16:41:59.891Z</time>
      </trkpt>
      <trkpt lat="41.28039" lon="-1.39808">
        <ele>799.752019</ele>
        <time>2022-02-22T16:43:07.509Z</time>
      </trkpt>
      <trkpt lat="41.28013" lon="-1.39842">
        <ele>800.777148</ele>
        <time>2022-02-22T16:43:20.331Z</time>
      </trkpt>
      <trkpt lat="41.27974" lon="-1.39912">
        <ele>802.604492</ele>
        <time>2022-02-22T16:43:42.748Z</time>
      </trkpt>
      <trkpt lat="41.27951" lon="-1.39931">
        <ele>803.246019</ele>
        <time>2022-02-22T16:43:51.900Z</time>
      </trkpt>
      <trkpt lat="41.27896" lon="-1.39963">
        <ele>804.669688</ele>
        <time>2022-02-22T16:44:11.696Z</time>
      </trkpt>
      <trkpt lat="41.27869" lon="-1.39971">
        <ele>805.32717</ele>
        <time>2022-02-22T16:44:20.626Z</time>
      </trkpt>
      <trkpt lat="41.27824" lon="-1.39967">
        <ele>806.388528</ele>
        <time>2022-02-22T16:44:36.154Z</time>
      </trkpt>
      <trkpt lat="41.27713" lon="-1.40049">
        <ele>810.164732</ele>
        <time>2022-02-22T16:45:23.730Z</time>
      </trkpt>
      <trkpt lat="41.27663" lon="-1.40101">
        <ele>812.114372</ele>
        <time>2022-02-22T16:45:48.109Z</time>
      </trkpt>
      <trkpt lat="41.2758" lon="-1.40141">
        <ele>814.867983</ele>
        <time>2022-02-22T16:46:21.886Z</time>
      </trkpt>
      <trkpt lat="41.27504" lon="-1.40286">
        <ele>818.877648</ele>
        <time>2022-02-22T16:47:11.601Z</time>
      </trkpt>
      <trkpt lat="41.27482" lon="-1.40305">
        <ele>819.617529</ele>
        <time>2022-02-22T16:47:21.435Z</time>
      </trkpt>
      <trkpt lat="41.27423" lon="-1.40314">
        <ele>821.293862</ele>
        <time>2022-02-22T16:47:42.844Z</time>
      </trkpt>
      <trkpt lat="41.27404" lon="-1.40323">
        <ele>821.860086</ele>
        <time>2022-02-22T16:47:50.047Z</time>
      </trkpt>
      <trkpt lat="41.27347" lon="-1.40372">
        <ele>823.739335</ele>
        <time>2022-02-22T16:48:14.011Z</time>
      </trkpt>
      <trkpt lat="41.27289" lon="-1.40384">
        <ele>825.355063</ele>
        <time>2022-02-22T16:48:34.048Z</time>
      </trkpt>
      <trkpt lat="41.27227" lon="-1.4039">
        <ele>827.069622</ele>
        <time>2022-02-22T16:48:56.489Z</time>
      </trkpt>
      <trkpt lat="41.27176" lon="-1.40443">
        <ele>829.325438</ele>
        <time>2022-02-22T16:49:21.490Z</time>
      </trkpt>
      <trkpt lat="41.2709" lon="-1.40431">
        <ele>832.667586</ele>
        <time>2022-02-22T16:49:58.231Z</time>
      </trkpt>
      <trkpt lat="41.27065" lon="-1.40432">
        <ele>833.629257</ele>
        <time>2022-02-22T16:50:08.782Z</time>
      </trkpt>
      <trkpt lat="41.27039" lon="-1.40417">
        <ele>834.723363</ele>
        <time>2022-02-22T16:50:21.242Z</time>
      </trkpt>
      <trkpt lat="41.27011" lon="-1.40405">
        <ele>835.882273</ele>
        <time>2022-02-22T16:50:34.295Z</time>
      </trkpt>
      <trkpt lat="41.26962" lon="-1.40402">
        <ele>837.800369</ele>
        <time>2022-02-22T16:50:55.083Z</time>
      </trkpt>
      <trkpt lat="41.26932" lon="-1.40414">
        <ele>839.037804</ele>
        <time>2022-02-22T16:51:08.528Z</time>
      </trkpt>
      <trkpt lat="41.26904" lon="-1.40444">
        <ele>840.452766</ele>
        <time>2022-02-22T16:51:23.541Z</time>
      </trkpt>
      <trkpt lat="41.26853" lon="-1.40512">
        <ele>843.024231</ele>
        <time>2022-02-22T16:51:51.537Z</time>
      </trkpt>
      <trkpt lat="41.26796" lon="-1.40552">
        <ele>845.152185</ele>
        <time>2022-02-22T16:52:16.772Z</time>
      </trkpt>
      <trkpt lat="41.26736" lon="-1.40613">
        <ele>847.640614</ele>
        <time>2022-02-22T16:52:45.411Z</time>
      </trkpt>
      <trkpt lat="41.26677" lon="-1.40702">
        <ele>850.659246</ele>
        <time>2022-02-22T16:53:20.392Z</time>
      </trkpt>
      <trkpt lat="41.26665" lon="-1.40731">
        <ele>851.522797</ele>
        <time>2022-02-22T16:53:30.464Z</time>
      </trkpt>
      <trkpt lat="41.26651" lon="-1.40823">
        <ele>853.867052</ele>
        <time>2022-02-22T16:53:57.988Z</time>
      </trkpt>
      <trkpt lat="41.26667" lon="-1.40856">
        <ele>854.723143</ele>
        <time>2022-02-22T16:54:10.008Z</time>
      </trkpt>
      <trkpt lat="41.26699" lon="-1.40927">
        <ele>856.508927</ele>
        <time>2022-02-22T16:54:33.462Z</time>
      </trkpt>
      <trkpt lat="41.26664" lon="-1.41036">
        <ele>859.00901</ele>
        <time>2022-02-22T16:55:04.964Z</time>
      </trkpt>
      <trkpt lat="41.26654" lon="-1.41066">
        <ele>859.529213</ele>
        <time>2022-02-22T16:55:12.652Z</time>
      </trkpt>
      <trkpt lat="41.26573" lon="-1.4116">
        <ele>861.768409</ele>
        <time>2022-02-22T16:55:46.703Z</time>
      </trkpt>
      <trkpt lat="41.26526" lon="-1.41236">
        <ele>863.652079</ele>
        <time>2022-02-22T16:56:10.324Z</time>
      </trkpt>
      <trkpt lat="41.2628" lon="-1.41494">
        <ele>874.225283</ele>
        <time>2022-02-22T16:58:15.112Z</time>
      </trkpt>
      <trkpt lat="41.26272" lon="-1.41521">
        <ele>875.008848</ele>
        <time>2022-02-22T16:58:24.592Z</time>
      </trkpt>
      <trkpt lat="41.26241" lon="-1.41697">
        <ele>879.91125</ele>
        <time>2022-02-22T16:59:19.758Z</time>
      </trkpt>
      <trkpt lat="41.2624" lon="-1.41727">
        <ele>880.712501</ele>
        <time>2022-02-22T16:59:28.422Z</time>
      </trkpt>
      <trkpt lat="41.26265" lon="-1.4181">
        <ele>882.92463</ele>
        <time>2022-02-22T16:59:54.560Z</time>
      </trkpt>
      <trkpt lat="41.26271" lon="-1.41849">
        <ele>883.926391</ele>
        <time>2022-02-22T17:00:06.153Z</time>
      </trkpt>
      <trkpt lat="41.26238" lon="-1.4219">
        <ele>891.956602</ele>
        <time>2022-02-22T17:01:44.355Z</time>
      </trkpt>
      <trkpt lat="41.26266" lon="-1.42374">
        <ele>895.751503</ele>
        <time>2022-02-22T17:02:32.584Z</time>
      </trkpt>
      <trkpt lat="41.262" lon="-1.42863">
        <ele>907.095955</ele>
        <time>2022-02-22T17:04:52.737Z</time>
      </trkpt>
      <trkpt lat="41.262" lon="-1.43165">
        <ele>914.632131</ele>
        <time>2022-02-22T17:06:23.438Z</time>
      </trkpt>
      <trkpt lat="41.26115" lon="-1.43402">
        <ele>918.554969</ele>
        <time>2022-02-22T17:07:28.092Z</time>
      </trkpt>
      <trkpt lat="41.26095" lon="-1.43402">
        <ele>918.655557</ele>
        <time>2022-02-22T17:07:33.345Z</time>
      </trkpt>
      <trkpt lat="41.25873" lon="-1.43268">
        <ele>919.507477</ele>
        <time>2022-02-22T17:08:27.889Z</time>
      </trkpt>
      <trkpt lat="41.2572" lon="-1.43076">
        <ele>919.893068</ele>
        <time>2022-02-22T17:09:17.787Z</time>
      </trkpt>
      <trkpt lat="41.25581" lon="-1.42896">
        <ele>919.932405</ele>
        <time>2022-02-22T17:10:01.106Z</time>
      </trkpt>
      <trkpt lat="41.25527" lon="-1.42845">
        <ele>919.771468</ele>
        <time>2022-02-22T17:10:15.388Z</time>
      </trkpt>
      <trkpt lat="41.25455" lon="-1.428">
        <ele>919.44669</ele>
        <time>2022-02-22T17:10:32.259Z</time>
      </trkpt>
      <trkpt lat="41.25408" lon="-1.42754">
        <ele>919.208652</ele>
        <time>2022-02-22T17:10:44.428Z</time>
      </trkpt>
      <trkpt lat="41.25193" lon="-1.42438">
        <ele>916.496052</ele>
        <time>2022-02-22T17:11:49.014Z</time>
      </trkpt>
      <trkpt lat="41.25149" lon="-1.42398">
        <ele>915.994636</ele>
        <time>2022-02-22T17:11:59.573Z</time>
      </trkpt>
      <trkpt lat="41.25119" lon="-1.42378">
        <ele>915.657636</ele>
        <time>2022-02-22T17:12:06.176Z</time>
      </trkpt>
      <trkpt lat="41.2495" lon="-1.42289">
        <ele>914.104879</ele>
        <time>2022-02-22T17:12:42.363Z</time>
      </trkpt>
      <trkpt lat="41.24749" lon="-1.42175">
        <ele>913.437622</ele>
        <time>2022-02-22T17:13:29.713Z</time>
      </trkpt>
      <trkpt lat="41.24726" lon="-1.42156">
        <ele>913.399907</ele>
        <time>2022-02-22T17:13:35.705Z</time>
      </trkpt>
      <trkpt lat="41.247" lon="-1.42126">
        <ele>913.353133</ele>
        <time>2022-02-22T17:13:43.154Z</time>
      </trkpt>
      <trkpt lat="41.24597" lon="-1.41952">
        <ele>913.168405</ele>
        <time>2022-02-22T17:14:20.032Z</time>
      </trkpt>
      <trkpt lat="41.24573" lon="-1.41919">
        <ele>913.132298</ele>
        <time>2022-02-22T17:14:27.587Z</time>
      </trkpt>
      <trkpt lat="41.24541" lon="-1.4189">
        <ele>912.893471</ele>
        <time>2022-02-22T17:14:35.771Z</time>
      </trkpt>
      <trkpt lat="41.24504" lon="-1.41866">
        <ele>912.503287</ele>
        <time>2022-02-22T17:14:44.633Z</time>
      </trkpt>
      <trkpt lat="41.24087" lon="-1.4168">
        <ele>907.838243</ele>
        <time>2022-02-22T17:16:11.455Z</time>
      </trkpt>
      <trkpt lat="41.24007" lon="-1.41673">
        <ele>906.392523</ele>
        <time>2022-02-22T17:16:26.123Z</time>
      </trkpt>
      <trkpt lat="41.23912" lon="-1.41711">
        <ele>904.269049</ele>
        <time>2022-02-22T17:16:44.125Z</time>
      </trkpt>
      <trkpt lat="41.23833" lon="-1.41718">
        <ele>902.192973</ele>
        <time>2022-02-22T17:16:58.308Z</time>
      </trkpt>
      <trkpt lat="41.23786" lon="-1.41709">
        <ele>900.783846</ele>
        <time>2022-02-22T17:17:06.517Z</time>
      </trkpt>
      <trkpt lat="41.23744" lon="-1.41692">
        <ele>899.446816</ele>
        <time>2022-02-22T17:17:14.208Z</time>
      </trkpt>
      <trkpt lat="41.23537" lon="-1.41624">
        <ele>892.253846</ele>
        <time>2022-02-22T17:17:49.590Z</time>
      </trkpt>
      <trkpt lat="41.2345" lon="-1.41636">
        <ele>890.531734</ele>
        <time>2022-02-22T17:18:05.212Z</time>
      </trkpt>
      <trkpt lat="41.23356" lon="-1.41673">
        <ele>888.806827</ele>
        <time>2022-02-22T17:18:24.522Z</time>
      </trkpt>
      <trkpt lat="41.23301" lon="-1.4168">
        <ele>888.646168</ele>
        <time>2022-02-22T17:18:35.963Z</time>
      </trkpt>
      <trkpt lat="41.2326" lon="-1.41669">
        <ele>888.581847</ele>
        <time>2022-02-22T17:18:45.024Z</time>
      </trkpt>
      <trkpt lat="41.23209" lon="-1.41638">
        <ele>888.496916</ele>
        <time>2022-02-22T17:18:57.448Z</time>
      </trkpt>
      <trkpt lat="41.22977" lon="-1.41386">
        <ele>889.262504</ele>
        <time>2022-02-22T17:20:13.048Z</time>
      </trkpt>
      <trkpt lat="41.2279" lon="-1.41165">
        <ele>887.377429</ele>
        <time>2022-02-22T17:21:02.573Z</time>
      </trkpt>
      <trkpt lat="41.22703" lon="-1.41081">
        <ele>886.235867</ele>
        <time>2022-02-22T17:21:23.645Z</time>
      </trkpt>
      <trkpt lat="41.22655" lon="-1.4105">
        <ele>885.668582</ele>
        <time>2022-02-22T17:21:34.272Z</time>
      </trkpt>
      <trkpt lat="41.22538" lon="-1.41014">
        <ele>883.850734</ele>
        <time>2022-02-22T17:21:58.209Z</time>
      </trkpt>
      <trkpt lat="41.22438" lon="-1.4096">
        <ele>881.84377</ele>
        <time>2022-02-22T17:22:17.857Z</time>
      </trkpt>
      <trkpt lat="41.22306" lon="-1.40879">
        <ele>876.775801</ele>
        <time>2022-02-22T17:22:42.394Z</time>
      </trkpt>
      <trkpt lat="41.22196" lon="-1.40817">
        <ele>872.459869</ele>
        <time>2022-02-22T17:23:01.852Z</time>
      </trkpt>
      <trkpt lat="41.22054" lon="-1.40755">
        <ele>868.158408</ele>
        <time>2022-02-22T17:23:27.547Z</time>
      </trkpt>
      <trkpt lat="41.22023" lon="-1.40715">
        <ele>867.365713</ele>
        <time>2022-02-22T17:23:35.588Z</time>
      </trkpt>
      <trkpt lat="41.21997" lon="-1.40663">
        <ele>866.504508</ele>
        <time>2022-02-22T17:23:44.650Z</time>
      </trkpt>
      <trkpt lat="41.21961" lon="-1.40499">
        <ele>865.879314</ele>
        <time>2022-02-22T17:24:11.879Z</time>
      </trkpt>
      <trkpt lat="41.21939" lon="-1.40446">
        <ele>865.828829</ele>
        <time>2022-02-22T17:24:22.343Z</time>
      </trkpt>
      <trkpt lat="41.21913" lon="-1.40401">
        <ele>865.860369</ele>
        <time>2022-02-22T17:24:32.281Z</time>
      </trkpt>
      <trkpt lat="41.21693" lon="-1.4009">
        <ele>868.884339</ele>
        <time>2022-02-22T17:25:57.180Z</time>
      </trkpt>
      <trkpt lat="41.21674" lon="-1.40063">
        <ele>869.211406</ele>
        <time>2022-02-22T17:26:06.077Z</time>
      </trkpt>
      <trkpt lat="41.21645" lon="-1.40066">
        <ele>870.11811</ele>
        <time>2022-02-22T17:26:15.771Z</time>
      </trkpt>
      <trkpt lat="41.21628" lon="-1.40074">
        <ele>870.708367</ele>
        <time>2022-02-22T17:26:22.147Z</time>
      </trkpt>
      <trkpt lat="41.21558" lon="-1.40119">
        <ele>873.217964</ele>
        <time>2022-02-22T17:26:55.026Z</time>
      </trkpt>
      <trkpt lat="41.21511" lon="-1.40132">
        <ele>874.749661</ele>
        <time>2022-02-22T17:27:14.799Z</time>
      </trkpt>
      <trkpt lat="41.21492" lon="-1.40133">
        <ele>875.287489</ele>
        <time>2022-02-22T17:27:21.333Z</time>
      </trkpt>
      <trkpt lat="41.21474" lon="-1.40124">
        <ele>875.781318</ele>
        <time>2022-02-22T17:27:29.563Z</time>
      </trkpt>
      <trkpt lat="41.21455" lon="-1.40114">
        <ele>876.284082</ele>
        <time>2022-02-22T17:27:36.355Z</time>
      </trkpt>
      <trkpt lat="41.21403" lon="-1.40108">
        <ele>877.58707</ele>
        <time>2022-02-22T17:27:55.317Z</time>
      </trkpt>
      <trkpt lat="41.21367" lon="-1.40092">
        <ele>878.530501</ele>
        <time>2022-02-22T17:28:08.340Z</time>
      </trkpt>
      <trkpt lat="41.21336" lon="-1.40054">
        <ele>879.560779</ele>
        <time>2022-02-22T17:28:21.867Z</time>
      </trkpt>
      <trkpt lat="41.21287" lon="-1.39999">
        <ele>880.581086</ele>
        <time>2022-02-22T17:28:38.364Z</time>
      </trkpt>
      <trkpt lat="41.21271" lon="-1.39981">
        <ele>880.921741</ele>
        <time>2022-02-22T17:28:44.356Z</time>
      </trkpt>
      <trkpt lat="41.21217" lon="-1.39911">
        <ele>882.136932</ele>
        <time>2022-02-22T17:29:06.937Z</time>
      </trkpt>
      <trkpt lat="41.21144" lon="-1.39827">
        <ele>884.833158</ele>
        <time>2022-02-22T17:29:42.186Z</time>
      </trkpt>
      <trkpt lat="41.21136" lon="-1.39822">
        <ele>885.112486</ele>
        <time>2022-02-22T17:29:45.604Z</time>
      </trkpt>
      <trkpt lat="41.21101" lon="-1.39803">
        <ele>886.256486</ele>
        <time>2022-02-22T17:30:00.774Z</time>
      </trkpt>
      <trkpt lat="41.21082" lon="-1.39814">
        <ele>886.876238</ele>
        <time>2022-02-22T17:30:09.160Z</time>
      </trkpt>
      <trkpt lat="41.20977" lon="-1.39874">
        <ele>889.860564</ele>
        <time>2022-02-22T17:30:52.436Z</time>
      </trkpt>
      <trkpt lat="41.20891" lon="-1.3995">
        <ele>892.32874</ele>
        <time>2022-02-22T17:31:25.589Z</time>
      </trkpt>
      <trkpt lat="41.2082" lon="-1.39985">
        <ele>893.45893</ele>
        <time>2022-02-22T17:31:46.648Z</time>
      </trkpt>
      <trkpt lat="41.20782" lon="-1.39997">
        <ele>894.041856</ele>
        <time>2022-02-22T17:31:57.513Z</time>
      </trkpt>
      <trkpt lat="41.20462" lon="-1.40049">
        <ele>899.560702</ele>
        <time>2022-02-22T17:33:39.212Z</time>
      </trkpt>
      <trkpt lat="41.20344" lon="-1.40062">
        <ele>901.454997</ele>
        <time>2022-02-22T17:34:12.979Z</time>
      </trkpt>
      <trkpt lat="41.20188" lon="-1.4008">
        <ele>904.138343</ele>
        <time>2022-02-22T17:35:01.436Z</time>
      </trkpt>
      <trkpt lat="41.20023" lon="-1.40086">
        <ele>907.519379</ele>
        <time>2022-02-22T17:35:57.141Z</time>
      </trkpt>
      <trkpt lat="41.19916" lon="-1.4011">
        <ele>908.828845</ele>
        <time>2022-02-22T17:36:28.409Z</time>
      </trkpt>
      <trkpt lat="41.19832" lon="-1.40132">
        <ele>909.724759</ele>
        <time>2022-02-22T17:36:49.771Z</time>
      </trkpt>
      <trkpt lat="41.19624" lon="-1.40241">
        <ele>911.351278</ele>
        <time>2022-02-22T17:37:48.150Z</time>
      </trkpt>
      <trkpt lat="41.19193" lon="-1.40324">
        <ele>914.105645</ele>
        <time>2022-02-22T17:39:38.820Z</time>
      </trkpt>
      <trkpt lat="41.1855" lon="-1.40324">
        <ele>916.962656</ele>
        <time>2022-02-22T17:42:15.088Z</time>
      </trkpt>
      <trkpt lat="41.18197" lon="-1.40297">
        <ele>918.94097</ele>
        <time>2022-02-22T17:43:44.392Z</time>
      </trkpt>
      <trkpt lat="41.18034" lon="-1.40264">
        <ele>919.690994</ele>
        <time>2022-02-22T17:44:24.710Z</time>
      </trkpt>
      <trkpt lat="41.17772" lon="-1.40057">
        <ele>921.099483</ele>
        <time>2022-02-22T17:45:38.404Z</time>
      </trkpt>
      <trkpt lat="41.17617" lon="-1.39942">
        <ele>922.638959</ele>
        <time>2022-02-22T17:46:26.275Z</time>
      </trkpt>
      <trkpt lat="41.172" lon="-1.39651">
        <ele>927.450493</ele>
        <time>2022-02-22T17:48:35.800Z</time>
      </trkpt>
      <trkpt lat="41.17061" lon="-1.3947">
        <ele>929.239698</ele>
        <time>2022-02-22T17:49:28.142Z</time>
      </trkpt>
      <trkpt lat="41.16906" lon="-1.39299">
        <ele>931.031158</ele>
        <time>2022-02-22T17:50:20.591Z</time>
      </trkpt>
      <trkpt lat="41.16699" lon="-1.39007">
        <ele>934.064378</ele>
        <time>2022-02-22T17:51:44.446Z</time>
      </trkpt>
      <trkpt lat="41.16092" lon="-1.38677">
        <ele>939.724344</ele>
        <time>2022-02-22T17:54:37.355Z</time>
      </trkpt>
      <trkpt lat="41.15501" lon="-1.38329">
        <ele>946.63533</ele>
        <time>2022-02-22T17:57:42.522Z</time>
      </trkpt>
      <trkpt lat="41.15485" lon="-1.3831">
        <ele>946.625376</ele>
        <time>2022-02-22T17:57:46.864Z</time>
      </trkpt>
      <trkpt lat="41.15317" lon="-1.38106">
        <ele>943.459648</ele>
        <time>2022-02-22T17:58:29.359Z</time>
      </trkpt>
      <trkpt lat="41.15282" lon="-1.38074">
        <ele>942.586032</ele>
        <time>2022-02-22T17:58:36.857Z</time>
      </trkpt>
      <trkpt lat="41.15089" lon="-1.37972">
        <ele>938.093524</ele>
        <time>2022-02-22T17:59:14.403Z</time>
      </trkpt>
      <trkpt lat="41.1507" lon="-1.37978">
        <ele>937.688905</ele>
        <time>2022-02-22T17:59:18.021Z</time>
      </trkpt>
      <trkpt lat="41.15054" lon="-1.37977">
        <ele>937.355934</ele>
        <time>2022-02-22T17:59:20.928Z</time>
      </trkpt>
      <trkpt lat="41.15061" lon="-1.37962">
        <ele>937.084956</ele>
        <time>2022-02-22T17:59:23.453Z</time>
      </trkpt>
      <trkpt lat="41.1504" lon="-1.37951">
        <ele>936.623965</ele>
        <time>2022-02-22T17:59:29.011Z</time>
      </trkpt>
      <trkpt lat="41.14988" lon="-1.37965">
        <ele>935.506665</ele>
        <time>2022-02-22T17:59:42.598Z</time>
      </trkpt>
      <trkpt lat="41.14956" lon="-1.37949">
        <ele>934.760805</ele>
        <time>2022-02-22T17:59:50.762Z</time>
      </trkpt>
      <trkpt lat="41.14942" lon="-1.37942">
        <ele>934.417246</ele>
        <time>2022-02-22T17:59:54.352Z</time>
      </trkpt>
      <trkpt lat="41.14885" lon="-1.37934">
        <ele>933.159049</ele>
        <time>2022-02-22T18:00:08.793Z</time>
      </trkpt>
      <trkpt lat="41.14869" lon="-1.37938">
        <ele>932.81161</ele>
        <time>2022-02-22T18:00:12.587Z</time>
      </trkpt>
      <trkpt lat="41.14812" lon="-1.3787">
        <ele>930.987324</ele>
        <time>2022-02-22T18:00:31.813Z</time>
      </trkpt>
      <trkpt lat="41.14806" lon="-1.37845">
        <ele>930.443809</ele>
        <time>2022-02-22T18:00:36.865Z</time>
      </trkpt>
      <trkpt lat="41.14808" lon="-1.37831">
        <ele>930.151875</ele>
        <time>2022-02-22T18:00:39.242Z</time>
      </trkpt>
      <trkpt lat="41.14822" lon="-1.37803">
        <ele>929.438171</ele>
        <time>2022-02-22T18:00:45.392Z</time>
      </trkpt>
      <trkpt lat="41.14849" lon="-1.37779">
        <ele>928.524583</ele>
        <time>2022-02-22T18:00:52.869Z</time>
      </trkpt>
      <trkpt lat="41.14852" lon="-1.3777">
        <ele>928.322283</ele>
        <time>2022-02-22T18:00:55.340Z</time>
      </trkpt>
      <trkpt lat="41.1481" lon="-1.37784">
        <ele>927.089136</ele>
        <time>2022-02-22T18:01:02.749Z</time>
      </trkpt>
      <trkpt lat="41.14787" lon="-1.37814">
        <ele>925.97973</ele>
        <time>2022-02-22T18:01:08.590Z</time>
      </trkpt>
      <trkpt lat="41.14765" lon="-1.37821">
        <ele>924.91041</ele>
        <time>2022-02-22T18:01:12.207Z</time>
      </trkpt>
      <trkpt lat="41.14736" lon="-1.37807">
        <ele>923.402642</ele>
        <time>2022-02-22T18:01:17.486Z</time>
      </trkpt>
      <trkpt lat="41.14668" lon="-1.37745">
        <ele>919.448478</ele>
        <time>2022-02-22T18:01:30.338Z</time>
      </trkpt>
      <trkpt lat="41.1465" lon="-1.3774">
        <ele>918.554552</ele>
        <time>2022-02-22T18:01:33.192Z</time>
      </trkpt>
      <trkpt lat="41.14585" lon="-1.37775">
        <ele>913.842381</ele>
        <time>2022-02-22T18:01:43.819Z</time>
      </trkpt>
      <trkpt lat="41.14558" lon="-1.37819">
        <ele>910.751978</ele>
        <time>2022-02-22T18:01:50.146Z</time>
      </trkpt>
      <trkpt lat="41.14505" lon="-1.37957">
        <ele>902.499358</ele>
        <time>2022-02-22T18:02:07.293Z</time>
      </trkpt>
      <trkpt lat="41.14486" lon="-1.38016">
        <ele>899.31806</ele>
        <time>2022-02-22T18:02:14.340Z</time>
      </trkpt>
      <trkpt lat="41.14476" lon="-1.38029">
        <ele>898.384344</ele>
        <time>2022-02-22T18:02:16.466Z</time>
      </trkpt>
      <trkpt lat="41.14445" lon="-1.38076">
        <ele>895.290433</ele>
        <time>2022-02-22T18:02:23.762Z</time>
      </trkpt>
      <trkpt lat="41.14434" lon="-1.38095">
        <ele>894.077563</ele>
        <time>2022-02-22T18:02:26.663Z</time>
      </trkpt>
      <trkpt lat="41.1441" lon="-1.38118">
        <ele>892.373619</ele>
        <time>2022-02-22T18:02:31.354Z</time>
      </trkpt>
      <trkpt lat="41.14407" lon="-1.38138">
        <ele>891.699958</ele>
        <time>2022-02-22T18:02:33.955Z</time>
      </trkpt>
      <trkpt lat="41.14395" lon="-1.38153">
        <ele>890.927469</ele>
        <time>2022-02-22T18:02:36.959Z</time>
      </trkpt>
      <trkpt lat="41.14369" lon="-1.38167">
        <ele>889.712597</ele>
        <time>2022-02-22T18:02:41.788Z</time>
      </trkpt>
      <trkpt lat="41.14341" lon="-1.38194">
        <ele>888.157577</ele>
        <time>2022-02-22T18:02:47.744Z</time>
      </trkpt>
      <trkpt lat="41.1431" lon="-1.38209">
        <ele>886.683877</ele>
        <time>2022-02-22T18:02:53.290Z</time>
      </trkpt>
      <trkpt lat="41.14267" lon="-1.3831">
        <ele>882.548812</ele>
        <time>2022-02-22T18:03:08.160Z</time>
      </trkpt>
      <trkpt lat="41.14235" lon="-1.38344">
        <ele>880.496124</ele>
        <time>2022-02-22T18:03:14.957Z</time>
      </trkpt>
      <trkpt lat="41.14216" lon="-1.38359">
        <ele>879.390828</ele>
        <time>2022-02-22T18:03:18.561Z</time>
      </trkpt>
      <trkpt lat="41.14192" lon="-1.38364">
        <ele>878.168891</ele>
        <time>2022-02-22T18:03:22.531Z</time>
      </trkpt>
      <trkpt lat="41.14172" lon="-1.38374">
        <ele>877.124909</ele>
        <time>2022-02-22T18:03:28.386Z</time>
      </trkpt>
      <trkpt lat="41.14144" lon="-1.38366">
        <ele>875.716926</ele>
        <time>2022-02-22T18:03:36.449Z</time>
      </trkpt>
      <trkpt lat="41.14016" lon="-1.38355">
        <ele>871.202544</ele>
        <time>2022-02-22T18:04:14.450Z</time>
      </trkpt>
      <trkpt lat="41.13961" lon="-1.38373">
        <ele>869.326472</ele>
        <time>2022-02-22T18:04:33.780Z</time>
      </trkpt>
      <trkpt lat="41.13937" lon="-1.38407">
        <ele>868.718155</ele>
        <time>2022-02-22T18:04:45.682Z</time>
      </trkpt>
      <trkpt lat="41.13846" lon="-1.38473">
        <ele>866.910467</ele>
        <time>2022-02-22T18:05:20.466Z</time>
      </trkpt>
      <trkpt lat="41.13818" lon="-1.38517">
        <ele>865.919557</ele>
        <time>2022-02-22T18:05:34.552Z</time>
      </trkpt>
      <trkpt lat="41.13769" lon="-1.38571">
        <ele>863.408991</ele>
        <time>2022-02-22T18:05:54.113Z</time>
      </trkpt>
      <trkpt lat="41.13646" lon="-1.38654">
        <ele>857.556846</ele>
        <time>2022-02-22T18:06:34.249Z</time>
      </trkpt>
      <trkpt lat="41.13605" lon="-1.38694">
        <ele>854.956068</ele>
        <time>2022-02-22T18:06:48.778Z</time>
      </trkpt>
      <trkpt lat="41.135" lon="-1.38762">
        <ele>848.877616</ele>
        <time>2022-02-22T18:07:22.109Z</time>
      </trkpt>
      <trkpt lat="41.13386" lon="-1.38878">
        <ele>841.184047</ele>
        <time>2022-02-22T18:08:02.734Z</time>
      </trkpt>
      <trkpt lat="41.13279" lon="-1.39011">
        <ele>834.682266</ele>
        <time>2022-02-22T18:08:45.656Z</time>
      </trkpt>
      <trkpt lat="41.13154" lon="-1.39126">
        <ele>829.021235</ele>
        <time>2022-02-22T18:09:31.830Z</time>
      </trkpt>
      <trkpt lat="41.13113" lon="-1.39144">
        <ele>827.51845</ele>
        <time>2022-02-22T18:09:45.162Z</time>
      </trkpt>
      <trkpt lat="41.13045" lon="-1.39153">
        <ele>825.002382</ele>
        <time>2022-02-22T18:10:05.911Z</time>
      </trkpt>
      <trkpt lat="41.13007" lon="-1.39172">
        <ele>823.411656</ele>
        <time>2022-02-22T18:10:18.043Z</time>
      </trkpt>
      <trkpt lat="41.1296" lon="-1.39237">
        <ele>820.771067</ele>
        <time>2022-02-22T18:10:38.005Z</time>
      </trkpt>
      <trkpt lat="41.12765" lon="-1.3936">
        <ele>812.555405</ele>
        <time>2022-02-22T18:11:42.512Z</time>
      </trkpt>
      <trkpt lat="41.12757" lon="-1.39374">
        <ele>812.30671</ele>
        <time>2022-02-22T18:11:46.495Z</time>
      </trkpt>
      <trkpt lat="41.12637" lon="-1.39437">
        <ele>809.946344</ele>
        <time>2022-02-22T18:12:29.467Z</time>
      </trkpt>
      <trkpt lat="41.12652" lon="-1.39514">
        <ele>808.885211</ele>
        <time>2022-02-22T18:12:50.324Z</time>
      </trkpt>
      <trkpt lat="41.12529" lon="-1.39562">
        <ele>806.755601</ele>
        <time>2022-02-22T18:13:14.688Z</time>
      </trkpt>
      <trkpt lat="41.12465" lon="-1.39598">
        <ele>805.287803</ele>
        <time>2022-02-22T18:13:27.079Z</time>
      </trkpt>
      <trkpt lat="41.12406" lon="-1.39635">
        <ele>803.709979</ele>
        <time>2022-02-22T18:13:38.442Z</time>
      </trkpt>
      <trkpt lat="41.12318" lon="-1.39711">
        <ele>801.417614</ele>
        <time>2022-02-22T18:13:57.185Z</time>
      </trkpt>
      <trkpt lat="41.1229" lon="-1.39733">
        <ele>800.910846</ele>
        <time>2022-02-22T18:14:03.315Z</time>
      </trkpt>
      <trkpt lat="41.12254" lon="-1.3977">
        <ele>800.21359</ele>
        <time>2022-02-22T18:14:11.989Z</time>
      </trkpt>
      <trkpt lat="41.12253" lon="-1.39791">
        <ele>799.968306</ele>
        <time>2022-02-22T18:14:15.122Z</time>
      </trkpt>
      <trkpt lat="41.12246" lon="-1.39808">
        <ele>799.752442</ele>
        <time>2022-02-22T18:14:17.812Z</time>
      </trkpt>
      <trkpt lat="41.12233" lon="-1.39824">
        <ele>799.47418</ele>
        <time>2022-02-22T18:14:21.390Z</time>
      </trkpt>
      <trkpt lat="41.12215" lon="-1.3983">
        <ele>799.191367</ele>
        <time>2022-02-22T18:14:24.913Z</time>
      </trkpt>
      <trkpt lat="41.12203" lon="-1.39839">
        <ele>799.027883</ele>
        <time>2022-02-22T18:14:27.740Z</time>
      </trkpt>
      <trkpt lat="41.1219" lon="-1.39862">
        <ele>798.837479</ele>
        <time>2022-02-22T18:14:32.006Z</time>
      </trkpt>
      <trkpt lat="41.12154" lon="-1.39919">
        <ele>798.352668</ele>
        <time>2022-02-22T18:14:43.505Z</time>
      </trkpt>
      <trkpt lat="41.12119" lon="-1.39973">
        <ele>797.879195</ele>
        <time>2022-02-22T18:14:54.739Z</time>
      </trkpt>
      <trkpt lat="41.12014" lon="-1.40137">
        <ele>795.70884</ele>
        <time>2022-02-22T18:15:26.087Z</time>
      </trkpt>
      <trkpt lat="41.11953" lon="-1.40231">
        <ele>794.133494</ele>
        <time>2022-02-22T18:15:43.316Z</time>
      </trkpt>
      <trkpt lat="41.1194" lon="-1.40214">
        <ele>793.754119</ele>
        <time>2022-02-22T18:15:46.822Z</time>
      </trkpt>
      <trkpt lat="41.1186" lon="-1.40346">
        <ele>791.171087</ele>
        <time>2022-02-22T18:16:11.140Z</time>
      </trkpt>
      <trkpt lat="41.11852" lon="-1.40371">
        <ele>790.931449</ele>
        <time>2022-02-22T18:16:15.033Z</time>
      </trkpt>
      <trkpt lat="41.11803" lon="-1.40452">
        <ele>790.013088</ele>
        <time>2022-02-22T18:16:30.723Z</time>
      </trkpt>
      <trkpt lat="41.11806" lon="-1.4046">
        <ele>789.931937</ele>
        <time>2022-02-22T18:16:32.217Z</time>
      </trkpt>
      <trkpt lat="41.11775" lon="-1.40509">
        <ele>789.356171</ele>
        <time>2022-02-22T18:16:41.951Z</time>
      </trkpt>
      <trkpt lat="41.11746" lon="-1.40554">
        <ele>788.992623</ele>
        <time>2022-02-22T18:16:51.405Z</time>
      </trkpt>
      <trkpt lat="41.11726" lon="-1.40585">
        <ele>788.87819</ele>
        <time>2022-02-22T18:16:58.454Z</time>
      </trkpt>
      <trkpt lat="41.11701" lon="-1.40624">
        <ele>788.736003</ele>
        <time>2022-02-22T18:17:06.946Z</time>
      </trkpt>
      <trkpt lat="41.11683" lon="-1.40651">
        <ele>788.634325</ele>
        <time>2022-02-22T18:17:12.753Z</time>
      </trkpt>
      <trkpt lat="41.11672" lon="-1.40669">
        <ele>788.568942</ele>
        <time>2022-02-22T18:17:16.411Z</time>
      </trkpt>
      <trkpt lat="41.11639" lon="-1.40728">
        <ele>788.349352</ele>
        <time>2022-02-22T18:17:28.148Z</time>
      </trkpt>
      <trkpt lat="41.11618" lon="-1.40733">
        <ele>788.237792</ele>
        <time>2022-02-22T18:17:32.747Z</time>
      </trkpt>
      <trkpt lat="41.11583" lon="-1.40763">
        <ele>788.014915</ele>
        <time>2022-02-22T18:17:41.774Z</time>
      </trkpt>
      <trkpt lat="41.11534" lon="-1.40801">
        <ele>787.712707</ele>
        <time>2022-02-22T18:17:54.185Z</time>
      </trkpt>
      <trkpt lat="41.11505" lon="-1.40824">
        <ele>787.531003</ele>
        <time>2022-02-22T18:18:02.288Z</time>
      </trkpt>
      <trkpt lat="41.11437" lon="-1.40876">
        <ele>786.686471</ele>
        <time>2022-02-22T18:18:18.693Z</time>
      </trkpt>
      <trkpt lat="41.11427" lon="-1.40908">
        <ele>786.365919</ele>
        <time>2022-02-22T18:18:23.830Z</time>
      </trkpt>
      <trkpt lat="41.11423" lon="-1.40936">
        <ele>786.097796</ele>
        <time>2022-02-22T18:18:28.058Z</time>
      </trkpt>
      <trkpt lat="41.11421" lon="-1.40962">
        <ele>785.856037</ele>
        <time>2022-02-22T18:18:31.849Z</time>
      </trkpt>
      <trkpt lat="41.11419" lon="-1.4099">
        <ele>785.597482</ele>
        <time>2022-02-22T18:18:35.709Z</time>
      </trkpt>
      <trkpt lat="41.11419" lon="-1.40991">
        <ele>785.584448</ele>
        <time>2022-02-22T18:18:35.912Z</time>
      </trkpt>
      <trkpt lat="41.11419" lon="-1.41005">
        <ele>785.456845</ele>
        <time>2022-02-22T18:18:37.899Z</time>
      </trkpt>
      <trkpt lat="41.11419" lon="-1.41039">
        <ele>785.088841</ele>
        <time>2022-02-22T18:18:42.648Z</time>
      </trkpt>
      <trkpt lat="41.11423" lon="-1.4107">
        <ele>784.615099</ele>
        <time>2022-02-22T18:18:46.956Z</time>
      </trkpt>
      <trkpt lat="41.11426" lon="-1.41096">
        <ele>784.209351</ele>
        <time>2022-02-22T18:18:50.783Z</time>
      </trkpt>
      <trkpt lat="41.11426" lon="-1.41107">
        <ele>784.053843</ele>
        <time>2022-02-22T18:18:52.226Z</time>
      </trkpt>
      <trkpt lat="41.1143" lon="-1.4115">
        <ele>783.398683</ele>
        <time>2022-02-22T18:18:58.253Z</time>
      </trkpt>
      <trkpt lat="41.1143" lon="-1.41154">
        <ele>783.323851</ele>
        <time>2022-02-22T18:18:58.927Z</time>
      </trkpt>
      <trkpt lat="41.11431" lon="-1.41184">
        <ele>782.868249</ele>
        <time>2022-02-22T18:19:03.116Z</time>
      </trkpt>
      <trkpt lat="41.1143" lon="-1.41201">
        <ele>782.62221</ele>
        <time>2022-02-22T18:19:05.414Z</time>
      </trkpt>
      <trkpt lat="41.11428" lon="-1.41227">
        <ele>782.223679</ele>
        <time>2022-02-22T18:19:09.022Z</time>
      </trkpt>
      <trkpt lat="41.11425" lon="-1.41265">
        <ele>781.637907</ele>
        <time>2022-02-22T18:19:14.226Z</time>
      </trkpt>
      <trkpt lat="41.11422" lon="-1.41274">
        <ele>781.444657</ele>
        <time>2022-02-22T18:19:15.511Z</time>
      </trkpt>
      <trkpt lat="41.11417" lon="-1.41304">
        <ele>780.728727</ele>
        <time>2022-02-22T18:19:19.609Z</time>
      </trkpt>
      <trkpt lat="41.11412" lon="-1.41328">
        <ele>780.145491</ele>
        <time>2022-02-22T18:19:22.906Z</time>
      </trkpt>
      <trkpt lat="41.11411" lon="-1.41331">
        <ele>780.076352</ele>
        <time>2022-02-22T18:19:23.293Z</time>
      </trkpt>
      <trkpt lat="41.11396" lon="-1.41382">
        <ele>778.812306</ele>
        <time>2022-02-22T18:19:30.319Z</time>
      </trkpt>
      <trkpt lat="41.11395" lon="-1.41388">
        <ele>778.683918</ele>
        <time>2022-02-22T18:19:31.007Z</time>
      </trkpt>
      <trkpt lat="41.11392" lon="-1.41418">
        <ele>777.972501</ele>
        <time>2022-02-22T18:19:35.028Z</time>
      </trkpt>
      <trkpt lat="41.114" lon="-1.41482">
        <ele>776.481694</ele>
        <time>2022-02-22T18:19:43.582Z</time>
      </trkpt>
      <trkpt lat="41.11401" lon="-1.41487">
        <ele>776.35291</ele>
        <time>2022-02-22T18:19:44.281Z</time>
      </trkpt>
      <trkpt lat="41.11403" lon="-1.41511">
        <ele>775.626114</ele>
        <time>2022-02-22T18:19:47.417Z</time>
      </trkpt>
      <trkpt lat="41.11399" lon="-1.41544">
        <ele>774.401918</ele>
        <time>2022-02-22T18:19:51.512Z</time>
      </trkpt>
      <trkpt lat="41.11394" lon="-1.41556">
        <ele>773.887668</ele>
        <time>2022-02-22T18:19:53.228Z</time>
      </trkpt>
      <trkpt lat="41.11378" lon="-1.41584">
        <ele>772.605732</ele>
        <time>2022-02-22T18:19:57.259Z</time>
      </trkpt>
      <trkpt lat="41.11365" lon="-1.41598">
        <ele>771.812573</ele>
        <time>2022-02-22T18:19:59.811Z</time>
      </trkpt>
      <trkpt lat="41.11323" lon="-1.41643">
        <ele>769.132136</ele>
        <time>2022-02-22T18:20:08.215Z</time>
      </trkpt>
      <trkpt lat="41.1131" lon="-1.41658">
        <ele>768.328037</ele>
        <time>2022-02-22T18:20:10.867Z</time>
      </trkpt>
      <trkpt lat="41.11303" lon="-1.41666">
        <ele>767.83676</ele>
        <time>2022-02-22T18:20:12.436Z</time>
      </trkpt>
      <trkpt lat="41.11287" lon="-1.41685">
        <ele>766.832507</ele>
        <time>2022-02-22T18:20:15.872Z</time>
      </trkpt>
      <trkpt lat="41.11279" lon="-1.41694">
        <ele>766.355084</ele>
        <time>2022-02-22T18:20:17.570Z</time>
      </trkpt>
      <trkpt lat="41.11276" lon="-1.41698">
        <ele>766.172338</ele>
        <time>2022-02-22T18:20:18.232Z</time>
      </trkpt>
      <trkpt lat="41.11272" lon="-1.41703">
        <ele>765.923293</ele>
        <time>2022-02-22T18:20:19.089Z</time>
      </trkpt>
      <trkpt lat="41.1125" lon="-1.41706">
        <ele>764.906152</ele>
        <time>2022-02-22T18:20:22.809Z</time>
      </trkpt>
      <trkpt lat="41.11246" lon="-1.41708">
        <ele>764.693004</ele>
        <time>2022-02-22T18:20:23.564Z</time>
      </trkpt>
      <trkpt lat="41.112" lon="-1.41721">
        <ele>762.556143</ele>
        <time>2022-02-22T18:20:31.056Z</time>
      </trkpt>
      <trkpt lat="41.11091" lon="-1.41767">
        <ele>757.907612</ele>
        <time>2022-02-22T18:20:49.438Z</time>
      </trkpt>
      <trkpt lat="41.11078" lon="-1.41775">
        <ele>757.468007</ele>
        <time>2022-02-22T18:20:51.864Z</time>
      </trkpt>
      <trkpt lat="41.11063" lon="-1.41784">
        <ele>756.970006</ele>
        <time>2022-02-22T18:20:54.646Z</time>
      </trkpt>
      <trkpt lat="41.11056" lon="-1.41789">
        <ele>756.721319</ele>
        <time>2022-02-22T18:20:56.072Z</time>
      </trkpt>
      <trkpt lat="41.11011" lon="-1.41812">
        <ele>755.257058</ele>
        <time>2022-02-22T18:21:04.467Z</time>
      </trkpt>
      <trkpt lat="41.10877" lon="-1.41888">
        <ele>752.339623</ele>
        <time>2022-02-22T18:21:31.666Z</time>
      </trkpt>
      <trkpt lat="41.1073" lon="-1.41967">
        <ele>750.543163</ele>
        <time>2022-02-22T18:22:03.205Z</time>
      </trkpt>
      <trkpt lat="41.10703" lon="-1.41982">
        <ele>750.311546</ele>
        <time>2022-02-22T18:22:08.920Z</time>
      </trkpt>
      <trkpt lat="41.10663" lon="-1.42008">
        <ele>749.950821</ele>
        <time>2022-02-22T18:22:17.947Z</time>
      </trkpt>
      <trkpt lat="41.10658" lon="-1.42011">
        <ele>749.910013</ele>
        <time>2022-02-22T18:22:18.957Z</time>
      </trkpt>
      <trkpt lat="41.1061" lon="-1.42037">
        <ele>749.86335</ele>
        <time>2022-02-22T18:22:29.808Z</time>
      </trkpt>
      <trkpt lat="41.10595" lon="-1.42044">
        <ele>750.0206</ele>
        <time>2022-02-22T18:22:33.432Z</time>
      </trkpt>
      <trkpt lat="41.10576" lon="-1.42054">
        <ele>750.228976</ele>
        <time>2022-02-22T18:22:38.760Z</time>
      </trkpt>
      <trkpt lat="41.10512" lon="-1.42087">
        <ele>750.911137</ele>
        <time>2022-02-22T18:22:58.515Z</time>
      </trkpt>
      <trkpt lat="41.10479" lon="-1.42107">
        <ele>751.274162</ele>
        <time>2022-02-22T18:23:09.756Z</time>
      </trkpt>
      <trkpt lat="41.1046" lon="-1.42124">
        <ele>751.515689</ele>
        <time>2022-02-22T18:23:17.219Z</time>
      </trkpt>
      <trkpt lat="41.10428" lon="-1.42154">
        <ele>752.013101</ele>
        <time>2022-02-22T18:23:30.208Z</time>
      </trkpt>
      <trkpt lat="41.1034" lon="-1.42034">
        <ele>753.627199</ele>
        <time>2022-02-22T18:24:08.646Z</time>
      </trkpt>
      <trkpt lat="41.10303" lon="-1.41985">
        <ele>753.397509</ele>
        <time>2022-02-22T18:24:19.930Z</time>
      </trkpt>
      <trkpt lat="41.10151" lon="-1.41816">
        <ele>752.490148</ele>
        <time>2022-02-22T18:25:00.452Z</time>
      </trkpt>
      <trkpt lat="41.09605" lon="-1.41317">
        <ele>755.093915</ele>
        <time>2022-02-22T18:27:52.120Z</time>
      </trkpt>
      <trkpt lat="41.08786" lon="-1.4055">
        <ele>760.216126</ele>
        <time>2022-02-22T18:32:10.080Z</time>
      </trkpt>
      <trkpt lat="41.08558" lon="-1.40344">
        <ele>761.440372</ele>
        <time>2022-02-22T18:33:18.539Z</time>
      </trkpt>
      <trkpt lat="41.08153" lon="-1.39959">
        <ele>766.245338</ele>
        <time>2022-02-22T18:35:39.874Z</time>
      </trkpt>
      <trkpt lat="41.07864" lon="-1.39526">
        <ele>768.521757</ele>
        <time>2022-02-22T18:37:31.863Z</time>
      </trkpt>
      <trkpt lat="41.07639" lon="-1.39173">
        <ele>769.647919</ele>
        <time>2022-02-22T18:38:58.012Z</time>
      </trkpt>
      <trkpt lat="41.07603" lon="-1.39136">
        <ele>769.758024</ele>
        <time>2022-02-22T18:39:08.835Z</time>
      </trkpt>
      <trkpt lat="41.07378" lon="-1.38961">
        <ele>770.673293</ele>
        <time>2022-02-22T18:40:12.958Z</time>
      </trkpt>
      <trkpt lat="41.0679" lon="-1.38531">
        <ele>776.934051</ele>
        <time>2022-02-22T18:43:22.546Z</time>
      </trkpt>
      <trkpt lat="41.06718" lon="-1.38487">
        <ele>777.24879</ele>
        <time>2022-02-22T18:43:41.973Z</time>
      </trkpt>
      <trkpt lat="41.06642" lon="-1.38454">
        <ele>777.021699</ele>
        <time>2022-02-22T18:43:59.602Z</time>
      </trkpt>
      <trkpt lat="41.06591" lon="-1.3843">
        <ele>776.870299</ele>
        <time>2022-02-22T18:44:11.307Z</time>
      </trkpt>
      <trkpt lat="41.06596" lon="-1.38405">
        <ele>776.815618</ele>
        <time>2022-02-22T18:44:15.351Z</time>
      </trkpt>
      <trkpt lat="41.06611" lon="-1.38337">
        <ele>776.941381</ele>
        <time>2022-02-22T18:44:27.031Z</time>
      </trkpt>
      <trkpt lat="41.06616" lon="-1.38317">
        <ele>776.980463</ele>
        <time>2022-02-22T18:44:30.459Z</time>
      </trkpt>
      <trkpt lat="41.06611" lon="-1.38314">
        <ele>776.993528</ele>
        <time>2022-02-22T18:44:32.682Z</time>
      </trkpt>
      <trkpt lat="41.06588" lon="-1.38319">
        <ele>777.051468</ele>
        <time>2022-02-22T18:44:41.574Z</time>
      </trkpt>
      <trkpt lat="41.06439" lon="-1.3828">
        <ele>778.202083</ele>
        <time>2022-02-22T18:45:42.814Z</time>
      </trkpt>
      <trkpt lat="41.06382" lon="-1.38248">
        <ele>779.043146</ele>
        <time>2022-02-22T18:46:10.403Z</time>
      </trkpt>
      <trkpt lat="41.06359" lon="-1.3822">
        <ele>779.464868</ele>
        <time>2022-02-22T18:46:24.794Z</time>
      </trkpt>
      <trkpt lat="41.06306" lon="-1.38141">
        <ele>781.048076</ele>
        <time>2022-02-22T18:47:03.833Z</time>
      </trkpt>
      <trkpt lat="41.06295" lon="-1.38045">
        <ele>782.618205</ele>
        <time>2022-02-22T18:47:40.219Z</time>
      </trkpt>
      <trkpt lat="41.06311" lon="-1.38031">
        <ele>783.023802</ele>
        <time>2022-02-22T18:47:49.223Z</time>
      </trkpt>
      <trkpt lat="41.06332" lon="-1.37941">
        <ele>783.884865</ele>
        <time>2022-02-22T18:48:21.045Z</time>
      </trkpt>
      <trkpt lat="41.06302" lon="-1.37926">
        <ele>784.104429</ele>
        <time>2022-02-22T18:48:34.190Z</time>
      </trkpt>
      <trkpt lat="41.06238" lon="-1.37879">
        <ele>784.602733</ele>
        <time>2022-02-22T18:49:02.215Z</time>
      </trkpt>
      <trkpt lat="41.06181" lon="-1.37805">
        <ele>785.211578</ele>
        <time>2022-02-22T18:49:31.453Z</time>
      </trkpt>
      <trkpt lat="41.06164" lon="-1.3775">
        <ele>785.56851</ele>
        <time>2022-02-22T18:49:48.900Z</time>
      </trkpt>
      <trkpt lat="41.06163" lon="-1.37711">
        <ele>785.807269</ele>
        <time>2022-02-22T18:50:01.381Z</time>
      </trkpt>
      <trkpt lat="41.06097" lon="-1.37653">
        <ele>786.731603</ele>
        <time>2022-02-22T18:50:37.927Z</time>
      </trkpt>
      <trkpt lat="41.05968" lon="-1.37626">
        <ele>789.309862</ele>
        <time>2022-02-22T18:51:40.847Z</time>
      </trkpt>
      <trkpt lat="41.05912" lon="-1.37598">
        <ele>790.174502</ele>
        <time>2022-02-22T18:52:07.813Z</time>
      </trkpt>
      <trkpt lat="41.0583" lon="-1.37574">
        <ele>791.081077</ele>
        <time>2022-02-22T18:52:43.812Z</time>
      </trkpt>
      <trkpt lat="41.05793" lon="-1.37555">
        <ele>791.50594</ele>
        <time>2022-02-22T18:52:59.761Z</time>
      </trkpt>
      <trkpt lat="41.05775" lon="-1.375">
        <ele>791.806359</ele>
        <time>2022-02-22T18:53:17.604Z</time>
      </trkpt>
      <trkpt lat="41.05674" lon="-1.37407">
        <ele>792.200871</ele>
        <time>2022-02-22T18:54:05.276Z</time>
      </trkpt>
      <trkpt lat="41.05605" lon="-1.37281">
        <ele>792.273138</ele>
        <time>2022-02-22T18:54:48.847Z</time>
      </trkpt>
      <trkpt lat="41.05536" lon="-1.37264">
        <ele>792.246479</ele>
        <time>2022-02-22T18:55:14.442Z</time>
      </trkpt>
      <trkpt lat="41.05506" lon="-1.37252">
        <ele>792.245037</ele>
        <time>2022-02-22T18:55:25.997Z</time>
      </trkpt>
      <trkpt lat="41.05469" lon="-1.37203">
        <ele>792.311963</ele>
        <time>2022-02-22T18:55:45.309Z</time>
      </trkpt>
      <trkpt lat="41.0543" lon="-1.37114">
        <ele>792.411689</ele>
        <time>2022-02-22T18:56:14.451Z</time>
      </trkpt>
      <trkpt lat="41.05394" lon="-1.37087">
        <ele>792.464531</ele>
        <time>2022-02-22T18:56:30.330Z</time>
      </trkpt>
      <trkpt lat="41.05343" lon="-1.37033">
        <ele>792.78132</ele>
        <time>2022-02-22T18:56:56.221Z</time>
      </trkpt>
      <trkpt lat="41.053" lon="-1.36977">
        <ele>793.078699</ele>
        <time>2022-02-22T18:57:20.299Z</time>
      </trkpt>
      <trkpt lat="41.05281" lon="-1.36976">
        <ele>793.175513</ele>
        <time>2022-02-22T18:57:28.051Z</time>
      </trkpt>
      <trkpt lat="41.05224" lon="-1.36916">
        <ele>793.49761</ele>
        <time>2022-02-22T18:57:56.870Z</time>
      </trkpt>
      <trkpt lat="41.05179" lon="-1.36904">
        <ele>793.675249</ele>
        <time>2022-02-22T18:58:14.994Z</time>
      </trkpt>
      <trkpt lat="41.0503" lon="-1.36894">
        <ele>794.175962</ele>
        <time>2022-02-22T18:59:12.623Z</time>
      </trkpt>
      <trkpt lat="41.05014" lon="-1.36892">
        <ele>794.213564</ele>
        <time>2022-02-22T18:59:18.615Z</time>
      </trkpt>
      <trkpt lat="41.04986" lon="-1.36869">
        <ele>794.290594</ele>
        <time>2022-02-22T18:59:31.280Z</time>
      </trkpt>
      <trkpt lat="41.0494" lon="-1.36791">
        <ele>794.464823</ele>
        <time>2022-02-22T18:59:59.707Z</time>
      </trkpt>
      <trkpt lat="41.04898" lon="-1.36701">
        <ele>794.538102</ele>
        <time>2022-02-22T19:00:30.005Z</time>
      </trkpt>
      <trkpt lat="41.04898" lon="-1.36677">
        <ele>794.552594</ele>
        <time>2022-02-22T19:00:36.727Z</time>
      </trkpt>
      <trkpt lat="41.04882" lon="-1.36649">
        <ele>794.574307</ele>
        <time>2022-02-22T19:00:46.710Z</time>
      </trkpt>
      <trkpt lat="41.04824" lon="-1.36615">
        <ele>794.623481</ele>
        <time>2022-02-22T19:01:10.409Z</time>
      </trkpt>
      <trkpt lat="41.04764" lon="-1.36566">
        <ele>794.604236</ele>
        <time>2022-02-22T19:01:36.086Z</time>
      </trkpt>
      <trkpt lat="41.04692" lon="-1.36496">
        <ele>794.579643</ele>
        <time>2022-02-22T19:02:09.079Z</time>
      </trkpt>
      <trkpt lat="41.04598" lon="-1.36421">
        <ele>794.879302</ele>
        <time>2022-02-22T19:02:50.505Z</time>
      </trkpt>
      <trkpt lat="41.0455" lon="-1.36376">
        <ele>795.072699</ele>
        <time>2022-02-22T19:03:13.455Z</time>
      </trkpt>
      <trkpt lat="41.04487" lon="-1.36351">
        <ele>795.607347</ele>
        <time>2022-02-22T19:03:40.091Z</time>
      </trkpt>
      <trkpt lat="41.04472" lon="-1.36343">
        <ele>795.806668</ele>
        <time>2022-02-22T19:03:47.050Z</time>
      </trkpt>
      <trkpt lat="41.04419" lon="-1.36291">
        <ele>796.593748</ele>
        <time>2022-02-22T19:04:15.047Z</time>
      </trkpt>
      <trkpt lat="41.04284" lon="-1.3614">
        <ele>799.243351</ele>
        <time>2022-02-22T19:05:36.383Z</time>
      </trkpt>
      <trkpt lat="41.04221" lon="-1.36066">
        <ele>800.493153</ele>
        <time>2022-02-22T19:06:13.884Z</time>
      </trkpt>
      <trkpt lat="41.04209" lon="-1.36051">
        <ele>800.645774</ele>
        <time>2022-02-22T19:06:18.711Z</time>
      </trkpt>
      <trkpt lat="41.04185" lon="-1.36018">
        <ele>800.957098</ele>
        <time>2022-02-22T19:06:28.141Z</time>
      </trkpt>
      <trkpt lat="41.04153" lon="-1.35972">
        <ele>801.380267</ele>
        <time>2022-02-22T19:06:41.181Z</time>
      </trkpt>
      <trkpt lat="41.04118" lon="-1.35923">
        <ele>801.841888</ele>
        <time>2022-02-22T19:06:54.971Z</time>
      </trkpt>
      <trkpt lat="41.04093" lon="-1.35894">
        <ele>801.987169</ele>
        <time>2022-02-22T19:07:03.229Z</time>
      </trkpt>
      <trkpt lat="41.0408" lon="-1.35881">
        <ele>802.022865</ele>
        <time>2022-02-22T19:07:07.042Z</time>
      </trkpt>
      <trkpt lat="41.04072" lon="-1.35843">
        <ele>802.091089</ele>
        <time>2022-02-22T19:07:14.434Z</time>
      </trkpt>
      <trkpt lat="41.04069" lon="-1.35825">
        <ele>802.123404</ele>
        <time>2022-02-22T19:07:17.897Z</time>
      </trkpt>
      <trkpt lat="41.04056" lon="-1.35799">
        <ele>802.176729</ele>
        <time>2022-02-22T19:07:23.623Z</time>
      </trkpt>
      <trkpt lat="41.04016" lon="-1.35727">
        <ele>802.330181</ele>
        <time>2022-02-22T19:07:39.784Z</time>
      </trkpt>
      <trkpt lat="41.04014" lon="-1.35715">
        <ele>802.337586</ele>
        <time>2022-02-22T19:07:41.920Z</time>
      </trkpt>
      <trkpt lat="41.03993" lon="-1.35682">
        <ele>802.268582</ele>
        <time>2022-02-22T19:07:49.461Z</time>
      </trkpt>
      <trkpt lat="41.03972" lon="-1.35656">
        <ele>802.20585</ele>
        <time>2022-02-22T19:07:55.982Z</time>
      </trkpt>
      <trkpt lat="41.03918" lon="-1.35608">
        <ele>802.065847</ele>
        <time>2022-02-22T19:08:10.363Z</time>
      </trkpt>
      <trkpt lat="41.03904" lon="-1.35602">
        <ele>802.034965</ele>
        <time>2022-02-22T19:08:13.408Z</time>
      </trkpt>
      <trkpt lat="41.03852" lon="-1.35559">
        <ele>801.893653</ele>
        <time>2022-02-22T19:08:26.758Z</time>
      </trkpt>
      <trkpt lat="41.03823" lon="-1.35527">
        <ele>801.799614</ele>
        <time>2022-02-22T19:08:34.889Z</time>
      </trkpt>
      <trkpt lat="41.03787" lon="-1.35472">
        <ele>801.662519</ele>
        <time>2022-02-22T19:08:46.752Z</time>
      </trkpt>
      <trkpt lat="41.03765" lon="-1.35445">
        <ele>801.586402</ele>
        <time>2022-02-22T19:08:53.411Z</time>
      </trkpt>
      <trkpt lat="41.03702" lon="-1.35402">
        <ele>801.23516</ele>
        <time>2022-02-22T19:09:08.342Z</time>
      </trkpt>
      <trkpt lat="41.03644" lon="-1.35322">
        <ele>800.647187</ele>
        <time>2022-02-22T19:09:25.390Z</time>
      </trkpt>
      <trkpt lat="41.03616" lon="-1.35308">
        <ele>800.432878</ele>
        <time>2022-02-22T19:09:31.448Z</time>
      </trkpt>
      <trkpt lat="41.03596" lon="-1.35297">
        <ele>800.280446</ele>
        <time>2022-02-22T19:09:35.782Z</time>
      </trkpt>
      <trkpt lat="41.03538" lon="-1.35262">
        <ele>799.784209</ele>
        <time>2022-02-22T19:09:57.692Z</time>
      </trkpt>
      <trkpt lat="41.03487" lon="-1.35308">
        <ele>799.295212</ele>
        <time>2022-02-22T19:10:19.157Z</time>
      </trkpt>
      <trkpt lat="41.03432" lon="-1.35291">
        <ele>798.847273</ele>
        <time>2022-02-22T19:10:39.028Z</time>
      </trkpt>
      <trkpt lat="41.0338" lon="-1.35349">
        <ele>799.022168</ele>
        <time>2022-02-22T19:11:03.478Z</time>
      </trkpt>
      <trkpt lat="41.03354" lon="-1.35362">
        <ele>799.111893</ele>
        <time>2022-02-22T19:11:14.375Z</time>
      </trkpt>
      <trkpt lat="41.03341" lon="-1.35366">
        <ele>799.15393</ele>
        <time>2022-02-22T19:11:19.560Z</time>
      </trkpt>
      <trkpt lat="41.03337" lon="-1.35369">
        <ele>799.167324</ele>
        <time>2022-02-22T19:11:21.220Z</time>
      </trkpt>
      <trkpt lat="41.03329" lon="-1.35316">
        <ele>799.294177</ele>
        <time>2022-02-22T19:11:37.807Z</time>
      </trkpt>
      <trkpt lat="41.03326" lon="-1.3529">
        <ele>799.358673</ele>
        <time>2022-02-22T19:11:46.537Z</time>
      </trkpt>
      <trkpt lat="41.0331" lon="-1.35247">
        <ele>799.620212</ele>
        <time>2022-02-22T19:12:01.542Z</time>
      </trkpt>
      <trkpt lat="41.03253" lon="-1.35169">
        <ele>800.34347</ele>
        <time>2022-02-22T19:12:36.191Z</time>
      </trkpt>
      <trkpt lat="41.03242" lon="-1.35157">
        <ele>800.473355</ele>
        <time>2022-02-22T19:12:42.263Z</time>
      </trkpt>
      <trkpt lat="41.03177" lon="-1.35133">
        <ele>800.985046</ele>
        <time>2022-02-22T19:13:10.104Z</time>
      </trkpt>
      <trkpt lat="41.03152" lon="-1.35115">
        <ele>801.000212</ele>
        <time>2022-02-22T19:13:21.437Z</time>
      </trkpt>
      <trkpt lat="41.03088" lon="-1.35088">
        <ele>801.035245</ele>
        <time>2022-02-22T19:13:45.857Z</time>
      </trkpt>
      <trkpt lat="41.03009" lon="-1.35075">
        <ele>801.092148</ele>
        <time>2022-02-22T19:14:14.930Z</time>
      </trkpt>
      <trkpt lat="41.02965" lon="-1.35029">
        <ele>801.257382</ele>
        <time>2022-02-22T19:14:35.531Z</time>
      </trkpt>
      <trkpt lat="41.02934" lon="-1.34987">
        <ele>801.392069</ele>
        <time>2022-02-22T19:14:52.811Z</time>
      </trkpt>
      <trkpt lat="41.02892" lon="-1.34967">
        <ele>801.525167</ele>
        <time>2022-02-22T19:15:10.334Z</time>
      </trkpt>
      <trkpt lat="41.02781" lon="-1.349">
        <ele>802.271066</ele>
        <time>2022-02-22T19:15:59.589Z</time>
      </trkpt>
      <trkpt lat="41.02773" lon="-1.34903">
        <ele>802.330228</ele>
        <time>2022-02-22T19:16:03.002Z</time>
      </trkpt>
      <trkpt lat="41.02746" lon="-1.34969">
        <ele>802.732005</ele>
        <time>2022-02-22T19:16:26.082Z</time>
      </trkpt>
      <trkpt lat="41.0272" lon="-1.34975">
        <ele>802.933288</ele>
        <time>2022-02-22T19:16:37.103Z</time>
      </trkpt>
      <trkpt lat="41.02685" lon="-1.34944">
        <ele>803.334184</ele>
        <time>2022-02-22T19:16:54.217Z</time>
      </trkpt>
      <trkpt lat="41.02645" lon="-1.34927">
        <ele>803.745207</ele>
        <time>2022-02-22T19:17:11.982Z</time>
      </trkpt>
      <trkpt lat="41.02624" lon="-1.34911">
        <ele>803.977695</ele>
        <time>2022-02-22T19:17:22.199Z</time>
      </trkpt>
      <trkpt lat="41.0257" lon="-1.34847">
        <ele>804.681721</ele>
        <time>2022-02-22T19:17:52.989Z</time>
      </trkpt>
      <trkpt lat="41.02557" lon="-1.34843">
        <ele>804.82061</ele>
        <time>2022-02-22T19:17:58.735Z</time>
      </trkpt>
      <trkpt lat="41.02525" lon="-1.34848">
        <ele>805.148126</ele>
        <time>2022-02-22T19:18:12.350Z</time>
      </trkpt>
      <trkpt lat="41.02505" lon="-1.3484">
        <ele>805.356761</ele>
        <time>2022-02-22T19:18:20.960Z</time>
      </trkpt>
      <trkpt lat="41.02492" lon="-1.34827">
        <ele>805.526058</ele>
        <time>2022-02-22T19:18:27.820Z</time>
      </trkpt>
      <trkpt lat="41.02467" lon="-1.34775">
        <ele>805.996282</ele>
        <time>2022-02-22T19:18:47.123Z</time>
      </trkpt>
      <trkpt lat="41.02448" lon="-1.34759">
        <ele>806.226254</ele>
        <time>2022-02-22T19:18:57.171Z</time>
      </trkpt>
      <trkpt lat="41.0241" lon="-1.34762">
        <ele>806.578048</ele>
        <time>2022-02-22T19:19:13.224Z</time>
      </trkpt>
      <trkpt lat="41.02391" lon="-1.3482">
        <ele>806.954365</ele>
        <time>2022-02-22T19:19:32.592Z</time>
      </trkpt>
      <trkpt lat="41.0237" lon="-1.34851">
        <ele>807.204315</ele>
        <time>2022-02-22T19:19:45.077Z</time>
      </trkpt>
      <trkpt lat="41.02353" lon="-1.34857">
        <ele>807.347122</ele>
        <time>2022-02-22T19:19:52.962Z</time>
      </trkpt>
      <trkpt lat="41.02326" lon="-1.34777">
        <ele>807.872619</ele>
        <time>2022-02-22T19:20:18.925Z</time>
      </trkpt>
      <trkpt lat="41.02277" lon="-1.34714">
        <ele>808.257046</ele>
        <time>2022-02-22T19:20:47.274Z</time>
      </trkpt>
      <trkpt lat="41.02248" lon="-1.34704">
        <ele>808.423686</ele>
        <time>2022-02-22T19:20:59.311Z</time>
      </trkpt>
      <trkpt lat="41.02212" lon="-1.34714">
        <ele>808.626208</ele>
        <time>2022-02-22T19:21:13.308Z</time>
      </trkpt>
      <trkpt lat="41.02199" lon="-1.34713">
        <ele>808.700418</ele>
        <time>2022-02-22T19:21:18.696Z</time>
      </trkpt>
      <trkpt lat="41.02179" lon="-1.34702">
        <ele>808.818039</ele>
        <time>2022-02-22T19:21:26.838Z</time>
      </trkpt>
      <trkpt lat="41.02114" lon="-1.34629">
        <ele>809.333349</ele>
        <time>2022-02-22T19:22:00.312Z</time>
      </trkpt>
      <trkpt lat="41.02092" lon="-1.34579">
        <ele>809.599285</ele>
        <time>2022-02-22T19:22:18.222Z</time>
      </trkpt>
      <trkpt lat="41.02083" lon="-1.34529">
        <ele>809.837755</ele>
        <time>2022-02-22T19:22:34.208Z</time>
      </trkpt>
      <trkpt lat="41.02053" lon="-1.34461">
        <ele>810.17951</ele>
        <time>2022-02-22T19:22:58.380Z</time>
      </trkpt>
      <trkpt lat="41.02001" lon="-1.3438">
        <ele>810.61993</ele>
        <time>2022-02-22T19:23:30.253Z</time>
      </trkpt>
      <trkpt lat="41.01946" lon="-1.34318">
        <ele>810.985788</ele>
        <time>2022-02-22T19:23:48.891Z</time>
      </trkpt>
      <trkpt lat="41.01949" lon="-1.34313">
        <ele>810.990239</ele>
        <time>2022-02-22T19:23:50.095Z</time>
      </trkpt>
      <trkpt lat="41.01951" lon="-1.34289">
        <ele>811.006517</ele>
        <time>2022-02-22T19:23:54.552Z</time>
      </trkpt>
      <trkpt lat="41.01946" lon="-1.34273">
        <ele>811.017906</ele>
        <time>2022-02-22T19:23:57.969Z</time>
      </trkpt>
      <trkpt lat="41.01873" lon="-1.34198">
        <ele>811.100372</ele>
        <time>2022-02-22T19:24:19.029Z</time>
      </trkpt>
      <trkpt lat="41.01853" lon="-1.34171">
        <ele>811.126094</ele>
        <time>2022-02-22T19:24:29.509Z</time>
      </trkpt>
      <trkpt lat="41.0182" lon="-1.34138">
        <ele>811.253521</ele>
        <time>2022-02-22T19:24:44.880Z</time>
      </trkpt>
      <trkpt lat="41.01779" lon="-1.34067">
        <ele>811.551494</ele>
        <time>2022-02-22T19:25:10.800Z</time>
      </trkpt>
      <trkpt lat="41.01725" lon="-1.33992">
        <ele>811.897338</ele>
        <time>2022-02-22T19:25:42.828Z</time>
      </trkpt>
      <trkpt lat="41.01687" lon="-1.3396">
        <ele>812.126208</ele>
        <time>2022-02-22T19:26:01.081Z</time>
      </trkpt>
      <trkpt lat="41.0161" lon="-1.33926">
        <ele>812.558118</ele>
        <time>2022-02-22T19:26:34.078Z</time>
      </trkpt>
      <trkpt lat="41.01545" lon="-1.3391">
        <ele>812.881888</ele>
        <time>2022-02-22T19:26:59.572Z</time>
      </trkpt>
      <trkpt lat="41.01464" lon="-1.33914">
        <ele>812.818586</ele>
        <time>2022-02-22T19:27:29.531Z</time>
      </trkpt>
      <trkpt lat="41.01409" lon="-1.33904">
        <ele>812.77467</ele>
        <time>2022-02-22T19:27:49.594Z</time>
      </trkpt>
      <trkpt lat="41.01318" lon="-1.33821">
        <ele>812.925939</ele>
        <time>2022-02-22T19:28:30.595Z</time>
      </trkpt>
      <trkpt lat="41.01294" lon="-1.3379">
        <ele>813.012788</ele>
        <time>2022-02-22T19:28:43.824Z</time>
      </trkpt>
      <trkpt lat="41.01256" lon="-1.33715">
        <ele>813.185417</ele>
        <time>2022-02-22T19:29:10.256Z</time>
      </trkpt>
      <trkpt lat="41.01233" lon="-1.33682">
        <ele>813.340785</ele>
        <time>2022-02-22T19:29:23.770Z</time>
      </trkpt>
      <trkpt lat="41.01188" lon="-1.33629">
        <ele>813.649653</ele>
        <time>2022-02-22T19:29:47.949Z</time>
      </trkpt>
      <trkpt lat="41.01153" lon="-1.33607">
        <ele>813.845669</ele>
        <time>2022-02-22T19:30:03.301Z</time>
      </trkpt>
      <trkpt lat="41.01074" lon="-1.33494">
        <ele>814.443292</ele>
        <time>2022-02-22T19:30:48.650Z</time>
      </trkpt>
      <trkpt lat="41.01058" lon="-1.3348">
        <ele>814.54247</ele>
        <time>2022-02-22T19:30:56.117Z</time>
      </trkpt>
      <trkpt lat="41.01033" lon="-1.33474">
        <ele>814.675145</ele>
        <time>2022-02-22T19:31:06.165Z</time>
      </trkpt>
      <trkpt lat="41.00961" lon="-1.33491">
        <ele>815.054456</ele>
        <time>2022-02-22T19:31:35.668Z</time>
      </trkpt>
      <trkpt lat="41.00944" lon="-1.33491">
        <ele>815.202237</ele>
        <time>2022-02-22T19:31:42.778Z</time>
      </trkpt>
      <trkpt lat="41.00899" lon="-1.33456">
        <ele>815.664233</ele>
        <time>2022-02-22T19:32:04.405Z</time>
      </trkpt>
      <trkpt lat="41.00799" lon="-1.33337">
        <ele>816.766371</ele>
        <time>2022-02-22T19:33:00.372Z</time>
      </trkpt>
      <trkpt lat="41.00739" lon="-1.33274">
        <ele>817.199071</ele>
        <time>2022-02-22T19:33:31.390Z</time>
      </trkpt>
      <trkpt lat="41.00656" lon="-1.33003">
        <ele>818.346173</ele>
        <time>2022-02-22T19:34:56.599Z</time>
      </trkpt>
      <trkpt lat="41.00627" lon="-1.32888">
        <ele>819.119502</ele>
        <time>2022-02-22T19:35:35.235Z</time>
      </trkpt>
      <trkpt lat="41.00627" lon="-1.32819">
        <ele>819.698798</ele>
        <time>2022-02-22T19:35:57.292Z</time>
      </trkpt>
      <trkpt lat="41.00616" lon="-1.32787">
        <ele>819.984563</ele>
        <time>2022-02-22T19:36:08.614Z</time>
      </trkpt>
      <trkpt lat="41.006" lon="-1.32764">
        <ele>820.250603</ele>
        <time>2022-02-22T19:36:18.861Z</time>
      </trkpt>
      <trkpt lat="41.00585" lon="-1.32747">
        <ele>820.471981</ele>
        <time>2022-02-22T19:36:27.432Z</time>
      </trkpt>
      <trkpt lat="41.00558" lon="-1.32734">
        <ele>820.745057</ele>
        <time>2022-02-22T19:36:40.128Z</time>
      </trkpt>
      <trkpt lat="41.00518" lon="-1.32733">
        <ele>821.114234</ele>
        <time>2022-02-22T19:36:57.554Z</time>
      </trkpt>
      <trkpt lat="41.00481" lon="-1.32754">
        <ele>821.482468</ele>
        <time>2022-02-22T19:37:14.691Z</time>
      </trkpt>
      <trkpt lat="41.00413" lon="-1.32783">
        <ele>822.141846</ele>
        <time>2022-02-22T19:37:43.025Z</time>
      </trkpt>
      <trkpt lat="41.00385" lon="-1.32779">
        <ele>822.273184</ele>
        <time>2022-02-22T19:37:54.075Z</time>
      </trkpt>
      <trkpt lat="41.00348" lon="-1.32749">
        <ele>822.435445</ele>
        <time>2022-02-22T19:38:11.038Z</time>
      </trkpt>
      <trkpt lat="41.00328" lon="-1.32726">
        <ele>822.535859</ele>
        <time>2022-02-22T19:38:21.451Z</time>
      </trkpt>
      <trkpt lat="41.00319" lon="-1.32667">
        <ele>822.705822</ele>
        <time>2022-02-22T19:38:39.028Z</time>
      </trkpt>
      <trkpt lat="41.00309" lon="-1.32651">
        <ele>822.764351</ele>
        <time>2022-02-22T19:38:45.083Z</time>
      </trkpt>
      <trkpt lat="41.00293" lon="-1.3264">
        <ele>822.831937</ele>
        <time>2022-02-22T19:38:52.095Z</time>
      </trkpt>
      <trkpt lat="41.0025" lon="-1.32637">
        <ele>823.033287</ele>
        <time>2022-02-22T19:39:08.959Z</time>
      </trkpt>
      <trkpt lat="41.00213" lon="-1.3262">
        <ele>823.222427</ele>
        <time>2022-02-22T19:39:24.142Z</time>
      </trkpt>
      <trkpt lat="41.0019" lon="-1.32624">
        <ele>823.333178</ele>
        <time>2022-02-22T19:39:32.986Z</time>
      </trkpt>
      <trkpt lat="41.00157" lon="-1.32658">
        <ele>823.535829</ele>
        <time>2022-02-22T19:39:49.621Z</time>
      </trkpt>
      <trkpt lat="41.0007" lon="-1.32709">
        <ele>824.344549</ele>
        <time>2022-02-22T19:40:28.372Z</time>
      </trkpt>
      <trkpt lat="41.00055" lon="-1.32709">
        <ele>824.514956</ele>
        <time>2022-02-22T19:40:34.635Z</time>
      </trkpt>
      <trkpt lat="41.00026" lon="-1.32694">
        <ele>824.86455</ele>
        <time>2022-02-22T19:40:47.735Z</time>
      </trkpt>
      <trkpt lat="40.99875" lon="-1.32606">
        <ele>827.017284</ele>
        <time>2022-02-22T19:42:00.816Z</time>
      </trkpt>
      <trkpt lat="40.99853" lon="-1.32563">
        <ele>827.592967</ele>
        <time>2022-02-22T19:42:18.372Z</time>
      </trkpt>
      <trkpt lat="40.99829" lon="-1.32487">
        <ele>828.484635</ele>
        <time>2022-02-22T19:42:46.296Z</time>
      </trkpt>
      <trkpt lat="40.99818" lon="-1.32471">
        <ele>828.675587</ele>
        <time>2022-02-22T19:42:53.801Z</time>
      </trkpt>
      <trkpt lat="40.99671" lon="-1.32451">
        <ele>830.371935</ele>
        <time>2022-02-22T19:43:57.119Z</time>
      </trkpt>
      <trkpt lat="40.99651" lon="-1.32437">
        <ele>830.529971</ele>
        <time>2022-02-22T19:44:06.309Z</time>
      </trkpt>
      <trkpt lat="40.99607" lon="-1.32389">
        <ele>830.793884</ele>
        <time>2022-02-22T19:44:28.819Z</time>
      </trkpt>
      <trkpt lat="40.99506" lon="-1.3225">
        <ele>831.433987</ele>
        <time>2022-02-22T19:45:25.132Z</time>
      </trkpt>
      <trkpt lat="40.99477" lon="-1.32175">
        <ele>831.659132</ele>
        <time>2022-02-22T19:45:49.634Z</time>
      </trkpt>
      <trkpt lat="40.99446" lon="-1.32135">
        <ele>831.811783</ele>
        <time>2022-02-22T19:46:06.272Z</time>
      </trkpt>
      <trkpt lat="40.9942" lon="-1.32072">
        <ele>832.035183</ele>
        <time>2022-02-22T19:46:27.471Z</time>
      </trkpt>
      <trkpt lat="40.99404" lon="-1.32051">
        <ele>832.148534</ele>
        <time>2022-02-22T19:46:36.136Z</time>
      </trkpt>
      <trkpt lat="40.99369" lon="-1.32028">
        <ele>832.346543</ele>
        <time>2022-02-22T19:46:51.559Z</time>
      </trkpt>
      <trkpt lat="40.99319" lon="-1.32013">
        <ele>832.610967</ele>
        <time>2022-02-22T19:47:12.295Z</time>
      </trkpt>
      <trkpt lat="40.99304" lon="-1.32002">
        <ele>832.698634</ele>
        <time>2022-02-22T19:47:19.132Z</time>
      </trkpt>
      <trkpt lat="40.99102" lon="-1.31743">
        <ele>834.522257</ele>
        <time>2022-02-22T19:49:13.777Z</time>
      </trkpt>
      <trkpt lat="40.99093" lon="-1.31714">
        <ele>834.640456</ele>
        <time>2022-02-22T19:49:23.042Z</time>
      </trkpt>
      <trkpt lat="40.9908" lon="-1.3162">
        <ele>834.9985</ele>
        <time>2022-02-22T19:49:50.834Z</time>
      </trkpt>
      <trkpt lat="40.9909" lon="-1.31515">
        <ele>835.20612</ele>
        <time>2022-02-22T19:50:20.870Z</time>
      </trkpt>
      <trkpt lat="40.9909" lon="-1.31473">
        <ele>835.272165</ele>
        <time>2022-02-22T19:50:32.892Z</time>
      </trkpt>
      <trkpt lat="40.99084" lon="-1.3143">
        <ele>835.340752</ele>
        <time>2022-02-22T19:50:45.326Z</time>
      </trkpt>
      <trkpt lat="40.99076" lon="-1.31399">
        <ele>835.393176</ele>
        <time>2022-02-22T19:50:54.889Z</time>
      </trkpt>
      <trkpt lat="40.99023" lon="-1.31333">
        <ele>835.776176</ele>
        <time>2022-02-22T19:51:23.101Z</time>
      </trkpt>
      <trkpt lat="40.98978" lon="-1.31294">
        <ele>836.14663</ele>
        <time>2022-02-22T19:51:44.487Z</time>
      </trkpt>
      <trkpt lat="40.98966" lon="-1.31274">
        <ele>836.282813</ele>
        <time>2022-02-22T19:51:52.733Z</time>
      </trkpt>
      <trkpt lat="40.98941" lon="-1.31209">
        <ele>836.661653</ele>
        <time>2022-02-22T19:52:16.002Z</time>
      </trkpt>
      <trkpt lat="40.9893" lon="-1.31194">
        <ele>836.7785</ele>
        <time>2022-02-22T19:52:22.737Z</time>
      </trkpt>
      <trkpt lat="40.98873" lon="-1.31167">
        <ele>837.233156</ele>
        <time>2022-02-22T19:52:47.935Z</time>
      </trkpt>
      <trkpt lat="40.98841" lon="-1.31139">
        <ele>837.515348</ele>
        <time>2022-02-22T19:53:03.251Z</time>
      </trkpt>
      <trkpt lat="40.98805" lon="-1.31088">
        <ele>837.908582</ele>
        <time>2022-02-22T19:53:24.385Z</time>
      </trkpt>
      <trkpt lat="40.98741" lon="-1.31012">
        <ele>838.38233</ele>
        <time>2022-02-22T19:53:58.694Z</time>
      </trkpt>
      <trkpt lat="40.98736" lon="-1.30958">
        <ele>838.589312</ele>
        <time>2022-02-22T19:54:14.508Z</time>
      </trkpt>
      <trkpt lat="40.9873" lon="-1.30938">
        <ele>838.669304</ele>
        <time>2022-02-22T19:54:20.687Z</time>
      </trkpt>
      <trkpt lat="40.98717" lon="-1.30925">
        <ele>838.749741</ele>
        <time>2022-02-22T19:54:26.954Z</time>
      </trkpt>
      <trkpt lat="40.98697" lon="-1.30916">
        <ele>838.856451</ele>
        <time>2022-02-22T19:54:35.432Z</time>
      </trkpt>
      <trkpt lat="40.98664" lon="-1.30908">
        <ele>839.147222</ele>
        <time>2022-02-22T19:54:48.920Z</time>
      </trkpt>
      <trkpt lat="40.98638" lon="-1.30908">
        <ele>839.448613</ele>
        <time>2022-02-22T19:54:59.606Z</time>
      </trkpt>
      <trkpt lat="40.98586" lon="-1.30931">
        <ele>840.085404</ele>
        <time>2022-02-22T19:55:23.347Z</time>
      </trkpt>
      <trkpt lat="40.98552" lon="-1.30938">
        <ele>840.48503</ele>
        <time>2022-02-22T19:55:38.340Z</time>
      </trkpt>
      <trkpt lat="40.98518" lon="-1.30938">
        <ele>840.889206</ele>
        <time>2022-02-22T19:55:53.619Z</time>
      </trkpt>
      <trkpt lat="40.98486" lon="-1.3093">
        <ele>841.315107</ele>
        <time>2022-02-22T19:56:07.924Z</time>
      </trkpt>
      <trkpt lat="40.98457" lon="-1.30918">
        <ele>841.751143</ele>
        <time>2022-02-22T19:56:21.701Z</time>
      </trkpt>
      <trkpt lat="40.98387" lon="-1.3091">
        <ele>842.76139</ele>
        <time>2022-02-22T19:56:53.366Z</time>
      </trkpt>
      <trkpt lat="40.98297" lon="-1.30926">
        <ele>843.788336</ele>
        <time>2022-02-22T19:57:32.689Z</time>
      </trkpt>
      <trkpt lat="40.98253" lon="-1.30952">
        <ele>844.0649</ele>
        <time>2022-02-22T19:57:52.279Z</time>
      </trkpt>
      <trkpt lat="40.98199" lon="-1.30933">
        <ele>844.380246</ele>
        <time>2022-02-22T19:58:14.048Z</time>
      </trkpt>
      <trkpt lat="40.98125" lon="-1.30957">
        <ele>844.706546</ele>
        <time>2022-02-22T19:58:42.822Z</time>
      </trkpt>
      <trkpt lat="40.98027" lon="-1.30948">
        <ele>844.930592</ele>
        <time>2022-02-22T19:59:19.196Z</time>
      </trkpt>
      <trkpt lat="40.97956" lon="-1.30955">
        <ele>845.422442</ele>
        <time>2022-02-22T19:59:47.176Z</time>
      </trkpt>
      <trkpt lat="40.97925" lon="-1.30936">
        <ele>846.002237</ele>
        <time>2022-02-22T20:00:01.487Z</time>
      </trkpt>
      <trkpt lat="40.9788" lon="-1.30879">
        <ele>847.07122</ele>
        <time>2022-02-22T20:00:30.094Z</time>
      </trkpt>
      <trkpt lat="40.97862" lon="-1.30865">
        <ele>847.422874</ele>
        <time>2022-02-22T20:00:40.025Z</time>
      </trkpt>
      <trkpt lat="40.97807" lon="-1.30849">
        <ele>848.460443</ele>
        <time>2022-02-22T20:01:08.546Z</time>
      </trkpt>
      <trkpt lat="40.97741" lon="-1.30815">
        <ele>850.012156</ele>
        <time>2022-02-22T20:01:44.831Z</time>
      </trkpt>
      <trkpt lat="40.97704" lon="-1.30821">
        <ele>850.841299</ele>
        <time>2022-02-22T20:02:03.381Z</time>
      </trkpt>
      <trkpt lat="40.97688" lon="-1.30831">
        <ele>851.221709</ele>
        <time>2022-02-22T20:02:11.585Z</time>
      </trkpt>
      <trkpt lat="40.97659" lon="-1.30888">
        <ele>852.098517</ele>
        <time>2022-02-22T20:02:34.426Z</time>
      </trkpt>
      <trkpt lat="40.97643" lon="-1.30953">
        <ele>852.226645</ele>
        <time>2022-02-22T20:02:55.286Z</time>
      </trkpt>
      <trkpt lat="40.97614" lon="-1.31005">
        <ele>852.349304</ele>
        <time>2022-02-22T20:03:13.633Z</time>
      </trkpt>
      <trkpt lat="40.97594" lon="-1.31074">
        <ele>852.488603</ele>
        <time>2022-02-22T20:03:33.663Z</time>
      </trkpt>
      <trkpt lat="40.9759" lon="-1.31118">
        <ele>852.490945</ele>
        <time>2022-02-22T20:03:45.454Z</time>
      </trkpt>
      <trkpt lat="40.97593" lon="-1.31174">
        <ele>852.447688</ele>
        <time>2022-02-22T20:04:00.854Z</time>
      </trkpt>
      <trkpt lat="40.97583" lon="-1.31219">
        <ele>852.411767</ele>
        <time>2022-02-22T20:04:13.980Z</time>
      </trkpt>
      <trkpt lat="40.9747" lon="-1.31401">
        <ele>852.387555</ele>
        <time>2022-02-22T20:05:21.490Z</time>
      </trkpt>
      <trkpt lat="40.9743" lon="-1.31518">
        <ele>852.448986</ele>
        <time>2022-02-22T20:05:57.162Z</time>
      </trkpt>
      <trkpt lat="40.97412" lon="-1.31557">
        <ele>852.484727</ele>
        <time>2022-02-22T20:06:09.783Z</time>
      </trkpt>
      <trkpt lat="40.97391" lon="-1.31638">
        <ele>852.551496</ele>
        <time>2022-02-22T20:06:33.557Z</time>
      </trkpt>
      <trkpt lat="40.97378" lon="-1.3165">
        <ele>852.568573</ele>
        <time>2022-02-22T20:06:39.870Z</time>
      </trkpt>
      <trkpt lat="40.97314" lon="-1.31687">
        <ele>852.762689</ele>
        <time>2022-02-22T20:07:07.064Z</time>
      </trkpt>
      <trkpt lat="40.97293" lon="-1.31721">
        <ele>852.981419</ele>
        <time>2022-02-22T20:07:20.133Z</time>
      </trkpt>
      <trkpt lat="40.97271" lon="-1.31716">
        <ele>853.124907</ele>
        <time>2022-02-22T20:07:28.839Z</time>
      </trkpt>
      <trkpt lat="40.97254" lon="-1.31697">
        <ele>853.269344</ele>
        <time>2022-02-22T20:07:37.794Z</time>
      </trkpt>
      <trkpt lat="40.97235" lon="-1.31653">
        <ele>853.525408</ele>
        <time>2022-02-22T20:07:53.739Z</time>
      </trkpt>
      <trkpt lat="40.97216" lon="-1.31593">
        <ele>853.844557</ele>
        <time>2022-02-22T20:08:14.026Z</time>
      </trkpt>
      <trkpt lat="40.9718" lon="-1.31557">
        <ele>854.11131</ele>
        <time>2022-02-22T20:08:32.921Z</time>
      </trkpt>
      <trkpt lat="40.97014" lon="-1.31505">
        <ele>854.926586</ele>
        <time>2022-02-22T20:09:40.362Z</time>
      </trkpt>
      <trkpt lat="40.96979" lon="-1.31501">
        <ele>854.971885</ele>
        <time>2022-02-22T20:09:53.571Z</time>
      </trkpt>
      <trkpt lat="40.96937" lon="-1.31508">
        <ele>855.02627</ele>
        <time>2022-02-22T20:10:09.159Z</time>
      </trkpt>
      <trkpt lat="40.96899" lon="-1.31501">
        <ele>855.07606</ele>
        <time>2022-02-22T20:10:23.408Z</time>
      </trkpt>
      <trkpt lat="40.9681" lon="-1.3146">
        <ele>855.409551</ele>
        <time>2022-02-22T20:10:58.327Z</time>
      </trkpt>
      <trkpt lat="40.96746" lon="-1.31453">
        <ele>855.677114</ele>
        <time>2022-02-22T20:11:23.566Z</time>
      </trkpt>
      <trkpt lat="40.96694" lon="-1.31412">
        <ele>856.003842</ele>
        <time>2022-02-22T20:11:48.881Z</time>
      </trkpt>
      <trkpt lat="40.96671" lon="-1.31412">
        <ele>856.195598</ele>
        <time>2022-02-22T20:11:58.419Z</time>
      </trkpt>
      <trkpt lat="40.96636" lon="-1.31423">
        <ele>856.49982</ele>
        <time>2022-02-22T20:12:13.663Z</time>
      </trkpt>
      <trkpt lat="40.96597" lon="-1.31404">
        <ele>856.848953</ele>
        <time>2022-02-22T20:12:31.038Z</time>
      </trkpt>
      <trkpt lat="40.96541" lon="-1.31378">
        <ele>857.351801</ele>
        <time>2022-02-22T20:12:55.396Z</time>
      </trkpt>
      <trkpt lat="40.96498" lon="-1.31331">
        <ele>857.422289</ele>
        <time>2022-02-22T20:13:17.464Z</time>
      </trkpt>
      <trkpt lat="40.96484" lon="-1.31321">
        <ele>857.437172</ele>
        <time>2022-02-22T20:13:23.493Z</time>
      </trkpt>
      <trkpt lat="40.96405" lon="-1.31306">
        <ele>857.513342</ele>
        <time>2022-02-22T20:13:52.529Z</time>
      </trkpt>
      <trkpt lat="40.96256" lon="-1.31264">
        <ele>857.559728</ele>
        <time>2022-02-22T20:14:48.096Z</time>
      </trkpt>
      <trkpt lat="40.9624" lon="-1.31266">
        <ele>857.561906</ele>
        <time>2022-02-22T20:14:54.121Z</time>
      </trkpt>
      <trkpt lat="40.96118" lon="-1.31329">
        <ele>858.162746</ele>
        <time>2022-02-22T20:15:45.824Z</time>
      </trkpt>
      <trkpt lat="40.96071" lon="-1.3134">
        <ele>858.491821</ele>
        <time>2022-02-22T20:16:05.791Z</time>
      </trkpt>
      <trkpt lat="40.96045" lon="-1.31341">
        <ele>858.665757</ele>
        <time>2022-02-22T20:16:16.328Z</time>
      </trkpt>
      <trkpt lat="40.95979" lon="-1.31324">
        <ele>859.308698</ele>
        <time>2022-02-22T20:16:44.500Z</time>
      </trkpt>
      <trkpt lat="40.95955" lon="-1.31324">
        <ele>859.562135</ele>
        <time>2022-02-22T20:16:54.727Z</time>
      </trkpt>
      <trkpt lat="40.95903" lon="-1.31353">
        <ele>860.151894</ele>
        <time>2022-02-22T20:17:18.966Z</time>
      </trkpt>
      <trkpt lat="40.95817" lon="-1.31344">
        <ele>861.080299</ele>
        <time>2022-02-22T20:17:56.107Z</time>
      </trkpt>
      <trkpt lat="40.95782" lon="-1.31333">
        <ele>861.475518</ele>
        <time>2022-02-22T20:18:11.521Z</time>
      </trkpt>
      <trkpt lat="40.95734" lon="-1.31334">
        <ele>861.998079</ele>
        <time>2022-02-22T20:18:31.978Z</time>
      </trkpt>
      <trkpt lat="40.95676" lon="-1.3132">
        <ele>862.641934</ele>
        <time>2022-02-22T20:18:56.768Z</time>
      </trkpt>
      <trkpt lat="40.95593" lon="-1.3128">
        <ele>863.397437</ele>
        <time>2022-02-22T20:19:32.770Z</time>
      </trkpt>
      <trkpt lat="40.95555" lon="-1.31287">
        <ele>863.725602</ele>
        <time>2022-02-22T20:19:48.532Z</time>
      </trkpt>
      <trkpt lat="40.95522" lon="-1.31276">
        <ele>864.016441</ele>
        <time>2022-02-22T20:20:02.649Z</time>
      </trkpt>
      <trkpt lat="40.9549" lon="-1.31278">
        <ele>864.262104</ele>
        <time>2022-02-22T20:20:15.949Z</time>
      </trkpt>
      <trkpt lat="40.95453" lon="-1.31271">
        <ele>864.498784</ele>
        <time>2022-02-22T20:20:31.546Z</time>
      </trkpt>
      <trkpt lat="40.95416" lon="-1.31282">
        <ele>864.744722</ele>
        <time>2022-02-22T20:20:47.596Z</time>
      </trkpt>
      <trkpt lat="40.95395" lon="-1.31282">
        <ele>864.874993</ele>
        <time>2022-02-22T20:20:56.013Z</time>
      </trkpt>
      <trkpt lat="40.95368" lon="-1.31279">
        <ele>865.048478</ele>
        <time>2022-02-22T20:21:06.980Z</time>
      </trkpt>
      <trkpt lat="40.95339" lon="-1.31263">
        <ele>865.244819</ele>
        <time>2022-02-22T20:21:19.051Z</time>
      </trkpt>
      <trkpt lat="40.95316" lon="-1.31258">
        <ele>865.296351</ele>
        <time>2022-02-22T20:21:27.902Z</time>
      </trkpt>
      <trkpt lat="40.95242" lon="-1.31264">
        <ele>865.062216</ele>
        <time>2022-02-22T20:21:54.996Z</time>
      </trkpt>
      <trkpt lat="40.95152" lon="-1.31218">
        <ele>864.76649</ele>
        <time>2022-02-22T20:22:29.322Z</time>
      </trkpt>
      <trkpt lat="40.95076" lon="-1.3121">
        <ele>864.939914</ele>
        <time>2022-02-22T20:22:56.630Z</time>
      </trkpt>
      <trkpt lat="40.94988" lon="-1.31186">
        <ele>865.142082</ele>
        <time>2022-02-22T20:23:32.320Z</time>
      </trkpt>
      <trkpt lat="40.94948" lon="-1.31187">
        <ele>865.517474</ele>
        <time>2022-02-22T20:23:49.765Z</time>
      </trkpt>
      <trkpt lat="40.94933" lon="-1.31174">
        <ele>865.735912</ele>
        <time>2022-02-22T20:23:57.419Z</time>
      </trkpt>
      <trkpt lat="40.94913" lon="-1.31148">
        <ele>866.083976</ele>
        <time>2022-02-22T20:24:09.981Z</time>
      </trkpt>
      <trkpt lat="40.94793" lon="-1.31056">
        <ele>867.557137</ele>
        <time>2022-02-22T20:25:10.687Z</time>
      </trkpt>
      <trkpt lat="40.94768" lon="-1.31005">
        <ele>867.799337</ele>
        <time>2022-02-22T20:25:29.281Z</time>
      </trkpt>
      <trkpt lat="40.94719" lon="-1.30957">
        <ele>868.118607</ele>
        <time>2022-02-22T20:25:52.690Z</time>
      </trkpt>
      <trkpt lat="40.94642" lon="-1.30867">
        <ele>868.319271</ele>
        <time>2022-02-22T20:26:30.278Z</time>
      </trkpt>
      <trkpt lat="40.94564" lon="-1.30701">
        <ele>868.45124</ele>
        <time>2022-02-22T20:27:24.751Z</time>
      </trkpt>
      <trkpt lat="40.94487" lon="-1.30641">
        <ele>868.924843</ele>
        <time>2022-02-22T20:28:01.276Z</time>
      </trkpt>
      <trkpt lat="40.94487" lon="-1.30579">
        <ele>869.171938</ele>
        <time>2022-02-22T20:28:20.102Z</time>
      </trkpt>
      <trkpt lat="40.94483" lon="-1.30557">
        <ele>869.258122</ele>
        <time>2022-02-22T20:28:27.618Z</time>
      </trkpt>
      <trkpt lat="40.94428" lon="-1.30495">
        <ele>869.531694</ele>
        <time>2022-02-22T20:28:56.773Z</time>
      </trkpt>
      <trkpt lat="40.94373" lon="-1.30453">
        <ele>869.773611</ele>
        <time>2022-02-22T20:29:21.592Z</time>
      </trkpt>
      <trkpt lat="40.94333" lon="-1.30449">
        <ele>869.923827</ele>
        <time>2022-02-22T20:29:36.098Z</time>
      </trkpt>
      <trkpt lat="40.94231" lon="-1.30368">
        <ele>869.631835</ele>
        <time>2022-02-22T20:30:19.068Z</time>
      </trkpt>
      <trkpt lat="40.94192" lon="-1.30354">
        <ele>869.530636</ele>
        <time>2022-02-22T20:30:33.627Z</time>
      </trkpt>
      <trkpt lat="40.9414" lon="-1.30322">
        <ele>869.435863</ele>
        <time>2022-02-22T20:30:54.623Z</time>
      </trkpt>
      <trkpt lat="40.94016" lon="-1.30265">
        <ele>869.291356</ele>
        <time>2022-02-22T20:31:42.778Z</time>
      </trkpt>
      <trkpt lat="40.93954" lon="-1.30254">
        <ele>869.375158</ele>
        <time>2022-02-22T20:32:06.545Z</time>
      </trkpt>
      <trkpt lat="40.9388" lon="-1.3026">
        <ele>869.521494</ele>
        <time>2022-02-22T20:32:34.686Z</time>
      </trkpt>
      <trkpt lat="40.93785" lon="-1.30236">
        <ele>869.806531</ele>
        <time>2022-02-22T20:33:11.435Z</time>
      </trkpt>
      <trkpt lat="40.93725" lon="-1.3021">
        <ele>870.081357</ele>
        <time>2022-02-22T20:33:36.681Z</time>
      </trkpt>
      <trkpt lat="40.93689" lon="-1.30207">
        <ele>870.23561</ele>
        <time>2022-02-22T20:33:51.207Z</time>
      </trkpt>
      <trkpt lat="40.93681" lon="-1.30183">
        <ele>870.320819</ele>
        <time>2022-02-22T20:33:59.323Z</time>
      </trkpt>
      <trkpt lat="40.93654" lon="-1.30171">
        <ele>870.428342</ele>
        <time>2022-02-22T20:34:10.576Z</time>
      </trkpt>
      <trkpt lat="40.93562" lon="-1.30156">
        <ele>870.656478</ele>
        <time>2022-02-22T20:34:46.726Z</time>
      </trkpt>
      <trkpt lat="40.93403" lon="-1.30146">
        <ele>871.016605</ele>
        <time>2022-02-22T20:35:46.024Z</time>
      </trkpt>
      <trkpt lat="40.93318" lon="-1.3013">
        <ele>871.19382</ele>
        <time>2022-02-22T20:36:17.999Z</time>
      </trkpt>
      <trkpt lat="40.9322" lon="-1.30139">
        <ele>871.790034</ele>
        <time>2022-02-22T20:36:58.801Z</time>
      </trkpt>
      <trkpt lat="40.93138" lon="-1.30149">
        <ele>872.335996</ele>
        <time>2022-02-22T20:37:32.588Z</time>
      </trkpt>
      <trkpt lat="40.92858" lon="-1.30183">
        <ele>873.53753</ele>
        <time>2022-02-22T20:39:19.774Z</time>
      </trkpt>
      <trkpt lat="40.92639" lon="-1.30181">
        <ele>875.60919</ele>
        <time>2022-02-22T20:40:53.927Z</time>
      </trkpt>
      <trkpt lat="40.9258" lon="-1.30174">
        <ele>876.257928</ele>
        <time>2022-02-22T20:41:18.936Z</time>
      </trkpt>
      <trkpt lat="40.92524" lon="-1.30182">
        <ele>876.766442</ele>
        <time>2022-02-22T20:41:42.494Z</time>
      </trkpt>
      <trkpt lat="40.92464" lon="-1.30189">
        <ele>877.309138</ele>
        <time>2022-02-22T20:41:58.544Z</time>
      </trkpt>
      <trkpt lat="40.92287" lon="-1.30195">
        <ele>879.687621</ele>
        <time>2022-02-22T20:42:49.182Z</time>
      </trkpt>
      <trkpt lat="40.92278" lon="-1.30194">
        <ele>879.82375</ele>
        <time>2022-02-22T20:42:52.071Z</time>
      </trkpt>
      <trkpt lat="40.92248" lon="-1.30188">
        <ele>880.295755</ele>
        <time>2022-02-22T20:43:02.583Z</time>
      </trkpt>
      <trkpt lat="40.92239" lon="-1.30185">
        <ele>880.43972</ele>
        <time>2022-02-22T20:43:05.896Z</time>
      </trkpt>
      <trkpt lat="40.92235" lon="-1.30184">
        <ele>880.495091</ele>
        <time>2022-02-22T20:43:07.167Z</time>
      </trkpt>
      <trkpt lat="40.92173" lon="-1.30165">
        <ele>881.949204</ele>
        <time>2022-02-22T20:43:31.103Z</time>
      </trkpt>
      <trkpt lat="40.92039" lon="-1.3015">
        <ele>884.922841</ele>
        <time>2022-02-22T20:44:17.509Z</time>
      </trkpt>
      <trkpt lat="40.92043" lon="-1.30188">
        <ele>885.213722</ele>
        <time>2022-02-22T20:44:26.709Z</time>
      </trkpt>
      <trkpt lat="40.92027" lon="-1.30227">
        <ele>885.553289</ele>
        <time>2022-02-22T20:44:37.001Z</time>
      </trkpt>
      <trkpt lat="40.92023" lon="-1.30233">
        <ele>885.610785</ele>
        <time>2022-02-22T20:44:38.639Z</time>
      </trkpt>
      <trkpt lat="40.92023" lon="-1.30235">
        <ele>885.627794</ele>
        <time>2022-02-22T20:44:39.150Z</time>
      </trkpt>
      <trkpt lat="40.92012" lon="-1.30258">
        <ele>885.834261</ele>
        <time>2022-02-22T20:44:44.922Z</time>
      </trkpt>
      <trkpt lat="40.9201" lon="-1.30272">
        <ele>885.939875</ele>
        <time>2022-02-22T20:44:47.777Z</time>
      </trkpt>
      <trkpt lat="40.91969" lon="-1.3035">
        <ele>886.607364</ele>
        <time>2022-02-22T20:45:05.031Z</time>
      </trkpt>
      <trkpt lat="40.91931" lon="-1.30453">
        <ele>886.621251</ele>
        <time>2022-02-22T20:45:24.523Z</time>
      </trkpt>
      <trkpt lat="40.91915" lon="-1.30455">
        <ele>886.623894</ele>
        <time>2022-02-22T20:45:28.405Z</time>
      </trkpt>
      <trkpt lat="40.91895" lon="-1.3041">
        <ele>886.630059</ele>
        <time>2022-02-22T20:45:37.288Z</time>
      </trkpt>
      <trkpt lat="40.91878" lon="-1.30385">
        <ele>886.634172</ele>
        <time>2022-02-22T20:45:43.015Z</time>
      </trkpt>
      <trkpt lat="40.91866" lon="-1.30374">
        <ele>886.693089</ele>
        <time>2022-02-22T20:45:46.329Z</time>
      </trkpt>
      <trkpt lat="40.91784" lon="-1.303">
        <ele>887.403118</ele>
        <time>2022-02-22T20:46:10.206Z</time>
      </trkpt>
      <trkpt lat="40.91765" lon="-1.30266">
        <ele>887.634331</ele>
        <time>2022-02-22T20:46:19.280Z</time>
      </trkpt>
      <trkpt lat="40.91714" lon="-1.30195">
        <ele>888.395074</ele>
        <time>2022-02-22T20:46:41.070Z</time>
      </trkpt>
      <trkpt lat="40.9169" lon="-1.30161">
        <ele>888.892521</ele>
        <time>2022-02-22T20:46:51.331Z</time>
      </trkpt>
      <trkpt lat="40.91676" lon="-1.30142">
        <ele>889.173967</ele>
        <time>2022-02-22T20:46:57.130Z</time>
      </trkpt>
      <trkpt lat="40.91672" lon="-1.30136">
        <ele>889.266097</ele>
        <time>2022-02-22T20:46:59.034Z</time>
      </trkpt>
      <trkpt lat="40.91662" lon="-1.30123">
        <ele>889.459699</ele>
        <time>2022-02-22T20:47:03.183Z</time>
      </trkpt>
      <trkpt lat="40.91626" lon="-1.30138">
        <ele>889.994009</ele>
        <time>2022-02-22T20:47:15.061Z</time>
      </trkpt>
      <trkpt lat="40.91543" lon="-1.30176">
        <ele>890.924196</ele>
        <time>2022-02-22T20:47:41.304Z</time>
      </trkpt>
      <trkpt lat="40.91505" lon="-1.3019">
        <ele>891.24919</ele>
        <time>2022-02-22T20:47:51.900Z</time>
      </trkpt>
      <trkpt lat="40.91493" lon="-1.30211">
        <ele>891.407728</ele>
        <time>2022-02-22T20:47:56.967Z</time>
      </trkpt>
      <trkpt lat="40.9146" lon="-1.30244">
        <ele>891.754382</ele>
        <time>2022-02-22T20:48:07.942Z</time>
      </trkpt>
      <trkpt lat="40.91314" lon="-1.30307">
        <ele>892.262567</ele>
        <time>2022-02-22T20:48:45.731Z</time>
      </trkpt>
      <trkpt lat="40.91246" lon="-1.30315">
        <ele>892.387778</ele>
        <time>2022-02-22T20:49:01.624Z</time>
      </trkpt>
      <trkpt lat="40.91203" lon="-1.30311">
        <ele>892.391029</ele>
        <time>2022-02-22T20:49:11.760Z</time>
      </trkpt>
      <trkpt lat="40.9113" lon="-1.30309">
        <ele>892.396521</ele>
        <time>2022-02-22T20:49:28.901Z</time>
      </trkpt>
      <trkpt lat="40.91027" lon="-1.30321">
        <ele>892.380612</ele>
        <time>2022-02-22T20:49:52.679Z</time>
      </trkpt>
      <trkpt lat="40.90979" lon="-1.30327">
        <ele>892.36397</ele>
        <time>2022-02-22T20:50:03.975Z</time>
      </trkpt>
      <trkpt lat="40.90959" lon="-1.30319">
        <ele>892.356811</ele>
        <time>2022-02-22T20:50:09.002Z</time>
      </trkpt>
      <trkpt lat="40.90919" lon="-1.30335">
        <ele>892.342634</ele>
        <time>2022-02-22T20:50:24.275Z</time>
      </trkpt>
      <trkpt lat="40.90866" lon="-1.30335">
        <ele>892.260947</ele>
        <time>2022-02-22T20:50:43.709Z</time>
      </trkpt>
      <trkpt lat="40.90736" lon="-1.3038">
        <ele>892.008612</ele>
        <time>2022-02-22T20:51:32.417Z</time>
      </trkpt>
      <trkpt lat="40.90627" lon="-1.30459">
        <ele>892.276933</ele>
        <time>2022-02-22T20:52:19.224Z</time>
      </trkpt>
      <trkpt lat="40.90577" lon="-1.30517">
        <ele>892.46116</ele>
        <time>2022-02-22T20:52:45.227Z</time>
      </trkpt>
      <trkpt lat="40.90455" lon="-1.30547">
        <ele>893.323612</ele>
        <time>2022-02-22T20:53:35.451Z</time>
      </trkpt>
      <trkpt lat="40.90369" lon="-1.30552">
        <ele>893.971649</ele>
        <time>2022-02-22T20:54:11.212Z</time>
      </trkpt>
      <trkpt lat="40.90277" lon="-1.30552">
        <ele>894.740024</ele>
        <time>2022-02-22T20:54:49.516Z</time>
      </trkpt>
      <trkpt lat="40.9021" lon="-1.30532">
        <ele>895.272251</ele>
        <time>2022-02-22T20:55:17.301Z</time>
      </trkpt>
      <trkpt lat="40.90175" lon="-1.30558">
        <ele>895.527539</ele>
        <time>2022-02-22T20:55:33.634Z</time>
      </trkpt>
      <trkpt lat="40.90121" lon="-1.30552">
        <ele>895.866316</ele>
        <time>2022-02-22T20:55:54.961Z</time>
      </trkpt>
      <trkpt lat="40.90082" lon="-1.30536">
        <ele>896.121509</ele>
        <time>2022-02-22T20:56:11.031Z</time>
      </trkpt>
      <trkpt lat="40.90051" lon="-1.3057">
        <ele>896.376508</ele>
        <time>2022-02-22T20:56:27.483Z</time>
      </trkpt>
      <trkpt lat="40.90032" lon="-1.30693">
        <ele>896.987896</ele>
        <time>2022-02-22T20:57:05.525Z</time>
      </trkpt>
      <trkpt lat="40.90008" lon="-1.30732">
        <ele>897.231492</ele>
        <time>2022-02-22T20:57:20.866Z</time>
      </trkpt>
      <trkpt lat="40.8993" lon="-1.30803">
        <ele>897.886658</ele>
        <time>2022-02-22T20:57:59.536Z</time>
      </trkpt>
      <trkpt lat="40.89761" lon="-1.30936">
        <ele>899.23957</ele>
        <time>2022-02-22T20:59:19.551Z</time>
      </trkpt>
      <trkpt lat="40.89639" lon="-1.31099">
        <ele>900.295535</ele>
        <time>2022-02-22T21:00:28.736Z</time>
      </trkpt>
      <trkpt lat="40.8956" lon="-1.31144">
        <ele>900.790628</ele>
        <time>2022-02-22T21:01:02.603Z</time>
      </trkpt>
      <trkpt lat="40.89521" lon="-1.31202">
        <ele>901.280688</ele>
        <time>2022-02-22T21:01:26.507Z</time>
      </trkpt>
      <trkpt lat="40.89484" lon="-1.31232">
        <ele>901.722608</ele>
        <time>2022-02-22T21:01:44.797Z</time>
      </trkpt>
      <trkpt lat="40.89359" lon="-1.31487">
        <ele>903.820409</ele>
        <time>2022-02-22T21:03:23.170Z</time>
      </trkpt>
      <trkpt lat="40.89219" lon="-1.31631">
        <ele>904.419472</ele>
        <time>2022-02-22T21:04:30.459Z</time>
      </trkpt>
      <trkpt lat="40.89148" lon="-1.31644">
        <ele>904.492229</ele>
        <time>2022-02-22T21:04:57.111Z</time>
      </trkpt>
      <trkpt lat="40.89115" lon="-1.31657">
        <ele>904.48928</ele>
        <time>2022-02-22T21:05:09.653Z</time>
      </trkpt>
      <trkpt lat="40.89028" lon="-1.31663">
        <ele>904.481665</ele>
        <time>2022-02-22T21:05:42.007Z</time>
      </trkpt>
      <trkpt lat="40.88835" lon="-1.3179">
        <ele>904.547257</ele>
        <time>2022-02-22T21:07:01.538Z</time>
      </trkpt>
      <trkpt lat="40.88803" lon="-1.31803">
        <ele>904.763967</ele>
        <time>2022-02-22T21:07:14.891Z</time>
      </trkpt>
      <trkpt lat="40.88739" lon="-1.31796">
        <ele>905.230917</ele>
        <time>2022-02-22T21:07:41.212Z</time>
      </trkpt>
      <trkpt lat="40.88697" lon="-1.31798">
        <ele>905.539588</ele>
        <time>2022-02-22T21:07:58.897Z</time>
      </trkpt>
      <trkpt lat="40.88653" lon="-1.31848">
        <ele>905.920116</ele>
        <time>2022-02-22T21:08:22.992Z</time>
      </trkpt>
      <trkpt lat="40.88645" lon="-1.31875">
        <ele>906.010499</ele>
        <time>2022-02-22T21:08:32.417Z</time>
      </trkpt>
      <trkpt lat="40.88629" lon="-1.32118">
        <ele>906.591903</ele>
        <time>2022-02-22T21:09:42.975Z</time>
      </trkpt>
      <trkpt lat="40.88653" lon="-1.32208">
        <ele>906.596936</ele>
        <time>2022-02-22T21:10:09.632Z</time>
      </trkpt>
      <trkpt lat="40.88649" lon="-1.32234">
        <ele>906.598324</ele>
        <time>2022-02-22T21:10:16.977Z</time>
      </trkpt>
      <trkpt lat="40.88549" lon="-1.32337">
        <ele>906.578035</ele>
        <time>2022-02-22T21:11:03.490Z</time>
      </trkpt>
      <trkpt lat="40.8842" lon="-1.32526">
        <ele>906.644256</ele>
        <time>2022-02-22T21:12:14.767Z</time>
      </trkpt>
      <trkpt lat="40.88344" lon="-1.32609">
        <ele>906.782191</ele>
        <time>2022-02-22T21:12:52.322Z</time>
      </trkpt>
      <trkpt lat="40.88268" lon="-1.32683">
        <ele>907.208276</ele>
        <time>2022-02-22T21:13:15.869Z</time>
      </trkpt>
      <trkpt lat="40.88211" lon="-1.32762">
        <ele>907.576724</ele>
        <time>2022-02-22T21:13:36.187Z</time>
      </trkpt>
      <trkpt lat="40.88183" lon="-1.32777">
        <ele>907.694814</ele>
        <time>2022-02-22T21:13:43.646Z</time>
      </trkpt>
      <trkpt lat="40.88143" lon="-1.32781">
        <ele>907.846892</ele>
        <time>2022-02-22T21:13:53.652Z</time>
      </trkpt>
      <trkpt lat="40.88116" lon="-1.3284">
        <ele>908.049941</ele>
        <time>2022-02-22T21:14:06.858Z</time>
      </trkpt>
      <trkpt lat="40.88096" lon="-1.32857">
        <ele>908.14448</ele>
        <time>2022-02-22T21:14:12.953Z</time>
      </trkpt>
      <trkpt lat="40.88071" lon="-1.32863">
        <ele>908.242722</ele>
        <time>2022-02-22T21:14:19.134Z</time>
      </trkpt>
      <trkpt lat="40.88054" lon="-1.32864">
        <ele>908.300061</ele>
        <time>2022-02-22T21:14:23.428Z</time>
      </trkpt>
      <trkpt lat="40.88007" lon="-1.32887">
        <ele>908.464865</ele>
        <time>2022-02-22T21:14:35.468Z</time>
      </trkpt>
      <trkpt lat="40.87942" lon="-1.32908">
        <ele>908.684293</ele>
        <time>2022-02-22T21:14:52.292Z</time>
      </trkpt>
      <trkpt lat="40.87685" lon="-1.3292">
        <ele>909.53742</ele>
        <time>2022-02-22T21:15:56.026Z</time>
      </trkpt>
      <trkpt lat="40.87673" lon="-1.32916">
        <ele>909.583415</ele>
        <time>2022-02-22T21:15:59.232Z</time>
      </trkpt>
      <trkpt lat="40.87631" lon="-1.32878">
        <ele>909.765545</ele>
        <time>2022-02-22T21:16:12.025Z</time>
      </trkpt>
      <trkpt lat="40.87604" lon="-1.32867">
        <ele>909.865961</ele>
        <time>2022-02-22T21:16:19.136Z</time>
      </trkpt>
      <trkpt lat="40.87463" lon="-1.32755">
        <ele>910.234606</ele>
        <time>2022-02-22T21:16:59.716Z</time>
      </trkpt>
      <trkpt lat="40.87419" lon="-1.32722">
        <ele>910.310482</ele>
        <time>2022-02-22T21:17:11.544Z</time>
      </trkpt>
      <trkpt lat="40.87409" lon="-1.32709">
        <ele>910.331013</ele>
        <time>2022-02-22T21:17:14.649Z</time>
      </trkpt>
      <trkpt lat="40.87396" lon="-1.32689">
        <ele>910.320235</ele>
        <time>2022-02-22T21:17:19.203Z</time>
      </trkpt>
      <trkpt lat="40.87265" lon="-1.32565">
        <ele>909.974658</ele>
        <time>2022-02-22T21:17:55.291Z</time>
      </trkpt>
      <trkpt lat="40.87149" lon="-1.32471">
        <ele>910.059371</ele>
        <time>2022-02-22T21:18:26.767Z</time>
      </trkpt>
      <trkpt lat="40.8712" lon="-1.32432">
        <ele>910.092341</ele>
        <time>2022-02-22T21:18:37.002Z</time>
      </trkpt>
      <trkpt lat="40.87068" lon="-1.3241">
        <ele>910.179333</ele>
        <time>2022-02-22T21:18:50.185Z</time>
      </trkpt>
      <trkpt lat="40.87053" lon="-1.32409">
        <ele>910.207275</ele>
        <time>2022-02-22T21:18:54.094Z</time>
      </trkpt>
      <trkpt lat="40.86986" lon="-1.32422">
        <ele>910.327896</ele>
        <time>2022-02-22T21:19:10.457Z</time>
      </trkpt>
      <trkpt lat="40.86942" lon="-1.32443">
        <ele>910.413338</ele>
        <time>2022-02-22T21:19:21.659Z</time>
      </trkpt>
      <trkpt lat="40.86895" lon="-1.32502">
        <ele>910.369912</ele>
        <time>2022-02-22T21:19:36.527Z</time>
      </trkpt>
      <trkpt lat="40.86884" lon="-1.32507">
        <ele>910.359341</ele>
        <time>2022-02-22T21:19:39.160Z</time>
      </trkpt>
      <trkpt lat="40.86826" lon="-1.32486">
        <ele>910.30327</ele>
        <time>2022-02-22T21:19:52.935Z</time>
      </trkpt>
      <trkpt lat="40.86775" lon="-1.3247">
        <ele>910.261418</ele>
        <time>2022-02-22T21:20:04.619Z</time>
      </trkpt>
      <trkpt lat="40.86752" lon="-1.32455">
        <ele>910.289449</ele>
        <time>2022-02-22T21:20:10.551Z</time>
      </trkpt>
      <trkpt lat="40.86695" lon="-1.32385">
        <ele>910.373055</ele>
        <time>2022-02-22T21:20:28.948Z</time>
      </trkpt>
      <trkpt lat="40.86684" lon="-1.32386">
        <ele>910.385156</ele>
        <time>2022-02-22T21:20:31.603Z</time>
      </trkpt>
      <trkpt lat="40.86575" lon="-1.32432">
        <ele>910.29794</ele>
        <time>2022-02-22T21:20:59.625Z</time>
      </trkpt>
      <trkpt lat="40.86569" lon="-1.32438">
        <ele>910.275878</ele>
        <time>2022-02-22T21:21:01.474Z</time>
      </trkpt>
      <trkpt lat="40.86564" lon="-1.32448">
        <ele>910.248364</ele>
        <time>2022-02-22T21:21:03.610Z</time>
      </trkpt>
      <trkpt lat="40.86572" lon="-1.32512">
        <ele>910.103031</ele>
        <time>2022-02-22T21:21:14.497Z</time>
      </trkpt>
      <trkpt lat="40.86569" lon="-1.32532">
        <ele>910.056745</ele>
        <time>2022-02-22T21:21:18.011Z</time>
      </trkpt>
      <trkpt lat="40.86541" lon="-1.32561">
        <ele>909.950627</ele>
        <time>2022-02-22T21:21:25.667Z</time>
      </trkpt>
      <trkpt lat="40.86544" lon="-1.32587">
        <ele>909.840646</ele>
        <time>2022-02-22T21:21:29.701Z</time>
      </trkpt>
      <trkpt lat="40.86561" lon="-1.32725">
        <ele>908.899605</ele>
        <time>2022-02-22T21:21:51.508Z</time>
      </trkpt>
      <trkpt lat="40.86568" lon="-1.32747">
        <ele>908.745739</ele>
        <time>2022-02-22T21:21:57.595Z</time>
      </trkpt>
      <trkpt lat="40.86609" lon="-1.32802">
        <ele>908.360589</ele>
        <time>2022-02-22T21:22:17.982Z</time>
      </trkpt>
      <trkpt lat="40.86626" lon="-1.32824">
        <ele>908.433029</ele>
        <time>2022-02-22T21:22:26.581Z</time>
      </trkpt>
      <trkpt lat="40.86635" lon="-1.32869">
        <ele>908.542268</ele>
        <time>2022-02-22T21:22:39.993Z</time>
      </trkpt>
      <trkpt lat="40.86635" lon="-1.32902">
        <ele>908.619532</ele>
        <time>2022-02-22T21:22:49.944Z</time>
      </trkpt>
      <trkpt lat="40.86655" lon="-1.32987">
        <ele>908.824961</ele>
        <time>2022-02-22T21:23:17.222Z</time>
      </trkpt>
      <trkpt lat="40.86649" lon="-1.33105">
        <ele>909.41462</ele>
        <time>2022-02-22T21:23:54.273Z</time>
      </trkpt>
      <trkpt lat="40.8659" lon="-1.33173">
        <ele>910.003632</ele>
        <time>2022-02-22T21:24:15.513Z</time>
      </trkpt>
      <trkpt lat="40.86528" lon="-1.33222">
        <ele>910.387237</ele>
        <time>2022-02-22T21:24:34.086Z</time>
      </trkpt>
      <trkpt lat="40.86424" lon="-1.33282">
        <ele>910.819946</ele>
        <time>2022-02-22T21:25:01.073Z</time>
      </trkpt>
      <trkpt lat="40.86327" lon="-1.33309">
        <ele>911.081615</ele>
        <time>2022-02-22T21:25:25.000Z</time>
      </trkpt>
      <trkpt lat="40.85933" lon="-1.33561">
        <ele>912.147471</ele>
        <time>2022-02-22T21:27:06.367Z</time>
      </trkpt>
      <trkpt lat="40.85882" lon="-1.33585">
        <ele>912.485398</ele>
        <time>2022-02-22T21:27:19.883Z</time>
      </trkpt>
      <trkpt lat="40.85835" lon="-1.33598">
        <ele>912.958306</ele>
        <time>2022-02-22T21:27:32.570Z</time>
      </trkpt>
      <trkpt lat="40.85213" lon="-1.33716">
        <ele>919.038475</ele>
        <time>2022-02-22T21:30:24.803Z</time>
      </trkpt>
      <trkpt lat="40.85126" lon="-1.33719">
        <ele>919.540622</ele>
        <time>2022-02-22T21:30:46.287Z</time>
      </trkpt>
      <trkpt lat="40.85063" lon="-1.33741">
        <ele>919.866226</ele>
        <time>2022-02-22T21:31:02.141Z</time>
      </trkpt>
      <trkpt lat="40.85012" lon="-1.33755">
        <ele>920.117374</ele>
        <time>2022-02-22T21:31:14.813Z</time>
      </trkpt>
      <trkpt lat="40.84833" lon="-1.33794">
        <ele>920.740984</ele>
        <time>2022-02-22T21:31:59.627Z</time>
      </trkpt>
      <trkpt lat="40.84831" lon="-1.33794">
        <ele>920.728597</ele>
        <time>2022-02-22T21:32:00.013Z</time>
      </trkpt>
      <trkpt lat="40.84782" lon="-1.33806">
        <ele>920.363662</ele>
        <time>2022-02-22T21:32:10.842Z</time>
      </trkpt>
      <trkpt lat="40.84758" lon="-1.33798">
        <ele>920.189312</ele>
        <time>2022-02-22T21:32:15.732Z</time>
      </trkpt>
      <trkpt lat="40.84746" lon="-1.33778">
        <ele>920.044625</ele>
        <time>2022-02-22T21:32:19.794Z</time>
      </trkpt>
      <trkpt lat="40.84729" lon="-1.336">
        <ele>918.563104</ele>
        <time>2022-02-22T21:32:45.826Z</time>
      </trkpt>
      <trkpt lat="40.8472" lon="-1.33571">
        <ele>918.208182</ele>
        <time>2022-02-22T21:32:50.188Z</time>
      </trkpt>
      <trkpt lat="40.84705" lon="-1.33542">
        <ele>917.786646</ele>
        <time>2022-02-22T21:32:55.281Z</time>
      </trkpt>
      <trkpt lat="40.84659" lon="-1.33489">
        <ele>916.853781</ele>
        <time>2022-02-22T21:33:06.774Z</time>
      </trkpt>
      <trkpt lat="40.84636" lon="-1.3348">
        <ele>916.585752</ele>
        <time>2022-02-22T21:33:11.276Z</time>
      </trkpt>
      <trkpt lat="40.84578" lon="-1.33475">
        <ele>915.999313</ele>
        <time>2022-02-22T21:33:22.459Z</time>
      </trkpt>
      <trkpt lat="40.84501" lon="-1.33485">
        <ele>915.213314</ele>
        <time>2022-02-22T21:33:38.139Z</time>
      </trkpt>
      <trkpt lat="40.84459" lon="-1.33502">
        <ele>914.942072</ele>
        <time>2022-02-22T21:33:47.231Z</time>
      </trkpt>
      <trkpt lat="40.84449" lon="-1.33505">
        <ele>914.942233</ele>
        <time>2022-02-22T21:33:49.365Z</time>
      </trkpt>
      <trkpt lat="40.84327" lon="-1.33588">
        <ele>914.944536</ele>
        <time>2022-02-22T21:34:20.126Z</time>
      </trkpt>
      <trkpt lat="40.84288" lon="-1.33607">
        <ele>915.165058</ele>
        <time>2022-02-22T21:34:30.805Z</time>
      </trkpt>
      <trkpt lat="40.84277" lon="-1.33606">
        <ele>915.257696</ele>
        <time>2022-02-22T21:34:33.443Z</time>
      </trkpt>
      <trkpt lat="40.84118" lon="-1.33717">
        <ele>916.760082</ele>
        <time>2022-02-22T21:35:21.839Z</time>
      </trkpt>
      <trkpt lat="40.84033" lon="-1.33747">
        <ele>917.498315</ele>
        <time>2022-02-22T21:35:45.445Z</time>
      </trkpt>
      <trkpt lat="40.83996" lon="-1.33762">
        <ele>917.831284</ele>
        <time>2022-02-22T21:35:55.597Z</time>
      </trkpt>
      <trkpt lat="40.83947" lon="-1.33758">
        <ele>918.098485</ele>
        <time>2022-02-22T21:36:07.996Z</time>
      </trkpt>
      <trkpt lat="40.83894" lon="-1.33771">
        <ele>918.317554</ele>
        <time>2022-02-22T21:36:21.388Z</time>
      </trkpt>
      <trkpt lat="40.83844" lon="-1.33764">
        <ele>918.522947</ele>
        <time>2022-02-22T21:36:33.287Z</time>
      </trkpt>
      <trkpt lat="40.83758" lon="-1.33754">
        <ele>918.806972</ele>
        <time>2022-02-22T21:36:53.507Z</time>
      </trkpt>
      <trkpt lat="40.83748" lon="-1.3376">
        <ele>918.835042</ele>
        <time>2022-02-22T21:36:56.078Z</time>
      </trkpt>
      <trkpt lat="40.83715" lon="-1.33839">
        <ele>919.0057</ele>
        <time>2022-02-22T21:37:12.042Z</time>
      </trkpt>
      <trkpt lat="40.83647" lon="-1.33852">
        <ele>919.185147</ele>
        <time>2022-02-22T21:37:28.109Z</time>
      </trkpt>
      <trkpt lat="40.83589" lon="-1.33853">
        <ele>919.374372</ele>
        <time>2022-02-22T21:37:41.704Z</time>
      </trkpt>
      <trkpt lat="40.83388" lon="-1.33812">
        <ele>920.052833</ele>
        <time>2022-02-22T21:38:30.795Z</time>
      </trkpt>
      <trkpt lat="40.83248" lon="-1.33767">
        <ele>920.584993</ele>
        <time>2022-02-22T21:39:05.220Z</time>
      </trkpt>
      <trkpt lat="40.83176" lon="-1.33759">
        <ele>920.88421</ele>
        <time>2022-02-22T21:39:22.911Z</time>
      </trkpt>
      <trkpt lat="40.83031" lon="-1.33698">
        <ele>921.560544</ele>
        <time>2022-02-22T21:39:59.956Z</time>
      </trkpt>
      <trkpt lat="40.82944" lon="-1.33687">
        <ele>921.954022</ele>
        <time>2022-02-22T21:40:21.829Z</time>
      </trkpt>
      <trkpt lat="40.82896" lon="-1.33697">
        <ele>922.137386</ele>
        <time>2022-02-22T21:40:33.750Z</time>
      </trkpt>
      <trkpt lat="40.82877" lon="-1.33707">
        <ele>922.21526</ele>
        <time>2022-02-22T21:40:38.810Z</time>
      </trkpt>
      <trkpt lat="40.82837" lon="-1.33696">
        <ele>922.367456</ele>
        <time>2022-02-22T21:40:48.610Z</time>
      </trkpt>
      <trkpt lat="40.82802" lon="-1.33668">
        <ele>922.521482</ele>
        <time>2022-02-22T21:40:58.589Z</time>
      </trkpt>
      <trkpt lat="40.82774" lon="-1.33656">
        <ele>922.667638</ele>
        <time>2022-02-22T21:41:05.783Z</time>
      </trkpt>
      <trkpt lat="40.82758" lon="-1.33656">
        <ele>922.797821</ele>
        <time>2022-02-22T21:41:10.041Z</time>
      </trkpt>
      <trkpt lat="40.82744" lon="-1.33653">
        <ele>922.907761</ele>
        <time>2022-02-22T21:41:13.596Z</time>
      </trkpt>
      <trkpt lat="40.82712" lon="-1.33645">
        <ele>923.160144</ele>
        <time>2022-02-22T21:41:22.117Z</time>
      </trkpt>
      <trkpt lat="40.82686" lon="-1.33641">
        <ele>923.364372</ele>
        <time>2022-02-22T21:41:29.132Z</time>
      </trkpt>
      <trkpt lat="40.82636" lon="-1.33658">
        <ele>923.77521</ele>
        <time>2022-02-22T21:41:43.588Z</time>
      </trkpt>
      <trkpt lat="40.82606" lon="-1.33665">
        <ele>924.015493</ele>
        <time>2022-02-22T21:41:52.497Z</time>
      </trkpt>
      <trkpt lat="40.826" lon="-1.33653">
        <ele>924.159877</ele>
        <time>2022-02-22T21:41:55.520Z</time>
      </trkpt>
      <trkpt lat="40.82581" lon="-1.33655">
        <ele>924.432868</ele>
        <time>2022-02-22T21:42:01.443Z</time>
      </trkpt>
      <trkpt lat="40.82571" lon="-1.33671">
        <ele>924.646954</ele>
        <time>2022-02-22T21:42:06.098Z</time>
      </trkpt>
      <trkpt lat="40.82573" lon="-1.33693">
        <ele>924.874859</ele>
        <time>2022-02-22T21:42:11.170Z</time>
      </trkpt>
      <trkpt lat="40.82536" lon="-1.33693">
        <ele>925.383658</ele>
        <time>2022-02-22T21:42:22.553Z</time>
      </trkpt>
      <trkpt lat="40.82529" lon="-1.33693">
        <ele>925.473065</ele>
        <time>2022-02-22T21:42:24.554Z</time>
      </trkpt>
      <trkpt lat="40.82494" lon="-1.33693">
        <ele>925.961234</ele>
        <time>2022-02-22T21:42:35.381Z</time>
      </trkpt>
      <trkpt lat="40.82487" lon="-1.33694">
        <ele>926.058299</ele>
        <time>2022-02-22T21:42:37.509Z</time>
      </trkpt>
      <trkpt lat="40.82395" lon="-1.33709">
        <ele>927.173336</ele>
        <time>2022-02-22T21:43:04.893Z</time>
      </trkpt>
      <trkpt lat="40.82347" lon="-1.3373">
        <ele>927.741208</ele>
        <time>2022-02-22T21:43:19.334Z</time>
      </trkpt>
      <trkpt lat="40.82305" lon="-1.33736">
        <ele>928.215839</ele>
        <time>2022-02-22T21:43:31.080Z</time>
      </trkpt>
      <trkpt lat="40.82252" lon="-1.33743">
        <ele>928.817165</ele>
        <time>2022-02-22T21:43:46.161Z</time>
      </trkpt>
      <trkpt lat="40.82216" lon="-1.33749">
        <ele>929.233194</ele>
        <time>2022-02-22T21:43:56.754Z</time>
      </trkpt>
      <trkpt lat="40.82171" lon="-1.33755">
        <ele>929.742422</ele>
        <time>2022-02-22T21:44:09.892Z</time>
      </trkpt>
      <trkpt lat="40.82087" lon="-1.33775">
        <ele>930.675474</ele>
        <time>2022-02-22T21:44:34.995Z</time>
      </trkpt>
      <trkpt lat="40.8186" lon="-1.33872">
        <ele>932.545375</ele>
        <time>2022-02-22T21:45:40.432Z</time>
      </trkpt>
      <trkpt lat="40.81807" lon="-1.33886">
        <ele>932.814739</ele>
        <time>2022-02-22T21:45:53.869Z</time>
      </trkpt>
      <trkpt lat="40.81747" lon="-1.33894">
        <ele>933.063561</ele>
        <time>2022-02-22T21:46:08.662Z</time>
      </trkpt>
      <trkpt lat="40.81718" lon="-1.33892">
        <ele>933.030898</ele>
        <time>2022-02-22T21:46:15.276Z</time>
      </trkpt>
      <trkpt lat="40.81646" lon="-1.33909">
        <ele>932.945197</ele>
        <time>2022-02-22T21:46:32.324Z</time>
      </trkpt>
      <trkpt lat="40.81516" lon="-1.33922">
        <ele>932.36119</ele>
        <time>2022-02-22T21:47:01.135Z</time>
      </trkpt>
      <trkpt lat="40.8135" lon="-1.33947">
        <ele>931.049424</ele>
        <time>2022-02-22T21:47:35.505Z</time>
      </trkpt>
      <trkpt lat="40.81225" lon="-1.3404">
        <ele>930.266606</ele>
        <time>2022-02-22T21:48:06.504Z</time>
      </trkpt>
      <trkpt lat="40.81187" lon="-1.34083">
        <ele>930.67825</ele>
        <time>2022-02-22T21:48:19.309Z</time>
      </trkpt>
      <trkpt lat="40.8111" lon="-1.34154">
        <ele>931.44747</ele>
        <time>2022-02-22T21:48:46.569Z</time>
      </trkpt>
      <trkpt lat="40.81033" lon="-1.34183">
        <ele>931.870102</ele>
        <time>2022-02-22T21:49:11.629Z</time>
      </trkpt>
      <trkpt lat="40.80932" lon="-1.34239">
        <ele>932.298089</ele>
        <time>2022-02-22T21:49:38.140Z</time>
      </trkpt>
      <trkpt lat="40.80805" lon="-1.34342">
        <ele>930.699937</ele>
        <time>2022-02-22T21:50:08.297Z</time>
      </trkpt>
      <trkpt lat="40.80768" lon="-1.34389">
        <ele>930.096225</ele>
        <time>2022-02-22T21:50:18.485Z</time>
      </trkpt>
      <trkpt lat="40.80749" lon="-1.34413">
        <ele>929.887835</ele>
        <time>2022-02-22T21:50:23.670Z</time>
      </trkpt>
      <trkpt lat="40.80686" lon="-1.34472">
        <ele>929.260219</ele>
        <time>2022-02-22T21:50:39.766Z</time>
      </trkpt>
      <trkpt lat="40.80542" lon="-1.34568">
        <ele>928.546812</ele>
        <time>2022-02-22T21:51:15.633Z</time>
      </trkpt>
      <trkpt lat="40.80492" lon="-1.34616">
        <ele>928.449893</ele>
        <time>2022-02-22T21:51:30.001Z</time>
      </trkpt>
      <trkpt lat="40.80412" lon="-1.34677">
        <ele>928.751788</ele>
        <time>2022-02-22T21:51:52.291Z</time>
      </trkpt>
      <trkpt lat="40.80222" lon="-1.34765">
        <ele>930.225599</ele>
        <time>2022-02-22T21:52:46.575Z</time>
      </trkpt>
      <trkpt lat="40.8006" lon="-1.3486">
        <ele>931.983987</ele>
        <time>2022-02-22T21:53:38.390Z</time>
      </trkpt>
      <trkpt lat="40.79904" lon="-1.34943">
        <ele>933.195286</ele>
        <time>2022-02-22T21:54:23.966Z</time>
      </trkpt>
      <trkpt lat="40.79803" lon="-1.34974">
        <ele>933.567125</ele>
        <time>2022-02-22T21:54:48.188Z</time>
      </trkpt>
      <trkpt lat="40.79734" lon="-1.34961">
        <ele>933.596099</ele>
        <time>2022-02-22T21:55:04.383Z</time>
      </trkpt>
      <trkpt lat="40.79631" lon="-1.34908">
        <ele>933.62289</ele>
        <time>2022-02-22T21:55:29.933Z</time>
      </trkpt>
      <trkpt lat="40.79594" lon="-1.34899">
        <ele>933.738203</ele>
        <time>2022-02-22T21:55:39.114Z</time>
      </trkpt>
      <trkpt lat="40.79557" lon="-1.349">
        <ele>933.860037</ele>
        <time>2022-02-22T21:55:47.955Z</time>
      </trkpt>
      <trkpt lat="40.79531" lon="-1.34912">
        <ele>933.950057</ele>
        <time>2022-02-22T21:55:54.693Z</time>
      </trkpt>
      <trkpt lat="40.79482" lon="-1.34954">
        <ele>934.141918</ele>
        <time>2022-02-22T21:56:09.764Z</time>
      </trkpt>
      <trkpt lat="40.79462" lon="-1.34958">
        <ele>934.208815</ele>
        <time>2022-02-22T21:56:14.956Z</time>
      </trkpt>
      <trkpt lat="40.79456" lon="-1.34964">
        <ele>934.243341</ele>
        <time>2022-02-22T21:56:17.202Z</time>
      </trkpt>
      <trkpt lat="40.7945" lon="-1.34961">
        <ele>934.27338</ele>
        <time>2022-02-22T21:56:18.708Z</time>
      </trkpt>
      <trkpt lat="40.79446" lon="-1.34926">
        <ele>934.401343</ele>
        <time>2022-02-22T21:56:25.610Z</time>
      </trkpt>
      <trkpt lat="40.79373" lon="-1.34946">
        <ele>934.755889</ele>
        <time>2022-02-22T21:56:44.704Z</time>
      </trkpt>
      <trkpt lat="40.79318" lon="-1.34939">
        <ele>935.020111</ele>
        <time>2022-02-22T21:56:58.606Z</time>
      </trkpt>
      <trkpt lat="40.79266" lon="-1.34939">
        <ele>934.930325</ele>
        <time>2022-02-22T21:57:12.296Z</time>
      </trkpt>
      <trkpt lat="40.79241" lon="-1.34905">
        <ele>934.801652</ele>
        <time>2022-02-22T21:57:20.793Z</time>
      </trkpt>
      <trkpt lat="40.79152" lon="-1.34889">
        <ele>934.486492</ele>
        <time>2022-02-22T21:57:39.664Z</time>
      </trkpt>
      <trkpt lat="40.79117" lon="-1.34876">
        <ele>934.355473</ele>
        <time>2022-02-22T21:57:47.176Z</time>
      </trkpt>
      <trkpt lat="40.79097" lon="-1.34869">
        <ele>934.283297</ele>
        <time>2022-02-22T21:57:51.153Z</time>
      </trkpt>
      <trkpt lat="40.78992" lon="-1.34885">
        <ele>933.903246</ele>
        <time>2022-02-22T21:58:14.661Z</time>
      </trkpt>
      <trkpt lat="40.79004" lon="-1.34988">
        <ele>934.55927</ele>
        <time>2022-02-22T21:58:33.933Z</time>
      </trkpt>
      <trkpt lat="40.79017" lon="-1.35096">
        <ele>935.876441</ele>
        <time>2022-02-22T21:58:59.284Z</time>
      </trkpt>
      <trkpt lat="40.79033" lon="-1.35231">
        <ele>937.824264</ele>
        <time>2022-02-22T21:59:37.179Z</time>
      </trkpt>
      <trkpt lat="40.79034" lon="-1.35279">
        <ele>938.593751</ele>
        <time>2022-02-22T21:59:49.744Z</time>
      </trkpt>
      <trkpt lat="40.79035" lon="-1.35282">
        <ele>938.649465</ele>
        <time>2022-02-22T21:59:50.639Z</time>
      </trkpt>
      <trkpt lat="40.79035" lon="-1.35322">
        <ele>939.303715</ele>
        <time>2022-02-22T22:00:00.894Z</time>
      </trkpt>
      <trkpt lat="40.79037" lon="-1.35344">
        <ele>939.648484</ele>
        <time>2022-02-22T22:00:06.129Z</time>
      </trkpt>
      <trkpt lat="40.79035" lon="-1.35381">
        <ele>940.25751</ele>
        <time>2022-02-22T22:00:15.116Z</time>
      </trkpt>
      <trkpt lat="40.7898" lon="-1.35413">
        <ele>940.693692</ele>
        <time>2022-02-22T22:00:32.375Z</time>
      </trkpt>
      <trkpt lat="40.78966" lon="-1.35414">
        <ele>940.749691</ele>
        <time>2022-02-22T22:00:36.142Z</time>
      </trkpt>
      <trkpt lat="40.78939" lon="-1.35436">
        <ele>940.881229</ele>
        <time>2022-02-22T22:00:44.636Z</time>
      </trkpt>
      <trkpt lat="40.78929" lon="-1.35434">
        <ele>940.923488</ele>
        <time>2022-02-22T22:00:47.078Z</time>
      </trkpt>
      <trkpt lat="40.78879" lon="-1.35438">
        <ele>941.126703</ele>
        <time>2022-02-22T22:00:58.283Z</time>
      </trkpt>
      <trkpt lat="40.78871" lon="-1.3544">
        <ele>941.159234</ele>
        <time>2022-02-22T22:01:00.012Z</time>
      </trkpt>
      <trkpt lat="40.78804" lon="-1.35444">
        <ele>941.02225</ele>
        <time>2022-02-22T22:01:14.591Z</time>
      </trkpt>
      <trkpt lat="40.78737" lon="-1.35447">
        <ele>940.741321</ele>
        <time>2022-02-22T22:01:29.007Z</time>
      </trkpt>
      <trkpt lat="40.787" lon="-1.35445">
        <ele>940.587008</ele>
        <time>2022-02-22T22:01:37.187Z</time>
      </trkpt>
      <trkpt lat="40.78677" lon="-1.35444">
        <ele>940.488852</ele>
        <time>2022-02-22T22:01:42.504Z</time>
      </trkpt>
      <trkpt lat="40.78661" lon="-1.35443">
        <ele>940.442109</ele>
        <time>2022-02-22T22:01:46.125Z</time>
      </trkpt>
      <trkpt lat="40.78657" lon="-1.35442">
        <ele>940.43064</ele>
        <time>2022-02-22T22:01:47.078Z</time>
      </trkpt>
      <trkpt lat="40.78654" lon="-1.35439">
        <ele>940.419129</ele>
        <time>2022-02-22T22:01:48.044Z</time>
      </trkpt>
      <trkpt lat="40.78645" lon="-1.35431">
        <ele>940.388051</ele>
        <time>2022-02-22T22:01:50.565Z</time>
      </trkpt>
      <trkpt lat="40.78581" lon="-1.3542">
        <ele>940.203529</ele>
        <time>2022-02-22T22:02:05.310Z</time>
      </trkpt>
      <trkpt lat="40.78467" lon="-1.35395">
        <ele>939.614675</ele>
        <time>2022-02-22T22:02:29.101Z</time>
      </trkpt>
      <trkpt lat="40.78401" lon="-1.35374">
        <ele>938.866821</ele>
        <time>2022-02-22T22:02:42.750Z</time>
      </trkpt>
      <trkpt lat="40.78371" lon="-1.35364">
        <ele>938.526573</ele>
        <time>2022-02-22T22:02:48.614Z</time>
      </trkpt>
      <trkpt lat="40.7833" lon="-1.35351">
        <ele>938.05429</ele>
        <time>2022-02-22T22:02:56.706Z</time>
      </trkpt>
      <trkpt lat="40.78299" lon="-1.35351">
        <ele>937.909268</ele>
        <time>2022-02-22T22:03:02.331Z</time>
      </trkpt>
      <trkpt lat="40.78241" lon="-1.35358">
        <ele>937.733155</ele>
        <time>2022-02-22T22:03:13.812Z</time>
      </trkpt>
      <trkpt lat="40.7823" lon="-1.35363">
        <ele>937.695912</ele>
        <time>2022-02-22T22:03:16.359Z</time>
      </trkpt>
      <trkpt lat="40.78162" lon="-1.35381">
        <ele>937.486215</ele>
        <time>2022-02-22T22:03:33.886Z</time>
      </trkpt>
      <trkpt lat="40.7811" lon="-1.35416">
        <ele>937.996217</ele>
        <time>2022-02-22T22:03:49.383Z</time>
      </trkpt>
      <trkpt lat="40.78045" lon="-1.35457">
        <ele>938.975949</ele>
        <time>2022-02-22T22:04:11.200Z</time>
      </trkpt>
      <trkpt lat="40.77959" lon="-1.35499">
        <ele>939.915243</ele>
        <time>2022-02-22T22:04:39.183Z</time>
      </trkpt>
      <trkpt lat="40.77919" lon="-1.35513">
        <ele>940.000766</ele>
        <time>2022-02-22T22:04:50.182Z</time>
      </trkpt>
      <trkpt lat="40.77886" lon="-1.35513">
        <ele>940.067937</ele>
        <time>2022-02-22T22:04:57.290Z</time>
      </trkpt>
      <trkpt lat="40.77821" lon="-1.35493">
        <ele>940.204522</ele>
        <time>2022-02-22T22:05:11.379Z</time>
      </trkpt>
      <trkpt lat="40.77798" lon="-1.35471">
        <ele>940.095505</ele>
        <time>2022-02-22T22:05:17.302Z</time>
      </trkpt>
      <trkpt lat="40.77773" lon="-1.35454">
        <ele>939.839843</ele>
        <time>2022-02-22T22:05:22.899Z</time>
      </trkpt>
      <trkpt lat="40.77758" lon="-1.3545">
        <ele>939.699139</ele>
        <time>2022-02-22T22:05:25.884Z</time>
      </trkpt>
      <trkpt lat="40.77695" lon="-1.3545">
        <ele>939.136746</ele>
        <time>2022-02-22T22:05:38.182Z</time>
      </trkpt>
      <trkpt lat="40.77678" lon="-1.3546">
        <ele>938.964043</ele>
        <time>2022-02-22T22:05:41.888Z</time>
      </trkpt>
      <trkpt lat="40.7763" lon="-1.35542">
        <ele>938.484371</ele>
        <time>2022-02-22T22:05:57.866Z</time>
      </trkpt>
      <trkpt lat="40.77592" lon="-1.35571">
        <ele>938.339369</ele>
        <time>2022-02-22T22:06:07.231Z</time>
      </trkpt>
      <trkpt lat="40.77567" lon="-1.35582">
        <ele>938.254444</ele>
        <time>2022-02-22T22:06:12.542Z</time>
      </trkpt>
      <trkpt lat="40.77514" lon="-1.35576">
        <ele>938.078441</ele>
        <time>2022-02-22T22:06:24.549Z</time>
      </trkpt>
      <trkpt lat="40.77494" lon="-1.35562">
        <ele>938.024375</ele>
        <time>2022-02-22T22:06:29.641Z</time>
      </trkpt>
      <trkpt lat="40.77481" lon="-1.35526">
        <ele>938.045683</ele>
        <time>2022-02-22T22:06:36.822Z</time>
      </trkpt>
      <trkpt lat="40.77462" lon="-1.35491">
        <ele>938.068342</ele>
        <time>2022-02-22T22:06:44.190Z</time>
      </trkpt>
      <trkpt lat="40.77395" lon="-1.35426">
        <ele>938.126722</ele>
        <time>2022-02-22T22:07:02.873Z</time>
      </trkpt>
      <trkpt lat="40.7735" lon="-1.354">
        <ele>938.19456</ele>
        <time>2022-02-22T22:07:13.884Z</time>
      </trkpt>
      <trkpt lat="40.77265" lon="-1.35375">
        <ele>938.400074</ele>
        <time>2022-02-22T22:07:34.515Z</time>
      </trkpt>
      <trkpt lat="40.77238" lon="-1.35378">
        <ele>938.465099</ele>
        <time>2022-02-22T22:07:41.056Z</time>
      </trkpt>
      <trkpt lat="40.77141" lon="-1.35429">
        <ele>938.531358</ele>
        <time>2022-02-22T22:08:05.514Z</time>
      </trkpt>
      <trkpt lat="40.77118" lon="-1.35447">
        <ele>938.51328</ele>
        <time>2022-02-22T22:08:11.367Z</time>
      </trkpt>
      <trkpt lat="40.77107" lon="-1.35448">
        <ele>938.505448</ele>
        <time>2022-02-22T22:08:13.879Z</time>
      </trkpt>
      <trkpt lat="40.77095" lon="-1.35445">
        <ele>938.496948</ele>
        <time>2022-02-22T22:08:16.613Z</time>
      </trkpt>
      <trkpt lat="40.77073" lon="-1.35426">
        <ele>938.478757</ele>
        <time>2022-02-22T22:08:22.347Z</time>
      </trkpt>
      <trkpt lat="40.77036" lon="-1.35405">
        <ele>938.451397</ele>
        <time>2022-02-22T22:08:30.778Z</time>
      </trkpt>
      <trkpt lat="40.76957" lon="-1.35387">
        <ele>938.162364</ele>
        <time>2022-02-22T22:08:47.400Z</time>
      </trkpt>
      <trkpt lat="40.76892" lon="-1.35379">
        <ele>937.914677</ele>
        <time>2022-02-22T22:09:00.976Z</time>
      </trkpt>
      <trkpt lat="40.76846" lon="-1.3538">
        <ele>937.830934</ele>
        <time>2022-02-22T22:09:10.822Z</time>
      </trkpt>
      <trkpt lat="40.76775" lon="-1.35362">
        <ele>938.468155</ele>
        <time>2022-02-22T22:09:28.803Z</time>
      </trkpt>
      <trkpt lat="40.76728" lon="-1.35375">
        <ele>938.894508</ele>
        <time>2022-02-22T22:09:42.347Z</time>
      </trkpt>
      <trkpt lat="40.7667" lon="-1.35401">
        <ele>939.452572</ele>
        <time>2022-02-22T22:10:01.263Z</time>
      </trkpt>
      <trkpt lat="40.76545" lon="-1.35444">
        <ele>940.78391</ele>
        <time>2022-02-22T22:10:38.348Z</time>
      </trkpt>
      <trkpt lat="40.76522" lon="-1.35452">
        <ele>941.028494</ele>
        <time>2022-02-22T22:10:44.234Z</time>
      </trkpt>
      <trkpt lat="40.76432" lon="-1.35461">
        <ele>941.024296</ele>
        <time>2022-02-22T22:11:04.269Z</time>
      </trkpt>
      <trkpt lat="40.7635" lon="-1.35458">
        <ele>940.813422</ele>
        <time>2022-02-22T22:11:20.962Z</time>
      </trkpt>
      <trkpt lat="40.762" lon="-1.35468">
        <ele>940.480725</ele>
        <time>2022-02-22T22:11:53.225Z</time>
      </trkpt>
      <trkpt lat="40.75976" lon="-1.3547">
        <ele>940.531379</ele>
        <time>2022-02-22T22:12:43.887Z</time>
      </trkpt>
      <trkpt lat="40.75732" lon="-1.35442">
        <ele>941.000517</ele>
        <time>2022-02-22T22:13:40.914Z</time>
      </trkpt>
      <trkpt lat="40.75663" lon="-1.35444">
        <ele>941.138506</ele>
        <time>2022-02-22T22:13:57.030Z</time>
      </trkpt>
      <trkpt lat="40.75466" lon="-1.35423">
        <ele>941.374847</ele>
        <time>2022-02-22T22:14:41.899Z</time>
      </trkpt>
      <trkpt lat="40.75393" lon="-1.35401">
        <ele>941.462416</ele>
        <time>2022-02-22T22:14:58.930Z</time>
      </trkpt>
      <trkpt lat="40.75344" lon="-1.35413">
        <ele>941.536306</ele>
        <time>2022-02-22T22:15:10.380Z</time>
      </trkpt>
      <trkpt lat="40.75251" lon="-1.35416">
        <ele>941.675462</ele>
        <time>2022-02-22T22:15:32.035Z</time>
      </trkpt>
      <trkpt lat="40.75156" lon="-1.35431">
        <ele>941.684469</ele>
        <time>2022-02-22T22:15:53.718Z</time>
      </trkpt>
      <trkpt lat="40.75126" lon="-1.35429">
        <ele>941.686797</ele>
        <time>2022-02-22T22:16:00.360Z</time>
      </trkpt>
      <trkpt lat="40.75075" lon="-1.35412">
        <ele>941.690816</ele>
        <time>2022-02-22T22:16:11.791Z</time>
      </trkpt>
      <trkpt lat="40.74961" lon="-1.35359">
        <ele>941.721767</ele>
        <time>2022-02-22T22:16:38.269Z</time>
      </trkpt>
      <trkpt lat="40.74919" lon="-1.35266">
        <ele>941.834479</ele>
        <time>2022-02-22T22:16:58.121Z</time>
      </trkpt>
      <trkpt lat="40.74917" lon="-1.35244">
        <ele>941.912821</ele>
        <time>2022-02-22T22:17:02.588Z</time>
      </trkpt>
      <trkpt lat="40.7492" lon="-1.35234">
        <ele>941.952332</ele>
        <time>2022-02-22T22:17:04.640Z</time>
      </trkpt>
      <trkpt lat="40.74926" lon="-1.35216">
        <ele>942.02245</ele>
        <time>2022-02-22T22:17:08.447Z</time>
      </trkpt>
      <trkpt lat="40.74933" lon="-1.35096">
        <ele>942.452947</ele>
        <time>2022-02-22T22:17:31.902Z</time>
      </trkpt>
      <trkpt lat="40.74946" lon="-1.35058">
        <ele>942.60381</ele>
        <time>2022-02-22T22:17:40.208Z</time>
      </trkpt>
      <trkpt lat="40.74911" lon="-1.35018">
        <ele>942.863411</ele>
        <time>2022-02-22T22:17:52.315Z</time>
      </trkpt>
      <trkpt lat="40.74843" lon="-1.34976">
        <ele>943.279174</ele>
        <time>2022-02-22T22:18:11.955Z</time>
      </trkpt>
      <trkpt lat="40.7473" lon="-1.34882">
        <ele>943.983373</ele>
        <time>2022-02-22T22:18:46.498Z</time>
      </trkpt>
      <trkpt lat="40.74647" lon="-1.34851">
        <ele>944.411194</ele>
        <time>2022-02-22T22:19:08.532Z</time>
      </trkpt>
      <trkpt lat="40.74542" lon="-1.34786">
        <ele>944.610032</ele>
        <time>2022-02-22T22:19:36.833Z</time>
      </trkpt>
      <trkpt lat="40.74459" lon="-1.34768">
        <ele>944.698456</ele>
        <time>2022-02-22T22:19:56.094Z</time>
      </trkpt>
      <trkpt lat="40.74376" lon="-1.34765">
        <ele>944.594454</ele>
        <time>2022-02-22T22:20:15.019Z</time>
      </trkpt>
      <trkpt lat="40.74148" lon="-1.34795">
        <ele>944.295407</ele>
        <time>2022-02-22T22:21:07.417Z</time>
      </trkpt>
      <trkpt lat="40.73944" lon="-1.34859">
        <ele>944.070699</ele>
        <time>2022-02-22T22:21:55.003Z</time>
      </trkpt>
      <trkpt lat="40.73854" lon="-1.3486">
        <ele>944.283822</ele>
        <time>2022-02-22T22:22:16.480Z</time>
      </trkpt>
      <trkpt lat="40.73827" lon="-1.34851">
        <ele>944.365599</ele>
        <time>2022-02-22T22:22:23.345Z</time>
      </trkpt>
      <trkpt lat="40.73517" lon="-1.34808">
        <ele>945.677591</ele>
        <time>2022-02-22T22:23:43.503Z</time>
      </trkpt>
      <trkpt lat="40.73195" lon="-1.34727">
        <ele>946.575853</ele>
        <time>2022-02-22T22:25:03.168Z</time>
      </trkpt>
      <trkpt lat="40.72891" lon="-1.34671">
        <ele>947.976234</ele>
        <time>2022-02-22T22:26:20.868Z</time>
      </trkpt>
      <trkpt lat="40.72506" lon="-1.34401">
        <ele>950.699209</ele>
        <time>2022-02-22T22:28:17.268Z</time>
      </trkpt>
      <trkpt lat="40.72407" lon="-1.34373">
        <ele>951.013652</ele>
        <time>2022-02-22T22:28:42.369Z</time>
      </trkpt>
      <trkpt lat="40.72173" lon="-1.34254">
        <ele>950.862466</ele>
        <time>2022-02-22T22:29:38.985Z</time>
      </trkpt>
      <trkpt lat="40.72086" lon="-1.34211">
        <ele>950.849952</ele>
        <time>2022-02-22T22:30:13.217Z</time>
      </trkpt>
      <trkpt lat="40.71807" lon="-1.33958">
        <ele>951.720305</ele>
        <time>2022-02-22T22:32:23.445Z</time>
      </trkpt>
      <trkpt lat="40.7171" lon="-1.33813">
        <ele>952.290787</ele>
        <time>2022-02-22T22:33:21.493Z</time>
      </trkpt>
      <trkpt lat="40.71676" lon="-1.33772">
        <ele>952.475866</ele>
        <time>2022-02-22T22:33:39.599Z</time>
      </trkpt>
      <trkpt lat="40.71588" lon="-1.33765">
        <ele>952.72096</ele>
        <time>2022-02-22T22:34:13.291Z</time>
      </trkpt>
      <trkpt lat="40.7152" lon="-1.33713">
        <ele>952.776577</ele>
        <time>2022-02-22T22:34:42.458Z</time>
      </trkpt>
      <trkpt lat="40.71497" lon="-1.33704">
        <ele>952.793707</ele>
        <time>2022-02-22T22:34:51.394Z</time>
      </trkpt>
      <trkpt lat="40.71298" lon="-1.33665">
        <ele>953.008698</ele>
        <time>2022-02-22T22:36:05.945Z</time>
      </trkpt>
      <trkpt lat="40.71132" lon="-1.33589">
        <ele>953.633288</ele>
        <time>2022-02-22T22:37:14.757Z</time>
      </trkpt>
      <trkpt lat="40.70973" lon="-1.33525">
        <ele>954.403297</ele>
        <time>2022-02-22T22:38:20.683Z</time>
      </trkpt>
      <trkpt lat="40.70246" lon="-1.3331">
        <ele>957.763759</ele>
        <time>2022-02-22T22:43:14.602Z</time>
      </trkpt>
      <trkpt lat="40.70104" lon="-1.33323">
        <ele>957.286264</ele>
        <time>2022-02-22T22:44:05.908Z</time>
      </trkpt>
      <trkpt lat="40.70059" lon="-1.33497">
        <ele>956.682577</ele>
        <time>2022-02-22T22:44:34.222Z</time>
      </trkpt>
      <trkpt lat="40.69917" lon="-1.33923">
        <ele>956.262705</ele>
        <time>2022-02-22T22:45:51.267Z</time>
      </trkpt>
      <trkpt lat="40.69859" lon="-1.34073">
        <ele>956.834328</ele>
        <time>2022-02-22T22:46:23.235Z</time>
      </trkpt>
      <trkpt lat="40.6974" lon="-1.34333">
        <ele>959.056961</ele>
        <time>2022-02-22T22:47:26.437Z</time>
      </trkpt>
      <trkpt lat="40.69599" lon="-1.34558">
        <ele>961.230133</ele>
        <time>2022-02-22T22:48:26.434Z</time>
      </trkpt>
      <trkpt lat="40.69496" lon="-1.34574">
        <ele>962.02329</ele>
        <time>2022-02-22T22:48:55.047Z</time>
      </trkpt>
      <trkpt lat="40.69458" lon="-1.34605">
        <ele>962.227753</ele>
        <time>2022-02-22T22:49:06.213Z</time>
      </trkpt>
      <trkpt lat="40.69426" lon="-1.34644">
        <ele>962.427153</ele>
        <time>2022-02-22T22:49:16.660Z</time>
      </trkpt>
      <trkpt lat="40.69441" lon="-1.34677">
        <ele>962.562358</ele>
        <time>2022-02-22T22:49:23.251Z</time>
      </trkpt>
      <trkpt lat="40.69449" lon="-1.34742">
        <ele>962.595007</ele>
        <time>2022-02-22T22:49:34.171Z</time>
      </trkpt>
      <trkpt lat="40.69404" lon="-1.34791">
        <ele>962.480656</ele>
        <time>2022-02-22T22:49:46.442Z</time>
      </trkpt>
      <trkpt lat="40.69369" lon="-1.34827">
        <ele>962.391386</ele>
        <time>2022-02-22T22:49:55.679Z</time>
      </trkpt>
      <trkpt lat="40.69336" lon="-1.34856">
        <ele>962.311576</ele>
        <time>2022-02-22T22:50:04.362Z</time>
      </trkpt>
      <trkpt lat="40.69247" lon="-1.34925">
        <ele>962.8012</ele>
        <time>2022-02-22T22:50:29.725Z</time>
      </trkpt>
      <trkpt lat="40.69165" lon="-1.34964">
        <ele>963.260645</ele>
        <time>2022-02-22T22:50:52.384Z</time>
      </trkpt>
      <trkpt lat="40.69153" lon="-1.34971">
        <ele>963.321116</ele>
        <time>2022-02-22T22:50:56.156Z</time>
      </trkpt>
      <trkpt lat="40.69061" lon="-1.35053">
        <ele>963.809495</ele>
        <time>2022-02-22T22:51:23.976Z</time>
      </trkpt>
      <trkpt lat="40.69043" lon="-1.35075">
        <ele>963.915693</ele>
        <time>2022-02-22T22:51:29.480Z</time>
      </trkpt>
      <trkpt lat="40.69015" lon="-1.35137">
        <ele>964.106349</ele>
        <time>2022-02-22T22:51:41.630Z</time>
      </trkpt>
      <trkpt lat="40.68998" lon="-1.35155">
        <ele>964.15798</ele>
        <time>2022-02-22T22:51:46.323Z</time>
      </trkpt>
      <trkpt lat="40.68876" lon="-1.35185">
        <ele>964.463746</ele>
        <time>2022-02-22T22:52:16.101Z</time>
      </trkpt>
      <trkpt lat="40.68826" lon="-1.35216">
        <ele>964.700973</ele>
        <time>2022-02-22T22:52:29.826Z</time>
      </trkpt>
      <trkpt lat="40.68729" lon="-1.35339">
        <ele>965.317158</ele>
        <time>2022-02-22T22:53:03.198Z</time>
      </trkpt>
      <trkpt lat="40.68659" lon="-1.35471">
        <ele>965.591677</ele>
        <time>2022-02-22T22:53:31.224Z</time>
      </trkpt>
      <trkpt lat="40.68655" lon="-1.35486">
        <ele>965.619175</ele>
        <time>2022-02-22T22:53:33.964Z</time>
      </trkpt>
      <trkpt lat="40.68654" lon="-1.35513">
        <ele>965.664683</ele>
        <time>2022-02-22T22:53:38.777Z</time>
      </trkpt>
      <trkpt lat="40.68658" lon="-1.35604">
        <ele>965.81388</ele>
        <time>2022-02-22T22:53:54.828Z</time>
      </trkpt>
      <trkpt lat="40.68628" lon="-1.35664">
        <ele>965.927839</ele>
        <time>2022-02-22T22:54:07.282Z</time>
      </trkpt>
      <trkpt lat="40.68617" lon="-1.35674">
        <ele>965.956309</ele>
        <time>2022-02-22T22:54:10.618Z</time>
      </trkpt>
      <trkpt lat="40.68411" lon="-1.35648">
        <ele>966.580157</ele>
        <time>2022-02-22T22:54:59.308Z</time>
      </trkpt>
      <trkpt lat="40.6833" lon="-1.35678">
        <ele>967.00604</ele>
        <time>2022-02-22T22:55:20.144Z</time>
      </trkpt>
      <trkpt lat="40.68303" lon="-1.35689">
        <ele>967.189914</ele>
        <time>2022-02-22T22:55:27.517Z</time>
      </trkpt>
      <trkpt lat="40.68272" lon="-1.3571">
        <ele>967.419582</ele>
        <time>2022-02-22T22:55:36.640Z</time>
      </trkpt>
      <trkpt lat="40.68236" lon="-1.35764">
        <ele>967.775585</ele>
        <time>2022-02-22T22:55:50.635Z</time>
      </trkpt>
      <trkpt lat="40.6823" lon="-1.35779">
        <ele>967.863341</ele>
        <time>2022-02-22T22:55:54.063Z</time>
      </trkpt>
      <trkpt lat="40.68214" lon="-1.35817">
        <ele>968.010311</ele>
        <time>2022-02-22T22:56:02.303Z</time>
      </trkpt>
      <trkpt lat="40.68193" lon="-1.35859">
        <ele>968.172548</ele>
        <time>2022-02-22T22:56:11.810Z</time>
      </trkpt>
      <trkpt lat="40.6818" lon="-1.35874">
        <ele>968.246585</ele>
        <time>2022-02-22T22:56:16.169Z</time>
      </trkpt>
      <trkpt lat="40.68097" lon="-1.35951">
        <ele>968.682466</ele>
        <time>2022-02-22T22:56:40.430Z</time>
      </trkpt>
      <trkpt lat="40.68076" lon="-1.35979">
        <ele>968.825268</ele>
        <time>2022-02-22T22:56:47.137Z</time>
      </trkpt>
      <trkpt lat="40.6806" lon="-1.36018">
        <ele>968.986243</ele>
        <time>2022-02-22T22:56:54.995Z</time>
      </trkpt>
      <trkpt lat="40.68018" lon="-1.36185">
        <ele>969.759952</ele>
        <time>2022-02-22T22:57:28.769Z</time>
      </trkpt>
      <trkpt lat="40.68017" lon="-1.36211">
        <ele>969.963231</ele>
        <time>2022-02-22T22:57:34.043Z</time>
      </trkpt>
      <trkpt lat="40.68046" lon="-1.36432">
        <ele>971.914722</ele>
        <time>2022-02-22T22:58:21.258Z</time>
      </trkpt>
      <trkpt lat="40.68208" lon="-1.36839">
        <ele>977.693111</ele>
        <time>2022-02-22T23:00:09.088Z</time>
      </trkpt>
      <trkpt lat="40.6834" lon="-1.37247">
        <ele>982.531302</ele>
        <time>2022-02-22T23:01:47.773Z</time>
      </trkpt>
      <trkpt lat="40.68352" lon="-1.37295">
        <ele>983.103552</ele>
        <time>2022-02-22T23:01:59.030Z</time>
      </trkpt>
      <trkpt lat="40.68453" lon="-1.37847">
        <ele>989.484887</ele>
        <time>2022-02-22T23:04:06.918Z</time>
      </trkpt>
      <trkpt lat="40.68447" lon="-1.38347">
        <ele>995.256456</ele>
        <time>2022-02-22T23:05:58.944Z</time>
      </trkpt>
      <trkpt lat="40.68459" lon="-1.38744">
        <ele>1001.389496</ele>
        <time>2022-02-22T23:07:37.336Z</time>
      </trkpt>
      <trkpt lat="40.68475" lon="-1.39018">
        <ele>1006.365923</ele>
        <time>2022-02-22T23:08:47.638Z</time>
      </trkpt>
      <trkpt lat="40.68468" lon="-1.3957">
        <ele>1017.874338</ele>
        <time>2022-02-22T23:11:21.008Z</time>
      </trkpt>
      <trkpt lat="40.68395" lon="-1.40181">
        <ele>1027.078815</ele>
        <time>2022-02-22T23:13:49.180Z</time>
      </trkpt>
      <trkpt lat="40.68399" lon="-1.40432">
        <ele>1030.602148</ele>
        <time>2022-02-22T23:14:53.148Z</time>
      </trkpt>
      <trkpt lat="40.68433" lon="-1.40701">
        <ele>1032.666508</ele>
        <time>2022-02-22T23:15:48.238Z</time>
      </trkpt>
      <trkpt lat="40.6842" lon="-1.40821">
        <ele>1032.906482</ele>
        <time>2022-02-22T23:16:08.495Z</time>
      </trkpt>
      <trkpt lat="40.68468" lon="-1.41115">
        <ele>1032.404785</ele>
        <time>2022-02-22T23:16:57.326Z</time>
      </trkpt>
      <trkpt lat="40.68469" lon="-1.41276">
        <ele>1032.350107</ele>
        <time>2022-02-22T23:17:24.077Z</time>
      </trkpt>
      <trkpt lat="40.68489" lon="-1.41358">
        <ele>1032.654939</ele>
        <time>2022-02-22T23:17:38.754Z</time>
      </trkpt>
      <trkpt lat="40.68491" lon="-1.41468">
        <ele>1033.049063</ele>
        <time>2022-02-22T23:18:00.498Z</time>
      </trkpt>
      <trkpt lat="40.68488" lon="-1.41536">
        <ele>1033.897974</ele>
        <time>2022-02-22T23:18:15.760Z</time>
      </trkpt>
      <trkpt lat="40.68438" lon="-1.41729">
        <ele>1036.662255</ele>
        <time>2022-02-22T23:19:05.741Z</time>
      </trkpt>
      <trkpt lat="40.68435" lon="-1.41754">
        <ele>1037.020622</ele>
        <time>2022-02-22T23:19:12.180Z</time>
      </trkpt>
      <trkpt lat="40.68435" lon="-1.41903">
        <ele>1039.10714</ele>
        <time>2022-02-22T23:19:47.694Z</time>
      </trkpt>
      <trkpt lat="40.68412" lon="-1.42367">
        <ele>1044.899603</ele>
        <time>2022-02-22T23:21:34.725Z</time>
      </trkpt>
      <trkpt lat="40.68355" lon="-1.42609">
        <ele>1047.485023</ele>
        <time>2022-02-22T23:22:32.980Z</time>
      </trkpt>
      <trkpt lat="40.68348" lon="-1.42693">
        <ele>1047.670518</ele>
        <time>2022-02-22T23:22:47.161Z</time>
      </trkpt>
      <trkpt lat="40.6831" lon="-1.42811">
        <ele>1047.45163</ele>
        <time>2022-02-22T23:23:07.636Z</time>
      </trkpt>
      <trkpt lat="40.68312" lon="-1.42835">
        <ele>1047.411157</ele>
        <time>2022-02-22T23:23:11.190Z</time>
      </trkpt>
      <trkpt lat="40.68321" lon="-1.42867">
        <ele>1047.366596</ele>
        <time>2022-02-22T23:23:16.558Z</time>
      </trkpt>
      <trkpt lat="40.68307" lon="-1.42909">
        <ele>1047.438261</ele>
        <time>2022-02-22T23:23:23.807Z</time>
      </trkpt>
      <trkpt lat="40.6825" lon="-1.43024">
        <ele>1047.655298</ele>
        <time>2022-02-22T23:23:46.989Z</time>
      </trkpt>
      <trkpt lat="40.68214" lon="-1.4306">
        <ele>1047.858088</ele>
        <time>2022-02-22T23:24:00.096Z</time>
      </trkpt>
      <trkpt lat="40.68164" lon="-1.43087">
        <ele>1048.73602</ele>
        <time>2022-02-22T23:24:16.055Z</time>
      </trkpt>
      <trkpt lat="40.68149" lon="-1.43102">
        <ele>1049.047007</ele>
        <time>2022-02-22T23:24:21.806Z</time>
      </trkpt>
      <trkpt lat="40.68143" lon="-1.43135">
        <ele>1049.467746</ele>
        <time>2022-02-22T23:24:29.802Z</time>
      </trkpt>
      <trkpt lat="40.68145" lon="-1.43203">
        <ele>1050.313205</ele>
        <time>2022-02-22T23:24:46.104Z</time>
      </trkpt>
      <trkpt lat="40.68122" lon="-1.4324">
        <ele>1050.963941</ele>
        <time>2022-02-22T23:24:57.857Z</time>
      </trkpt>
      <trkpt lat="40.6809" lon="-1.43276">
        <ele>1051.814483</ele>
        <time>2022-02-22T23:25:11.494Z</time>
      </trkpt>
      <trkpt lat="40.68082" lon="-1.43308">
        <ele>1052.336947</ele>
        <time>2022-02-22T23:25:19.815Z</time>
      </trkpt>
      <trkpt lat="40.68092" lon="-1.43395">
        <ele>1053.678718</ele>
        <time>2022-02-22T23:25:40.810Z</time>
      </trkpt>
      <trkpt lat="40.6809" lon="-1.43462">
        <ele>1054.936186</ele>
        <time>2022-02-22T23:25:57.490Z</time>
      </trkpt>
      <trkpt lat="40.68045" lon="-1.43552">
        <ele>1057.484611</ele>
        <time>2022-02-22T23:26:26.665Z</time>
      </trkpt>
      <trkpt lat="40.68035" lon="-1.43562">
        <ele>1057.874708</ele>
        <time>2022-02-22T23:26:31.645Z</time>
      </trkpt>
      <trkpt lat="40.68008" lon="-1.4357">
        <ele>1058.732751</ele>
        <time>2022-02-22T23:26:42.214Z</time>
      </trkpt>
      <trkpt lat="40.67888" lon="-1.4356">
        <ele>1063.659948</ele>
        <time>2022-02-22T23:27:35.080Z</time>
      </trkpt>
      <trkpt lat="40.67703" lon="-1.43443">
        <ele>1073.217132</ele>
        <time>2022-02-22T23:29:10.176Z</time>
      </trkpt>
      <trkpt lat="40.67671" lon="-1.43432">
        <ele>1074.798501</ele>
        <time>2022-02-22T23:29:24.790Z</time>
      </trkpt>
      <trkpt lat="40.67643" lon="-1.43439">
        <ele>1076.157758</ele>
        <time>2022-02-22T23:29:37.645Z</time>
      </trkpt>
      <trkpt lat="40.67616" lon="-1.43454">
        <ele>1077.715835</ele>
        <time>2022-02-22T23:29:51.054Z</time>
      </trkpt>
      <trkpt lat="40.67594" lon="-1.43518">
        <ele>1080.789245</ele>
        <time>2022-02-22T23:30:17.439Z</time>
      </trkpt>
      <trkpt lat="40.67585" lon="-1.43581">
        <ele>1083.545973</ele>
        <time>2022-02-22T23:30:41.134Z</time>
      </trkpt>
      <trkpt lat="40.67574" lon="-1.43597">
        <ele>1084.531536</ele>
        <time>2022-02-22T23:30:50.529Z</time>
      </trkpt>
      <trkpt lat="40.67552" lon="-1.43606">
        <ele>1085.844023</ele>
        <time>2022-02-22T23:31:02.720Z</time>
      </trkpt>
      <trkpt lat="40.67502" lon="-1.43604">
        <ele>1088.925487</ele>
        <time>2022-02-22T23:31:31.252Z</time>
      </trkpt>
      <trkpt lat="40.67461" lon="-1.43591">
        <ele>1091.726481</ele>
        <time>2022-02-22T23:31:56.548Z</time>
      </trkpt>
      <trkpt lat="40.67322" lon="-1.43509">
        <ele>1101.189323</ele>
        <time>2022-02-22T23:33:18.572Z</time>
      </trkpt>
      <trkpt lat="40.67287" lon="-1.43502">
        <ele>1103.027328</ele>
        <time>2022-02-22T23:33:35.332Z</time>
      </trkpt>
      <trkpt lat="40.67236" lon="-1.43503">
        <ele>1105.759561</ele>
        <time>2022-02-22T23:33:59.065Z</time>
      </trkpt>
      <trkpt lat="40.6722" lon="-1.43508">
        <ele>1106.614209</ele>
        <time>2022-02-22T23:34:06.355Z</time>
      </trkpt>
      <trkpt lat="40.67198" lon="-1.43526">
        <ele>1108.027601</ele>
        <time>2022-02-22T23:34:18.079Z</time>
      </trkpt>
      <trkpt lat="40.67182" lon="-1.43583">
        <ele>1111.241464</ele>
        <time>2022-02-22T23:34:40.269Z</time>
      </trkpt>
      <trkpt lat="40.67186" lon="-1.43621">
        <ele>1113.38182</ele>
        <time>2022-02-22T23:34:55.530Z</time>
      </trkpt>
      <trkpt lat="40.67228" lon="-1.43695">
        <ele>1118.436902</ele>
        <time>2022-02-22T23:35:37.649Z</time>
      </trkpt>
      <trkpt lat="40.67232" lon="-1.43711">
        <ele>1119.335339</ele>
        <time>2022-02-22T23:35:46.140Z</time>
      </trkpt>
      <trkpt lat="40.67226" lon="-1.4374">
        <ele>1121.03358</ele>
        <time>2022-02-22T23:36:02.619Z</time>
      </trkpt>
      <trkpt lat="40.67207" lon="-1.43761">
        <ele>1123.257535</ele>
        <time>2022-02-22T23:36:20.120Z</time>
      </trkpt>
      <trkpt lat="40.67001" lon="-1.43879">
        <ele>1143.568064</ele>
        <time>2022-02-22T23:39:01.389Z</time>
      </trkpt>
      <trkpt lat="40.6687" lon="-1.43912">
        <ele>1152.680102</ele>
        <time>2022-02-22T23:40:11.284Z</time>
      </trkpt>
      <trkpt lat="40.66735" lon="-1.43916">
        <ele>1157.930026</ele>
        <time>2022-02-22T23:41:07.168Z</time>
      </trkpt>
      <trkpt lat="40.66722" lon="-1.43921">
        <ele>1158.461545</ele>
        <time>2022-02-22T23:41:12.550Z</time>
      </trkpt>
      <trkpt lat="40.66594" lon="-1.44048">
        <ele>1161.378101</ele>
        <time>2022-02-22T23:42:04.094Z</time>
      </trkpt>
      <trkpt lat="40.66525" lon="-1.44071">
        <ele>1162.074749</ele>
        <time>2022-02-22T23:42:19.337Z</time>
      </trkpt>
      <trkpt lat="40.6644" lon="-1.44121">
        <ele>1162.464982</ele>
        <time>2022-02-22T23:42:39.842Z</time>
      </trkpt>
      <trkpt lat="40.6638" lon="-1.44143">
        <ele>1163.04412</ele>
        <time>2022-02-22T23:42:56.999Z</time>
      </trkpt>
      <trkpt lat="40.6637" lon="-1.44165">
        <ele>1163.559595</ele>
        <time>2022-02-22T23:43:02.692Z</time>
      </trkpt>
      <trkpt lat="40.66329" lon="-1.44457">
        <ele>1169.944</ele>
        <time>2022-02-22T23:44:29.194Z</time>
      </trkpt>
      <trkpt lat="40.66323" lon="-1.44475">
        <ele>1170.408555</ele>
        <time>2022-02-22T23:44:34.625Z</time>
      </trkpt>
      <trkpt lat="40.66253" lon="-1.44585">
        <ele>1173.67565</ele>
        <time>2022-02-22T23:45:14.551Z</time>
      </trkpt>
      <trkpt lat="40.66239" lon="-1.44639">
        <ele>1174.92741</ele>
        <time>2022-02-22T23:45:30.186Z</time>
      </trkpt>
      <trkpt lat="40.66223" lon="-1.44666">
        <ele>1175.696126</ele>
        <time>2022-02-22T23:45:40.083Z</time>
      </trkpt>
      <trkpt lat="40.66165" lon="-1.4474">
        <ele>1178.050712</ele>
        <time>2022-02-22T23:46:12.128Z</time>
      </trkpt>
      <trkpt lat="40.66077" lon="-1.44817">
        <ele>1178.371001</ele>
        <time>2022-02-22T23:46:44.360Z</time>
      </trkpt>
      <trkpt lat="40.66056" lon="-1.44857">
        <ele>1178.409253</ele>
        <time>2022-02-22T23:46:51.739Z</time>
      </trkpt>
      <trkpt lat="40.66051" lon="-1.4488">
        <ele>1178.428065</ele>
        <time>2022-02-22T23:46:55.080Z</time>
      </trkpt>
      <trkpt lat="40.66049" lon="-1.44978">
        <ele>1176.381049</ele>
        <time>2022-02-22T23:47:07.775Z</time>
      </trkpt>
      <trkpt lat="40.66027" lon="-1.45068">
        <ele>1173.205859</ele>
        <time>2022-02-22T23:47:19.427Z</time>
      </trkpt>
      <trkpt lat="40.65988" lon="-1.45147">
        <ele>1170.054985</ele>
        <time>2022-02-22T23:47:30.467Z</time>
      </trkpt>
      <trkpt lat="40.65977" lon="-1.45221">
        <ele>1167.357806</ele>
        <time>2022-02-22T23:47:39.499Z</time>
      </trkpt>
      <trkpt lat="40.65985" lon="-1.45272">
        <ele>1165.497026</ele>
        <time>2022-02-22T23:47:45.885Z</time>
      </trkpt>
      <trkpt lat="40.6604" lon="-1.45374">
        <ele>1161.472248</ele>
        <time>2022-02-22T23:48:01.476Z</time>
      </trkpt>
      <trkpt lat="40.66052" lon="-1.45417">
        <ele>1160.514321</ele>
        <time>2022-02-22T23:48:07.233Z</time>
      </trkpt>
      <trkpt lat="40.66051" lon="-1.45439">
        <ele>1160.046074</ele>
        <time>2022-02-22T23:48:10.055Z</time>
      </trkpt>
      <trkpt lat="40.65993" lon="-1.45488">
        <ele>1158.164093</ele>
        <time>2022-02-22T23:48:22.046Z</time>
      </trkpt>
      <trkpt lat="40.65942" lon="-1.45565">
        <ele>1158.075669</ele>
        <time>2022-02-22T23:48:37.887Z</time>
      </trkpt>
      <trkpt lat="40.65918" lon="-1.45628">
        <ele>1159.244606</ele>
        <time>2022-02-22T23:48:53.621Z</time>
      </trkpt>
      <trkpt lat="40.65853" lon="-1.45686">
        <ele>1160.947712</ele>
        <time>2022-02-22T23:49:26.090Z</time>
      </trkpt>
      <trkpt lat="40.6581" lon="-1.45752">
        <ele>1164.037716</ele>
        <time>2022-02-22T23:49:58.886Z</time>
      </trkpt>
      <trkpt lat="40.65781" lon="-1.45775">
        <ele>1165.704648</ele>
        <time>2022-02-22T23:50:16.965Z</time>
      </trkpt>
      <trkpt lat="40.65758" lon="-1.45784">
        <ele>1166.90377</ele>
        <time>2022-02-22T23:50:29.554Z</time>
      </trkpt>
      <trkpt lat="40.65661" lon="-1.45797">
        <ele>1170.542442</ele>
        <time>2022-02-22T23:51:12.096Z</time>
      </trkpt>
      <trkpt lat="40.65643" lon="-1.45806">
        <ele>1170.841222</ele>
        <time>2022-02-22T23:51:18.776Z</time>
      </trkpt>
      <trkpt lat="40.65614" lon="-1.45836">
        <ele>1171.438275</ele>
        <time>2022-02-22T23:51:29.739Z</time>
      </trkpt>
      <trkpt lat="40.65578" lon="-1.45885">
        <ele>1172.27501</ele>
        <time>2022-02-22T23:51:42.260Z</time>
      </trkpt>
      <trkpt lat="40.65557" lon="-1.45949">
        <ele>1173.036</ele>
        <time>2022-02-22T23:51:53.772Z</time>
      </trkpt>
      <trkpt lat="40.65522" lon="-1.45978">
        <ele>1173.497438</ele>
        <time>2022-02-22T23:52:02.726Z</time>
      </trkpt>
      <trkpt lat="40.65502" lon="-1.46008">
        <ele>1173.842211</ele>
        <time>2022-02-22T23:52:10.043Z</time>
      </trkpt>
      <trkpt lat="40.65462" lon="-1.46095">
        <ele>1174.705979</ele>
        <time>2022-02-22T23:52:33.725Z</time>
      </trkpt>
      <trkpt lat="40.65397" lon="-1.46192">
        <ele>1176.955934</ele>
        <time>2022-02-22T23:53:10.639Z</time>
      </trkpt>
      <trkpt lat="40.65367" lon="-1.46252">
        <ele>1178.321495</ele>
        <time>2022-02-22T23:53:30.523Z</time>
      </trkpt>
      <trkpt lat="40.65347" lon="-1.46364">
        <ele>1179.5704</ele>
        <time>2022-02-22T23:53:57.726Z</time>
      </trkpt>
      <trkpt lat="40.6535" lon="-1.46437">
        <ele>1179.799194</ele>
        <time>2022-02-22T23:54:11.367Z</time>
      </trkpt>
      <trkpt lat="40.65341" lon="-1.46515">
        <ele>1180.046839</ele>
        <time>2022-02-22T23:54:23.651Z</time>
      </trkpt>
      <trkpt lat="40.65324" lon="-1.46576">
        <ele>1180.275644</ele>
        <time>2022-02-22T23:54:33.894Z</time>
      </trkpt>
      <trkpt lat="40.6529" lon="-1.46626">
        <ele>1180.527901</ele>
        <time>2022-02-22T23:54:44.748Z</time>
      </trkpt>
      <trkpt lat="40.65186" lon="-1.46707">
        <ele>1181.667769</ele>
        <time>2022-02-22T23:55:17.394Z</time>
      </trkpt>
      <trkpt lat="40.65095" lon="-1.4683">
        <ele>1185.669366</ele>
        <time>2022-02-22T23:56:07.949Z</time>
      </trkpt>
      <trkpt lat="40.64908" lon="-1.46917">
        <ele>1193.630669</ele>
        <time>2022-02-22T23:57:34.936Z</time>
      </trkpt>
      <trkpt lat="40.64888" lon="-1.46924">
        <ele>1194.46903</ele>
        <time>2022-02-22T23:57:43.545Z</time>
      </trkpt>
      <trkpt lat="40.64842" lon="-1.46919">
        <ele>1196.194446</ele>
        <time>2022-02-22T23:58:02.229Z</time>
      </trkpt>
      <trkpt lat="40.64791" lon="-1.46933">
        <ele>1198.140796</ele>
        <time>2022-02-22T23:58:22.646Z</time>
      </trkpt>
      <trkpt lat="40.6464" lon="-1.47031">
        <ele>1204.872189</ele>
        <time>2022-02-22T23:59:33.065Z</time>
      </trkpt>
      <trkpt lat="40.64537" lon="-1.47124">
        <ele>1209.910143</ele>
        <time>2022-02-23T00:00:29.110Z</time>
      </trkpt>
      <trkpt lat="40.64495" lon="-1.47157">
        <ele>1211.735048</ele>
        <time>2022-02-23T00:00:50.242Z</time>
      </trkpt>
      <trkpt lat="40.6448" lon="-1.47161">
        <ele>1212.295934</ele>
        <time>2022-02-23T00:00:56.319Z</time>
      </trkpt>
      <trkpt lat="40.6445" lon="-1.47156">
        <ele>1213.410178</ele>
        <time>2022-02-23T00:01:08.577Z</time>
      </trkpt>
      <trkpt lat="40.64294" lon="-1.47044">
        <ele>1218.47131</ele>
        <time>2022-02-23T00:02:12.591Z</time>
      </trkpt>
      <trkpt lat="40.64263" lon="-1.4702">
        <ele>1219.388211</ele>
        <time>2022-02-23T00:02:24.965Z</time>
      </trkpt>
      <trkpt lat="40.6424" lon="-1.47002">
        <ele>1220.206421</ele>
        <time>2022-02-23T00:02:34.240Z</time>
      </trkpt>
      <trkpt lat="40.64229" lon="-1.46986">
        <ele>1220.760997</ele>
        <time>2022-02-23T00:02:39.994Z</time>
      </trkpt>
      <trkpt lat="40.64198" lon="-1.46968">
        <ele>1221.889164</ele>
        <time>2022-02-23T00:02:52.476Z</time>
      </trkpt>
      <trkpt lat="40.64171" lon="-1.47006">
        <ele>1223.220586</ele>
        <time>2022-02-23T00:03:08.265Z</time>
      </trkpt>
      <trkpt lat="40.64149" lon="-1.47019">
        <ele>1224.035048</ele>
        <time>2022-02-23T00:03:17.896Z</time>
      </trkpt>
      <trkpt lat="40.64135" lon="-1.47034">
        <ele>1224.640807</ele>
        <time>2022-02-23T00:03:25.320Z</time>
      </trkpt>
      <trkpt lat="40.64098" lon="-1.47103">
        <ele>1227.586808</ele>
        <time>2022-02-23T00:03:53.609Z</time>
      </trkpt>
      <trkpt lat="40.64089" lon="-1.4712">
        <ele>1228.53541</ele>
        <time>2022-02-23T00:04:01.549Z</time>
      </trkpt>
      <trkpt lat="40.64067" lon="-1.47113">
        <ele>1229.849985</ele>
        <time>2022-02-23T00:04:12.316Z</time>
      </trkpt>
      <trkpt lat="40.64046" lon="-1.47092">
        <ele>1231.400019</ele>
        <time>2022-02-23T00:04:25.758Z</time>
      </trkpt>
      <trkpt lat="40.64043" lon="-1.47088">
        <ele>1231.616933</ele>
        <time>2022-02-23T00:04:27.566Z</time>
      </trkpt>
      <trkpt lat="40.64029" lon="-1.47073">
        <ele>1232.653171</ele>
        <time>2022-02-23T00:04:36.916Z</time>
      </trkpt>
      <trkpt lat="40.64006" lon="-1.47073">
        <ele>1233.989142</ele>
        <time>2022-02-23T00:04:49.403Z</time>
      </trkpt>
      <trkpt lat="40.63985" lon="-1.47066">
        <ele>1235.250637</ele>
        <time>2022-02-23T00:05:01.838Z</time>
      </trkpt>
      <trkpt lat="40.6392" lon="-1.47071">
        <ele>1240.831597</ele>
        <time>2022-02-23T00:05:45.944Z</time>
      </trkpt>
      <trkpt lat="40.6388" lon="-1.4709">
        <ele>1244.789376</ele>
        <time>2022-02-23T00:06:15.932Z</time>
      </trkpt>
      <trkpt lat="40.63863" lon="-1.47081">
        <ele>1246.45049</ele>
        <time>2022-02-23T00:06:28.255Z</time>
      </trkpt>
      <trkpt lat="40.63841" lon="-1.47081">
        <ele>1248.520176</ele>
        <time>2022-02-23T00:06:44.251Z</time>
      </trkpt>
      <trkpt lat="40.63806" lon="-1.47085">
        <ele>1251.696395</ele>
        <time>2022-02-23T00:07:09.008Z</time>
      </trkpt>
      <trkpt lat="40.63735" lon="-1.47128">
        <ele>1259.695401</ele>
        <time>2022-02-23T00:08:08.953Z</time>
      </trkpt>
      <trkpt lat="40.63718" lon="-1.47147">
        <ele>1262.066263</ele>
        <time>2022-02-23T00:08:26.774Z</time>
      </trkpt>
      <trkpt lat="40.63684" lon="-1.47206">
        <ele>1267.925936</ele>
        <time>2022-02-23T00:09:10.578Z</time>
      </trkpt>
      <trkpt lat="40.63601" lon="-1.47275">
        <ele>1277.408816</ele>
        <time>2022-02-23T00:10:20.040Z</time>
      </trkpt>
      <trkpt lat="40.63574" lon="-1.47328">
        <ele>1281.893531</ele>
        <time>2022-02-23T00:10:54.497Z</time>
      </trkpt>
      <trkpt lat="40.63537" lon="-1.4737">
        <ele>1286.423725</ele>
        <time>2022-02-23T00:11:28.129Z</time>
      </trkpt>
      <trkpt lat="40.63519" lon="-1.4741">
        <ele>1289.236933</ele>
        <time>2022-02-23T00:11:51.709Z</time>
      </trkpt>
      <trkpt lat="40.63456" lon="-1.47478">
        <ele>1294.535671</ele>
        <time>2022-02-23T00:12:40.713Z</time>
      </trkpt>
      <trkpt lat="40.63428" lon="-1.47526">
        <ele>1297.580647</ele>
        <time>2022-02-23T00:13:04.916Z</time>
      </trkpt>
      <trkpt lat="40.6338" lon="-1.4763">
        <ele>1301.381837</ele>
        <time>2022-02-23T00:13:45.301Z</time>
      </trkpt>
      <trkpt lat="40.63361" lon="-1.47659">
        <ele>1302.170222</ele>
        <time>2022-02-23T00:13:56.415Z</time>
      </trkpt>
      <trkpt lat="40.63353" lon="-1.47692">
        <ele>1302.867502</ele>
        <time>2022-02-23T00:14:05.176Z</time>
      </trkpt>
      <trkpt lat="40.63351" lon="-1.47743">
        <ele>1303.888679</ele>
        <time>2022-02-23T00:14:16.699Z</time>
      </trkpt>
      <trkpt lat="40.6332" lon="-1.47881">
        <ele>1306.65445</ele>
        <time>2022-02-23T00:14:49.083Z</time>
      </trkpt>
      <trkpt lat="40.63323" lon="-1.47965">
        <ele>1308.240513</ele>
        <time>2022-02-23T00:15:12.371Z</time>
      </trkpt>
      <trkpt lat="40.63334" lon="-1.48039">
        <ele>1310.298647</ele>
        <time>2022-02-23T00:15:37.096Z</time>
      </trkpt>
      <trkpt lat="40.633" lon="-1.48217">
        <ele>1317.782832</ele>
        <time>2022-02-23T00:16:47.529Z</time>
      </trkpt>
      <trkpt lat="40.63295" lon="-1.48286">
        <ele>1320.738578</ele>
        <time>2022-02-23T00:17:18.404Z</time>
      </trkpt>
      <trkpt lat="40.633" lon="-1.48346">
        <ele>1323.324733</ele>
        <time>2022-02-23T00:17:43.456Z</time>
      </trkpt>
      <trkpt lat="40.6332" lon="-1.48429">
        <ele>1327.052197</ele>
        <time>2022-02-23T00:18:16.264Z</time>
      </trkpt>
      <trkpt lat="40.63328" lon="-1.4844">
        <ele>1327.728875</ele>
        <time>2022-02-23T00:18:21.939Z</time>
      </trkpt>
      <trkpt lat="40.63344" lon="-1.48446">
        <ele>1328.653999</ele>
        <time>2022-02-23T00:18:29.641Z</time>
      </trkpt>
      <trkpt lat="40.63354" lon="-1.48421">
        <ele>1329.736137</ele>
        <time>2022-02-23T00:18:39.996Z</time>
      </trkpt>
      <trkpt lat="40.63347" lon="-1.48326">
        <ele>1333.196592</ele>
        <time>2022-02-23T00:19:12.403Z</time>
      </trkpt>
      <trkpt lat="40.63352" lon="-1.48297">
        <ele>1334.247316</ele>
        <time>2022-02-23T00:19:21.857Z</time>
      </trkpt>
      <trkpt lat="40.63371" lon="-1.48256">
        <ele>1335.989678</ele>
        <time>2022-02-23T00:19:37.280Z</time>
      </trkpt>
      <trkpt lat="40.63391" lon="-1.48232">
        <ele>1337.309991</ele>
        <time>2022-02-23T00:19:50.673Z</time>
      </trkpt>
      <trkpt lat="40.63431" lon="-1.48202">
        <ele>1341.322757</ele>
        <time>2022-02-23T00:20:16.120Z</time>
      </trkpt>
      <trkpt lat="40.63514" lon="-1.48156">
        <ele>1349.728922</ele>
        <time>2022-02-23T00:21:18.101Z</time>
      </trkpt>
      <trkpt lat="40.63598" lon="-1.48089">
        <ele>1360.712219</ele>
        <time>2022-02-23T00:22:44.064Z</time>
      </trkpt>
      <trkpt lat="40.63641" lon="-1.48068">
        <ele>1366.64022</ele>
        <time>2022-02-23T00:23:27.779Z</time>
      </trkpt>
      <trkpt lat="40.63653" lon="-1.48068">
        <ele>1368.189162</ele>
        <time>2022-02-23T00:23:38.437Z</time>
      </trkpt>
      <trkpt lat="40.63688" lon="-1.48089">
        <ele>1373.067672</ele>
        <time>2022-02-23T00:24:12.960Z</time>
      </trkpt>
      <trkpt lat="40.6369" lon="-1.48091">
        <ele>1373.412662</ele>
        <time>2022-02-23T00:24:15.405Z</time>
      </trkpt>
      <trkpt lat="40.63702" lon="-1.48108">
        <ele>1375.6692</ele>
        <time>2022-02-23T00:24:31.171Z</time>
      </trkpt>
      <trkpt lat="40.63709" lon="-1.48147">
        <ele>1379.0268</ele>
        <time>2022-02-23T00:24:56.667Z</time>
      </trkpt>
      <trkpt lat="40.63713" lon="-1.48164">
        <ele>1380.269765</ele>
        <time>2022-02-23T00:25:07.417Z</time>
      </trkpt>
      <trkpt lat="40.63788" lon="-1.48374">
        <ele>1394.641182</ele>
        <time>2022-02-23T00:27:04.703Z</time>
      </trkpt>
      <trkpt lat="40.63793" lon="-1.48451">
        <ele>1396.032503</ele>
        <time>2022-02-23T00:27:27.121Z</time>
      </trkpt>
      <trkpt lat="40.63806" lon="-1.48593">
        <ele>1397.968005</ele>
        <time>2022-02-23T00:27:52.982Z</time>
      </trkpt>
      <trkpt lat="40.63754" lon="-1.49021">
        <ele>1389.316724</ele>
        <time>2022-02-23T00:28:52.604Z</time>
      </trkpt>
      <trkpt lat="40.63747" lon="-1.49054">
        <ele>1388.680794</ele>
        <time>2022-02-23T00:28:57.586Z</time>
      </trkpt>
      <trkpt lat="40.63736" lon="-1.49082">
        <ele>1388.306695</ele>
        <time>2022-02-23T00:29:02.101Z</time>
      </trkpt>
      <trkpt lat="40.63718" lon="-1.49108">
        <ele>1387.899196</ele>
        <time>2022-02-23T00:29:07.120Z</time>
      </trkpt>
      <trkpt lat="40.63662" lon="-1.49169">
        <ele>1386.757624</ele>
        <time>2022-02-23T00:29:21.635Z</time>
      </trkpt>
      <trkpt lat="40.63644" lon="-1.49205">
        <ele>1386.247872</ele>
        <time>2022-02-23T00:29:28.402Z</time>
      </trkpt>
      <trkpt lat="40.63627" lon="-1.49298">
        <ele>1386.079419</ele>
        <time>2022-02-23T00:29:44.329Z</time>
      </trkpt>
      <trkpt lat="40.63606" lon="-1.49545">
        <ele>1386.459018</ele>
        <time>2022-02-23T00:30:32.875Z</time>
      </trkpt>
      <trkpt lat="40.63598" lon="-1.49636">
        <ele>1386.678062</ele>
        <time>2022-02-23T00:30:50.336Z</time>
      </trkpt>
      <trkpt lat="40.63579" lon="-1.4971">
        <ele>1386.706969</ele>
        <time>2022-02-23T00:31:04.397Z</time>
      </trkpt>
      <trkpt lat="40.6357" lon="-1.49772">
        <ele>1386.34198</ele>
        <time>2022-02-23T00:31:15.123Z</time>
      </trkpt>
      <trkpt lat="40.6357" lon="-1.49781">
        <ele>1386.291634</ele>
        <time>2022-02-23T00:31:16.492Z</time>
      </trkpt>
      <trkpt lat="40.63599" lon="-1.50093">
        <ele>1384.450272</ele>
        <time>2022-02-23T00:32:05.547Z</time>
      </trkpt>
      <trkpt lat="40.63702" lon="-1.50594">
        <ele>1383.802544</ele>
        <time>2022-02-23T00:33:36.530Z</time>
      </trkpt>
      <trkpt lat="40.63723" lon="-1.50661">
        <ele>1383.41913</ele>
        <time>2022-02-23T00:33:48.653Z</time>
      </trkpt>
      <trkpt lat="40.63811" lon="-1.50856">
        <ele>1381.48158</ele>
        <time>2022-02-23T00:34:24.019Z</time>
      </trkpt>
      <trkpt lat="40.63839" lon="-1.50902">
        <ele>1380.629844</ele>
        <time>2022-02-23T00:34:32.737Z</time>
      </trkpt>
      <trkpt lat="40.63926" lon="-1.5104">
        <ele>1378.04476</ele>
        <time>2022-02-23T00:34:58.634Z</time>
      </trkpt>
      <trkpt lat="40.63944" lon="-1.51081">
        <ele>1377.33949</ele>
        <time>2022-02-23T00:35:05.362Z</time>
      </trkpt>
      <trkpt lat="40.63993" lon="-1.51263">
        <ele>1374.404523</ele>
        <time>2022-02-23T00:35:33.921Z</time>
      </trkpt>
      <trkpt lat="40.63998" lon="-1.51392">
        <ele>1372.39207</ele>
        <time>2022-02-23T00:35:52.703Z</time>
      </trkpt>
      <trkpt lat="40.64005" lon="-1.51437">
        <ele>1371.670667</ele>
        <time>2022-02-23T00:35:59.340Z</time>
      </trkpt>
      <trkpt lat="40.63971" lon="-1.51376">
        <ele>1370.344933</ele>
        <time>2022-02-23T00:36:10.148Z</time>
      </trkpt>
      <trkpt lat="40.6392" lon="-1.51444">
        <ele>1368.643408</ele>
        <time>2022-02-23T00:36:23.418Z</time>
      </trkpt>
      <trkpt lat="40.63882" lon="-1.51415">
        <ele>1367.597653</ele>
        <time>2022-02-23T00:36:31.342Z</time>
      </trkpt>
      <trkpt lat="40.63859" lon="-1.51416">
        <ele>1367.090404</ele>
        <time>2022-02-23T00:36:35.416Z</time>
      </trkpt>
      <trkpt lat="40.63756" lon="-1.51458">
        <ele>1365.422854</ele>
        <time>2022-02-23T00:36:55.217Z</time>
      </trkpt>
      <trkpt lat="40.63691" lon="-1.51451">
        <ele>1364.400473</ele>
        <time>2022-02-23T00:37:08.282Z</time>
      </trkpt>
      <trkpt lat="40.63659" lon="-1.51441">
        <ele>1364.287817</ele>
        <time>2022-02-23T00:37:15.005Z</time>
      </trkpt>
      <trkpt lat="40.63393" lon="-1.51294">
        <ele>1363.888162</ele>
        <time>2022-02-23T00:38:19.297Z</time>
      </trkpt>
      <trkpt lat="40.63391" lon="-1.51292">
        <ele>1363.885927</ele>
        <time>2022-02-23T00:38:19.897Z</time>
      </trkpt>
      <trkpt lat="40.63217" lon="-1.51185">
        <ele>1363.281812</ele>
        <time>2022-02-23T00:39:00.829Z</time>
      </trkpt>
      <trkpt lat="40.63091" lon="-1.51076">
        <ele>1362.458699</ele>
        <time>2022-02-23T00:39:31.630Z</time>
      </trkpt>
      <trkpt lat="40.63052" lon="-1.51051">
        <ele>1362.200469</ele>
        <time>2022-02-23T00:39:40.721Z</time>
      </trkpt>
      <trkpt lat="40.63015" lon="-1.51033">
        <ele>1362.098047</ele>
        <time>2022-02-23T00:39:49.050Z</time>
      </trkpt>
      <trkpt lat="40.6276" lon="-1.50963">
        <ele>1362.272834</ele>
        <time>2022-02-23T00:40:47.191Z</time>
      </trkpt>
      <trkpt lat="40.62639" lon="-1.5093">
        <ele>1362.875416</ele>
        <time>2022-02-23T00:41:18.687Z</time>
      </trkpt>
      <trkpt lat="40.62579" lon="-1.50919">
        <ele>1363.343729</ele>
        <time>2022-02-23T00:41:34.694Z</time>
      </trkpt>
      <trkpt lat="40.62234" lon="-1.50888">
        <ele>1366.388918</ele>
        <time>2022-02-23T00:43:05.922Z</time>
      </trkpt>
      <trkpt lat="40.61976" lon="-1.50783">
        <ele>1369.511842</ele>
        <time>2022-02-23T00:44:23.318Z</time>
      </trkpt>
      <trkpt lat="40.61905" lon="-1.50748">
        <ele>1370.218913</ele>
        <time>2022-02-23T00:44:43.683Z</time>
      </trkpt>
      <trkpt lat="40.61805" lon="-1.50651">
        <ele>1371.367387</ele>
        <time>2022-02-23T00:45:16.236Z</time>
      </trkpt>
      <trkpt lat="40.61735" lon="-1.50566">
        <ele>1372.229421</ele>
        <time>2022-02-23T00:45:42.556Z</time>
      </trkpt>
      <trkpt lat="40.61605" lon="-1.50388">
        <ele>1373.444846</ele>
        <time>2022-02-23T00:46:30.711Z</time>
      </trkpt>
      <trkpt lat="40.61572" lon="-1.50352">
        <ele>1373.670843</ele>
        <time>2022-02-23T00:46:40.520Z</time>
      </trkpt>
      <trkpt lat="40.61406" lon="-1.50256">
        <ele>1374.563704</ele>
        <time>2022-02-23T00:47:23.495Z</time>
      </trkpt>
      <trkpt lat="40.60886" lon="-1.49976">
        <ele>1384.614185</ele>
        <time>2022-02-23T00:50:17.529Z</time>
      </trkpt>
      <trkpt lat="40.60854" lon="-1.4995">
        <ele>1385.970476</ele>
        <time>2022-02-23T00:50:31.913Z</time>
      </trkpt>
      <trkpt lat="40.60588" lon="-1.49585">
        <ele>1400.168647</ele>
        <time>2022-02-23T00:53:17.816Z</time>
      </trkpt>
      <trkpt lat="40.60518" lon="-1.49419">
        <ele>1402.91149</ele>
        <time>2022-02-23T00:54:02.419Z</time>
      </trkpt>
      <trkpt lat="40.60495" lon="-1.49399">
        <ele>1402.882099</ele>
        <time>2022-02-23T00:54:08.820Z</time>
      </trkpt>
      <trkpt lat="40.60448" lon="-1.49373">
        <ele>1402.827104</ele>
        <time>2022-02-23T00:54:19.694Z</time>
      </trkpt>
      <trkpt lat="40.6036" lon="-1.49331">
        <ele>1401.807583</ele>
        <time>2022-02-23T00:54:37.843Z</time>
      </trkpt>
      <trkpt lat="40.60052" lon="-1.49245">
        <ele>1392.632462</ele>
        <time>2022-02-23T00:55:31.617Z</time>
      </trkpt>
      <trkpt lat="40.60014" lon="-1.49241">
        <ele>1391.928738</ele>
        <time>2022-02-23T00:55:38.348Z</time>
      </trkpt>
      <trkpt lat="40.59984" lon="-1.49247">
        <ele>1391.49072</ele>
        <time>2022-02-23T00:55:43.884Z</time>
      </trkpt>
      <trkpt lat="40.59887" lon="-1.49302">
        <ele>1389.960387</ele>
        <time>2022-02-23T00:56:04.567Z</time>
      </trkpt>
      <trkpt lat="40.5975" lon="-1.49307">
        <ele>1390.019865</ele>
        <time>2022-02-23T00:56:36.029Z</time>
      </trkpt>
      <trkpt lat="40.59716" lon="-1.493">
        <ele>1390.102077</ele>
        <time>2022-02-23T00:56:44.883Z</time>
      </trkpt>
      <trkpt lat="40.59672" lon="-1.49281">
        <ele>1390.298613</ele>
        <time>2022-02-23T00:56:56.653Z</time>
      </trkpt>
      <trkpt lat="40.59597" lon="-1.49234">
        <ele>1390.82088</ele>
        <time>2022-02-23T00:57:18.046Z</time>
      </trkpt>
      <trkpt lat="40.59089" lon="-1.49143">
        <ele>1393.980445</ele>
        <time>2022-02-23T00:59:25.617Z</time>
      </trkpt>
      <trkpt lat="40.59048" lon="-1.4913">
        <ele>1394.415685</ele>
        <time>2022-02-23T00:59:37.292Z</time>
      </trkpt>
      <trkpt lat="40.59001" lon="-1.49107">
        <ele>1394.920655</ele>
        <time>2022-02-23T00:59:51.670Z</time>
      </trkpt>
      <trkpt lat="40.589" lon="-1.49028">
        <ele>1397.329401</ele>
        <time>2022-02-23T01:00:29.924Z</time>
      </trkpt>
      <trkpt lat="40.58853" lon="-1.48997">
        <ele>1398.449554</ele>
        <time>2022-02-23T01:00:48.272Z</time>
      </trkpt>
      <trkpt lat="40.58769" lon="-1.48966">
        <ele>1400.232535</ele>
        <time>2022-02-23T01:01:18.088Z</time>
      </trkpt>
      <trkpt lat="40.58713" lon="-1.48951">
        <ele>1401.410357</ele>
        <time>2022-02-23T01:01:37.505Z</time>
      </trkpt>
      <trkpt lat="40.58192" lon="-1.48875">
        <ele>1408.833894</ele>
        <time>2022-02-23T01:04:09.664Z</time>
      </trkpt>
      <trkpt lat="40.58123" lon="-1.48863">
        <ele>1409.68597</ele>
        <time>2022-02-23T01:04:28.565Z</time>
      </trkpt>
      <trkpt lat="40.58086" lon="-1.4885">
        <ele>1410.157255</ele>
        <time>2022-02-23T01:04:39.047Z</time>
      </trkpt>
      <trkpt lat="40.58061" lon="-1.48836">
        <ele>1410.487276</ele>
        <time>2022-02-23T01:04:46.310Z</time>
      </trkpt>
      <trkpt lat="40.58024" lon="-1.488">
        <ele>1411.059117</ele>
        <time>2022-02-23T01:04:59.154Z</time>
      </trkpt>
      <trkpt lat="40.57837" lon="-1.48649">
        <ele>1414.449069</ele>
        <time>2022-02-23T01:06:05.437Z</time>
      </trkpt>
      <trkpt lat="40.57599" lon="-1.48433">
        <ele>1419.313918</ele>
        <time>2022-02-23T01:07:39.011Z</time>
      </trkpt>
      <trkpt lat="40.57511" lon="-1.48336">
        <ele>1420.127525</ele>
        <time>2022-02-23T01:08:06.327Z</time>
      </trkpt>
      <trkpt lat="40.57227" lon="-1.48115">
        <ele>1417.140085</ele>
        <time>2022-02-23T01:09:11.392Z</time>
      </trkpt>
      <trkpt lat="40.57046" lon="-1.47926">
        <ele>1415.723767</ele>
        <time>2022-02-23T01:09:59.296Z</time>
      </trkpt>
      <trkpt lat="40.56998" lon="-1.47882">
        <ele>1415.419991</ele>
        <time>2022-02-23T01:10:11.794Z</time>
      </trkpt>
      <trkpt lat="40.56815" lon="-1.47758">
        <ele>1414.374593</ele>
        <time>2022-02-23T01:10:54.777Z</time>
      </trkpt>
      <trkpt lat="40.567" lon="-1.47641">
        <ele>1413.410848</ele>
        <time>2022-02-23T01:11:25.103Z</time>
      </trkpt>
      <trkpt lat="40.56326" lon="-1.4715">
        <ele>1409.548502</ele>
        <time>2022-02-23T01:13:11.807Z</time>
      </trkpt>
      <trkpt lat="40.56315" lon="-1.47141">
        <ele>1409.499302</ele>
        <time>2022-02-23T01:13:14.929Z</time>
      </trkpt>
      <trkpt lat="40.56295" lon="-1.47128">
        <ele>1409.414205</ele>
        <time>2022-02-23T01:13:19.839Z</time>
      </trkpt>
      <trkpt lat="40.56299" lon="-1.47087">
        <ele>1409.295903</ele>
        <time>2022-02-23T01:13:26.701Z</time>
      </trkpt>
      <trkpt lat="40.56273" lon="-1.47053">
        <ele>1409.154857</ele>
        <time>2022-02-23T01:13:34.976Z</time>
      </trkpt>
      <trkpt lat="40.56223" lon="-1.47031">
        <ele>1408.837129</ele>
        <time>2022-02-23T01:13:46.821Z</time>
      </trkpt>
      <trkpt lat="40.56203" lon="-1.47026">
        <ele>1408.709468</ele>
        <time>2022-02-23T01:13:51.301Z</time>
      </trkpt>
      <trkpt lat="40.56155" lon="-1.47038">
        <ele>1408.412994</ele>
        <time>2022-02-23T01:14:02.069Z</time>
      </trkpt>
      <trkpt lat="40.56122" lon="-1.47037">
        <ele>1408.206791</ele>
        <time>2022-02-23T01:14:09.198Z</time>
      </trkpt>
      <trkpt lat="40.56112" lon="-1.47038">
        <ele>1408.147745</ele>
        <time>2022-02-23T01:14:11.249Z</time>
      </trkpt>
      <trkpt lat="40.561" lon="-1.4702">
        <ele>1408.025166</ele>
        <time>2022-02-23T01:14:14.862Z</time>
      </trkpt>
      <trkpt lat="40.56091" lon="-1.47014">
        <ele>1407.833021</ele>
        <time>2022-02-23T01:14:16.976Z</time>
      </trkpt>
      <trkpt lat="40.56091" lon="-1.46969">
        <ele>1407.193915</ele>
        <time>2022-02-23T01:14:23.686Z</time>
      </trkpt>
      <trkpt lat="40.56074" lon="-1.46959">
        <ele>1406.847711</ele>
        <time>2022-02-23T01:14:27.116Z</time>
      </trkpt>
      <trkpt lat="40.55974" lon="-1.4687">
        <ele>1404.579885</ele>
        <time>2022-02-23T01:14:49.225Z</time>
      </trkpt>
      <trkpt lat="40.55962" lon="-1.4685">
        <ele>1404.186191</ele>
        <time>2022-02-23T01:14:52.671Z</time>
      </trkpt>
      <trkpt lat="40.55915" lon="-1.46779">
        <ele>1402.711678</ele>
        <time>2022-02-23T01:15:05.662Z</time>
      </trkpt>
      <trkpt lat="40.55853" lon="-1.46709">
        <ele>1401.036855</ele>
        <time>2022-02-23T01:15:20.520Z</time>
      </trkpt>
      <trkpt lat="40.55775" lon="-1.46659">
        <ele>1400.03403</ele>
        <time>2022-02-23T01:15:37.074Z</time>
      </trkpt>
      <trkpt lat="40.55674" lon="-1.46609">
        <ele>1398.904501</ele>
        <time>2022-02-23T01:15:59.009Z</time>
      </trkpt>
      <trkpt lat="40.556" lon="-1.46582">
        <ele>1398.614911</ele>
        <time>2022-02-23T01:16:15.226Z</time>
      </trkpt>
      <trkpt lat="40.55572" lon="-1.46562">
        <ele>1398.493204</ele>
        <time>2022-02-23T01:16:22.119Z</time>
      </trkpt>
      <trkpt lat="40.55533" lon="-1.46518">
        <ele>1398.300527</ele>
        <time>2022-02-23T01:16:33.064Z</time>
      </trkpt>
      <trkpt lat="40.55512" lon="-1.46508">
        <ele>1398.356477</ele>
        <time>2022-02-23T01:16:37.803Z</time>
      </trkpt>
      <trkpt lat="40.55445" lon="-1.46506">
        <ele>1398.739995</ele>
        <time>2022-02-23T01:16:53.197Z</time>
      </trkpt>
      <trkpt lat="40.55368" lon="-1.46472">
        <ele>1399.194821</ele>
        <time>2022-02-23T01:17:13.697Z</time>
      </trkpt>
      <trkpt lat="40.55266" lon="-1.46374">
        <ele>1401.483356</ele>
        <time>2022-02-23T01:17:54.267Z</time>
      </trkpt>
      <trkpt lat="40.55199" lon="-1.46337">
        <ele>1402.907803</ele>
        <time>2022-02-23T01:18:19.230Z</time>
      </trkpt>
      <trkpt lat="40.55131" lon="-1.4631">
        <ele>1403.591076</ele>
        <time>2022-02-23T01:18:43.033Z</time>
      </trkpt>
      <trkpt lat="40.54631" lon="-1.46084">
        <ele>1407.208747</ele>
        <time>2022-02-23T01:20:56.615Z</time>
      </trkpt>
      <trkpt lat="40.5443" lon="-1.45993">
        <ele>1405.271039</ele>
        <time>2022-02-23T01:21:39.898Z</time>
      </trkpt>
      <trkpt lat="40.54332" lon="-1.45975">
        <ele>1403.399826</ele>
        <time>2022-02-23T01:21:57.389Z</time>
      </trkpt>
      <trkpt lat="40.54186" lon="-1.45966">
        <ele>1398.738037</ele>
        <time>2022-02-23T01:22:22.324Z</time>
      </trkpt>
      <trkpt lat="40.54141" lon="-1.45969">
        <ele>1397.089859</ele>
        <time>2022-02-23T01:22:29.837Z</time>
      </trkpt>
      <trkpt lat="40.54098" lon="-1.45982">
        <ele>1395.362878</ele>
        <time>2022-02-23T01:22:37.161Z</time>
      </trkpt>
      <trkpt lat="40.53993" lon="-1.4604">
        <ele>1390.938687</ele>
        <time>2022-02-23T01:22:55.954Z</time>
      </trkpt>
      <trkpt lat="40.53934" lon="-1.46061">
        <ele>1388.40635</ele>
        <time>2022-02-23T01:23:05.907Z</time>
      </trkpt>
      <trkpt lat="40.53898" lon="-1.46062">
        <ele>1386.927608</ele>
        <time>2022-02-23T01:23:11.731Z</time>
      </trkpt>
      <trkpt lat="40.53871" lon="-1.46056">
        <ele>1385.808039</ele>
        <time>2022-02-23T01:23:16.170Z</time>
      </trkpt>
      <trkpt lat="40.53787" lon="-1.46026">
        <ele>1382.542418</ele>
        <time>2022-02-23T01:23:30.595Z</time>
      </trkpt>
      <trkpt lat="40.53599" lon="-1.45832">
        <ele>1375.364787</ele>
        <time>2022-02-23T01:24:11.905Z</time>
      </trkpt>
      <trkpt lat="40.53573" lon="-1.458">
        <ele>1374.406722</ele>
        <time>2022-02-23T01:24:18.295Z</time>
      </trkpt>
      <trkpt lat="40.53542" lon="-1.45726">
        <ele>1372.645816</ele>
        <time>2022-02-23T01:24:29.904Z</time>
      </trkpt>
      <trkpt lat="40.53447" lon="-1.45614">
        <ele>1369.088237</ele>
        <time>2022-02-23T01:24:52.163Z</time>
      </trkpt>
      <trkpt lat="40.53413" lon="-1.45585">
        <ele>1367.986019</ele>
        <time>2022-02-23T01:24:58.979Z</time>
      </trkpt>
      <trkpt lat="40.53373" lon="-1.45567">
        <ele>1367.038609</ele>
        <time>2022-02-23T01:25:06.260Z</time>
      </trkpt>
      <trkpt lat="40.53315" lon="-1.45554">
        <ele>1365.714417</ele>
        <time>2022-02-23T01:25:16.684Z</time>
      </trkpt>
      <trkpt lat="40.53271" lon="-1.45555">
        <ele>1364.714811</ele>
        <time>2022-02-23T01:25:24.846Z</time>
      </trkpt>
      <trkpt lat="40.53186" lon="-1.45585">
        <ele>1362.893216</ele>
        <time>2022-02-23T01:25:42.178Z</time>
      </trkpt>
      <trkpt lat="40.53158" lon="-1.45581">
        <ele>1362.341934</ele>
        <time>2022-02-23T01:25:47.582Z</time>
      </trkpt>
      <trkpt lat="40.53129" lon="-1.45521">
        <ele>1361.28954</ele>
        <time>2022-02-23T01:25:57.556Z</time>
      </trkpt>
      <trkpt lat="40.53106" lon="-1.45488">
        <ele>1360.621998</ele>
        <time>2022-02-23T01:26:03.579Z</time>
      </trkpt>
      <trkpt lat="40.53056" lon="-1.4544">
        <ele>1358.455872</ele>
        <time>2022-02-23T01:26:14.055Z</time>
      </trkpt>
      <trkpt lat="40.52978" lon="-1.45379">
        <ele>1355.057504</ele>
        <time>2022-02-23T01:26:29.050Z</time>
      </trkpt>
      <trkpt lat="40.52908" lon="-1.45333">
        <ele>1352.400503</ele>
        <time>2022-02-23T01:26:41.762Z</time>
      </trkpt>
      <trkpt lat="40.52848" lon="-1.45304">
        <ele>1350.342172</ele>
        <time>2022-02-23T01:26:52.687Z</time>
      </trkpt>
      <trkpt lat="40.52827" lon="-1.45285">
        <ele>1349.514947</ele>
        <time>2022-02-23T01:26:57.214Z</time>
      </trkpt>
      <trkpt lat="40.52795" lon="-1.45224">
        <ele>1347.706871</ele>
        <time>2022-02-23T01:27:07.204Z</time>
      </trkpt>
      <trkpt lat="40.52753" lon="-1.45177">
        <ele>1346.032899</ele>
        <time>2022-02-23T01:27:16.952Z</time>
      </trkpt>
      <trkpt lat="40.52717" lon="-1.45147">
        <ele>1344.713198</ele>
        <time>2022-02-23T01:27:24.427Z</time>
      </trkpt>
      <trkpt lat="40.52613" lon="-1.45123">
        <ele>1341.139245</ele>
        <time>2022-02-23T01:27:41.984Z</time>
      </trkpt>
      <trkpt lat="40.52459" lon="-1.45122">
        <ele>1334.749721</ele>
        <time>2022-02-23T01:28:06.962Z</time>
      </trkpt>
      <trkpt lat="40.52356" lon="-1.45103">
        <ele>1331.223844</ele>
        <time>2022-02-23T01:28:24.223Z</time>
      </trkpt>
      <trkpt lat="40.52308" lon="-1.45115">
        <ele>1329.588557</ele>
        <time>2022-02-23T01:28:32.591Z</time>
      </trkpt>
      <trkpt lat="40.52" lon="-1.45288">
        <ele>1324.938404</ele>
        <time>2022-02-23T01:29:37.714Z</time>
      </trkpt>
      <trkpt lat="40.51916" lon="-1.4528">
        <ele>1324.036654</ele>
        <time>2022-02-23T01:29:54.768Z</time>
      </trkpt>
      <trkpt lat="40.51755" lon="-1.45241">
        <ele>1322.305058</ele>
        <time>2022-02-23T01:30:27.316Z</time>
      </trkpt>
      <trkpt lat="40.51707" lon="-1.45237">
        <ele>1321.672729</ele>
        <time>2022-02-23T01:30:36.575Z</time>
      </trkpt>
      <trkpt lat="40.51647" lon="-1.45239">
        <ele>1320.875338</ele>
        <time>2022-02-23T01:30:48.236Z</time>
      </trkpt>
      <trkpt lat="40.5146" lon="-1.45284">
        <ele>1317.494069</ele>
        <time>2022-02-23T01:31:23.932Z</time>
      </trkpt>
      <trkpt lat="40.51316" lon="-1.45296">
        <ele>1313.512637</ele>
        <time>2022-02-23T01:31:49.325Z</time>
      </trkpt>
      <trkpt lat="40.51277" lon="-1.45304">
        <ele>1312.297004</ele>
        <time>2022-02-23T01:31:55.981Z</time>
      </trkpt>
      <trkpt lat="40.51246" lon="-1.45321">
        <ele>1311.261862</ele>
        <time>2022-02-23T01:32:01.572Z</time>
      </trkpt>
      <trkpt lat="40.51165" lon="-1.45382">
        <ele>1307.243725</ele>
        <time>2022-02-23T01:32:16.798Z</time>
      </trkpt>
      <trkpt lat="40.5107" lon="-1.45426">
        <ele>1303.021741</ele>
        <time>2022-02-23T01:32:32.999Z</time>
      </trkpt>
      <trkpt lat="40.51049" lon="-1.45447">
        <ele>1302.119767</ele>
        <time>2022-02-23T01:32:37.240Z</time>
      </trkpt>
      <trkpt lat="40.51019" lon="-1.45503">
        <ele>1300.325302</ele>
        <time>2022-02-23T01:32:45.792Z</time>
      </trkpt>
      <trkpt lat="40.51" lon="-1.45523">
        <ele>1299.458834</ele>
        <time>2022-02-23T01:32:49.995Z</time>
      </trkpt>
      <trkpt lat="40.50974" lon="-1.45533">
        <ele>1298.52427</ele>
        <time>2022-02-23T01:32:54.562Z</time>
      </trkpt>
      <trkpt lat="40.50808" lon="-1.45547">
        <ele>1295.790571</ele>
        <time>2022-02-23T01:33:25.474Z</time>
      </trkpt>
      <trkpt lat="40.50537" lon="-1.45582">
        <ele>1295.851118</ele>
        <time>2022-02-23T01:34:34.694Z</time>
      </trkpt>
      <trkpt lat="40.50494" lon="-1.45583">
        <ele>1295.512638</ele>
        <time>2022-02-23T01:34:44.027Z</time>
      </trkpt>
      <trkpt lat="40.50366" lon="-1.45564">
        <ele>1293.47101</ele>
        <time>2022-02-23T01:35:08.204Z</time>
      </trkpt>
      <trkpt lat="40.50329" lon="-1.45566">
        <ele>1292.067668</ele>
        <time>2022-02-23T01:35:14.608Z</time>
      </trkpt>
      <trkpt lat="40.50157" lon="-1.45664">
        <ele>1283.698664</ele>
        <time>2022-02-23T01:35:44.499Z</time>
      </trkpt>
      <trkpt lat="40.49937" lon="-1.4576">
        <ele>1272.459801</ele>
        <time>2022-02-23T01:36:20.331Z</time>
      </trkpt>
      <trkpt lat="40.4984" lon="-1.45796">
        <ele>1271.353396</ele>
        <time>2022-02-23T01:36:40.550Z</time>
      </trkpt>
      <trkpt lat="40.49836" lon="-1.4577">
        <ele>1271.752395</ele>
        <time>2022-02-23T01:36:47.120Z</time>
      </trkpt>
      <trkpt lat="40.49814" lon="-1.45654">
        <ele>1273.553267</ele>
        <time>2022-02-23T01:37:23.081Z</time>
      </trkpt>
      <trkpt lat="40.49791" lon="-1.45608">
        <ele>1274.732898</ele>
        <time>2022-02-23T01:37:41.625Z</time>
      </trkpt>
      <trkpt lat="40.49728" lon="-1.45506">
        <ele>1278.021418</ele>
        <time>2022-02-23T01:38:23.598Z</time>
      </trkpt>
      <trkpt lat="40.49688" lon="-1.45393">
        <ele>1280.224357</ele>
        <time>2022-02-23T01:38:55.204Z</time>
      </trkpt>
      <trkpt lat="40.49593" lon="-1.44951">
        <ele>1282.162408</ele>
        <time>2022-02-23T01:40:21.299Z</time>
      </trkpt>
      <trkpt lat="40.49568" lon="-1.44884">
        <ele>1281.772724</ele>
        <time>2022-02-23T01:40:33.159Z</time>
      </trkpt>
      <trkpt lat="40.49552" lon="-1.44853">
        <ele>1281.57881</ele>
        <time>2022-02-23T01:40:38.915Z</time>
      </trkpt>
      <trkpt lat="40.49172" lon="-1.44276">
        <ele>1272.672575</ele>
        <time>2022-02-23T01:42:28.594Z</time>
      </trkpt>
      <trkpt lat="40.49138" lon="-1.44203">
        <ele>1271.141195</ele>
        <time>2022-02-23T01:42:40.626Z</time>
      </trkpt>
      <trkpt lat="40.48838" lon="-1.43438">
        <ele>1252.933679</ele>
        <time>2022-02-23T01:44:34.692Z</time>
      </trkpt>
      <trkpt lat="40.48815" lon="-1.43397">
        <ele>1251.741133</ele>
        <time>2022-02-23T01:44:41.260Z</time>
      </trkpt>
      <trkpt lat="40.48677" lon="-1.43193">
        <ele>1245.292764</ele>
        <time>2022-02-23T01:45:16.497Z</time>
      </trkpt>
      <trkpt lat="40.48634" lon="-1.43227">
        <ele>1244.126382</ele>
        <time>2022-02-23T01:45:25.311Z</time>
      </trkpt>
      <trkpt lat="40.48618" lon="-1.4323">
        <ele>1243.740408</ele>
        <time>2022-02-23T01:45:28.286Z</time>
      </trkpt>
      <trkpt lat="40.48598" lon="-1.43224">
        <ele>1243.259462</ele>
        <time>2022-02-23T01:45:32.042Z</time>
      </trkpt>
      <trkpt lat="40.48534" lon="-1.43185">
        <ele>1241.684787</ele>
        <time>2022-02-23T01:45:45.446Z</time>
      </trkpt>
      <trkpt lat="40.48473" lon="-1.43188">
        <ele>1240.529261</ele>
        <time>2022-02-23T01:45:57.160Z</time>
      </trkpt>
      <trkpt lat="40.48455" lon="-1.43184">
        <ele>1240.189796</ele>
        <time>2022-02-23T01:46:00.543Z</time>
      </trkpt>
      <trkpt lat="40.48431" lon="-1.43173">
        <ele>1239.70123</ele>
        <time>2022-02-23T01:46:05.352Z</time>
      </trkpt>
      <trkpt lat="40.48384" lon="-1.43135">
        <ele>1238.659594</ele>
        <time>2022-02-23T01:46:15.086Z</time>
      </trkpt>
      <trkpt lat="40.48308" lon="-1.43129">
        <ele>1236.117381</ele>
        <time>2022-02-23T01:46:28.406Z</time>
      </trkpt>
      <trkpt lat="40.48241" lon="-1.43144">
        <ele>1233.886374</ele>
        <time>2022-02-23T01:46:39.687Z</time>
      </trkpt>
      <trkpt lat="40.48167" lon="-1.43103">
        <ele>1231.23607</ele>
        <time>2022-02-23T01:46:53.117Z</time>
      </trkpt>
      <trkpt lat="40.48147" lon="-1.43084">
        <ele>1230.458382</ele>
        <time>2022-02-23T01:46:57.060Z</time>
      </trkpt>
      <trkpt lat="40.48117" lon="-1.43075">
        <ele>1229.458392</ele>
        <time>2022-02-23T01:47:02.285Z</time>
      </trkpt>
      <trkpt lat="40.48058" lon="-1.43082">
        <ele>1227.545782</ele>
        <time>2022-02-23T01:47:12.573Z</time>
      </trkpt>
      <trkpt lat="40.47937" lon="-1.43124">
        <ele>1224.558639</ele>
        <time>2022-02-23T01:47:35.098Z</time>
      </trkpt>
      <trkpt lat="40.47787" lon="-1.43135">
        <ele>1221.539072</ele>
        <time>2022-02-23T01:48:02.831Z</time>
      </trkpt>
      <trkpt lat="40.47714" lon="-1.4315">
        <ele>1220.20309</ele>
        <time>2022-02-23T01:48:16.454Z</time>
      </trkpt>
      <trkpt lat="40.47674" lon="-1.43164">
        <ele>1219.510686</ele>
        <time>2022-02-23T01:48:24.323Z</time>
      </trkpt>
      <trkpt lat="40.47607" lon="-1.43208">
        <ele>1218.650278</ele>
        <time>2022-02-23T01:48:38.606Z</time>
      </trkpt>
      <trkpt lat="40.47589" lon="-1.43214">
        <ele>1218.440191</ele>
        <time>2022-02-23T01:48:42.214Z</time>
      </trkpt>
      <trkpt lat="40.47552" lon="-1.43216">
        <ele>1218.011763</ele>
        <time>2022-02-23T01:48:49.652Z</time>
      </trkpt>
      <trkpt lat="40.47453" lon="-1.43236">
        <ele>1217.584313</ele>
        <time>2022-02-23T01:49:10.433Z</time>
      </trkpt>
      <trkpt lat="40.47387" lon="-1.43259">
        <ele>1217.613052</ele>
        <time>2022-02-23T01:49:25.986Z</time>
      </trkpt>
      <trkpt lat="40.47322" lon="-1.43274">
        <ele>1217.775899</ele>
        <time>2022-02-23T01:49:42.105Z</time>
      </trkpt>
      <trkpt lat="40.47014" lon="-1.43259">
        <ele>1220.438125</ele>
        <time>2022-02-23T01:51:06.999Z</time>
      </trkpt>
      <trkpt lat="40.46956" lon="-1.43252">
        <ele>1220.34948</ele>
        <time>2022-02-23T01:51:21.331Z</time>
      </trkpt>
      <trkpt lat="40.46827" lon="-1.43214">
        <ele>1218.086817</ele>
        <time>2022-02-23T01:51:46.994Z</time>
      </trkpt>
      <trkpt lat="40.46763" lon="-1.43174">
        <ele>1214.96947</ele>
        <time>2022-02-23T01:51:58.281Z</time>
      </trkpt>
      <trkpt lat="40.46741" lon="-1.43164">
        <ele>1213.614952</ele>
        <time>2022-02-23T01:52:01.834Z</time>
      </trkpt>
      <trkpt lat="40.46722" lon="-1.43162">
        <ele>1212.481833</ele>
        <time>2022-02-23T01:52:04.735Z</time>
      </trkpt>
      <trkpt lat="40.46686" lon="-1.43169">
        <ele>1210.373242</ele>
        <time>2022-02-23T01:52:10.167Z</time>
      </trkpt>
      <trkpt lat="40.46634" lon="-1.43193">
        <ele>1207.085023</ele>
        <time>2022-02-23T01:52:18.646Z</time>
      </trkpt>
      <trkpt lat="40.46586" lon="-1.43174">
        <ele>1203.881399</ele>
        <time>2022-02-23T01:52:26.114Z</time>
      </trkpt>
      <trkpt lat="40.46511" lon="-1.43198">
        <ele>1198.835195</ele>
        <time>2022-02-23T01:52:38.165Z</time>
      </trkpt>
      <trkpt lat="40.46428" lon="-1.43188">
        <ele>1192.718574</ele>
        <time>2022-02-23T01:52:50.671Z</time>
      </trkpt>
      <trkpt lat="40.46398" lon="-1.43177">
        <ele>1189.901273</ele>
        <time>2022-02-23T01:52:55.212Z</time>
      </trkpt>
      <trkpt lat="40.46386" lon="-1.43167">
        <ele>1188.586791</ele>
        <time>2022-02-23T01:52:57.258Z</time>
      </trkpt>
      <trkpt lat="40.46326" lon="-1.43039">
        <ele>1178.335589</ele>
        <time>2022-02-23T01:53:13.503Z</time>
      </trkpt>
      <trkpt lat="40.46313" lon="-1.43022">
        <ele>1176.824917</ele>
        <time>2022-02-23T01:53:16.141Z</time>
      </trkpt>
      <trkpt lat="40.46291" lon="-1.43009">
        <ele>1174.885846</ele>
        <time>2022-02-23T01:53:19.523Z</time>
      </trkpt>
      <trkpt lat="40.46267" lon="-1.43008">
        <ele>1172.946623</ele>
        <time>2022-02-23T01:53:22.965Z</time>
      </trkpt>
      <trkpt lat="40.4625" lon="-1.43014">
        <ele>1171.508516</ele>
        <time>2022-02-23T01:53:25.505Z</time>
      </trkpt>
      <trkpt lat="40.4619" lon="-1.43072">
        <ele>1165.496234</ele>
        <time>2022-02-23T01:53:36.469Z</time>
      </trkpt>
      <trkpt lat="40.46166" lon="-1.43089">
        <ele>1163.910158</ele>
        <time>2022-02-23T01:53:40.744Z</time>
      </trkpt>
      <trkpt lat="40.46114" lon="-1.43109">
        <ele>1161.891433</ele>
        <time>2022-02-23T01:53:49.493Z</time>
      </trkpt>
      <trkpt lat="40.4598" lon="-1.43126">
        <ele>1157.779151</ele>
        <time>2022-02-23T01:54:12.766Z</time>
      </trkpt>
      <trkpt lat="40.45951" lon="-1.43138">
        <ele>1157.857938</ele>
        <time>2022-02-23T01:54:18.847Z</time>
      </trkpt>
      <trkpt lat="40.45925" lon="-1.43166">
        <ele>1157.946198</ele>
        <time>2022-02-23T01:54:26.331Z</time>
      </trkpt>
      <trkpt lat="40.45792" lon="-1.4338">
        <ele>1160.820103</ele>
        <time>2022-02-23T01:55:33.781Z</time>
      </trkpt>
      <trkpt lat="40.45768" lon="-1.434">
        <ele>1161.436616</ele>
        <time>2022-02-23T01:55:43.154Z</time>
      </trkpt>
      <trkpt lat="40.45612" lon="-1.43413">
        <ele>1166.087952</ele>
        <time>2022-02-23T01:56:40.367Z</time>
      </trkpt>
      <trkpt lat="40.45588" lon="-1.43424">
        <ele>1166.883786</ele>
        <time>2022-02-23T01:56:50.098Z</time>
      </trkpt>
      <trkpt lat="40.45529" lon="-1.43474">
        <ele>1170.050071</ele>
        <time>2022-02-23T01:57:20.043Z</time>
      </trkpt>
      <trkpt lat="40.45498" lon="-1.43486">
        <ele>1171.819735</ele>
        <time>2022-02-23T01:57:35.486Z</time>
      </trkpt>
      <trkpt lat="40.45441" lon="-1.43471">
        <ele>1175.016244</ele>
        <time>2022-02-23T01:58:05.893Z</time>
      </trkpt>
      <trkpt lat="40.45291" lon="-1.43407">
        <ele>1184.173773</ele>
        <time>2022-02-23T01:59:33.541Z</time>
      </trkpt>
      <trkpt lat="40.45234" lon="-1.43392">
        <ele>1187.657185</ele>
        <time>2022-02-23T02:00:02.792Z</time>
      </trkpt>
      <trkpt lat="40.45186" lon="-1.43405">
        <ele>1190.062122</ele>
        <time>2022-02-23T02:00:23.568Z</time>
      </trkpt>
      <trkpt lat="40.4512" lon="-1.43449">
        <ele>1193.380692</ele>
        <time>2022-02-23T02:00:54.155Z</time>
      </trkpt>
      <trkpt lat="40.45096" lon="-1.43455">
        <ele>1194.496229</ele>
        <time>2022-02-23T02:01:04.572Z</time>
      </trkpt>
      <trkpt lat="40.45073" lon="-1.43452">
        <ele>1195.519782</ele>
        <time>2022-02-23T02:01:14.860Z</time>
      </trkpt>
      <trkpt lat="40.45032" lon="-1.43437">
        <ele>1197.784891</ele>
        <time>2022-02-23T02:01:36.269Z</time>
      </trkpt>
      <trkpt lat="40.45013" lon="-1.43437">
        <ele>1198.925979</ele>
        <time>2022-02-23T02:01:46.613Z</time>
      </trkpt>
      <trkpt lat="40.44963" lon="-1.43466">
        <ele>1202.261655</ele>
        <time>2022-02-23T02:02:15.581Z</time>
      </trkpt>
      <trkpt lat="40.44924" lon="-1.43512">
        <ele>1205.434772</ele>
        <time>2022-02-23T02:02:45.274Z</time>
      </trkpt>
      <trkpt lat="40.44917" lon="-1.43538">
        <ele>1206.680002</ele>
        <time>2022-02-23T02:02:55.230Z</time>
      </trkpt>
      <trkpt lat="40.44923" lon="-1.43603">
        <ele>1209.060925</ele>
        <time>2022-02-23T02:03:22.556Z</time>
      </trkpt>
      <trkpt lat="40.44916" lon="-1.4362">
        <ele>1209.704227</ele>
        <time>2022-02-23T02:03:28.921Z</time>
      </trkpt>
      <trkpt lat="40.44899" lon="-1.43636">
        <ele>1210.604585</ele>
        <time>2022-02-23T02:03:40.269Z</time>
      </trkpt>
      <trkpt lat="40.4488" lon="-1.43644">
        <ele>1211.440045</ele>
        <time>2022-02-23T02:03:48.482Z</time>
      </trkpt>
      <trkpt lat="40.44867" lon="-1.43643">
        <ele>1212.024465</ele>
        <time>2022-02-23T02:03:55.372Z</time>
      </trkpt>
      <trkpt lat="40.44851" lon="-1.43632">
        <ele>1212.788483</ele>
        <time>2022-02-23T02:04:01.822Z</time>
      </trkpt>
      <trkpt lat="40.44663" lon="-1.4346">
        <ele>1218.330363</ele>
        <time>2022-02-23T02:05:20.527Z</time>
      </trkpt>
      <trkpt lat="40.44624" lon="-1.43427">
        <ele>1216.960623</ele>
        <time>2022-02-23T02:05:29.350Z</time>
      </trkpt>
      <trkpt lat="40.44585" lon="-1.43405">
        <ele>1215.276826</ele>
        <time>2022-02-23T02:05:36.709Z</time>
      </trkpt>
      <trkpt lat="40.44359" lon="-1.43355">
        <ele>1204.212127</ele>
        <time>2022-02-23T02:06:11.845Z</time>
      </trkpt>
      <trkpt lat="40.44328" lon="-1.43361">
        <ele>1202.534493</ele>
        <time>2022-02-23T02:06:16.801Z</time>
      </trkpt>
      <trkpt lat="40.44307" lon="-1.43376">
        <ele>1201.285545</ele>
        <time>2022-02-23T02:06:20.811Z</time>
      </trkpt>
      <trkpt lat="40.44293" lon="-1.43392">
        <ele>1200.503737</ele>
        <time>2022-02-23T02:06:23.996Z</time>
      </trkpt>
      <trkpt lat="40.44274" lon="-1.43428">
        <ele>1199.107215</ele>
        <time>2022-02-23T02:06:29.902Z</time>
      </trkpt>
      <trkpt lat="40.44202" lon="-1.43594">
        <ele>1192.228904</ele>
        <time>2022-02-23T02:06:53.858Z</time>
      </trkpt>
      <trkpt lat="40.44122" lon="-1.43688">
        <ele>1184.005446</ele>
        <time>2022-02-23T02:07:09.451Z</time>
      </trkpt>
      <trkpt lat="40.44066" lon="-1.4379">
        <ele>1176.497866</ele>
        <time>2022-02-23T02:07:23.166Z</time>
      </trkpt>
      <trkpt lat="40.4404" lon="-1.43805">
        <ele>1174.209784</ele>
        <time>2022-02-23T02:07:27.326Z</time>
      </trkpt>
      <trkpt lat="40.43986" lon="-1.43788">
        <ele>1169.788426</ele>
        <time>2022-02-23T02:07:35.407Z</time>
      </trkpt>
      <trkpt lat="40.43943" lon="-1.43754">
        <ele>1165.766982</ele>
        <time>2022-02-23T02:07:42.940Z</time>
      </trkpt>
      <trkpt lat="40.43887" lon="-1.43722">
        <ele>1161.742603</ele>
        <time>2022-02-23T02:07:52.331Z</time>
      </trkpt>
      <trkpt lat="40.43841" lon="-1.43683">
        <ele>1158.110191</ele>
        <time>2022-02-23T02:08:00.899Z</time>
      </trkpt>
      <trkpt lat="40.43799" lon="-1.43661">
        <ele>1155.184363</ele>
        <time>2022-02-23T02:08:07.649Z</time>
      </trkpt>
      <trkpt lat="40.43749" lon="-1.43665">
        <ele>1151.568271</ele>
        <time>2022-02-23T02:08:14.996Z</time>
      </trkpt>
      <trkpt lat="40.43691" lon="-1.43629">
        <ele>1146.688295</ele>
        <time>2022-02-23T02:08:24.428Z</time>
      </trkpt>
      <trkpt lat="40.43615" lon="-1.436">
        <ele>1140.656075</ele>
        <time>2022-02-23T02:08:36.217Z</time>
      </trkpt>
      <trkpt lat="40.43524" lon="-1.43604">
        <ele>1133.838018</ele>
        <time>2022-02-23T02:08:49.733Z</time>
      </trkpt>
      <trkpt lat="40.43483" lon="-1.43558">
        <ele>1129.840432</ele>
        <time>2022-02-23T02:08:57.730Z</time>
      </trkpt>
      <trkpt lat="40.43275" lon="-1.43427">
        <ele>1113.266151</ele>
        <time>2022-02-23T02:09:32.049Z</time>
      </trkpt>
      <trkpt lat="40.43267" lon="-1.43447">
        <ele>1112.386703</ele>
        <time>2022-02-23T02:09:34.784Z</time>
      </trkpt>
      <trkpt lat="40.43197" lon="-1.43395">
        <ele>1108.434558</ele>
        <time>2022-02-23T02:09:47.940Z</time>
      </trkpt>
      <trkpt lat="40.4318" lon="-1.43401">
        <ele>1107.558791</ele>
        <time>2022-02-23T02:09:50.955Z</time>
      </trkpt>
      <trkpt lat="40.43173" lon="-1.43421">
        <ele>1106.756121</ele>
        <time>2022-02-23T02:09:53.811Z</time>
      </trkpt>
      <trkpt lat="40.43162" lon="-1.43456">
        <ele>1105.338234</ele>
        <time>2022-02-23T02:09:58.959Z</time>
      </trkpt>
      <trkpt lat="40.43096" lon="-1.43555">
        <ele>1104.317032</ele>
        <time>2022-02-23T02:10:19.553Z</time>
      </trkpt>
      <trkpt lat="40.43062" lon="-1.43588">
        <ele>1104.025716</ele>
        <time>2022-02-23T02:10:28.935Z</time>
      </trkpt>
      <trkpt lat="40.42963" lon="-1.43632">
        <ele>1104.331618</ele>
        <time>2022-02-23T02:10:57.320Z</time>
      </trkpt>
      <trkpt lat="40.42949" lon="-1.43629">
        <ele>1104.47778</ele>
        <time>2022-02-23T02:11:01.444Z</time>
      </trkpt>
      <trkpt lat="40.42941" lon="-1.43607">
        <ele>1104.675147</ele>
        <time>2022-02-23T02:11:07.000Z</time>
      </trkpt>
      <trkpt lat="40.4283" lon="-1.4365">
        <ele>1105.919761</ele>
        <time>2022-02-23T02:11:39.894Z</time>
      </trkpt>
      <trkpt lat="40.4277" lon="-1.43661">
        <ele>1106.616101</ele>
        <time>2022-02-23T02:11:57.455Z</time>
      </trkpt>
      <trkpt lat="40.42746" lon="-1.43672">
        <ele>1106.912598</ele>
        <time>2022-02-23T02:12:04.757Z</time>
      </trkpt>
      <trkpt lat="40.42651" lon="-1.43773">
        <ele>1108.111425</ele>
        <time>2022-02-23T02:12:37.600Z</time>
      </trkpt>
      <trkpt lat="40.42606" lon="-1.43794">
        <ele>1108.472807</ele>
        <time>2022-02-23T02:12:49.595Z</time>
      </trkpt>
      <trkpt lat="40.42448" lon="-1.43856">
        <ele>1109.440172</ele>
        <time>2022-02-23T02:13:32.064Z</time>
      </trkpt>
      <trkpt lat="40.42335" lon="-1.43886">
        <ele>1109.731795</ele>
        <time>2022-02-23T02:13:59.559Z</time>
      </trkpt>
      <trkpt lat="40.42275" lon="-1.43926">
        <ele>1109.450752</ele>
        <time>2022-02-23T02:14:13.470Z</time>
      </trkpt>
      <trkpt lat="40.42224" lon="-1.43921">
        <ele>1109.236417</ele>
        <time>2022-02-23T02:14:23.986Z</time>
      </trkpt>
      <trkpt lat="40.42208" lon="-1.43919">
        <ele>1109.172899</ele>
        <time>2022-02-23T02:14:27.092Z</time>
      </trkpt>
      <trkpt lat="40.42191" lon="-1.43917">
        <ele>1109.10053</ele>
        <time>2022-02-23T02:14:30.750Z</time>
      </trkpt>
      <trkpt lat="40.4218" lon="-1.43917">
        <ele>1109.090026</ele>
        <time>2022-02-23T02:14:33.182Z</time>
      </trkpt>
      <trkpt lat="40.42139" lon="-1.43925">
        <ele>1109.10972</ele>
        <time>2022-02-23T02:14:42.007Z</time>
      </trkpt>
      <trkpt lat="40.42129" lon="-1.43929">
        <ele>1109.114506</ele>
        <time>2022-02-23T02:14:44.125Z</time>
      </trkpt>
      <trkpt lat="40.42068" lon="-1.43967">
        <ele>1109.14662</ele>
        <time>2022-02-23T02:14:58.942Z</time>
      </trkpt>
      <trkpt lat="40.42054" lon="-1.43976">
        <ele>1109.153996</ele>
        <time>2022-02-23T02:15:02.670Z</time>
      </trkpt>
      <trkpt lat="40.4204" lon="-1.43984">
        <ele>1109.161399</ele>
        <time>2022-02-23T02:15:06.399Z</time>
      </trkpt>
      <trkpt lat="40.42027" lon="-1.43992">
        <ele>1109.168176</ele>
        <time>2022-02-23T02:15:09.899Z</time>
      </trkpt>
      <trkpt lat="40.41991" lon="-1.44014">
        <ele>1109.554176</ele>
        <time>2022-02-23T02:15:20.798Z</time>
      </trkpt>
      <trkpt lat="40.41877" lon="-1.44084">
        <ele>1111.038439</ele>
        <time>2022-02-23T02:15:57.502Z</time>
      </trkpt>
      <trkpt lat="40.41835" lon="-1.44098">
        <ele>1111.493883</ele>
        <time>2022-02-23T02:16:09.569Z</time>
      </trkpt>
      <trkpt lat="40.41706" lon="-1.44104">
        <ele>1112.676028</ele>
        <time>2022-02-23T02:16:44.656Z</time>
      </trkpt>
      <trkpt lat="40.41546" lon="-1.44104">
        <ele>1113.514054</ele>
        <time>2022-02-23T02:17:23.482Z</time>
      </trkpt>
      <trkpt lat="40.41394" lon="-1.44073">
        <ele>1114.92056</ele>
        <time>2022-02-23T02:18:01.301Z</time>
      </trkpt>
      <trkpt lat="40.4139" lon="-1.44063">
        <ele>1115.017474</ele>
        <time>2022-02-23T02:18:03.649Z</time>
      </trkpt>
      <trkpt lat="40.41384" lon="-1.44062">
        <ele>1115.085843</ele>
        <time>2022-02-23T02:18:05.488Z</time>
      </trkpt>
      <trkpt lat="40.41302" lon="-1.44044">
        <ele>1116.524525</ele>
        <time>2022-02-23T02:18:32.945Z</time>
      </trkpt>
      <trkpt lat="40.41177" lon="-1.44019">
        <ele>1120.773088</ele>
        <time>2022-02-23T02:19:23.269Z</time>
      </trkpt>
      <trkpt lat="40.41099" lon="-1.43996">
        <ele>1123.042566</ele>
        <time>2022-02-23T02:20:01.522Z</time>
      </trkpt>
      <trkpt lat="40.41047" lon="-1.43991">
        <ele>1124.333987</ele>
        <time>2022-02-23T02:20:18.336Z</time>
      </trkpt>
      <trkpt lat="40.41009" lon="-1.4396">
        <ele>1125.446743</ele>
        <time>2022-02-23T02:20:29.053Z</time>
      </trkpt>
      <trkpt lat="40.41005" lon="-1.43966">
        <ele>1125.612968</ele>
        <time>2022-02-23T02:20:31.757Z</time>
      </trkpt>
      <trkpt lat="40.40999" lon="-1.43967">
        <ele>1125.767778</ele>
        <time>2022-02-23T02:20:33.070Z</time>
      </trkpt>
      <trkpt lat="40.40966" lon="-1.43932">
        <ele>1126.916171</ele>
        <time>2022-02-23T02:20:47.170Z</time>
      </trkpt>
      <trkpt lat="40.4095" lon="-1.43899">
        <ele>1127.792872</ele>
        <time>2022-02-23T02:21:00.398Z</time>
      </trkpt>
      <trkpt lat="40.40937" lon="-1.43896">
        <ele>1128.183695</ele>
        <time>2022-02-23T02:21:06.059Z</time>
      </trkpt>
      <trkpt lat="40.4089" lon="-1.43908">
        <ele>1129.597897</ele>
        <time>2022-02-23T02:21:28.415Z</time>
      </trkpt>
      <trkpt lat="40.40871" lon="-1.43914">
        <ele>1130.175736</ele>
        <time>2022-02-23T02:21:36.086Z</time>
      </trkpt>
      <trkpt lat="40.40865" lon="-1.43907">
        <ele>1130.414318</ele>
        <time>2022-02-23T02:21:39.162Z</time>
      </trkpt>
      <trkpt lat="40.40832" lon="-1.43935">
        <ele>1131.575709</ele>
        <time>2022-02-23T02:21:50.315Z</time>
      </trkpt>
      <trkpt lat="40.40816" lon="-1.43952">
        <ele>1131.934208</ele>
        <time>2022-02-23T02:21:55.065Z</time>
      </trkpt>
      <trkpt lat="40.40813" lon="-1.43956">
        <ele>1132.001654</ele>
        <time>2022-02-23T02:21:56.897Z</time>
      </trkpt>
      <trkpt lat="40.40791" lon="-1.43985">
        <ele>1132.525333</ele>
        <time>2022-02-23T02:22:07.366Z</time>
      </trkpt>
      <trkpt lat="40.40783" lon="-1.43999">
        <ele>1132.752767</ele>
        <time>2022-02-23T02:22:13.614Z</time>
      </trkpt>
      <trkpt lat="40.40762" lon="-1.44116">
        <ele>1134.30066</ele>
        <time>2022-02-23T02:22:43.940Z</time>
      </trkpt>
      <trkpt lat="40.40759" lon="-1.44174">
        <ele>1135.082602</ele>
        <time>2022-02-23T02:22:52.993Z</time>
      </trkpt>
      <trkpt lat="40.40763" lon="-1.4422">
        <ele>1135.735618</ele>
        <time>2022-02-23T02:22:59.826Z</time>
      </trkpt>
      <trkpt lat="40.40771" lon="-1.44272">
        <ele>1136.481296</ele>
        <time>2022-02-23T02:23:09.838Z</time>
      </trkpt>
      <trkpt lat="40.40766" lon="-1.4428">
        <ele>1136.619582</ele>
        <time>2022-02-23T02:23:12.225Z</time>
      </trkpt>
      <trkpt lat="40.40764" lon="-1.44283">
        <ele>1136.668648</ele>
        <time>2022-02-23T02:23:13.290Z</time>
      </trkpt>
      <trkpt lat="40.40747" lon="-1.44314">
        <ele>1137.218204</ele>
        <time>2022-02-23T02:23:25.026Z</time>
      </trkpt>
      <trkpt lat="40.40725" lon="-1.44341">
        <ele>1137.76934</ele>
        <time>2022-02-23T02:23:38.823Z</time>
      </trkpt>
      <trkpt lat="40.40688" lon="-1.44375">
        <ele>1139.956216</ele>
        <time>2022-02-23T02:24:00.435Z</time>
      </trkpt>
      <trkpt lat="40.40676" lon="-1.44382">
        <ele>1140.703215</ele>
        <time>2022-02-23T02:24:08.217Z</time>
      </trkpt>
      <trkpt lat="40.40636" lon="-1.4438">
        <ele>1142.96793</ele>
        <time>2022-02-23T02:24:30.156Z</time>
      </trkpt>
      <trkpt lat="40.40598" lon="-1.44363">
        <ele>1145.258539</ele>
        <time>2022-02-23T02:24:52.755Z</time>
      </trkpt>
      <trkpt lat="40.40516" lon="-1.44324">
        <ele>1149.389603</ele>
        <time>2022-02-23T02:25:36.918Z</time>
      </trkpt>
      <trkpt lat="40.40472" lon="-1.4431">
        <ele>1150.931149</ele>
        <time>2022-02-23T02:25:57.061Z</time>
      </trkpt>
      <trkpt lat="40.40416" lon="-1.44262">
        <ele>1153.181231</ele>
        <time>2022-02-23T02:26:21.458Z</time>
      </trkpt>
      <trkpt lat="40.40409" lon="-1.44262">
        <ele>1153.432379</ele>
        <time>2022-02-23T02:26:23.600Z</time>
      </trkpt>
      <trkpt lat="40.40412" lon="-1.44274">
        <ele>1153.753134</ele>
        <time>2022-02-23T02:26:27.219Z</time>
      </trkpt>
      <trkpt lat="40.4047" lon="-1.44324">
        <ele>1153.996429</ele>
        <time>2022-02-23T02:26:46.717Z</time>
      </trkpt>
      <trkpt lat="40.40515" lon="-1.44355">
        <ele>1153.737057</ele>
        <time>2022-02-23T02:26:58.530Z</time>
      </trkpt>
      <trkpt lat="40.40523" lon="-1.44359">
        <ele>1153.695797</ele>
        <time>2022-02-23T02:27:00.421Z</time>
      </trkpt>
      <trkpt lat="40.40594" lon="-1.44402">
        <ele>1152.718982</ele>
        <time>2022-02-23T02:27:15.920Z</time>
      </trkpt>
      <trkpt lat="40.40607" lon="-1.44407">
        <ele>1152.032427</ele>
        <time>2022-02-23T02:27:18.100Z</time>
      </trkpt>
      <trkpt lat="40.40662" lon="-1.4443">
        <ele>1149.057247</ele>
        <time>2022-02-23T02:27:27.588Z</time>
      </trkpt>
      <trkpt lat="40.40675" lon="-1.44428">
        <ele>1148.37824</ele>
        <time>2022-02-23T02:27:29.711Z</time>
      </trkpt>
    </trkseg>
  </trk>
</gpx>